<?xml version='1.0' encoding='UTF-8'?><gpx version="1.1" creator="JPX - https://github.com/jenetics/jpx" xmlns="http://www.topografix.com/GPX/1/1"><trk><trkseg><trkpt lat="44.80847306797198" lon="10.327185760746994"><ele>60.8</ele><time>2026-03-28T11:52:33.998Z</time></trkpt><trkpt lat="44.80856168769833" lon="10.327236277957798"><ele>60.599999999999994</ele><time>2026-03-28T11:52:35.998Z</time></trkpt><trkpt lat="44.80864593716002" lon="10.32728730474761"><ele>60.4</ele><time>2026-03-28T11:52:37.998Z</time></trkpt><trkpt lat="44.80870355083402" lon="10.327336810777867"><ele>60.2</ele><time>2026-03-28T11:52:40.998Z</time></trkpt><trkpt lat="44.8087800136169" lon="10.327363921111015"><ele>60.0</ele><time>2026-03-28T11:52:42.998Z</time></trkpt><trkpt lat="44.80887921674108" lon="10.327055642086766"><ele>59.6</ele><time>2026-03-28T11:52:46.998Z</time></trkpt><trkpt lat="44.80889538652965" lon="10.326912024966495"><ele>59.2</ele><time>2026-03-28T11:52:48.998Z</time></trkpt><trkpt lat="44.808917668409904" lon="10.32674979598386"><ele>58.8</ele><time>2026-03-28T11:52:50.998Z</time></trkpt><trkpt lat="44.808932088947635" lon="10.3266451850261"><ele>58.4</ele><time>2026-03-28T11:52:51.998Z</time></trkpt><trkpt lat="44.80894849594086" lon="10.326549166479527"><ele>58.0</ele><time>2026-03-28T11:52:52.998Z</time></trkpt><trkpt lat="44.808976100900466" lon="10.326420704189676"><ele>57.4</ele><time>2026-03-28T11:52:54.998Z</time></trkpt><trkpt lat="44.809024388843575" lon="10.326289066283586"><ele>56.8</ele><time>2026-03-28T11:52:56.998Z</time></trkpt><trkpt lat="44.80904674714867" lon="10.326115068022295"><ele>56.2</ele><time>2026-03-28T11:52:58.998Z</time></trkpt><trkpt lat="44.80904381543532" lon="10.32599779007524"><ele>55.6</ele><time>2026-03-28T11:52:59.998Z</time></trkpt><trkpt lat="44.80904130682894" lon="10.325856396822273"><ele>55.0</ele><time>2026-03-28T11:53:00.998Z</time></trkpt><trkpt lat="44.80905520024296" lon="10.325701706577766"><ele>55.5</ele><time>2026-03-28T11:53:01.998Z</time></trkpt><trkpt lat="44.80907826823702" lon="10.325550101737878"><ele>56.0</ele><time>2026-03-28T11:53:02.998Z</time></trkpt><trkpt lat="44.80910523957814" lon="10.32538692916576"><ele>56.5</ele><time>2026-03-28T11:53:03.998Z</time></trkpt><trkpt lat="44.80912873734587" lon="10.32521859829314"><ele>57.0</ele><time>2026-03-28T11:53:04.997Z</time></trkpt><trkpt lat="44.80914696644349" lon="10.325075497646429"><ele>57.0</ele><time>2026-03-28T11:53:05.997Z</time></trkpt><trkpt lat="44.80916265220171" lon="10.3249558290106"><ele>57.0</ele><time>2026-03-28T11:53:06.997Z</time></trkpt><trkpt lat="44.809175774859355" lon="10.324843146544849"><ele>57.0</ele><time>2026-03-28T11:53:07.997Z</time></trkpt><trkpt lat="44.809188773955974" lon="10.324735052688295"><ele>57.0</ele><time>2026-03-28T11:53:08.997Z</time></trkpt><trkpt lat="44.8092042093283" lon="10.324629689251335"><ele>57.0</ele><time>2026-03-28T11:53:09.997Z</time></trkpt><trkpt lat="44.80922256240152" lon="10.324540043459013"><ele>57.0</ele><time>2026-03-28T11:53:10.997Z</time></trkpt><trkpt lat="44.80925772717388" lon="10.32439900829808"><ele>57.6</ele><time>2026-03-28T11:53:12.997Z</time></trkpt><trkpt lat="44.80922251024293" lon="10.324283294215698"><ele>58.2</ele><time>2026-03-28T11:53:14.997Z</time></trkpt><trkpt lat="44.809140212210465" lon="10.324278635150147"><ele>58.8</ele><time>2026-03-28T11:53:16.997Z</time></trkpt><trkpt lat="44.80905814752608" lon="10.324339666033847"><ele>59.4</ele><time>2026-03-28T11:53:18.997Z</time></trkpt><trkpt lat="44.80896850072397" lon="10.324382498169598"><ele>60.0</ele><time>2026-03-28T11:53:20.997Z</time></trkpt><trkpt lat="44.80890764269081" lon="10.324496987715573"><ele>60.0</ele><time>2026-03-28T11:53:22.997Z</time></trkpt><trkpt lat="44.808856511992005" lon="10.324580493678061"><ele>60.0</ele><time>2026-03-28T11:53:23.997Z</time></trkpt><trkpt lat="44.80879929132239" lon="10.324643856010969"><ele>60.0</ele><time>2026-03-28T11:53:24.997Z</time></trkpt><trkpt lat="44.808731396188584" lon="10.32467153584985"><ele>60.0</ele><time>2026-03-28T11:53:25.997Z</time></trkpt><trkpt lat="44.80864491849963" lon="10.324626571721906"><ele>60.0</ele><time>2026-03-28T11:53:26.997Z</time></trkpt><trkpt lat="44.80854728963376" lon="10.324605933959145"><ele>60.0</ele><time>2026-03-28T11:53:27.997Z</time></trkpt><trkpt lat="44.80845310989385" lon="10.32456841387706"><ele>59.666666666666664</ele><time>2026-03-28T11:53:28.997Z</time></trkpt><trkpt lat="44.80836595475189" lon="10.324537193973624"><ele>59.33333333333333</ele><time>2026-03-28T11:53:29.997Z</time></trkpt><trkpt lat="44.808286286296806" lon="10.324516129062781"><ele>59.0</ele><time>2026-03-28T11:53:30.997Z</time></trkpt><trkpt lat="44.80821492451469" lon="10.324502128743655"><ele>58.666666666666664</ele><time>2026-03-28T11:53:32Z</time></trkpt><trkpt lat="44.80814940616652" lon="10.32448893339818"><ele>58.33333333333333</ele><time>2026-03-28T11:53:33Z</time></trkpt><trkpt lat="44.808068124155724" lon="10.324468923381682"><ele>58.0</ele><time>2026-03-28T11:53:34Z</time></trkpt><trkpt lat="44.80797503554279" lon="10.324450105961898"><ele>58.0</ele><time>2026-03-28T11:53:35Z</time></trkpt><trkpt lat="44.80787641282211" lon="10.324430965736253"><ele>58.0</ele><time>2026-03-28T11:53:36Z</time></trkpt><trkpt lat="44.807774783679655" lon="10.324408098915287"><ele>58.0</ele><time>2026-03-28T11:53:37Z</time></trkpt><trkpt lat="44.80767160759382" lon="10.324377573174251"><ele>58.0</ele><time>2026-03-28T11:53:38Z</time></trkpt><trkpt lat="44.807567244361245" lon="10.324338690044497"><ele>58.0</ele><time>2026-03-28T11:53:39Z</time></trkpt><trkpt lat="44.80746615844405" lon="10.324302557823566"><ele>57.666666666666664</ele><time>2026-03-28T11:53:40Z</time></trkpt><trkpt lat="44.80737958668736" lon="10.324279660416114"><ele>57.33333333333333</ele><time>2026-03-28T11:53:41Z</time></trkpt><trkpt lat="44.807301392389334" lon="10.324262659464496"><ele>57.0</ele><time>2026-03-28T11:53:42Z</time></trkpt><trkpt lat="44.80723226021461" lon="10.324248609430153"><ele>56.66666666666667</ele><time>2026-03-28T11:53:42.999Z</time></trkpt><trkpt lat="44.80715871450309" lon="10.324229320454794"><ele>56.333333333333336</ele><time>2026-03-28T11:53:43.999Z</time></trkpt><trkpt lat="44.807075124402836" lon="10.324199429781554"><ele>56.0</ele><time>2026-03-28T11:53:44.999Z</time></trkpt><trkpt lat="44.80697871397171" lon="10.324171776710049"><ele>56.0</ele><time>2026-03-28T11:53:45.999Z</time></trkpt><trkpt lat="44.80687702217225" lon="10.324140744977916"><ele>56.0</ele><time>2026-03-28T11:53:46.999Z</time></trkpt><trkpt lat="44.80676656366331" lon="10.324106148922944"><ele>56.0</ele><time>2026-03-28T11:53:47.999Z</time></trkpt><trkpt lat="44.806648828203734" lon="10.324070158740343"><ele>56.0</ele><time>2026-03-28T11:53:48.999Z</time></trkpt><trkpt lat="44.806539194248636" lon="10.324033341794115"><ele>56.199999999999996</ele><time>2026-03-28T11:53:49.999Z</time></trkpt><trkpt lat="44.80643853224531" lon="10.323998962491434"><ele>56.39999999999999</ele><time>2026-03-28T11:53:50.999Z</time></trkpt><trkpt lat="44.80632258594926" lon="10.323964547053759"><ele>56.6</ele><time>2026-03-28T11:53:51.999Z</time></trkpt><trkpt lat="44.80621702129441" lon="10.323930215512584"><ele>56.8</ele><time>2026-03-28T11:53:52.999Z</time></trkpt><trkpt lat="44.80612491746504" lon="10.323905365707654"><ele>57.0</ele><time>2026-03-28T11:53:53.999Z</time></trkpt><trkpt lat="44.80604537382076" lon="10.323891470087144"><ele>57.333333333333336</ele><time>2026-03-28T11:53:54.999Z</time></trkpt><trkpt lat="44.80597676071166" lon="10.323907508125657"><ele>57.66666666666667</ele><time>2026-03-28T11:53:55.999Z</time></trkpt><trkpt lat="44.80591543749769" lon="10.323938603461475"><ele>58.0</ele><time>2026-03-28T11:53:56.999Z</time></trkpt><trkpt lat="44.80580640399048" lon="10.324007957547849"><ele>58.333333333333336</ele><time>2026-03-28T11:53:58.999Z</time></trkpt><trkpt lat="44.80570617107706" lon="10.323991449536122"><ele>58.66666666666667</ele><time>2026-03-28T11:54:00.999Z</time></trkpt><trkpt lat="44.805642683225514" lon="10.32401779147595"><ele>59.0</ele><time>2026-03-28T11:54:02.999Z</time></trkpt><trkpt lat="44.805574009871954" lon="10.32418655409539"><ele>59.0</ele><time>2026-03-28T11:54:04.999Z</time></trkpt><trkpt lat="44.80553372483049" lon="10.324304100109137"><ele>59.00000000000001</ele><time>2026-03-28T11:54:05.999Z</time></trkpt><trkpt lat="44.80548562285365" lon="10.324436754912291"><ele>59.00000000000001</ele><time>2026-03-28T11:54:06.999Z</time></trkpt><trkpt lat="44.805439201719906" lon="10.324548395447003"><ele>59.0</ele><time>2026-03-28T11:54:07.999Z</time></trkpt><trkpt lat="44.80539799331581" lon="10.32466029394906"><ele>59.0</ele><time>2026-03-28T11:54:08.999Z</time></trkpt><trkpt lat="44.8053634590344" lon="10.324769225713636"><ele>58.833333333333336</ele><time>2026-03-28T11:54:09.999Z</time></trkpt><trkpt lat="44.80532774739828" lon="10.324868111227135"><ele>58.66666666666667</ele><time>2026-03-28T11:54:10.999Z</time></trkpt><trkpt lat="44.80529873617211" lon="10.324950507421017"><ele>58.5</ele><time>2026-03-28T11:54:11.999Z</time></trkpt><trkpt lat="44.80524768751479" lon="10.325078099290991"><ele>58.33333333333333</ele><time>2026-03-28T11:54:13.999Z</time></trkpt><trkpt lat="44.80516523202434" lon="10.3251289215744"><ele>58.166666666666664</ele><time>2026-03-28T11:54:15.999Z</time></trkpt><trkpt lat="44.805105516848045" lon="10.325177096477884"><ele>58.0</ele><time>2026-03-28T11:54:17.999Z</time></trkpt><trkpt lat="44.80503896613582" lon="10.325083067868789"><ele>57.99999999999999</ele><time>2026-03-28T11:54:18.999Z</time></trkpt><trkpt lat="44.80493414802388" lon="10.3250873293692"><ele>58.0</ele><time>2026-03-28T11:54:22.999Z</time></trkpt><trkpt lat="44.804866384413614" lon="10.325021101469153"><ele>58.0</ele><time>2026-03-28T11:54:23.999Z</time></trkpt><trkpt lat="44.804793700672434" lon="10.324992083214962"><ele>58.0</ele><time>2026-03-28T11:54:24.999Z</time></trkpt><trkpt lat="44.804708964856374" lon="10.324966355070227"><ele>57.99999999999999</ele><time>2026-03-28T11:54:25.999Z</time></trkpt><trkpt lat="44.804640946720205" lon="10.324936897082681"><ele>58.0</ele><time>2026-03-28T11:54:26.999Z</time></trkpt><trkpt lat="44.804564866841154" lon="10.3249237986319"><ele>58.0</ele><time>2026-03-28T11:54:27.999Z</time></trkpt><trkpt lat="44.80448062910061" lon="10.324900692753888"><ele>58.0</ele><time>2026-03-28T11:54:28.999Z</time></trkpt><trkpt lat="44.804379788196115" lon="10.32487193377083"><ele>58.0</ele><time>2026-03-28T11:54:29.999Z</time></trkpt><trkpt lat="44.804243300706986" lon="10.324829460593428"><ele>58.0</ele><time>2026-03-28T11:54:30.999Z</time></trkpt><trkpt lat="44.80413516946515" lon="10.324777505237163"><ele>58.0</ele><time>2026-03-28T11:54:31.998Z</time></trkpt><trkpt lat="44.80400967701753" lon="10.324751930167185"><ele>58.0</ele><time>2026-03-28T11:54:32.998Z</time></trkpt><trkpt lat="44.80387949872329" lon="10.324718400058794"><ele>58.0</ele><time>2026-03-28T11:54:33.998Z</time></trkpt><trkpt lat="44.80375007156842" lon="10.324681627881315"><ele>58.0</ele><time>2026-03-28T11:54:34.998Z</time></trkpt><trkpt lat="44.80363391720492" lon="10.324634924544315"><ele>58.0</ele><time>2026-03-28T11:54:35.998Z</time></trkpt><trkpt lat="44.80352246349779" lon="10.32459515873471"><ele>58.0</ele><time>2026-03-28T11:54:36.998Z</time></trkpt><trkpt lat="44.80340679168846" lon="10.324559264970212"><ele>58.0</ele><time>2026-03-28T11:54:37.998Z</time></trkpt><trkpt lat="44.803296701321784" lon="10.324523471217493"><ele>58.0</ele><time>2026-03-28T11:54:38.998Z</time></trkpt><trkpt lat="44.80318020916033" lon="10.324484473709942"><ele>58.0</ele><time>2026-03-28T11:54:39.998Z</time></trkpt><trkpt lat="44.80307202418075" lon="10.324446683442641"><ele>57.99999999999999</ele><time>2026-03-28T11:54:40.998Z</time></trkpt><trkpt lat="44.80298036544229" lon="10.324401097476803"><ele>58.0</ele><time>2026-03-28T11:54:41.998Z</time></trkpt><trkpt lat="44.80289658835321" lon="10.32439270363027"><ele>58.0</ele><time>2026-03-28T11:54:42.998Z</time></trkpt><trkpt lat="44.802825012616886" lon="10.324352300451688"><ele>58.0</ele><time>2026-03-28T11:54:43.998Z</time></trkpt><trkpt lat="44.80276104277552" lon="10.324332812276012"><ele>57.99999999999999</ele><time>2026-03-28T11:54:44.998Z</time></trkpt><trkpt lat="44.80264915022642" lon="10.324321443901171"><ele>58.0</ele><time>2026-03-28T11:54:46.998Z</time></trkpt><trkpt lat="44.80254467136136" lon="10.32429417312755"><ele>57.99999999999999</ele><time>2026-03-28T11:55:34.997Z</time></trkpt><trkpt lat="44.802479975987616" lon="10.324261005784937"><ele>58.0</ele><time>2026-03-28T11:55:35.997Z</time></trkpt><trkpt lat="44.80237781351768" lon="10.324254163786835"><ele>58.0</ele><time>2026-03-28T11:55:37.999Z</time></trkpt><trkpt lat="44.802314216563396" lon="10.324235190179994"><ele>58.0</ele><time>2026-03-28T11:55:38.999Z</time></trkpt><trkpt lat="44.80224833439294" lon="10.324216318024376"><ele>57.99999999999999</ele><time>2026-03-28T11:55:39.999Z</time></trkpt><trkpt lat="44.80216705237856" lon="10.324199957299474"><ele>58.0</ele><time>2026-03-28T11:55:41Z</time></trkpt><trkpt lat="44.80207258705861" lon="10.324176571777466"><ele>57.99999999999999</ele><time>2026-03-28T11:55:41.999Z</time></trkpt><trkpt lat="44.80198499166431" lon="10.324156091172537"><ele>58.0</ele><time>2026-03-28T11:55:43Z</time></trkpt><trkpt lat="44.80190910197705" lon="10.324113529397712"><ele>58.0</ele><time>2026-03-28T11:55:44Z</time></trkpt><trkpt lat="44.80183220488048" lon="10.324097996936286"><ele>58.0</ele><time>2026-03-28T11:55:45Z</time></trkpt><trkpt lat="44.801752993160854" lon="10.32408418345857"><ele>57.99999999999999</ele><time>2026-03-28T11:55:46Z</time></trkpt><trkpt lat="44.80166986535038" lon="10.324069988328207"><ele>58.0</ele><time>2026-03-28T11:55:47Z</time></trkpt><trkpt lat="44.801572876801536" lon="10.324053429023868"><ele>59.5</ele><time>2026-03-28T11:55:48Z</time></trkpt><trkpt lat="44.801467985196716" lon="10.324035705077737"><ele>61.0</ele><time>2026-03-28T11:55:49Z</time></trkpt><trkpt lat="44.80133832714087" lon="10.324013796244895"><ele>62.5</ele><time>2026-03-28T11:55:50Z</time></trkpt><trkpt lat="44.801189200575244" lon="10.32398919685232"><ele>64.0</ele><time>2026-03-28T11:55:51Z</time></trkpt><trkpt lat="44.8010318242731" lon="10.32396345750857"><ele>64.0</ele><time>2026-03-28T11:55:52Z</time></trkpt><trkpt lat="44.80086815317259" lon="10.32395031458994"><ele>64.0</ele><time>2026-03-28T11:55:53Z</time></trkpt><trkpt lat="44.80072853903008" lon="10.32392776527903"><ele>64.0</ele><time>2026-03-28T11:55:54Z</time></trkpt><trkpt lat="44.800611519646544" lon="10.323904197486334"><ele>64.0</ele><time>2026-03-28T11:55:55Z</time></trkpt><trkpt lat="44.80048928728617" lon="10.32389759950767"><ele>64.0</ele><time>2026-03-28T11:55:55.999Z</time></trkpt><trkpt lat="44.80036701366059" lon="10.323905942910974"><ele>64.0</ele><time>2026-03-28T11:55:56.999Z</time></trkpt><trkpt lat="44.80025438437341" lon="10.323914970865092"><ele>64.0</ele><time>2026-03-28T11:55:57.999Z</time></trkpt><trkpt lat="44.80013885270499" lon="10.323931575976962"><ele>64.0</ele><time>2026-03-28T11:55:58.999Z</time></trkpt><trkpt lat="44.800014692600996" lon="10.323956114898571"><ele>63.25</ele><time>2026-03-28T11:55:59.999Z</time></trkpt><trkpt lat="44.79988681043394" lon="10.323990776475554"><ele>62.5</ele><time>2026-03-28T11:56:00.999Z</time></trkpt><trkpt lat="44.799753014740546" lon="10.32402318309902"><ele>61.75</ele><time>2026-03-28T11:56:01.999Z</time></trkpt><trkpt lat="44.799615874032895" lon="10.324054535399098"><ele>61.0</ele><time>2026-03-28T11:56:02.999Z</time></trkpt><trkpt lat="44.79948101556649" lon="10.324101918181302"><ele>61.0</ele><time>2026-03-28T11:56:03.999Z</time></trkpt><trkpt lat="44.799345253033025" lon="10.324144158445822"><ele>61.0</ele><time>2026-03-28T11:56:04.999Z</time></trkpt><trkpt lat="44.79921501645891" lon="10.32418282204677"><ele>61.0</ele><time>2026-03-28T11:56:05.999Z</time></trkpt><trkpt lat="44.79909139666957" lon="10.324223522345088"><ele>61.0</ele><time>2026-03-28T11:56:06.999Z</time></trkpt><trkpt lat="44.7989830162281" lon="10.324257435182405"><ele>61.166666666666664</ele><time>2026-03-28T11:56:07.999Z</time></trkpt><trkpt lat="44.79888802122606" lon="10.324288261092677"><ele>61.33333333333333</ele><time>2026-03-28T11:56:08.999Z</time></trkpt><trkpt lat="44.7987972751898" lon="10.324319601689018"><ele>61.5</ele><time>2026-03-28T11:56:09.999Z</time></trkpt><trkpt lat="44.798716754624195" lon="10.324343880737246"><ele>61.66666666666667</ele><time>2026-03-28T11:56:10.999Z</time></trkpt><trkpt lat="44.798644383432176" lon="10.324352591161544"><ele>61.833333333333336</ele><time>2026-03-28T11:56:11.999Z</time></trkpt><trkpt lat="44.79856767984844" lon="10.324389828422792"><ele>62.0</ele><time>2026-03-28T11:56:12.999Z</time></trkpt><trkpt lat="44.79847018784086" lon="10.324414435779698"><ele>61.400000000000006</ele><time>2026-03-28T11:56:13.999Z</time></trkpt><trkpt lat="44.79836202908457" lon="10.324434679792132"><ele>60.800000000000004</ele><time>2026-03-28T11:56:14.999Z</time></trkpt><trkpt lat="44.79824926993218" lon="10.32444038042275"><ele>60.2</ele><time>2026-03-28T11:56:15.999Z</time></trkpt><trkpt lat="44.798143882055534" lon="10.32444047846579"><ele>59.6</ele><time>2026-03-28T11:56:16.999Z</time></trkpt><trkpt lat="44.798055761909765" lon="10.324445024552366"><ele>59.0</ele><time>2026-03-28T11:56:17.999Z</time></trkpt><trkpt lat="44.79798470216367" lon="10.324454273796368"><ele>59.0</ele><time>2026-03-28T11:56:18.999Z</time></trkpt><trkpt lat="44.79788789397561" lon="10.324472240122187"><ele>59.00000000000001</ele><time>2026-03-28T11:56:20.999Z</time></trkpt><trkpt lat="44.79778217506307" lon="10.324458536028791"><ele>59.00000000000001</ele><time>2026-03-28T11:56:22.999Z</time></trkpt><trkpt lat="44.797686585182625" lon="10.324477252270585"><ele>59.0</ele><time>2026-03-28T11:56:23.999Z</time></trkpt><trkpt lat="44.797574126695395" lon="10.324489733854517"><ele>59.0</ele><time>2026-03-28T11:56:24.999Z</time></trkpt><trkpt lat="44.79746657708758" lon="10.324490804893328"><ele>59.00000000000001</ele><time>2026-03-28T11:56:25.999Z</time></trkpt><trkpt lat="44.79737350431206" lon="10.324496924576406"><ele>59.0</ele><time>2026-03-28T11:56:26.999Z</time></trkpt><trkpt lat="44.797296772180225" lon="10.324496375976521"><ele>59.0</ele><time>2026-03-28T11:56:27.999Z</time></trkpt><trkpt lat="44.7972293275707" lon="10.324497440294788"><ele>59.0</ele><time>2026-03-28T11:56:28.999Z</time></trkpt><trkpt lat="44.79714916495641" lon="10.324504421342"><ele>59.00000000000001</ele><time>2026-03-28T11:56:29.999Z</time></trkpt><trkpt lat="44.797060143775894" lon="10.32450858689496"><ele>59.0</ele><time>2026-03-28T11:56:30.999Z</time></trkpt><trkpt lat="44.79698217085331" lon="10.324503554374251"><ele>59.00000000000001</ele><time>2026-03-28T11:56:31.999Z</time></trkpt><trkpt lat="44.796913596994344" lon="10.324507895429198"><ele>59.0</ele><time>2026-03-28T11:56:32.999Z</time></trkpt><trkpt lat="44.7968403309136" lon="10.32451898673016"><ele>59.0</ele><time>2026-03-28T11:56:33.999Z</time></trkpt><trkpt lat="44.79676273494058" lon="10.32452535033924"><ele>59.0</ele><time>2026-03-28T11:56:34.999Z</time></trkpt><trkpt lat="44.796695445713425" lon="10.324523652309466"><ele>59.00000000000001</ele><time>2026-03-28T11:56:35.999Z</time></trkpt><trkpt lat="44.79658706716336" lon="10.324527911295453"><ele>59.0</ele><time>2026-03-28T11:56:37.999Z</time></trkpt><trkpt lat="44.79651230985635" lon="10.324522177661555"><ele>59.6</ele><time>2026-03-28T11:56:39.999Z</time></trkpt><trkpt lat="44.79643594464148" lon="10.324519860524774"><ele>60.2</ele><time>2026-03-28T11:56:41.998Z</time></trkpt><trkpt lat="44.796341278849596" lon="10.324526414305582"><ele>60.800000000000004</ele><time>2026-03-28T11:56:43.998Z</time></trkpt><trkpt lat="44.79622860892643" lon="10.324530893267374"><ele>61.400000000000006</ele><time>2026-03-28T11:56:45.998Z</time></trkpt><trkpt lat="44.79610349620657" lon="10.32453471091956"><ele>62.0</ele><time>2026-03-28T11:56:47.998Z</time></trkpt><trkpt lat="44.79603675330098" lon="10.324531365784647"><ele>61.2</ele><time>2026-03-28T11:56:48.998Z</time></trkpt><trkpt lat="44.7959364938333" lon="10.32453089725783"><ele>60.400000000000006</ele><time>2026-03-28T11:56:50.998Z</time></trkpt><trkpt lat="44.79587241981707" lon="10.324558638464922"><ele>59.599999999999994</ele><time>2026-03-28T11:56:52.998Z</time></trkpt><trkpt lat="44.79577599846461" lon="10.324549259896784"><ele>58.8</ele><time>2026-03-28T11:56:54.998Z</time></trkpt><trkpt lat="44.7956460502737" lon="10.324555442606915"><ele>58.0</ele><time>2026-03-28T11:56:56.998Z</time></trkpt><trkpt lat="44.7955698152508" lon="10.324581905168094"><ele>57.99999999999999</ele><time>2026-03-28T11:56:57.998Z</time></trkpt><trkpt lat="44.79549165365286" lon="10.324585728881862"><ele>58.0</ele><time>2026-03-28T11:56:58.998Z</time></trkpt><trkpt lat="44.79541672928524" lon="10.32458470444341"><ele>58.0</ele><time>2026-03-28T11:56:59.998Z</time></trkpt><trkpt lat="44.79534025229414" lon="10.324588699650704"><ele>58.0</ele><time>2026-03-28T11:57:00.998Z</time></trkpt><trkpt lat="44.79526555701043" lon="10.324589910254128"><ele>57.99999999999999</ele><time>2026-03-28T11:57:01.998Z</time></trkpt><trkpt lat="44.79519783378954" lon="10.324593412355238"><ele>58.0</ele><time>2026-03-28T11:57:02.998Z</time></trkpt><trkpt lat="44.795099383649045" lon="10.324581452065479"><ele>58.49999999999999</ele><time>2026-03-28T11:57:04.998Z</time></trkpt><trkpt lat="44.7950210196487" lon="10.324585296270588"><ele>59.0</ele><time>2026-03-28T11:57:06.998Z</time></trkpt><trkpt lat="44.794955378651075" lon="10.324595990573242"><ele>59.5</ele><time>2026-03-28T11:57:45Z</time></trkpt><trkpt lat="44.79489030727266" lon="10.324578264448272"><ele>60.0</ele><time>2026-03-28T11:57:46Z</time></trkpt><trkpt lat="44.79481566278288" lon="10.324576493485676"><ele>60.49999999999999</ele><time>2026-03-28T11:57:48Z</time></trkpt><trkpt lat="44.79479672588484" lon="10.324437692381885"><ele>61.0</ele><time>2026-03-28T11:57:49Z</time></trkpt><trkpt lat="44.79478607831235" lon="10.324327328661218"><ele>61.0</ele><time>2026-03-28T11:57:50Z</time></trkpt><trkpt lat="44.79477652375893" lon="10.324193735038197"><ele>60.99999999999999</ele><time>2026-03-28T11:57:51Z</time></trkpt><trkpt lat="44.79475342384749" lon="10.324059852287423"><ele>60.99999999999999</ele><time>2026-03-28T11:57:52Z</time></trkpt><trkpt lat="44.79473765418809" lon="10.323911135688272"><ele>61.0</ele><time>2026-03-28T11:57:53Z</time></trkpt><trkpt lat="44.794722727313015" lon="10.323761670245604"><ele>61.0</ele><time>2026-03-28T11:57:54Z</time></trkpt><trkpt lat="44.79470489063927" lon="10.323607467447909"><ele>60.8</ele><time>2026-03-28T11:57:55Z</time></trkpt><trkpt lat="44.79468627075981" lon="10.323455480672754"><ele>60.599999999999994</ele><time>2026-03-28T11:57:56Z</time></trkpt><trkpt lat="44.79466758189599" lon="10.323312486734437"><ele>60.4</ele><time>2026-03-28T11:57:57Z</time></trkpt><trkpt lat="44.7946507303654" lon="10.323178543059637"><ele>60.2</ele><time>2026-03-28T11:57:58Z</time></trkpt><trkpt lat="44.794634940162474" lon="10.323055739982575"><ele>60.0</ele><time>2026-03-28T11:57:59Z</time></trkpt><trkpt lat="44.79462452892633" lon="10.322950198574787"><ele>60.0</ele><time>2026-03-28T11:58:00Z</time></trkpt><trkpt lat="44.794608346525216" lon="10.322806356404513"><ele>60.0</ele><time>2026-03-28T11:58:02Z</time></trkpt><trkpt lat="44.79459575203979" lon="10.322710198687595"><ele>60.0</ele><time>2026-03-28T11:58:04.999Z</time></trkpt><trkpt lat="44.79457903448607" lon="10.322616840434993"><ele>60.0</ele><time>2026-03-28T11:58:08.999Z</time></trkpt><trkpt lat="44.79457774571508" lon="10.322466834322185"><ele>60.0</ele><time>2026-03-28T11:58:11.999Z</time></trkpt><trkpt lat="44.79456729387523" lon="10.322372505626191"><ele>60.0</ele><time>2026-03-28T11:58:13.999Z</time></trkpt><trkpt lat="44.79455775511654" lon="10.322280344325161"><ele>61.166666666666664</ele><time>2026-03-28T11:58:16.999Z</time></trkpt><trkpt lat="44.794547487378175" lon="10.322177666691175"><ele>62.33333333333333</ele><time>2026-03-28T11:58:19.999Z</time></trkpt><trkpt lat="44.79453766785518" lon="10.32207947050331"><ele>63.5</ele><time>2026-03-28T11:58:22.999Z</time></trkpt><trkpt lat="44.79452425267444" lon="10.321989750818082"><ele>64.66666666666666</ele><time>2026-03-28T11:58:29.999Z</time></trkpt><trkpt lat="44.79454023047652" lon="10.321812983038084"><ele>65.83333333333333</ele><time>2026-03-28T11:58:31.999Z</time></trkpt><trkpt lat="44.794590206309756" lon="10.321697214950772"><ele>67.0</ele><time>2026-03-28T11:58:33.999Z</time></trkpt><trkpt lat="44.79462902038206" lon="10.321561518484035"><ele>67.0</ele><time>2026-03-28T11:58:35.999Z</time></trkpt><trkpt lat="44.79468996356848" lon="10.321438578944818"><ele>67.0</ele><time>2026-03-28T11:58:37.999Z</time></trkpt><trkpt lat="44.79473337541371" lon="10.321326144343178"><ele>67.0</ele><time>2026-03-28T11:58:38.999Z</time></trkpt><trkpt lat="44.79477420369734" lon="10.321194120711604"><ele>67.0</ele><time>2026-03-28T11:58:39.998Z</time></trkpt><trkpt lat="44.79480646079296" lon="10.321089813476483"><ele>67.0</ele><time>2026-03-28T11:58:40.998Z</time></trkpt><trkpt lat="44.79483280754794" lon="10.321003952834122"><ele>67.0</ele><time>2026-03-28T11:58:41.998Z</time></trkpt><trkpt lat="44.79486127932659" lon="10.320909852208706"><ele>66.83333333333333</ele><time>2026-03-28T11:58:42.998Z</time></trkpt><trkpt lat="44.794891327369584" lon="10.320810541919814"><ele>66.66666666666666</ele><time>2026-03-28T11:58:43.998Z</time></trkpt><trkpt lat="44.794921831131234" lon="10.320709725421683"><ele>66.5</ele><time>2026-03-28T11:58:44.998Z</time></trkpt><trkpt lat="44.79495725062459" lon="10.32059098743051"><ele>66.33333333333333</ele><time>2026-03-28T11:58:45.998Z</time></trkpt><trkpt lat="44.794978897100776" lon="10.320461475589463"><ele>66.16666666666667</ele><time>2026-03-28T11:58:46.998Z</time></trkpt><trkpt lat="44.79502784796946" lon="10.320328163986458"><ele>66.0</ele><time>2026-03-28T11:58:47.998Z</time></trkpt><trkpt lat="44.79506497981827" lon="10.320176981171425"><ele>66.0</ele><time>2026-03-28T11:58:48.998Z</time></trkpt><trkpt lat="44.79510956374222" lon="10.320014708510367"><ele>66.0</ele><time>2026-03-28T11:58:49.998Z</time></trkpt><trkpt lat="44.795163031353184" lon="10.319851980565838"><ele>66.0</ele><time>2026-03-28T11:58:50.998Z</time></trkpt><trkpt lat="44.79521101474266" lon="10.31969400948353"><ele>66.0</ele><time>2026-03-28T11:58:51.998Z</time></trkpt><trkpt lat="44.79525481578487" lon="10.31954404132774"><ele>65.39999999999999</ele><time>2026-03-28T11:58:52.998Z</time></trkpt><trkpt lat="44.79529778698753" lon="10.319400829623891"><ele>64.8</ele><time>2026-03-28T11:58:53.998Z</time></trkpt><trkpt lat="44.79533869148942" lon="10.31925452320257"><ele>64.19999999999999</ele><time>2026-03-28T11:58:54.998Z</time></trkpt><trkpt lat="44.79538130744708" lon="10.319110510253445"><ele>63.599999999999994</ele><time>2026-03-28T11:58:55.998Z</time></trkpt><trkpt lat="44.79542446330542" lon="10.318971997393817"><ele>63.0</ele><time>2026-03-28T11:58:56.998Z</time></trkpt><trkpt lat="44.795463892409394" lon="10.318844490476916"><ele>62.833333333333336</ele><time>2026-03-28T11:58:57.998Z</time></trkpt><trkpt lat="44.795496763045094" lon="10.318725620672518"><ele>62.66666666666667</ele><time>2026-03-28T11:58:58.998Z</time></trkpt><trkpt lat="44.79552788314565" lon="10.318605745212798"><ele>62.5</ele><time>2026-03-28T11:58:59.998Z</time></trkpt><trkpt lat="44.79555104477794" lon="10.31848675447131"><ele>62.333333333333336</ele><time>2026-03-28T11:59:00.998Z</time></trkpt><trkpt lat="44.79556991971766" lon="10.318374556553863"><ele>62.16666666666667</ele><time>2026-03-28T11:59:01.998Z</time></trkpt><trkpt lat="44.79558141833207" lon="10.318280652282969"><ele>62.0</ele><time>2026-03-28T11:59:02.998Z</time></trkpt><trkpt lat="44.79559624976108" lon="10.318151787986583"><ele>62.16666666666667</ele><time>2026-03-28T11:59:04.998Z</time></trkpt><trkpt lat="44.795601438835256" lon="10.318042150867791"><ele>62.333333333333336</ele><time>2026-03-28T11:59:06.998Z</time></trkpt><trkpt lat="44.795607833922205" lon="10.317939161127777"><ele>62.5</ele><time>2026-03-28T11:59:09.998Z</time></trkpt><trkpt lat="44.79563063723514" lon="10.317838711641235"><ele>62.66666666666667</ele><time>2026-03-28T11:59:12.998Z</time></trkpt><trkpt lat="44.79568413357022" lon="10.317726816311408"><ele>62.833333333333336</ele><time>2026-03-28T11:59:14.998Z</time></trkpt><trkpt lat="44.79576260258489" lon="10.31759753917818"><ele>63.0</ele><time>2026-03-28T11:59:16.998Z</time></trkpt><trkpt lat="44.79584013739739" lon="10.317484325965268"><ele>63.0</ele><time>2026-03-28T11:59:18.998Z</time></trkpt><trkpt lat="44.795895228916926" lon="10.317363208319604"><ele>63.0</ele><time>2026-03-28T11:59:20.998Z</time></trkpt><trkpt lat="44.79588082338873" lon="10.31724995572078"><ele>63.0</ele><time>2026-03-28T11:59:22.997Z</time></trkpt><trkpt lat="44.79577292269669" lon="10.317164815452085"><ele>63.0</ele><time>2026-03-28T11:59:24.997Z</time></trkpt><trkpt lat="44.795699469526404" lon="10.317131206001573"><ele>63.0</ele><time>2026-03-28T11:59:25.997Z</time></trkpt><trkpt lat="44.79563382505017" lon="10.317080073618818"><ele>63.2</ele><time>2026-03-28T11:59:26.997Z</time></trkpt><trkpt lat="44.79557717958755" lon="10.31699198320738"><ele>63.4</ele><time>2026-03-28T11:59:27.997Z</time></trkpt><trkpt lat="44.79553243243488" lon="10.316872373322253"><ele>63.60000000000001</ele><time>2026-03-28T11:59:28.997Z</time></trkpt><trkpt lat="44.79548416351458" lon="10.316747042340062"><ele>63.800000000000004</ele><time>2026-03-28T11:59:29.997Z</time></trkpt><trkpt lat="44.79543150308301" lon="10.316628375049403"><ele>64.0</ele><time>2026-03-28T11:59:30.997Z</time></trkpt><trkpt lat="44.795374909645425" lon="10.316516735747774"><ele>63.99999999999999</ele><time>2026-03-28T11:59:31.997Z</time></trkpt><trkpt lat="44.795318358461586" lon="10.316400293354349"><ele>64.0</ele><time>2026-03-28T11:59:32.997Z</time></trkpt><trkpt lat="44.79526521588098" lon="10.31628658775376"><ele>64.0</ele><time>2026-03-28T11:59:33.997Z</time></trkpt><trkpt lat="44.79522146389329" lon="10.316186431252044"><ele>64.0</ele><time>2026-03-28T11:59:34.997Z</time></trkpt><trkpt lat="44.79517310940947" lon="10.316099665336296"><ele>63.99999999999999</ele><time>2026-03-28T11:59:35.997Z</time></trkpt><trkpt lat="44.79513436466281" lon="10.31601727063061"><ele>64.0</ele><time>2026-03-28T11:59:36.997Z</time></trkpt><trkpt lat="44.79509105173975" lon="10.315928306293099"><ele>64.0</ele><time>2026-03-28T11:59:37.997Z</time></trkpt><trkpt lat="44.795044218757845" lon="10.315835148908143"><ele>64.0</ele><time>2026-03-28T11:59:38.997Z</time></trkpt><trkpt lat="44.79500774949071" lon="10.315748940450922"><ele>64.0</ele><time>2026-03-28T11:59:39.997Z</time></trkpt><trkpt lat="44.79497758303091" lon="10.315668635688956"><ele>64.0</ele><time>2026-03-28T11:59:40.997Z</time></trkpt><trkpt lat="44.794916151176764" lon="10.315520304954388"><ele>64.0</ele><time>2026-03-28T11:59:42.997Z</time></trkpt><trkpt lat="44.79485036671796" lon="10.315388935248787"><ele>64.42857142857143</ele><time>2026-03-28T11:59:44.997Z</time></trkpt><trkpt lat="44.794805981171535" lon="10.315311934396648"><ele>64.85714285714285</ele><time>2026-03-28T11:59:45.997Z</time></trkpt><trkpt lat="44.79476470291923" lon="10.31522506243599"><ele>65.28571428571428</ele><time>2026-03-28T11:59:46.997Z</time></trkpt><trkpt lat="44.7947306927613" lon="10.315143300189105"><ele>65.71428571428571</ele><time>2026-03-28T11:59:47.997Z</time></trkpt><trkpt lat="44.79469122557735" lon="10.315058361817014"><ele>66.14285714285714</ele><time>2026-03-28T11:59:48.999Z</time></trkpt><trkpt lat="44.794656775262304" lon="10.314973904310373"><ele>66.57142857142857</ele><time>2026-03-28T11:59:49.999Z</time></trkpt><trkpt lat="44.794611434161375" lon="10.314878536709701"><ele>67.0</ele><time>2026-03-28T11:59:51.999Z</time></trkpt><trkpt lat="44.79456821938278" lon="10.314789793356923"><ele>67.0</ele><time>2026-03-28T11:59:53.999Z</time></trkpt><trkpt lat="44.79450784112404" lon="10.314658654730037"><ele>67.0</ele><time>2026-03-28T11:59:56Z</time></trkpt><trkpt lat="44.79445532309574" lon="10.314533119638696"><ele>67.0</ele><time>2026-03-28T11:59:58Z</time></trkpt><trkpt lat="44.79439685984714" lon="10.314420619199668"><ele>67.0</ele><time>2026-03-28T12:00:00Z</time></trkpt><trkpt lat="44.79434105367752" lon="10.314331643752718"><ele>67.0</ele><time>2026-03-28T12:00:03Z</time></trkpt><trkpt lat="44.794280946912714" lon="10.314211437818136"><ele>67.0</ele><time>2026-03-28T12:00:07Z</time></trkpt><trkpt lat="44.794237002106314" lon="10.314107056086849"><ele>67.0</ele><time>2026-03-28T12:00:09Z</time></trkpt><trkpt lat="44.794206435746396" lon="10.314028393144953"><ele>67.0</ele><time>2026-03-28T12:00:12Z</time></trkpt><trkpt lat="44.79416744311321" lon="10.31391233440436"><ele>67.0</ele><time>2026-03-28T12:00:15Z</time></trkpt><trkpt lat="44.794134909373426" lon="10.313821636763302"><ele>67.0</ele><time>2026-03-28T12:00:17Z</time></trkpt><trkpt lat="44.794078233627175" lon="10.313715583910247"><ele>67.0</ele><time>2026-03-28T12:00:19Z</time></trkpt><trkpt lat="44.79402369695427" lon="10.313574458953312"><ele>66.8</ele><time>2026-03-28T12:00:20.999Z</time></trkpt><trkpt lat="44.79395976350898" lon="10.313443891361539"><ele>66.6</ele><time>2026-03-28T12:00:22.999Z</time></trkpt><trkpt lat="44.793906254828684" lon="10.313339233654855"><ele>66.39999999999999</ele><time>2026-03-28T12:00:24.999Z</time></trkpt><trkpt lat="44.7938530036572" lon="10.313255678983564"><ele>66.2</ele><time>2026-03-28T12:00:26.999Z</time></trkpt><trkpt lat="44.79379136239944" lon="10.313157128489841"><ele>66.0</ele><time>2026-03-28T12:00:29.999Z</time></trkpt><trkpt lat="44.79374108314462" lon="10.312996527215805"><ele>65.8</ele><time>2026-03-28T12:00:31.999Z</time></trkpt><trkpt lat="44.79370008851863" lon="10.312906631659482"><ele>65.6</ele><time>2026-03-28T12:00:32.999Z</time></trkpt><trkpt lat="44.79363669082739" lon="10.312754001838838"><ele>65.4</ele><time>2026-03-28T12:00:34.999Z</time></trkpt><trkpt lat="44.79360189817832" lon="10.312664022235095"><ele>65.2</ele><time>2026-03-28T12:00:35.999Z</time></trkpt><trkpt lat="44.79357132533425" lon="10.312581466055788"><ele>65.0</ele><time>2026-03-28T12:00:36.999Z</time></trkpt><trkpt lat="44.79352643957532" lon="10.312408936181486"><ele>65.0</ele><time>2026-03-28T12:00:38.999Z</time></trkpt><trkpt lat="44.79351271801846" lon="10.312319412572474"><ele>65.0</ele><time>2026-03-28T12:00:39.999Z</time></trkpt><trkpt lat="44.79349611194843" lon="10.312212756587176"><ele>65.0</ele><time>2026-03-28T12:00:40.999Z</time></trkpt><trkpt lat="44.79348904378152" lon="10.31212205569334"><ele>65.0</ele><time>2026-03-28T12:00:41.999Z</time></trkpt><trkpt lat="44.793463422400464" lon="10.311977440417612"><ele>65.0</ele><time>2026-03-28T12:00:43.999Z</time></trkpt><trkpt lat="44.79336689599611" lon="10.311898707499969"><ele>65.0</ele><time>2026-03-28T12:00:45.999Z</time></trkpt><trkpt lat="44.79325914380829" lon="10.31185999112433"><ele>64.6</ele><time>2026-03-28T12:00:47.999Z</time></trkpt><trkpt lat="44.79317940834721" lon="10.311775487046667"><ele>64.2</ele><time>2026-03-28T12:00:49.999Z</time></trkpt><trkpt lat="44.79310401973095" lon="10.311653030603699"><ele>63.8</ele><time>2026-03-28T12:00:51.999Z</time></trkpt><trkpt lat="44.79305866397278" lon="10.311535902057521"><ele>63.4</ele><time>2026-03-28T12:00:52.999Z</time></trkpt><trkpt lat="44.79300314858274" lon="10.311408111417524"><ele>63.0</ele><time>2026-03-28T12:00:53.999Z</time></trkpt><trkpt lat="44.79294773772801" lon="10.311283685258681"><ele>63.0</ele><time>2026-03-28T12:00:54.999Z</time></trkpt><trkpt lat="44.792890007469495" lon="10.311153754752956"><ele>63.0</ele><time>2026-03-28T12:00:55.999Z</time></trkpt><trkpt lat="44.79282457835567" lon="10.311020529713932"><ele>63.0</ele><time>2026-03-28T12:00:56.999Z</time></trkpt><trkpt lat="44.792759581764265" lon="10.310872302456652"><ele>63.0</ele><time>2026-03-28T12:00:57.999Z</time></trkpt><trkpt lat="44.79269243375782" lon="10.310720295268077"><ele>63.25</ele><time>2026-03-28T12:00:58.999Z</time></trkpt><trkpt lat="44.792628451110545" lon="10.310572231412056"><ele>63.5</ele><time>2026-03-28T12:00:59.999Z</time></trkpt><trkpt lat="44.79255959646171" lon="10.31043527667623"><ele>63.75</ele><time>2026-03-28T12:01:00.999Z</time></trkpt><trkpt lat="44.79249136928179" lon="10.310304650801246"><ele>64.0</ele><time>2026-03-28T12:01:01.999Z</time></trkpt><trkpt lat="44.79242577814063" lon="10.310166374842343"><ele>64.0</ele><time>2026-03-28T12:01:02.999Z</time></trkpt><trkpt lat="44.79236474431041" lon="10.31003828356032"><ele>64.0</ele><time>2026-03-28T12:01:03.999Z</time></trkpt><trkpt lat="44.792306963758925" lon="10.309915247585522"><ele>64.0</ele><time>2026-03-28T12:01:04.999Z</time></trkpt><trkpt lat="44.792250879425424" lon="10.309800449505598"><ele>64.0</ele><time>2026-03-28T12:01:05.999Z</time></trkpt><trkpt lat="44.79219419782501" lon="10.30968813608525"><ele>64.0</ele><time>2026-03-28T12:01:06.999Z</time></trkpt><trkpt lat="44.792132244976735" lon="10.309572417228301"><ele>64.2</ele><time>2026-03-28T12:01:07.999Z</time></trkpt><trkpt lat="44.79209411502116" lon="10.309457992892932"><ele>64.4</ele><time>2026-03-28T12:01:08.998Z</time></trkpt><trkpt lat="44.79203902159302" lon="10.309373052285753"><ele>64.6</ele><time>2026-03-28T12:01:09.998Z</time></trkpt><trkpt lat="44.79199294448666" lon="10.309265191765569"><ele>64.8</ele><time>2026-03-28T12:01:10.998Z</time></trkpt><trkpt lat="44.79194324884061" lon="10.309133675893653"><ele>65.0</ele><time>2026-03-28T12:01:11.998Z</time></trkpt><trkpt lat="44.791874778086644" lon="10.309010827587015"><ele>65.5</ele><time>2026-03-28T12:01:12.998Z</time></trkpt><trkpt lat="44.79182317429307" lon="10.308861951258653"><ele>66.0</ele><time>2026-03-28T12:01:13.998Z</time></trkpt><trkpt lat="44.79175907571901" lon="10.308711252125446"><ele>66.5</ele><time>2026-03-28T12:01:14.998Z</time></trkpt><trkpt lat="44.7916873689449" lon="10.308569744576403"><ele>67.0</ele><time>2026-03-28T12:01:15.998Z</time></trkpt><trkpt lat="44.79161921134649" lon="10.308425570656798"><ele>67.0</ele><time>2026-03-28T12:01:16.998Z</time></trkpt><trkpt lat="44.79155777298354" lon="10.308291182187109"><ele>67.0</ele><time>2026-03-28T12:01:17.998Z</time></trkpt><trkpt lat="44.791500364032096" lon="10.308158383268697"><ele>67.0</ele><time>2026-03-28T12:01:18.998Z</time></trkpt><trkpt lat="44.79144108548262" lon="10.308035515561059"><ele>67.0</ele><time>2026-03-28T12:01:19.998Z</time></trkpt><trkpt lat="44.79137576618749" lon="10.30789589335301"><ele>67.0</ele><time>2026-03-28T12:01:20.998Z</time></trkpt><trkpt lat="44.79130908861759" lon="10.307751059929496"><ele>66.6</ele><time>2026-03-28T12:01:21.998Z</time></trkpt><trkpt lat="44.79125807485373" lon="10.307629057342846"><ele>66.2</ele><time>2026-03-28T12:01:22.998Z</time></trkpt><trkpt lat="44.791214389431055" lon="10.307517414149212"><ele>65.8</ele><time>2026-03-28T12:01:23.998Z</time></trkpt><trkpt lat="44.79116275353064" lon="10.30741112917067"><ele>65.4</ele><time>2026-03-28T12:01:24.998Z</time></trkpt><trkpt lat="44.791095234548244" lon="10.307280687726081"><ele>65.0</ele><time>2026-03-28T12:01:25.998Z</time></trkpt><trkpt lat="44.79103843637981" lon="10.30714684306422"><ele>65.25</ele><time>2026-03-28T12:01:26.998Z</time></trkpt><trkpt lat="44.790971200865705" lon="10.30701346992633"><ele>65.5</ele><time>2026-03-28T12:01:27.998Z</time></trkpt><trkpt lat="44.79090446776705" lon="10.306868702210243"><ele>65.75</ele><time>2026-03-28T12:01:28.998Z</time></trkpt><trkpt lat="44.79083900136804" lon="10.306723043886954"><ele>66.0</ele><time>2026-03-28T12:01:29.998Z</time></trkpt><trkpt lat="44.79076454077786" lon="10.30657091478484"><ele>66.0</ele><time>2026-03-28T12:01:30.998Z</time></trkpt><trkpt lat="44.790693408956706" lon="10.306421996150839"><ele>66.0</ele><time>2026-03-28T12:01:31.998Z</time></trkpt><trkpt lat="44.79062711284777" lon="10.306279029991405"><ele>66.0</ele><time>2026-03-28T12:01:32.998Z</time></trkpt><trkpt lat="44.79056319820293" lon="10.306142288074291"><ele>66.0</ele><time>2026-03-28T12:01:33.998Z</time></trkpt><trkpt lat="44.79050290649135" lon="10.305993818585783"><ele>66.0</ele><time>2026-03-28T12:01:34.998Z</time></trkpt><trkpt lat="44.79043466234381" lon="10.305862621338347"><ele>66.0</ele><time>2026-03-28T12:01:35.998Z</time></trkpt><trkpt lat="44.79037507553531" lon="10.305740432591902"><ele>66.0</ele><time>2026-03-28T12:01:36.998Z</time></trkpt><trkpt lat="44.79030865960251" lon="10.305608434632992"><ele>66.0</ele><time>2026-03-28T12:01:37.998Z</time></trkpt><trkpt lat="44.790246423243545" lon="10.305473493322298"><ele>66.75</ele><time>2026-03-28T12:01:38.998Z</time></trkpt><trkpt lat="44.79017445468125" lon="10.305320924782635"><ele>67.5</ele><time>2026-03-28T12:01:39.998Z</time></trkpt><trkpt lat="44.79010017795038" lon="10.305169013036126"><ele>68.25</ele><time>2026-03-28T12:01:40.998Z</time></trkpt><trkpt lat="44.79003259451146" lon="10.305019183364946"><ele>69.0</ele><time>2026-03-28T12:01:41.998Z</time></trkpt><trkpt lat="44.789970430859064" lon="10.304879197947168"><ele>69.0</ele><time>2026-03-28T12:01:42.998Z</time></trkpt><trkpt lat="44.78991211145505" lon="10.304758251136107"><ele>69.0</ele><time>2026-03-28T12:01:43.998Z</time></trkpt><trkpt lat="44.78985759190348" lon="10.304639452320277"><ele>69.0</ele><time>2026-03-28T12:01:44.998Z</time></trkpt><trkpt lat="44.789808009426906" lon="10.304527996793153"><ele>69.0</ele><time>2026-03-28T12:01:45.998Z</time></trkpt><trkpt lat="44.78976071232002" lon="10.304415966632437"><ele>69.0</ele><time>2026-03-28T12:01:46.998Z</time></trkpt><trkpt lat="44.78971218272053" lon="10.304305476890468"><ele>68.66666666666667</ele><time>2026-03-28T12:01:47.998Z</time></trkpt><trkpt lat="44.78967190965624" lon="10.304205534775583"><ele>68.33333333333333</ele><time>2026-03-28T12:01:48.998Z</time></trkpt><trkpt lat="44.78964049785793" lon="10.304112490821415"><ele>68.0</ele><time>2026-03-28T12:01:49.998Z</time></trkpt><trkpt lat="44.7896388566248" lon="10.303939996126681"><ele>67.66666666666666</ele><time>2026-03-28T12:01:51.998Z</time></trkpt><trkpt lat="44.789654371958605" lon="10.303849195888496"><ele>67.33333333333333</ele><time>2026-03-28T12:01:52.997Z</time></trkpt><trkpt lat="44.7896316804232" lon="10.303710754036764"><ele>67.0</ele><time>2026-03-28T12:01:55Z</time></trkpt><trkpt lat="44.78951460413376" lon="10.303635641788663"><ele>66.66666666666666</ele><time>2026-03-28T12:01:57Z</time></trkpt><trkpt lat="44.78945573649732" lon="10.303601552002348"><ele>66.33333333333333</ele><time>2026-03-28T12:01:58Z</time></trkpt><trkpt lat="44.78936052673004" lon="10.303528151920217"><ele>66.0</ele><time>2026-03-28T12:02:00Z</time></trkpt><trkpt lat="44.78931314303069" lon="10.303469291411828"><ele>65.66666666666667</ele><time>2026-03-28T12:02:01Z</time></trkpt><trkpt lat="44.789265139940746" lon="10.303390479656727"><ele>65.33333333333334</ele><time>2026-03-28T12:02:02Z</time></trkpt><trkpt lat="44.78922666303832" lon="10.30329991557476"><ele>65.0</ele><time>2026-03-28T12:02:03Z</time></trkpt><trkpt lat="44.78918550470457" lon="10.30322292117197"><ele>65.0</ele><time>2026-03-28T12:02:04Z</time></trkpt><trkpt lat="44.78915076809396" lon="10.30313911075044"><ele>65.0</ele><time>2026-03-28T12:02:05Z</time></trkpt><trkpt lat="44.789105933493595" lon="10.303050791843114"><ele>65.0</ele><time>2026-03-28T12:02:06Z</time></trkpt><trkpt lat="44.78905665012097" lon="10.302955711927416"><ele>65.0</ele><time>2026-03-28T12:02:07Z</time></trkpt><trkpt lat="44.789008649324224" lon="10.302852872422038"><ele>65.0</ele><time>2026-03-28T12:02:08Z</time></trkpt><trkpt lat="44.78895259147773" lon="10.30275203750851"><ele>65.0</ele><time>2026-03-28T12:02:09Z</time></trkpt><trkpt lat="44.788913049845185" lon="10.30262551555094"><ele>65.0</ele><time>2026-03-28T12:02:10Z</time></trkpt><trkpt lat="44.78884772023223" lon="10.302526844188803"><ele>65.0</ele><time>2026-03-28T12:02:11Z</time></trkpt><trkpt lat="44.788798042572914" lon="10.302423359130433"><ele>65.0</ele><time>2026-03-28T12:02:12Z</time></trkpt><trkpt lat="44.788760234297044" lon="10.30233493123067"><ele>65.0</ele><time>2026-03-28T12:02:13Z</time></trkpt><trkpt lat="44.7887212837343" lon="10.302253698514729"><ele>65.0</ele><time>2026-03-28T12:02:14Z</time></trkpt><trkpt lat="44.78868260233981" lon="10.302166112997568"><ele>65.0</ele><time>2026-03-28T12:02:15Z</time></trkpt><trkpt lat="44.78864006658068" lon="10.302073322036987"><ele>65.0</ele><time>2026-03-28T12:02:16Z</time></trkpt><trkpt lat="44.78859202986819" lon="10.301969627497629"><ele>65.0</ele><time>2026-03-28T12:02:17Z</time></trkpt><trkpt lat="44.7885468749441" lon="10.30187136082966"><ele>65.0</ele><time>2026-03-28T12:02:18Z</time></trkpt><trkpt lat="44.78850336058629" lon="10.301785137314774"><ele>65.0</ele><time>2026-03-28T12:02:19Z</time></trkpt><trkpt lat="44.78846225588778" lon="10.301698660922856"><ele>65.0</ele><time>2026-03-28T12:02:20Z</time></trkpt><trkpt lat="44.78843694114694" lon="10.301605187518508"><ele>65.0</ele><time>2026-03-28T12:02:21Z</time></trkpt><trkpt lat="44.788364322947" lon="10.301485428331539"><ele>65.5</ele><time>2026-03-28T12:02:23Z</time></trkpt><trkpt lat="44.78831767036094" lon="10.301357748417479"><ele>66.0</ele><time>2026-03-28T12:02:25Z</time></trkpt><trkpt lat="44.788286195448755" lon="10.301262877545737"><ele>66.5</ele><time>2026-03-28T12:02:27Z</time></trkpt><trkpt lat="44.78825712669715" lon="10.301173127912596"><ele>67.0</ele><time>2026-03-28T12:02:29Z</time></trkpt><trkpt lat="44.78820958503891" lon="10.30104978368053"><ele>67.5</ele><time>2026-03-28T12:02:31Z</time></trkpt><trkpt lat="44.78816108703452" lon="10.300934410665027"><ele>68.0</ele><time>2026-03-28T12:02:33Z</time></trkpt><trkpt lat="44.78810703392096" lon="10.300861090382725"><ele>68.0</ele><time>2026-03-28T12:02:34Z</time></trkpt><trkpt lat="44.78805756263398" lon="10.300767165668427"><ele>68.0</ele><time>2026-03-28T12:02:34.999Z</time></trkpt><trkpt lat="44.7880113853447" lon="10.300667767745004"><ele>68.0</ele><time>2026-03-28T12:02:35.999Z</time></trkpt><trkpt lat="44.78796632013659" lon="10.300579059987035"><ele>68.0</ele><time>2026-03-28T12:02:36.999Z</time></trkpt><trkpt lat="44.787926575268486" lon="10.300498765605388"><ele>68.0</ele><time>2026-03-28T12:02:37.999Z</time></trkpt><trkpt lat="44.787884805390306" lon="10.300423233559194"><ele>68.0</ele><time>2026-03-28T12:02:38.999Z</time></trkpt><trkpt lat="44.78784719003995" lon="10.300343952563042"><ele>68.0</ele><time>2026-03-28T12:02:39.999Z</time></trkpt><trkpt lat="44.78777453595024" lon="10.300191723891261"><ele>68.0</ele><time>2026-03-28T12:02:41.999Z</time></trkpt><trkpt lat="44.78772465737969" lon="10.300103379786414"><ele>68.0</ele><time>2026-03-28T12:02:42.999Z</time></trkpt><trkpt lat="44.78767719818588" lon="10.300003782691412"><ele>68.0</ele><time>2026-03-28T12:02:43.999Z</time></trkpt><trkpt lat="44.78763339198068" lon="10.299916921270833"><ele>68.0</ele><time>2026-03-28T12:02:44.999Z</time></trkpt><trkpt lat="44.78757014448158" lon="10.299777520848592"><ele>67.83333333333334</ele><time>2026-03-28T12:02:46.999Z</time></trkpt><trkpt lat="44.78750463826792" lon="10.29962218204087"><ele>67.66666666666667</ele><time>2026-03-28T12:02:48.999Z</time></trkpt><trkpt lat="44.787465254316096" lon="10.299533906795116"><ele>67.5</ele><time>2026-03-28T12:02:49.999Z</time></trkpt><trkpt lat="44.78742274821937" lon="10.299435244105297"><ele>67.33333333333333</ele><time>2026-03-28T12:02:50.999Z</time></trkpt><trkpt lat="44.78738040991898" lon="10.299341984448935"><ele>67.16666666666666</ele><time>2026-03-28T12:02:51.999Z</time></trkpt><trkpt lat="44.787337023226065" lon="10.299241612817111"><ele>67.0</ele><time>2026-03-28T12:02:52.999Z</time></trkpt><trkpt lat="44.787294134001264" lon="10.299139784680097"><ele>67.0</ele><time>2026-03-28T12:02:53.999Z</time></trkpt><trkpt lat="44.78724157685865" lon="10.299047997932409"><ele>67.0</ele><time>2026-03-28T12:02:54.999Z</time></trkpt><trkpt lat="44.78720246196037" lon="10.298953970814381"><ele>67.0</ele><time>2026-03-28T12:02:55.999Z</time></trkpt><trkpt lat="44.78716709794648" lon="10.298877180863801"><ele>67.0</ele><time>2026-03-28T12:02:56.999Z</time></trkpt><trkpt lat="44.78709940410428" lon="10.298750447175179"><ele>67.0</ele><time>2026-03-28T12:02:58.999Z</time></trkpt><trkpt lat="44.78706197763267" lon="10.298669555550573"><ele>67.0</ele><time>2026-03-28T12:02:59.999Z</time></trkpt><trkpt lat="44.78701763833877" lon="10.29858310840255"><ele>67.0</ele><time>2026-03-28T12:03:00.999Z</time></trkpt><trkpt lat="44.78698086024645" lon="10.298470805767458"><ele>67.0</ele><time>2026-03-28T12:03:01.999Z</time></trkpt><trkpt lat="44.78692511469924" lon="10.29835342493382"><ele>67.0</ele><time>2026-03-28T12:03:02.999Z</time></trkpt><trkpt lat="44.78686356523978" lon="10.298223826827673"><ele>67.0</ele><time>2026-03-28T12:03:03.999Z</time></trkpt><trkpt lat="44.78680634330211" lon="10.298103340669858"><ele>67.0</ele><time>2026-03-28T12:03:04.999Z</time></trkpt><trkpt lat="44.7867553021596" lon="10.297995868448465"><ele>67.0</ele><time>2026-03-28T12:03:05.999Z</time></trkpt><trkpt lat="44.786700719904964" lon="10.297879206203149"><ele>67.0</ele><time>2026-03-28T12:03:06.999Z</time></trkpt><trkpt lat="44.7866416172557" lon="10.29775416315504"><ele>67.0</ele><time>2026-03-28T12:03:07.999Z</time></trkpt><trkpt lat="44.78658021655607" lon="10.297625043655438"><ele>67.0</ele><time>2026-03-28T12:03:08.999Z</time></trkpt><trkpt lat="44.78651804513791" lon="10.29749431335434"><ele>67.0</ele><time>2026-03-28T12:03:09.999Z</time></trkpt><trkpt lat="44.78644465276111" lon="10.297372278859598"><ele>67.0</ele><time>2026-03-28T12:03:10.999Z</time></trkpt><trkpt lat="44.78638525686017" lon="10.29723542027382"><ele>67.0</ele><time>2026-03-28T12:03:11.999Z</time></trkpt><trkpt lat="44.78632126037756" lon="10.297092235578225"><ele>67.0</ele><time>2026-03-28T12:03:12.999Z</time></trkpt><trkpt lat="44.78625271235844" lon="10.29693974324097"><ele>67.0</ele><time>2026-03-28T12:03:13.999Z</time></trkpt><trkpt lat="44.786185770497106" lon="10.296783306418451"><ele>67.0</ele><time>2026-03-28T12:03:14.999Z</time></trkpt><trkpt lat="44.78611499102971" lon="10.296630311982206"><ele>67.0</ele><time>2026-03-28T12:03:15.999Z</time></trkpt><trkpt lat="44.78604451224995" lon="10.296478333862362"><ele>67.0</ele><time>2026-03-28T12:03:16.999Z</time></trkpt><trkpt lat="44.785976500276725" lon="10.296331111776611"><ele>67.0</ele><time>2026-03-28T12:03:17.999Z</time></trkpt><trkpt lat="44.78591464704611" lon="10.296190322465922"><ele>67.4</ele><time>2026-03-28T12:03:18.999Z</time></trkpt><trkpt lat="44.78585538476159" lon="10.296061484021678"><ele>67.80000000000001</ele><time>2026-03-28T12:03:19.999Z</time></trkpt><trkpt lat="44.78579738306893" lon="10.295934963897576"><ele>68.2</ele><time>2026-03-28T12:03:20.998Z</time></trkpt><trkpt lat="44.78573561947485" lon="10.295802203500504"><ele>68.60000000000001</ele><time>2026-03-28T12:03:21.998Z</time></trkpt><trkpt lat="44.78567305487465" lon="10.295670711186894"><ele>69.0</ele><time>2026-03-28T12:03:22.998Z</time></trkpt><trkpt lat="44.78561190623311" lon="10.29552845971648"><ele>69.0</ele><time>2026-03-28T12:03:23.998Z</time></trkpt><trkpt lat="44.78554345845515" lon="10.295397006608987"><ele>69.0</ele><time>2026-03-28T12:03:24.998Z</time></trkpt><trkpt lat="44.78548042029496" lon="10.295262595841233"><ele>69.0</ele><time>2026-03-28T12:03:25.998Z</time></trkpt><trkpt lat="44.7854210426323" lon="10.295136737305073"><ele>69.0</ele><time>2026-03-28T12:03:26.998Z</time></trkpt><trkpt lat="44.78536477747923" lon="10.295016527928263"><ele>69.0</ele><time>2026-03-28T12:03:27.998Z</time></trkpt><trkpt lat="44.78531588631006" lon="10.294907549932"><ele>69.0</ele><time>2026-03-28T12:03:28.998Z</time></trkpt><trkpt lat="44.78527373435392" lon="10.294813421567579"><ele>69.0</ele><time>2026-03-28T12:03:29.998Z</time></trkpt><trkpt lat="44.78523257326633" lon="10.294729789978181"><ele>69.0</ele><time>2026-03-28T12:03:30.998Z</time></trkpt><trkpt lat="44.785163763706166" lon="10.294594021154149"><ele>69.0</ele><time>2026-03-28T12:03:32.998Z</time></trkpt><trkpt lat="44.785125603450716" lon="10.29451989763132"><ele>69.0</ele><time>2026-03-28T12:03:33.998Z</time></trkpt><trkpt lat="44.78508487028194" lon="10.294444486777643"><ele>69.0</ele><time>2026-03-28T12:03:34.998Z</time></trkpt><trkpt lat="44.784996769508005" lon="10.294341694881586"><ele>69.2</ele><time>2026-03-28T12:03:36.998Z</time></trkpt><trkpt lat="44.78493853530031" lon="10.294214515578137"><ele>69.4</ele><time>2026-03-28T12:03:38.998Z</time></trkpt><trkpt lat="44.784921904290336" lon="10.294123599194585"><ele>69.6</ele><time>2026-03-28T12:03:39.998Z</time></trkpt><trkpt lat="44.78486559031415" lon="10.293987392938503"><ele>69.8</ele><time>2026-03-28T12:03:41.998Z</time></trkpt><trkpt lat="44.784790931140414" lon="10.293841102751841"><ele>70.0</ele><time>2026-03-28T12:03:43.998Z</time></trkpt><trkpt lat="44.78473308336114" lon="10.29380237156713"><ele>70.16666666666666</ele><time>2026-03-28T12:03:44.998Z</time></trkpt><trkpt lat="44.78472717201142" lon="10.29367359866485"><ele>70.33333333333333</ele><time>2026-03-28T12:03:45.998Z</time></trkpt><trkpt lat="44.78470028795356" lon="10.293590289283678"><ele>70.5</ele><time>2026-03-28T12:03:46.998Z</time></trkpt><trkpt lat="44.78464122622907" lon="10.293432475074166"><ele>70.66666666666667</ele><time>2026-03-28T12:03:48.998Z</time></trkpt><trkpt lat="44.78460278430014" lon="10.293349591655513"><ele>70.83333333333334</ele><time>2026-03-28T12:03:49.998Z</time></trkpt><trkpt lat="44.784561125218524" lon="10.293263442156805"><ele>71.0</ele><time>2026-03-28T12:03:50.998Z</time></trkpt><trkpt lat="44.78452389643708" lon="10.293180124178223"><ele>71.16666666666667</ele><time>2026-03-28T12:03:51.998Z</time></trkpt><trkpt lat="44.78448868812419" lon="10.29308827838503"><ele>71.33333333333334</ele><time>2026-03-28T12:03:52.998Z</time></trkpt><trkpt lat="44.784452554835404" lon="10.292987732261563"><ele>71.5</ele><time>2026-03-28T12:03:53.998Z</time></trkpt><trkpt lat="44.78441333238804" lon="10.292879196693345"><ele>71.66666666666667</ele><time>2026-03-28T12:03:54.998Z</time></trkpt><trkpt lat="44.78437150647226" lon="10.292770376856392"><ele>71.83333333333333</ele><time>2026-03-28T12:03:55.998Z</time></trkpt><trkpt lat="44.78433902109209" lon="10.292688305028193"><ele>72.0</ele><time>2026-03-28T12:03:56.998Z</time></trkpt><trkpt lat="44.78431941750875" lon="10.292593805662177"><ele>72.2</ele><time>2026-03-28T12:03:57.998Z</time></trkpt><trkpt lat="44.78422032867299" lon="10.292571251842523"><ele>72.4</ele><time>2026-03-28T12:03:58.998Z</time></trkpt><trkpt lat="44.78416770728726" lon="10.29245458298007"><ele>72.6</ele><time>2026-03-28T12:04:01Z</time></trkpt><trkpt lat="44.78409515519363" lon="10.292314660228056"><ele>72.8</ele><time>2026-03-28T12:04:03Z</time></trkpt><trkpt lat="44.784057285509256" lon="10.292234970370686"><ele>73.0</ele><time>2026-03-28T12:04:04Z</time></trkpt><trkpt lat="44.78401597112343" lon="10.292154616087826"><ele>73.16666666666666</ele><time>2026-03-28T12:04:05Z</time></trkpt><trkpt lat="44.783980580770624" lon="10.292073330478512"><ele>73.33333333333333</ele><time>2026-03-28T12:04:06Z</time></trkpt><trkpt lat="44.78394814288573" lon="10.291991851626433"><ele>73.5</ele><time>2026-03-28T12:04:07Z</time></trkpt><trkpt lat="44.78387996970077" lon="10.291838281669932"><ele>73.66666666666667</ele><time>2026-03-28T12:04:09Z</time></trkpt><trkpt lat="44.78384245075705" lon="10.29175219365456"><ele>73.83333333333334</ele><time>2026-03-28T12:04:10Z</time></trkpt><trkpt lat="44.78379747907287" lon="10.29166278033877"><ele>74.0</ele><time>2026-03-28T12:04:11Z</time></trkpt><trkpt lat="44.783754929284385" lon="10.29156851153526"><ele>74.0</ele><time>2026-03-28T12:04:12Z</time></trkpt><trkpt lat="44.7837130271793" lon="10.29146696418404"><ele>74.0</ele><time>2026-03-28T12:04:13Z</time></trkpt><trkpt lat="44.7836683033981" lon="10.291370928714867"><ele>74.0</ele><time>2026-03-28T12:04:14Z</time></trkpt><trkpt lat="44.783624053019466" lon="10.291272739186363"><ele>74.0</ele><time>2026-03-28T12:04:15Z</time></trkpt><trkpt lat="44.78357202892451" lon="10.2911727836844"><ele>74.0</ele><time>2026-03-28T12:04:16Z</time></trkpt><trkpt lat="44.783528844394894" lon="10.291067218731767"><ele>74.0</ele><time>2026-03-28T12:04:17Z</time></trkpt><trkpt lat="44.78348224402705" lon="10.290957788799048"><ele>74.16666666666667</ele><time>2026-03-28T12:04:18Z</time></trkpt><trkpt lat="44.783432180530525" lon="10.290850670099921"><ele>74.33333333333334</ele><time>2026-03-28T12:04:19Z</time></trkpt><trkpt lat="44.78338821016891" lon="10.290734868502351"><ele>74.5</ele><time>2026-03-28T12:04:20Z</time></trkpt><trkpt lat="44.78333809340823" lon="10.290629562593864"><ele>74.66666666666667</ele><time>2026-03-28T12:04:21Z</time></trkpt><trkpt lat="44.78329471176183" lon="10.290522307850532"><ele>74.83333333333333</ele><time>2026-03-28T12:04:22Z</time></trkpt><trkpt lat="44.783258887746754" lon="10.290432427882635"><ele>75.0</ele><time>2026-03-28T12:04:23Z</time></trkpt><trkpt lat="44.78321448427225" lon="10.290343793695637"><ele>74.5</ele><time>2026-03-28T12:04:24Z</time></trkpt><trkpt lat="44.78315683716757" lon="10.290228536625415"><ele>74.0</ele><time>2026-03-28T12:04:26Z</time></trkpt><trkpt lat="44.78306600755386" lon="10.29003088213959"><ele>73.5</ele><time>2026-03-28T12:04:29Z</time></trkpt><trkpt lat="44.78302680989428" lon="10.289926208805218"><ele>73.0</ele><time>2026-03-28T12:04:31Z</time></trkpt><trkpt lat="44.78301004566188" lon="10.289783684799499"><ele>73.16666666666666</ele><time>2026-03-28T12:04:33Z</time></trkpt><trkpt lat="44.783004422827005" lon="10.289652202246591"><ele>73.33333333333333</ele><time>2026-03-28T12:04:35Z</time></trkpt><trkpt lat="44.78299887540157" lon="10.289488822469906"><ele>73.5</ele><time>2026-03-28T12:04:38Z</time></trkpt><trkpt lat="44.78299400452699" lon="10.289389341856971"><ele>73.66666666666667</ele><time>2026-03-28T12:04:39Z</time></trkpt><trkpt lat="44.78298140719594" lon="10.289288399461908"><ele>73.83333333333334</ele><time>2026-03-28T12:04:40Z</time></trkpt><trkpt lat="44.78295839739911" lon="10.289191609575594"><ele>74.0</ele><time>2026-03-28T12:04:41Z</time></trkpt><trkpt lat="44.78291961569141" lon="10.289119938583946"><ele>74.0</ele><time>2026-03-28T12:04:42Z</time></trkpt><trkpt lat="44.782859131592936" lon="10.289055165020855"><ele>74.0</ele><time>2026-03-28T12:04:43Z</time></trkpt><trkpt lat="44.7827811659509" lon="10.289013259196171"><ele>74.0</ele><time>2026-03-28T12:04:44Z</time></trkpt><trkpt lat="44.782687648363094" lon="10.288975595811802"><ele>74.0</ele><time>2026-03-28T12:04:45Z</time></trkpt><trkpt lat="44.78259291676687" lon="10.288978238062695"><ele>74.0</ele><time>2026-03-28T12:04:46Z</time></trkpt><trkpt lat="44.78252016903026" lon="10.288825787533927"><ele>74.25</ele><time>2026-03-28T12:04:47Z</time></trkpt><trkpt lat="44.782449613706994" lon="10.28871493830232"><ele>74.5</ele><time>2026-03-28T12:04:48Z</time></trkpt><trkpt lat="44.78238676432402" lon="10.288580138828491"><ele>74.75</ele><time>2026-03-28T12:04:49Z</time></trkpt><trkpt lat="44.78232944667142" lon="10.288443037403983"><ele>75.0</ele><time>2026-03-28T12:04:50Z</time></trkpt><trkpt lat="44.78225912015463" lon="10.28829573817415"><ele>75.0</ele><time>2026-03-28T12:04:50.999Z</time></trkpt><trkpt lat="44.782188056293236" lon="10.288150430558247"><ele>75.0</ele><time>2026-03-28T12:04:51.999Z</time></trkpt><trkpt lat="44.78211973820793" lon="10.288006243805157"><ele>75.0</ele><time>2026-03-28T12:04:52.999Z</time></trkpt><trkpt lat="44.78205247232312" lon="10.28786680548368"><ele>75.0</ele><time>2026-03-28T12:04:53.999Z</time></trkpt><trkpt lat="44.78198267245739" lon="10.287724772894288"><ele>75.0</ele><time>2026-03-28T12:04:54.999Z</time></trkpt><trkpt lat="44.78191282583975" lon="10.287581024616367"><ele>75.0</ele><time>2026-03-28T12:04:55.999Z</time></trkpt><trkpt lat="44.78184267502611" lon="10.287426170286928"><ele>75.0</ele><time>2026-03-28T12:04:56.999Z</time></trkpt><trkpt lat="44.78177108014609" lon="10.287268682048255"><ele>75.0</ele><time>2026-03-28T12:04:57.999Z</time></trkpt><trkpt lat="44.781703676081506" lon="10.287114901141909"><ele>75.0</ele><time>2026-03-28T12:04:58.999Z</time></trkpt><trkpt lat="44.7816323299561" lon="10.286957928181257"><ele>75.0</ele><time>2026-03-28T12:04:59.999Z</time></trkpt><trkpt lat="44.78155690525487" lon="10.286798277888503"><ele>75.0</ele><time>2026-03-28T12:05:00.999Z</time></trkpt><trkpt lat="44.78148075504869" lon="10.28663565841661"><ele>75.0</ele><time>2026-03-28T12:05:01.999Z</time></trkpt><trkpt lat="44.78140511545693" lon="10.28647645259459"><ele>74.75</ele><time>2026-03-28T12:05:02.999Z</time></trkpt><trkpt lat="44.78133407814979" lon="10.286322082080671"><ele>74.5</ele><time>2026-03-28T12:05:03.999Z</time></trkpt><trkpt lat="44.7812621094856" lon="10.286165213646507"><ele>74.25</ele><time>2026-03-28T12:05:04.999Z</time></trkpt><trkpt lat="44.781185654196904" lon="10.286001767130637"><ele>74.0</ele><time>2026-03-28T12:05:05.999Z</time></trkpt><trkpt lat="44.78110583316303" lon="10.285834378361892"><ele>74.0</ele><time>2026-03-28T12:05:06.999Z</time></trkpt><trkpt lat="44.78102183125989" lon="10.285665438718501"><ele>74.0</ele><time>2026-03-28T12:05:07.999Z</time></trkpt><trkpt lat="44.78094393648396" lon="10.28548770413358"><ele>74.0</ele><time>2026-03-28T12:05:08.999Z</time></trkpt><trkpt lat="44.7808594739808" lon="10.285305001369336"><ele>74.0</ele><time>2026-03-28T12:05:09.999Z</time></trkpt><trkpt lat="44.78077763604652" lon="10.285122923919129"><ele>74.75</ele><time>2026-03-28T12:05:10.999Z</time></trkpt><trkpt lat="44.780698842313946" lon="10.284944798879986"><ele>75.5</ele><time>2026-03-28T12:05:11.999Z</time></trkpt><trkpt lat="44.78061703442896" lon="10.284770940533452"><ele>76.25</ele><time>2026-03-28T12:05:12.999Z</time></trkpt><trkpt lat="44.780534721280326" lon="10.284596373985533"><ele>77.0</ele><time>2026-03-28T12:05:13.999Z</time></trkpt><trkpt lat="44.78045528968952" lon="10.284422144912579"><ele>77.0</ele><time>2026-03-28T12:05:14.999Z</time></trkpt><trkpt lat="44.780377288953225" lon="10.284256051909964"><ele>77.0</ele><time>2026-03-28T12:05:15.999Z</time></trkpt><trkpt lat="44.780300074706695" lon="10.28409800235768"><ele>77.0</ele><time>2026-03-28T12:05:16.999Z</time></trkpt><trkpt lat="44.78022986849961" lon="10.283946340421302"><ele>77.0</ele><time>2026-03-28T12:05:17.999Z</time></trkpt><trkpt lat="44.78016207074715" lon="10.28380329502615"><ele>77.0</ele><time>2026-03-28T12:05:18.999Z</time></trkpt><trkpt lat="44.780103552462606" lon="10.283672655505834"><ele>77.0</ele><time>2026-03-28T12:05:19.999Z</time></trkpt><trkpt lat="44.780047665864984" lon="10.283565019749087"><ele>77.0</ele><time>2026-03-28T12:05:20.999Z</time></trkpt><trkpt lat="44.779998534682754" lon="10.28346180916138"><ele>77.0</ele><time>2026-03-28T12:05:21.999Z</time></trkpt><trkpt lat="44.779957352138304" lon="10.283365519979286"><ele>77.0</ele><time>2026-03-28T12:05:22.999Z</time></trkpt><trkpt lat="44.77991691515066" lon="10.28327675855314"><ele>77.0</ele><time>2026-03-28T12:05:23.999Z</time></trkpt><trkpt lat="44.77988024331048" lon="10.283183286432438"><ele>77.2</ele><time>2026-03-28T12:05:24.999Z</time></trkpt><trkpt lat="44.77984563470392" lon="10.283074336743699"><ele>77.4</ele><time>2026-03-28T12:05:25.999Z</time></trkpt><trkpt lat="44.77981353266745" lon="10.282961412108932"><ele>77.6</ele><time>2026-03-28T12:05:26.999Z</time></trkpt><trkpt lat="44.77977344251916" lon="10.282842781609483"><ele>77.8</ele><time>2026-03-28T12:05:27.999Z</time></trkpt><trkpt lat="44.779724820651005" lon="10.282726355759657"><ele>78.0</ele><time>2026-03-28T12:05:28.999Z</time></trkpt><trkpt lat="44.7796695893392" lon="10.282606210967833"><ele>78.0</ele><time>2026-03-28T12:05:29.999Z</time></trkpt><trkpt lat="44.779611182406526" lon="10.282495328449114"><ele>78.0</ele><time>2026-03-28T12:05:30.999Z</time></trkpt><trkpt lat="44.779551825027475" lon="10.282377796341816"><ele>78.0</ele><time>2026-03-28T12:05:31.999Z</time></trkpt><trkpt lat="44.77948751598628" lon="10.282260852792481"><ele>78.0</ele><time>2026-03-28T12:05:32.999Z</time></trkpt><trkpt lat="44.7794144861709" lon="10.282139035732142"><ele>78.0</ele><time>2026-03-28T12:05:33.999Z</time></trkpt><trkpt lat="44.77934173323567" lon="10.282006197719603"><ele>79.0</ele><time>2026-03-28T12:05:34.999Z</time></trkpt><trkpt lat="44.779273101886254" lon="10.281862948676642"><ele>80.0</ele><time>2026-03-28T12:05:35.998Z</time></trkpt><trkpt lat="44.77920253280067" lon="10.281709890547884"><ele>81.0</ele><time>2026-03-28T12:05:36.998Z</time></trkpt><trkpt lat="44.77912965211459" lon="10.281558254230335"><ele>82.0</ele><time>2026-03-28T12:05:37.998Z</time></trkpt><trkpt lat="44.77905668902603" lon="10.281402509019568"><ele>82.0</ele><time>2026-03-28T12:05:38.998Z</time></trkpt><trkpt lat="44.778981505593684" lon="10.28124324341776"><ele>82.0</ele><time>2026-03-28T12:05:39.998Z</time></trkpt><trkpt lat="44.778903969328525" lon="10.281082987741554"><ele>82.0</ele><time>2026-03-28T12:05:40.998Z</time></trkpt><trkpt lat="44.77883294036534" lon="10.280920281444125"><ele>82.0</ele><time>2026-03-28T12:05:41.998Z</time></trkpt><trkpt lat="44.77875565079983" lon="10.280757384088364"><ele>82.25</ele><time>2026-03-28T12:05:42.998Z</time></trkpt><trkpt lat="44.778681241932915" lon="10.280595016258376"><ele>82.5</ele><time>2026-03-28T12:05:43.998Z</time></trkpt><trkpt lat="44.77860549438467" lon="10.280429895846424"><ele>82.75</ele><time>2026-03-28T12:05:44.998Z</time></trkpt><trkpt lat="44.77853131323431" lon="10.280266208976654"><ele>83.0</ele><time>2026-03-28T12:05:45.998Z</time></trkpt><trkpt lat="44.77845827826391" lon="10.28010388066186"><ele>83.0</ele><time>2026-03-28T12:05:46.998Z</time></trkpt><trkpt lat="44.7783847392876" lon="10.279947224838542"><ele>83.0</ele><time>2026-03-28T12:05:47.998Z</time></trkpt><trkpt lat="44.77831226720912" lon="10.279789776013754"><ele>83.0</ele><time>2026-03-28T12:05:48.998Z</time></trkpt><trkpt lat="44.77823895978724" lon="10.279630502104968"><ele>83.0</ele><time>2026-03-28T12:05:49.998Z</time></trkpt><trkpt lat="44.77816597409142" lon="10.279471599312544"><ele>83.0</ele><time>2026-03-28T12:05:50.998Z</time></trkpt><trkpt lat="44.778091954781154" lon="10.279311172494092"><ele>83.0</ele><time>2026-03-28T12:05:51.998Z</time></trkpt><trkpt lat="44.77801655325718" lon="10.279151191250318"><ele>83.0</ele><time>2026-03-28T12:05:52.998Z</time></trkpt><trkpt lat="44.777947169374755" lon="10.279001791919987"><ele>83.0</ele><time>2026-03-28T12:05:53.998Z</time></trkpt><trkpt lat="44.77787537554003" lon="10.278860413514721"><ele>83.0</ele><time>2026-03-28T12:05:54.998Z</time></trkpt><trkpt lat="44.77780807689906" lon="10.278710646065452"><ele>83.0</ele><time>2026-03-28T12:05:55.998Z</time></trkpt><trkpt lat="44.77774027332168" lon="10.278561802410673"><ele>83.0</ele><time>2026-03-28T12:05:56.998Z</time></trkpt><trkpt lat="44.77767148945328" lon="10.27840700850014"><ele>83.0</ele><time>2026-03-28T12:05:57.998Z</time></trkpt><trkpt lat="44.77759653849207" lon="10.278251837973881"><ele>83.0</ele><time>2026-03-28T12:05:58.998Z</time></trkpt><trkpt lat="44.77752108069121" lon="10.27809498490265"><ele>83.0</ele><time>2026-03-28T12:05:59.998Z</time></trkpt><trkpt lat="44.77744967143996" lon="10.277932849888558"><ele>83.0</ele><time>2026-03-28T12:06:00.998Z</time></trkpt><trkpt lat="44.77737240949437" lon="10.277774309986032"><ele>83.0</ele><time>2026-03-28T12:06:01.998Z</time></trkpt><trkpt lat="44.777294213140905" lon="10.277606849476413"><ele>83.0</ele><time>2026-03-28T12:06:02.998Z</time></trkpt><trkpt lat="44.77721561046865" lon="10.277440371501001"><ele>83.0</ele><time>2026-03-28T12:06:03.998Z</time></trkpt><trkpt lat="44.77713661295147" lon="10.277270235104174"><ele>83.0</ele><time>2026-03-28T12:06:05Z</time></trkpt><trkpt lat="44.77705620087475" lon="10.27710649991966"><ele>83.0</ele><time>2026-03-28T12:06:06Z</time></trkpt><trkpt lat="44.77697570682993" lon="10.276943929588716"><ele>83.0</ele><time>2026-03-28T12:06:07Z</time></trkpt><trkpt lat="44.77690021361905" lon="10.276776628098922"><ele>83.0</ele><time>2026-03-28T12:06:08Z</time></trkpt><trkpt lat="44.77682525166671" lon="10.27660570577841"><ele>83.0</ele><time>2026-03-28T12:06:09Z</time></trkpt><trkpt lat="44.7767474771073" lon="10.276445313405395"><ele>83.0</ele><time>2026-03-28T12:06:10Z</time></trkpt><trkpt lat="44.77666722385209" lon="10.276280022118057"><ele>83.25</ele><time>2026-03-28T12:06:11Z</time></trkpt><trkpt lat="44.77659411625908" lon="10.276112335155188"><ele>83.5</ele><time>2026-03-28T12:06:12Z</time></trkpt><trkpt lat="44.77651807815623" lon="10.27595704163405"><ele>83.75</ele><time>2026-03-28T12:06:13Z</time></trkpt><trkpt lat="44.77644238895085" lon="10.275800101576067"><ele>84.0</ele><time>2026-03-28T12:06:14Z</time></trkpt><trkpt lat="44.776365408642576" lon="10.27563723733574"><ele>83.5</ele><time>2026-03-28T12:06:15Z</time></trkpt><trkpt lat="44.7762869240239" lon="10.275468848682479"><ele>83.0</ele><time>2026-03-28T12:06:16Z</time></trkpt><trkpt lat="44.77620953286871" lon="10.275295664230626"><ele>82.5</ele><time>2026-03-28T12:06:17Z</time></trkpt><trkpt lat="44.77613036990514" lon="10.275126745822329"><ele>82.0</ele><time>2026-03-28T12:06:18Z</time></trkpt><trkpt lat="44.77605163364555" lon="10.274960432420853"><ele>82.25</ele><time>2026-03-28T12:06:19Z</time></trkpt><trkpt lat="44.77597225358641" lon="10.274790785198539"><ele>82.5</ele><time>2026-03-28T12:06:20Z</time></trkpt><trkpt lat="44.775892115348014" lon="10.274619231513334"><ele>82.75</ele><time>2026-03-28T12:06:21Z</time></trkpt><trkpt lat="44.77581660326739" lon="10.274448368107404"><ele>83.0</ele><time>2026-03-28T12:06:22Z</time></trkpt><trkpt lat="44.77573765354453" lon="10.274281990482521"><ele>83.25</ele><time>2026-03-28T12:06:23Z</time></trkpt><trkpt lat="44.775668814789796" lon="10.2741234046991"><ele>83.5</ele><time>2026-03-28T12:06:24Z</time></trkpt><trkpt lat="44.77558977697386" lon="10.27396202098622"><ele>83.75</ele><time>2026-03-28T12:06:25Z</time></trkpt><trkpt lat="44.77551292765333" lon="10.273806392378527"><ele>84.0</ele><time>2026-03-28T12:06:26Z</time></trkpt><trkpt lat="44.77535973360082" lon="10.273485909319723"><ele>84.0</ele><time>2026-03-28T12:06:28Z</time></trkpt><trkpt lat="44.775283046037" lon="10.273316476240405"><ele>84.0</ele><time>2026-03-28T12:06:29Z</time></trkpt><trkpt lat="44.77520574895355" lon="10.273156226664854"><ele>84.0</ele><time>2026-03-28T12:06:30Z</time></trkpt><trkpt lat="44.77512302102331" lon="10.272984976497122"><ele>84.0</ele><time>2026-03-28T12:06:31Z</time></trkpt><trkpt lat="44.77504842521935" lon="10.272807331086835"><ele>84.33333333333333</ele><time>2026-03-28T12:06:32Z</time></trkpt><trkpt lat="44.7749503750326" lon="10.272594831137601"><ele>84.66666666666666</ele><time>2026-03-28T12:06:33Z</time></trkpt><trkpt lat="44.774881392952544" lon="10.272449328600667"><ele>85.0</ele><time>2026-03-28T12:06:34Z</time></trkpt><trkpt lat="44.77479555253713" lon="10.272266057937035"><ele>85.0</ele><time>2026-03-28T12:06:35Z</time></trkpt><trkpt lat="44.77471726774714" lon="10.272092736024208"><ele>85.0</ele><time>2026-03-28T12:06:36Z</time></trkpt><trkpt lat="44.77463733089919" lon="10.271927220952172"><ele>85.0</ele><time>2026-03-28T12:06:37Z</time></trkpt><trkpt lat="44.77455992533919" lon="10.271762815935325"><ele>85.0</ele><time>2026-03-28T12:06:38Z</time></trkpt><trkpt lat="44.774483379334725" lon="10.271591584533558"><ele>85.0</ele><time>2026-03-28T12:06:39Z</time></trkpt><trkpt lat="44.774407297395285" lon="10.271424921784487"><ele>85.0</ele><time>2026-03-28T12:06:40Z</time></trkpt><trkpt lat="44.77432969232635" lon="10.271249843950484"><ele>85.0</ele><time>2026-03-28T12:06:41Z</time></trkpt><trkpt lat="44.774255751404596" lon="10.271081013426736"><ele>85.0</ele><time>2026-03-28T12:06:42Z</time></trkpt><trkpt lat="44.77417829374558" lon="10.270913275517765"><ele>85.5</ele><time>2026-03-28T12:06:43Z</time></trkpt><trkpt lat="44.77410233650406" lon="10.270747569792448"><ele>86.0</ele><time>2026-03-28T12:06:44Z</time></trkpt><trkpt lat="44.77403007375892" lon="10.270589616194497"><ele>86.5</ele><time>2026-03-28T12:06:45Z</time></trkpt><trkpt lat="44.77396058209286" lon="10.270443988857668"><ele>87.0</ele><time>2026-03-28T12:06:46Z</time></trkpt><trkpt lat="44.77390307880683" lon="10.270318222536892"><ele>87.0</ele><time>2026-03-28T12:06:47Z</time></trkpt><trkpt lat="44.77385532805709" lon="10.270214128416626"><ele>87.0</ele><time>2026-03-28T12:06:48Z</time></trkpt><trkpt lat="44.77382192036481" lon="10.270136116109517"><ele>87.0</ele><time>2026-03-28T12:06:49Z</time></trkpt><trkpt lat="44.7737799580368" lon="10.270041002023367"><ele>87.0</ele><time>2026-03-28T12:06:51Z</time></trkpt><trkpt lat="44.77373558823569" lon="10.269930728772444"><ele>87.0</ele><time>2026-03-28T12:06:54Z</time></trkpt><trkpt lat="44.77363249154607" lon="10.270000107790555"><ele>87.0</ele><time>2026-03-28T12:06:56Z</time></trkpt><trkpt lat="44.77360156903551" lon="10.27007877792469"><ele>87.0</ele><time>2026-03-28T12:06:57Z</time></trkpt><trkpt lat="44.773567613428476" lon="10.270243148569751"><ele>87.0</ele><time>2026-03-28T12:06:59Z</time></trkpt><trkpt lat="44.77354195234613" lon="10.270371759472122"><ele>87.0</ele><time>2026-03-28T12:07:01Z</time></trkpt><trkpt lat="44.773519196872165" lon="10.270506997859554"><ele>87.0</ele><time>2026-03-28T12:07:03Z</time></trkpt><trkpt lat="44.7734986368231" lon="10.270610281029382"><ele>87.0</ele><time>2026-03-28T12:07:04.999Z</time></trkpt><trkpt lat="44.773466410331096" lon="10.270704255821528"><ele>86.83333333333333</ele><time>2026-03-28T12:07:56.997Z</time></trkpt><trkpt lat="44.7734511781182" lon="10.270838800482633"><ele>86.66666666666667</ele><time>2026-03-28T12:07:58.997Z</time></trkpt><trkpt lat="44.773434527049375" lon="10.270933212635631"><ele>86.5</ele><time>2026-03-28T12:08:00.997Z</time></trkpt><trkpt lat="44.77341478091933" lon="10.271075676657347"><ele>86.33333333333334</ele><time>2026-03-28T12:08:03.997Z</time></trkpt><trkpt lat="44.773397258759275" lon="10.271172841771893"><ele>86.16666666666667</ele><time>2026-03-28T12:08:05.997Z</time></trkpt><trkpt lat="44.7733733565511" lon="10.271299828829326"><ele>86.0</ele><time>2026-03-28T12:08:07.997Z</time></trkpt><trkpt lat="44.773350062096405" lon="10.27139836305291"><ele>85.8</ele><time>2026-03-28T12:08:09.997Z</time></trkpt><trkpt lat="44.77332554031902" lon="10.271520966883545"><ele>85.6</ele><time>2026-03-28T12:08:12Z</time></trkpt><trkpt lat="44.77329810296984" lon="10.271647406613218"><ele>85.4</ele><time>2026-03-28T12:08:14Z</time></trkpt><trkpt lat="44.77327765979392" lon="10.27176418888821"><ele>85.2</ele><time>2026-03-28T12:08:16Z</time></trkpt><trkpt lat="44.773260135421104" lon="10.27186141874176"><ele>85.0</ele><time>2026-03-28T12:08:18Z</time></trkpt><trkpt lat="44.77323072022603" lon="10.272017626434954"><ele>85.0</ele><time>2026-03-28T12:08:20Z</time></trkpt><trkpt lat="44.77320746953063" lon="10.27213048594656"><ele>85.0</ele><time>2026-03-28T12:08:22Z</time></trkpt><trkpt lat="44.77317756268259" lon="10.272240249736203"><ele>85.0</ele><time>2026-03-28T12:08:24Z</time></trkpt><trkpt lat="44.773154288987804" lon="10.272333338661195"><ele>85.0</ele><time>2026-03-28T12:08:25Z</time></trkpt><trkpt lat="44.77314365790258" lon="10.27243923997958"><ele>85.0</ele><time>2026-03-28T12:08:27Z</time></trkpt><trkpt lat="44.77311866275825" lon="10.272594854106897"><ele>85.0</ele><time>2026-03-28T12:08:29Z</time></trkpt><trkpt lat="44.773099044585855" lon="10.27269195558154"><ele>85.2</ele><time>2026-03-28T12:08:30Z</time></trkpt><trkpt lat="44.77307207033597" lon="10.272843302114172"><ele>85.4</ele><time>2026-03-28T12:08:32Z</time></trkpt><trkpt lat="44.773040590875915" lon="10.273016550630294"><ele>85.6</ele><time>2026-03-28T12:08:33.999Z</time></trkpt><trkpt lat="44.77301821745635" lon="10.273114176351497"><ele>85.8</ele><time>2026-03-28T12:08:34.999Z</time></trkpt><trkpt lat="44.772997618804425" lon="10.273224702935826"><ele>86.0</ele><time>2026-03-28T12:08:35.999Z</time></trkpt><trkpt lat="44.772977263060575" lon="10.27332932907263"><ele>86.33333333333334</ele><time>2026-03-28T12:08:36.999Z</time></trkpt><trkpt lat="44.77289151481977" lon="10.27341416904309"><ele>86.66666666666667</ele><time>2026-03-28T12:08:38.999Z</time></trkpt><trkpt lat="44.77283154328246" lon="10.273382214475387"><ele>87.0</ele><time>2026-03-28T12:08:39.999Z</time></trkpt><trkpt lat="44.7727370981119" lon="10.273399558409407"><ele>87.33333333333333</ele><time>2026-03-28T12:08:41.999Z</time></trkpt><trkpt lat="44.77262362993933" lon="10.273407813060023"><ele>87.66666666666666</ele><time>2026-03-28T12:08:43.999Z</time></trkpt><trkpt lat="44.77255842111982" lon="10.273387237081227"><ele>88.0</ele><time>2026-03-28T12:08:44.999Z</time></trkpt><trkpt lat="44.7724477530145" lon="10.273392098265955"><ele>88.0</ele><time>2026-03-28T12:08:46.999Z</time></trkpt><trkpt lat="44.77237101626005" lon="10.27341331434313"><ele>88.0</ele><time>2026-03-28T12:08:47.999Z</time></trkpt><trkpt lat="44.772234462904244" lon="10.273417334256134"><ele>88.0</ele><time>2026-03-28T12:08:49.999Z</time></trkpt><trkpt lat="44.77216723887496" lon="10.273428718843666"><ele>88.0</ele><time>2026-03-28T12:08:50.999Z</time></trkpt><trkpt lat="44.7720904927578" lon="10.273409771375272"><ele>88.0</ele><time>2026-03-28T12:08:51.999Z</time></trkpt><trkpt lat="44.772017084137595" lon="10.273433343376652"><ele>88.0</ele><time>2026-03-28T12:08:52.999Z</time></trkpt><trkpt lat="44.771950451108786" lon="10.27343287697122"><ele>88.0</ele><time>2026-03-28T12:08:54.999Z</time></trkpt><trkpt lat="44.77187430439752" lon="10.27343489779557"><ele>88.0</ele><time>2026-03-28T12:08:55.999Z</time></trkpt><trkpt lat="44.771775487915306" lon="10.273438128791408"><ele>88.0</ele><time>2026-03-28T12:08:57.999Z</time></trkpt><trkpt lat="44.77169947959696" lon="10.273429372502195"><ele>88.0</ele><time>2026-03-28T12:08:58.999Z</time></trkpt><trkpt lat="44.77160557578177" lon="10.273452423670712"><ele>88.0</ele><time>2026-03-28T12:09:00.999Z</time></trkpt><trkpt lat="44.77147353405931" lon="10.27345661839544"><ele>88.0</ele><time>2026-03-28T12:09:02.999Z</time></trkpt><trkpt lat="44.7714100731871" lon="10.27345990024523"><ele>88.0</ele><time>2026-03-28T12:09:03.999Z</time></trkpt><trkpt lat="44.77132287191342" lon="10.273464580595347"><ele>88.0</ele><time>2026-03-28T12:09:04.999Z</time></trkpt><trkpt lat="44.77122981442478" lon="10.27346812764661"><ele>88.0</ele><time>2026-03-28T12:09:05.999Z</time></trkpt><trkpt lat="44.77113762025937" lon="10.273477191721884"><ele>88.0</ele><time>2026-03-28T12:09:06.999Z</time></trkpt><trkpt lat="44.7710326990916" lon="10.273482203340402"><ele>88.0</ele><time>2026-03-28T12:09:07.999Z</time></trkpt><trkpt lat="44.770932058477115" lon="10.273486912391604"><ele>87.80000000000001</ele><time>2026-03-28T12:09:08.999Z</time></trkpt><trkpt lat="44.770848431912306" lon="10.27349168530384"><ele>87.6</ele><time>2026-03-28T12:09:09.999Z</time></trkpt><trkpt lat="44.7707390051274" lon="10.273489735476492"><ele>87.4</ele><time>2026-03-28T12:09:11.999Z</time></trkpt><trkpt lat="44.770645364228336" lon="10.273495048049728"><ele>87.19999999999999</ele><time>2026-03-28T12:09:13.999Z</time></trkpt><trkpt lat="44.770554556676366" lon="10.273490007502799"><ele>87.0</ele><time>2026-03-28T12:09:15.999Z</time></trkpt><trkpt lat="44.77046299714982" lon="10.27349421875282"><ele>87.0</ele><time>2026-03-28T12:09:17.998Z</time></trkpt><trkpt lat="44.77035537997534" lon="10.273517995040113"><ele>87.0</ele><time>2026-03-28T12:09:19.998Z</time></trkpt><trkpt lat="44.7702835747889" lon="10.273511502072333"><ele>87.0</ele><time>2026-03-28T12:09:20.998Z</time></trkpt><trkpt lat="44.77020451262418" lon="10.273482188158031"><ele>87.0</ele><time>2026-03-28T12:09:22.998Z</time></trkpt><trkpt lat="44.77009701035421" lon="10.2734777482144"><ele>87.0</ele><time>2026-03-28T12:09:24.998Z</time></trkpt><trkpt lat="44.769999534372495" lon="10.273444345296276"><ele>87.5</ele><time>2026-03-28T12:09:26.998Z</time></trkpt><trkpt lat="44.76989368725626" lon="10.273446436956286"><ele>88.0</ele><time>2026-03-28T12:09:28.998Z</time></trkpt><trkpt lat="44.769822050724414" lon="10.273432389955191"><ele>88.5</ele><time>2026-03-28T12:09:29.998Z</time></trkpt><trkpt lat="44.76970773098035" lon="10.273382521983008"><ele>89.0</ele><time>2026-03-28T12:09:31.998Z</time></trkpt><trkpt lat="44.7696409090403" lon="10.273351152063602"><ele>89.5</ele><time>2026-03-28T12:09:32.998Z</time></trkpt><trkpt lat="44.76957823593809" lon="10.273306204676595"><ele>90.0</ele><time>2026-03-28T12:09:33.998Z</time></trkpt><trkpt lat="44.769485423184626" lon="10.27321660306152"><ele>90.0</ele><time>2026-03-28T12:09:35.998Z</time></trkpt><trkpt lat="44.769439302741446" lon="10.273149868436619"><ele>90.0</ele><time>2026-03-28T12:09:37.998Z</time></trkpt><trkpt lat="44.769367916946365" lon="10.273028077999776"><ele>90.0</ele><time>2026-03-28T12:09:39.998Z</time></trkpt><trkpt lat="44.76931631386415" lon="10.27295865693175"><ele>90.0</ele><time>2026-03-28T12:09:40.998Z</time></trkpt><trkpt lat="44.76924899785336" lon="10.272871188180597"><ele>90.0</ele><time>2026-03-28T12:09:42.998Z</time></trkpt><trkpt lat="44.76920153344129" lon="10.272809514089898"><ele>90.0</ele><time>2026-03-28T12:09:43.998Z</time></trkpt><trkpt lat="44.76911453766882" lon="10.272714115616132"><ele>89.66666666666667</ele><time>2026-03-28T12:09:45.998Z</time></trkpt><trkpt lat="44.76901133141499" lon="10.272588254693922"><ele>89.33333333333333</ele><time>2026-03-28T12:09:47.998Z</time></trkpt><trkpt lat="44.76896325955342" lon="10.272494939609732"><ele>89.0</ele><time>2026-03-28T12:09:48.998Z</time></trkpt><trkpt lat="44.7688998711965" lon="10.272429261987646"><ele>88.66666666666666</ele><time>2026-03-28T12:09:49.998Z</time></trkpt><trkpt lat="44.76884844636108" lon="10.272352186175585"><ele>88.33333333333333</ele><time>2026-03-28T12:09:50.998Z</time></trkpt><trkpt lat="44.768796066382826" lon="10.272283687015165"><ele>88.0</ele><time>2026-03-28T12:09:51.998Z</time></trkpt><trkpt lat="44.768710110965095" lon="10.272188466120474"><ele>88.0</ele><time>2026-03-28T12:09:53.998Z</time></trkpt><trkpt lat="44.76865406890762" lon="10.272105381312354"><ele>88.0</ele><time>2026-03-28T12:09:55.998Z</time></trkpt><trkpt lat="44.768610252562155" lon="10.27203525961987"><ele>88.0</ele><time>2026-03-28T12:09:57.998Z</time></trkpt><trkpt lat="44.76856207096118" lon="10.271964746383603"><ele>88.0</ele><time>2026-03-28T12:09:58.998Z</time></trkpt><trkpt lat="44.76846222051569" lon="10.271851441982397"><ele>88.0</ele><time>2026-03-28T12:10:00.998Z</time></trkpt><trkpt lat="44.76841408341187" lon="10.271791539030188"><ele>88.0</ele><time>2026-03-28T12:10:02.997Z</time></trkpt><trkpt lat="44.768364884602185" lon="10.271727805148299"><ele>88.5</ele><time>2026-03-28T12:10:03.997Z</time></trkpt><trkpt lat="44.76829251323071" lon="10.271640973467566"><ele>89.0</ele><time>2026-03-28T12:10:05.997Z</time></trkpt><trkpt lat="44.76824340533219" lon="10.271581534609483"><ele>89.5</ele><time>2026-03-28T12:10:07.997Z</time></trkpt><trkpt lat="44.76817258326928" lon="10.27146545702121"><ele>90.0</ele><time>2026-03-28T12:10:09.997Z</time></trkpt><trkpt lat="44.76811753279273" lon="10.271414068177013"><ele>90.5</ele><time>2026-03-28T12:10:10.997Z</time></trkpt><trkpt lat="44.76807128341248" lon="10.271318365565218"><ele>91.0</ele><time>2026-03-28T12:10:11.997Z</time></trkpt><trkpt lat="44.76800177347681" lon="10.271225789807325"><ele>91.0</ele><time>2026-03-28T12:10:12.997Z</time></trkpt><trkpt lat="44.7679289920482" lon="10.271135403428005"><ele>91.0</ele><time>2026-03-28T12:10:13.997Z</time></trkpt><trkpt lat="44.76784982262757" lon="10.271039092654716"><ele>91.0</ele><time>2026-03-28T12:10:14.997Z</time></trkpt><trkpt lat="44.767762747867586" lon="10.270933166062983"><ele>91.0</ele><time>2026-03-28T12:10:15.997Z</time></trkpt><trkpt lat="44.76766853374441" lon="10.270843839569807"><ele>91.0</ele><time>2026-03-28T12:10:17Z</time></trkpt><trkpt lat="44.767579485583184" lon="10.27073133893381"><ele>91.16666666666666</ele><time>2026-03-28T12:10:18Z</time></trkpt><trkpt lat="44.76749703837284" lon="10.270624169833123"><ele>91.33333333333333</ele><time>2026-03-28T12:10:19Z</time></trkpt><trkpt lat="44.767419855693646" lon="10.27052794713437"><ele>91.5</ele><time>2026-03-28T12:10:20Z</time></trkpt><trkpt lat="44.76735875706519" lon="10.270444582190759"><ele>91.66666666666667</ele><time>2026-03-28T12:10:21Z</time></trkpt><trkpt lat="44.76731191888263" lon="10.270379632371304"><ele>91.83333333333334</ele><time>2026-03-28T12:10:22Z</time></trkpt><trkpt lat="44.76728339517485" lon="10.270285707716475"><ele>92.0</ele><time>2026-03-28T12:10:23.999Z</time></trkpt><trkpt lat="44.76719753431864" lon="10.270263972877217"><ele>92.0</ele><time>2026-03-28T12:10:25.999Z</time></trkpt><trkpt lat="44.76708605733123" lon="10.27023650239459"><ele>92.0</ele><time>2026-03-28T12:10:27.999Z</time></trkpt><trkpt lat="44.76702629928266" lon="10.27020736416946"><ele>92.0</ele><time>2026-03-28T12:10:31Z</time></trkpt><trkpt lat="44.76693664530425" lon="10.270161093889875"><ele>92.0</ele><time>2026-03-28T12:10:44.999Z</time></trkpt><trkpt lat="44.766807922598986" lon="10.270125119300573"><ele>92.0</ele><time>2026-03-28T12:10:46.999Z</time></trkpt><trkpt lat="44.766740712956356" lon="10.27009998765886"><ele>92.0</ele><time>2026-03-28T12:10:47.999Z</time></trkpt><trkpt lat="44.766667817033635" lon="10.270070794337988"><ele>92.0</ele><time>2026-03-28T12:10:48.999Z</time></trkpt><trkpt lat="44.76659751496317" lon="10.270035160223435"><ele>92.0</ele><time>2026-03-28T12:10:49.999Z</time></trkpt><trkpt lat="44.76652775768496" lon="10.270011049297567"><ele>92.0</ele><time>2026-03-28T12:10:50.999Z</time></trkpt><trkpt lat="44.7664535849996" lon="10.26998508866004"><ele>92.0</ele><time>2026-03-28T12:10:51.999Z</time></trkpt><trkpt lat="44.76638465801244" lon="10.269936966583616"><ele>92.0</ele><time>2026-03-28T12:10:52.999Z</time></trkpt><trkpt lat="44.76630458327154" lon="10.269928116085397"><ele>92.0</ele><time>2026-03-28T12:10:53.999Z</time></trkpt><trkpt lat="44.76622519455879" lon="10.269898388634303"><ele>92.0</ele><time>2026-03-28T12:10:54.999Z</time></trkpt><trkpt lat="44.76614789010372" lon="10.2698628141678"><ele>92.0</ele><time>2026-03-28T12:10:55.999Z</time></trkpt><trkpt lat="44.76606857705018" lon="10.269835099766397"><ele>92.0</ele><time>2026-03-28T12:10:56.999Z</time></trkpt><trkpt lat="44.7660005219985" lon="10.26980439006564"><ele>92.0</ele><time>2026-03-28T12:10:57.999Z</time></trkpt><trkpt lat="44.76593294117387" lon="10.269779023230242"><ele>92.0</ele><time>2026-03-28T12:10:58.999Z</time></trkpt><trkpt lat="44.76585267466089" lon="10.269747701186253"><ele>91.16666666666667</ele><time>2026-03-28T12:10:59.999Z</time></trkpt><trkpt lat="44.76576896838183" lon="10.269715301676072"><ele>90.33333333333334</ele><time>2026-03-28T12:11:00.999Z</time></trkpt><trkpt lat="44.765693412264305" lon="10.2696682422719"><ele>89.5</ele><time>2026-03-28T12:11:01.999Z</time></trkpt><trkpt lat="44.76561822955397" lon="10.269652866354766"><ele>88.66666666666667</ele><time>2026-03-28T12:11:02.999Z</time></trkpt><trkpt lat="44.76554925215031" lon="10.269628796257962"><ele>87.83333333333333</ele><time>2026-03-28T12:11:03.999Z</time></trkpt><trkpt lat="44.76547479921908" lon="10.26960044093745"><ele>87.0</ele><time>2026-03-28T12:11:04.999Z</time></trkpt><trkpt lat="44.76539910380826" lon="10.269571547803485"><ele>87.0</ele><time>2026-03-28T12:11:05.999Z</time></trkpt><trkpt lat="44.7653200134839" lon="10.2695410152267"><ele>87.0</ele><time>2026-03-28T12:11:06.999Z</time></trkpt><trkpt lat="44.765238237691946" lon="10.269509221836518"><ele>87.0</ele><time>2026-03-28T12:11:07.999Z</time></trkpt><trkpt lat="44.76514703867484" lon="10.269473902589413"><ele>87.0</ele><time>2026-03-28T12:11:08.999Z</time></trkpt><trkpt lat="44.76505285154496" lon="10.269436292876097"><ele>87.0</ele><time>2026-03-28T12:11:09.999Z</time></trkpt><trkpt lat="44.76496862946857" lon="10.26939781083744"><ele>87.0</ele><time>2026-03-28T12:11:10.999Z</time></trkpt><trkpt lat="44.764879851378836" lon="10.2693633383843"><ele>88.39999999999999</ele><time>2026-03-28T12:11:11.999Z</time></trkpt><trkpt lat="44.76478839350127" lon="10.269331193675502"><ele>89.8</ele><time>2026-03-28T12:11:12.999Z</time></trkpt><trkpt lat="44.764695016215086" lon="10.269293562919232"><ele>91.2</ele><time>2026-03-28T12:11:13.999Z</time></trkpt><trkpt lat="44.76460573953659" lon="10.269257551274293"><ele>92.6</ele><time>2026-03-28T12:11:14.999Z</time></trkpt><trkpt lat="44.764517575170096" lon="10.26922041611998"><ele>94.0</ele><time>2026-03-28T12:11:15.999Z</time></trkpt><trkpt lat="44.76442257923644" lon="10.269183070486342"><ele>95.0</ele><time>2026-03-28T12:11:16.999Z</time></trkpt><trkpt lat="44.764323446847115" lon="10.269147262299967"><ele>96.0</ele><time>2026-03-28T12:11:17.999Z</time></trkpt><trkpt lat="44.76422451085769" lon="10.26910859219535"><ele>97.0</ele><time>2026-03-28T12:11:18.999Z</time></trkpt><trkpt lat="44.7641250854607" lon="10.269070187824438"><ele>98.0</ele><time>2026-03-28T12:11:19.999Z</time></trkpt><trkpt lat="44.76402680102422" lon="10.269032401469955"><ele>99.0</ele><time>2026-03-28T12:11:20.999Z</time></trkpt><trkpt lat="44.76393937333224" lon="10.268996313019779"><ele>99.0</ele><time>2026-03-28T12:11:21.999Z</time></trkpt><trkpt lat="44.76386258588292" lon="10.268965514865009"><ele>99.0</ele><time>2026-03-28T12:11:22.999Z</time></trkpt><trkpt lat="44.76378795642816" lon="10.26893571760399"><ele>99.0</ele><time>2026-03-28T12:11:23.998Z</time></trkpt><trkpt lat="44.763709544460845" lon="10.268904613135968"><ele>99.0</ele><time>2026-03-28T12:11:24.998Z</time></trkpt><trkpt lat="44.76362493339515" lon="10.26887745543597"><ele>99.0</ele><time>2026-03-28T12:11:25.998Z</time></trkpt><trkpt lat="44.76354216971497" lon="10.268834354582586"><ele>99.0</ele><time>2026-03-28T12:11:26.998Z</time></trkpt><trkpt lat="44.76345790909902" lon="10.268805392986808"><ele>98.33333333333333</ele><time>2026-03-28T12:11:27.998Z</time></trkpt><trkpt lat="44.76337428444236" lon="10.26875516877878"><ele>97.66666666666667</ele><time>2026-03-28T12:11:28.998Z</time></trkpt><trkpt lat="44.7632881002272" lon="10.268735010861363"><ele>97.0</ele><time>2026-03-28T12:11:29.998Z</time></trkpt><trkpt lat="44.76320278222172" lon="10.26870489668292"><ele>96.33333333333334</ele><time>2026-03-28T12:11:30.998Z</time></trkpt><trkpt lat="44.76311690996191" lon="10.268671329422133"><ele>95.66666666666667</ele><time>2026-03-28T12:11:31.998Z</time></trkpt><trkpt lat="44.76303019351922" lon="10.26863756018327"><ele>95.0</ele><time>2026-03-28T12:11:32.998Z</time></trkpt><trkpt lat="44.76294884204514" lon="10.268587862549227"><ele>95.0</ele><time>2026-03-28T12:11:33.998Z</time></trkpt><trkpt lat="44.76285799675246" lon="10.268571202866235"><ele>95.0</ele><time>2026-03-28T12:11:34.998Z</time></trkpt><trkpt lat="44.76277636278154" lon="10.268535855294921"><ele>95.0</ele><time>2026-03-28T12:11:35.998Z</time></trkpt><trkpt lat="44.76269355385869" lon="10.268504907449332"><ele>95.0</ele><time>2026-03-28T12:11:36.998Z</time></trkpt><trkpt lat="44.76260970077311" lon="10.268472454781303"><ele>95.0</ele><time>2026-03-28T12:11:37.998Z</time></trkpt><trkpt lat="44.76252606181301" lon="10.268443273593075"><ele>95.0</ele><time>2026-03-28T12:11:38.998Z</time></trkpt><trkpt lat="44.7624428570385" lon="10.268405361305314"><ele>95.33333333333334</ele><time>2026-03-28T12:11:39.998Z</time></trkpt><trkpt lat="44.76235841094687" lon="10.268373558071854"><ele>95.66666666666667</ele><time>2026-03-28T12:11:40.998Z</time></trkpt><trkpt lat="44.762274049653776" lon="10.26834482534864"><ele>96.0</ele><time>2026-03-28T12:11:41.998Z</time></trkpt><trkpt lat="44.76219292419502" lon="10.268309402157277"><ele>96.33333333333334</ele><time>2026-03-28T12:11:42.998Z</time></trkpt><trkpt lat="44.76211086991369" lon="10.268274282177916"><ele>96.66666666666667</ele><time>2026-03-28T12:11:43.998Z</time></trkpt><trkpt lat="44.76202873818211" lon="10.268242683908873"><ele>97.0</ele><time>2026-03-28T12:11:44.998Z</time></trkpt><trkpt lat="44.76194908749648" lon="10.26821270500008"><ele>97.0</ele><time>2026-03-28T12:11:45.998Z</time></trkpt><trkpt lat="44.761881054175426" lon="10.268187369512468"><ele>97.0</ele><time>2026-03-28T12:11:46.998Z</time></trkpt><trkpt lat="44.761776983486264" lon="10.268151270510787"><ele>97.0</ele><time>2026-03-28T12:11:48.998Z</time></trkpt><trkpt lat="44.76170762239792" lon="10.268109825750878"><ele>97.0</ele><time>2026-03-28T12:11:50.998Z</time></trkpt><trkpt lat="44.76164493061308" lon="10.268073115125933"><ele>97.0</ele><time>2026-03-28T12:11:54.998Z</time></trkpt><trkpt lat="44.76168929221203" lon="10.267779684325552"><ele>96.83333333333334</ele><time>2026-03-28T12:11:57.998Z</time></trkpt><trkpt lat="44.76168998900532" lon="10.26762944632264"><ele>96.66666666666667</ele><time>2026-03-28T12:11:59.998Z</time></trkpt><trkpt lat="44.761694414098386" lon="10.267538423969206"><ele>96.5</ele><time>2026-03-28T12:12:00.998Z</time></trkpt><trkpt lat="44.761695810229234" lon="10.267433024282939"><ele>96.33333333333334</ele><time>2026-03-28T12:12:01.998Z</time></trkpt><trkpt lat="44.761701556282624" lon="10.267325527432423"><ele>96.16666666666667</ele><time>2026-03-28T12:12:02.998Z</time></trkpt><trkpt lat="44.76170213931292" lon="10.267204698802088"><ele>96.0</ele><time>2026-03-28T12:12:03.998Z</time></trkpt><trkpt lat="44.76170635878352" lon="10.267080778861382"><ele>96.0</ele><time>2026-03-28T12:12:04.998Z</time></trkpt><trkpt lat="44.761713226607085" lon="10.266975119684393"><ele>96.0</ele><time>2026-03-28T12:12:05.998Z</time></trkpt><trkpt lat="44.76171953933032" lon="10.266812741922987"><ele>96.0</ele><time>2026-03-28T12:12:07.998Z</time></trkpt><trkpt lat="44.7617252394661" lon="10.26665961744863"><ele>96.0</ele><time>2026-03-28T12:12:09.997Z</time></trkpt><trkpt lat="44.761730278316854" lon="10.266567170255527"><ele>96.0</ele><time>2026-03-28T12:12:10.997Z</time></trkpt><trkpt lat="44.76173414952968" lon="10.266469936876463"><ele>96.0</ele><time>2026-03-28T12:12:11.997Z</time></trkpt><trkpt lat="44.761738785987546" lon="10.266365050799557"><ele>96.0</ele><time>2026-03-28T12:12:12.997Z</time></trkpt><trkpt lat="44.76173985632359" lon="10.266276035000697"><ele>96.0</ele><time>2026-03-28T12:12:13.997Z</time></trkpt><trkpt lat="44.761745165610485" lon="10.266134419374287"><ele>96.0</ele><time>2026-03-28T12:12:15.997Z</time></trkpt><trkpt lat="44.76175049589809" lon="10.266012393211444"><ele>96.0</ele><time>2026-03-28T12:12:17.997Z</time></trkpt><trkpt lat="44.76175341136944" lon="10.265908211971189"><ele>96.0</ele><time>2026-03-28T12:12:27Z</time></trkpt><trkpt lat="44.761760433298356" lon="10.265741844962486"><ele>96.0</ele><time>2026-03-28T12:12:29Z</time></trkpt><trkpt lat="44.7617660322997" lon="10.26563388871992"><ele>96.14285714285714</ele><time>2026-03-28T12:12:30Z</time></trkpt><trkpt lat="44.76176918082929" lon="10.265529967154354"><ele>96.28571428571428</ele><time>2026-03-28T12:12:31Z</time></trkpt><trkpt lat="44.761774170071334" lon="10.265415005192718"><ele>96.42857142857142</ele><time>2026-03-28T12:12:33Z</time></trkpt><trkpt lat="44.761778914473055" lon="10.265319532367863"><ele>96.57142857142857</ele><time>2026-03-28T12:12:36Z</time></trkpt><trkpt lat="44.76178030706359" lon="10.265224767208133"><ele>96.71428571428572</ele><time>2026-03-28T12:12:39Z</time></trkpt><trkpt lat="44.76178641866607" lon="10.265125347878486"><ele>96.85714285714285</ele><time>2026-03-28T12:12:41Z</time></trkpt><trkpt lat="44.76179328403469" lon="10.265015091198471"><ele>97.0</ele><time>2026-03-28T12:12:44Z</time></trkpt><trkpt lat="44.761801474970326" lon="10.264885866571394"><ele>97.0</ele><time>2026-03-28T12:12:48.999Z</time></trkpt><trkpt lat="44.761806913660344" lon="10.264786352812996"><ele>97.0</ele><time>2026-03-28T12:12:51.999Z</time></trkpt><trkpt lat="44.76182464795939" lon="10.264629572436483"><ele>97.0</ele><time>2026-03-28T12:20:09.999Z</time></trkpt><trkpt lat="44.76183806639439" lon="10.264370779845736"><ele>97.0</ele><time>2026-03-28T12:20:12.999Z</time></trkpt><trkpt lat="44.76184150599595" lon="10.264260166872416"><ele>97.0</ele><time>2026-03-28T12:20:13.999Z</time></trkpt><trkpt lat="44.76184986804257" lon="10.264117326960001"><ele>97.16666666666667</ele><time>2026-03-28T12:20:14.999Z</time></trkpt><trkpt lat="44.76185305415838" lon="10.264005447254375"><ele>97.33333333333334</ele><time>2026-03-28T12:20:15.999Z</time></trkpt><trkpt lat="44.76185864859323" lon="10.263896202626725"><ele>97.5</ele><time>2026-03-28T12:20:16.999Z</time></trkpt><trkpt lat="44.76186185971375" lon="10.263791049066008"><ele>97.66666666666666</ele><time>2026-03-28T12:20:17.999Z</time></trkpt><trkpt lat="44.761861972693254" lon="10.263697654394159"><ele>97.83333333333333</ele><time>2026-03-28T12:20:18.999Z</time></trkpt><trkpt lat="44.761855922499855" lon="10.263583815376947"><ele>98.0</ele><time>2026-03-28T12:20:19.999Z</time></trkpt><trkpt lat="44.76184699505978" lon="10.26347381960772"><ele>98.33333333333333</ele><time>2026-03-28T12:20:20.999Z</time></trkpt><trkpt lat="44.76182292067451" lon="10.263375833002485"><ele>98.66666666666666</ele><time>2026-03-28T12:20:21.999Z</time></trkpt><trkpt lat="44.761795308862716" lon="10.263271319398457"><ele>99.0</ele><time>2026-03-28T12:20:22.999Z</time></trkpt><trkpt lat="44.76177372816501" lon="10.263156275431708"><ele>99.33333333333334</ele><time>2026-03-28T12:20:23.999Z</time></trkpt><trkpt lat="44.761751546108265" lon="10.263008236673247"><ele>99.66666666666667</ele><time>2026-03-28T12:20:24.999Z</time></trkpt><trkpt lat="44.761755462341775" lon="10.262881366374332"><ele>100.0</ele><time>2026-03-28T12:20:25.999Z</time></trkpt><trkpt lat="44.761764712770734" lon="10.262742911950872"><ele>100.0</ele><time>2026-03-28T12:20:26.999Z</time></trkpt><trkpt lat="44.761770174191426" lon="10.2626121594268"><ele>100.0</ele><time>2026-03-28T12:20:27.999Z</time></trkpt><trkpt lat="44.761778761208" lon="10.26247886947819"><ele>100.0</ele><time>2026-03-28T12:20:28.999Z</time></trkpt><trkpt lat="44.76178739632294" lon="10.26233630990329"><ele>100.0</ele><time>2026-03-28T12:20:29.999Z</time></trkpt><trkpt lat="44.76179801081541" lon="10.262187797500307"><ele>100.0</ele><time>2026-03-28T12:20:30.999Z</time></trkpt><trkpt lat="44.76180768978947" lon="10.262044162371156"><ele>99.6</ele><time>2026-03-28T12:20:31.999Z</time></trkpt><trkpt lat="44.761813942492495" lon="10.261901163130634"><ele>99.2</ele><time>2026-03-28T12:20:32.999Z</time></trkpt><trkpt lat="44.76182423182492" lon="10.261750816747155"><ele>98.80000000000001</ele><time>2026-03-28T12:20:33.999Z</time></trkpt><trkpt lat="44.76183197809261" lon="10.261596947252924"><ele>98.4</ele><time>2026-03-28T12:20:34.999Z</time></trkpt><trkpt lat="44.76183717880947" lon="10.261450820676728"><ele>98.0</ele><time>2026-03-28T12:20:35.999Z</time></trkpt><trkpt lat="44.76184310703568" lon="10.261307021371266"><ele>97.60000000000001</ele><time>2026-03-28T12:20:36.999Z</time></trkpt><trkpt lat="44.7618486853877" lon="10.261166598202186"><ele>97.2</ele><time>2026-03-28T12:20:37.999Z</time></trkpt><trkpt lat="44.76185770023856" lon="10.26102750468462"><ele>96.8</ele><time>2026-03-28T12:20:38.999Z</time></trkpt><trkpt lat="44.76186407816904" lon="10.26088204460185"><ele>96.4</ele><time>2026-03-28T12:20:39.999Z</time></trkpt><trkpt lat="44.76187633706145" lon="10.260749538728941"><ele>96.0</ele><time>2026-03-28T12:20:40.999Z</time></trkpt><trkpt lat="44.761897370702926" lon="10.260622818680215"><ele>96.19999999999999</ele><time>2026-03-28T12:20:41.999Z</time></trkpt><trkpt lat="44.76193847029002" lon="10.260499846487434"><ele>96.39999999999999</ele><time>2026-03-28T12:20:42.999Z</time></trkpt><trkpt lat="44.76198159632423" lon="10.260373117015533"><ele>96.6</ele><time>2026-03-28T12:20:43.999Z</time></trkpt><trkpt lat="44.76202822555918" lon="10.26025162120015"><ele>96.8</ele><time>2026-03-28T12:20:44.999Z</time></trkpt><trkpt lat="44.762076919664125" lon="10.260128335263259"><ele>97.0</ele><time>2026-03-28T12:20:45.999Z</time></trkpt><trkpt lat="44.762117820386834" lon="10.260016025971218"><ele>97.00000000000001</ele><time>2026-03-28T12:20:46.999Z</time></trkpt><trkpt lat="44.762151167062285" lon="10.259921755960317"><ele>97.0</ele><time>2026-03-28T12:20:47.999Z</time></trkpt><trkpt lat="44.7621788641555" lon="10.259837109133263"><ele>97.0</ele><time>2026-03-28T12:20:48.999Z</time></trkpt><trkpt lat="44.76220492834307" lon="10.259742683473483"><ele>97.0</ele><time>2026-03-28T12:20:49.999Z</time></trkpt><trkpt lat="44.76223284865644" lon="10.259641052366673"><ele>97.00000000000001</ele><time>2026-03-28T12:20:50.999Z</time></trkpt><trkpt lat="44.76225404976465" lon="10.259547528235844"><ele>97.0</ele><time>2026-03-28T12:20:51.999Z</time></trkpt><trkpt lat="44.76228392070817" lon="10.259378382963762"><ele>97.19999999999999</ele><time>2026-03-28T12:20:53.998Z</time></trkpt><trkpt lat="44.76231831580969" lon="10.259300533689963"><ele>97.4</ele><time>2026-03-28T12:20:54.998Z</time></trkpt><trkpt lat="44.76234213290217" lon="10.259142662445791"><ele>97.6</ele><time>2026-03-28T12:20:56.998Z</time></trkpt><trkpt lat="44.762395719140635" lon="10.25900066784688"><ele>97.80000000000001</ele><time>2026-03-28T12:20:58.998Z</time></trkpt><trkpt lat="44.76242644524663" lon="10.25890022760838"><ele>98.0</ele><time>2026-03-28T12:21:01.998Z</time></trkpt><trkpt lat="44.76227377337458" lon="10.258789521803042"><ele>97.99999999999999</ele><time>2026-03-28T12:21:05.998Z</time></trkpt><trkpt lat="44.76220586793418" lon="10.258769850125445"><ele>98.0</ele><time>2026-03-28T12:21:06.998Z</time></trkpt><trkpt lat="44.76213279992873" lon="10.258757884634841"><ele>98.0</ele><time>2026-03-28T12:21:07.998Z</time></trkpt><trkpt lat="44.76206360384383" lon="10.258746553235294"><ele>98.0</ele><time>2026-03-28T12:21:08.998Z</time></trkpt><trkpt lat="44.76198220916066" lon="10.258754841987031"><ele>97.99999999999999</ele><time>2026-03-28T12:21:10.998Z</time></trkpt><trkpt lat="44.76198072820923" lon="10.258569514832441"><ele>98.0</ele><time>2026-03-28T12:21:14.998Z</time></trkpt><trkpt lat="44.76199161802852" lon="10.258423642885806"><ele>98.0</ele><time>2026-03-28T12:21:16.998Z</time></trkpt><trkpt lat="44.76200558181838" lon="10.258272803378816"><ele>98.0</ele><time>2026-03-28T12:21:18.998Z</time></trkpt><trkpt lat="44.76201599321735" lon="10.258111934842196"><ele>98.0</ele><time>2026-03-28T12:21:20.998Z</time></trkpt><trkpt lat="44.76202813228801" lon="10.257959794442252"><ele>98.0</ele><time>2026-03-28T12:21:22.998Z</time></trkpt><trkpt lat="44.76203075748724" lon="10.257867802627231"><ele>98.0</ele><time>2026-03-28T12:21:23.998Z</time></trkpt><trkpt lat="44.762017324336334" lon="10.25769522368639"><ele>97.83333333333333</ele><time>2026-03-28T12:21:25.998Z</time></trkpt><trkpt lat="44.76200227371309" lon="10.257606311005198"><ele>97.66666666666666</ele><time>2026-03-28T12:21:26.998Z</time></trkpt><trkpt lat="44.761980763658244" lon="10.257512474497602"><ele>97.5</ele><time>2026-03-28T12:21:27.998Z</time></trkpt><trkpt lat="44.76195861458631" lon="10.257419495494537"><ele>97.33333333333334</ele><time>2026-03-28T12:21:28.998Z</time></trkpt><trkpt lat="44.761939633238725" lon="10.25732925293842"><ele>97.16666666666667</ele><time>2026-03-28T12:21:29.998Z</time></trkpt><trkpt lat="44.76192290600915" lon="10.257149930467083"><ele>97.0</ele><time>2026-03-28T12:21:31.998Z</time></trkpt><trkpt lat="44.76194050653366" lon="10.256975435025886"><ele>96.83333333333334</ele><time>2026-03-28T12:21:33.998Z</time></trkpt><trkpt lat="44.7619569603542" lon="10.25688922730318"><ele>96.66666666666667</ele><time>2026-03-28T12:21:34.998Z</time></trkpt><trkpt lat="44.76197363445853" lon="10.256792013047793"><ele>96.5</ele><time>2026-03-28T12:21:35.998Z</time></trkpt><trkpt lat="44.76200363131916" lon="10.256616124535102"><ele>96.33333333333334</ele><time>2026-03-28T12:21:37.998Z</time></trkpt><trkpt lat="44.76201711236757" lon="10.25652446618764"><ele>96.16666666666667</ele><time>2026-03-28T12:21:38.998Z</time></trkpt><trkpt lat="44.76203023145377" lon="10.2564330378212"><ele>96.0</ele><time>2026-03-28T12:21:39.998Z</time></trkpt><trkpt lat="44.76204201198751" lon="10.256337017924341"><ele>96.0</ele><time>2026-03-28T12:21:40.998Z</time></trkpt><trkpt lat="44.76205264666028" lon="10.256243145993816"><ele>96.0</ele><time>2026-03-28T12:21:41.998Z</time></trkpt><trkpt lat="44.762062260931536" lon="10.256144219535118"><ele>96.0</ele><time>2026-03-28T12:21:42.998Z</time></trkpt><trkpt lat="44.7620754202961" lon="10.256045600307125"><ele>96.0</ele><time>2026-03-28T12:21:43.998Z</time></trkpt><trkpt lat="44.7620868617633" lon="10.255957427044537"><ele>96.0</ele><time>2026-03-28T12:21:44.998Z</time></trkpt><trkpt lat="44.76212048693346" lon="10.255785499358586"><ele>96.0</ele><time>2026-03-28T12:21:46.997Z</time></trkpt><trkpt lat="44.76213997695272" lon="10.255693271519721"><ele>96.0</ele><time>2026-03-28T12:21:47.997Z</time></trkpt><trkpt lat="44.76215746957025" lon="10.255600570511465"><ele>96.0</ele><time>2026-03-28T12:21:48.997Z</time></trkpt><trkpt lat="44.76217109202286" lon="10.255506230023729"><ele>96.0</ele><time>2026-03-28T12:21:49.997Z</time></trkpt><trkpt lat="44.762196672654795" lon="10.255338328375302"><ele>96.0</ele><time>2026-03-28T12:21:51.997Z</time></trkpt><trkpt lat="44.762221708505535" lon="10.25519421583948"><ele>96.0</ele><time>2026-03-28T12:21:53.997Z</time></trkpt><trkpt lat="44.762239519460586" lon="10.25507756904544"><ele>96.0</ele><time>2026-03-28T12:21:55.997Z</time></trkpt><trkpt lat="44.76225066694011" lon="10.25498280873435"><ele>96.0</ele><time>2026-03-28T12:21:57.997Z</time></trkpt><trkpt lat="44.762216625950174" lon="10.25488950159442"><ele>96.0</ele><time>2026-03-28T12:22:00.997Z</time></trkpt><trkpt lat="44.76212598047847" lon="10.254861582582379"><ele>96.0</ele><time>2026-03-28T12:22:02.999Z</time></trkpt><trkpt lat="44.7619966961453" lon="10.254832755019065"><ele>96.0</ele><time>2026-03-28T12:22:04.999Z</time></trkpt><trkpt lat="44.76193444946155" lon="10.254780073367808"><ele>96.0</ele><time>2026-03-28T12:22:05.999Z</time></trkpt><trkpt lat="44.761861732356266" lon="10.254756879063669"><ele>96.0</ele><time>2026-03-28T12:22:06.999Z</time></trkpt><trkpt lat="44.76178936976662" lon="10.254735436507524"><ele>96.5</ele><time>2026-03-28T12:22:07.999Z</time></trkpt><trkpt lat="44.76171377750536" lon="10.254734134356841"><ele>97.0</ele><time>2026-03-28T12:22:08.999Z</time></trkpt><trkpt lat="44.76164037409499" lon="10.254713356349674"><ele>97.5</ele><time>2026-03-28T12:22:09.999Z</time></trkpt><trkpt lat="44.76156443015819" lon="10.254692115322516"><ele>98.0</ele><time>2026-03-28T12:22:10.999Z</time></trkpt><trkpt lat="44.76149031371872" lon="10.254668538149133"><ele>98.5</ele><time>2026-03-28T12:22:11.999Z</time></trkpt><trkpt lat="44.76141535619094" lon="10.25464650293821"><ele>99.0</ele><time>2026-03-28T12:22:12.999Z</time></trkpt><trkpt lat="44.76134102840896" lon="10.254621765606283"><ele>99.0</ele><time>2026-03-28T12:22:13.999Z</time></trkpt><trkpt lat="44.76127212884206" lon="10.254608007420908"><ele>99.0</ele><time>2026-03-28T12:22:14.999Z</time></trkpt><trkpt lat="44.76116878098368" lon="10.254575606849587"><ele>99.0</ele><time>2026-03-28T12:22:16.999Z</time></trkpt><trkpt lat="44.76105655598662" lon="10.254547877704221"><ele>99.0</ele><time>2026-03-28T12:22:18.999Z</time></trkpt><trkpt lat="44.760993300912915" lon="10.254536176677988"><ele>99.0</ele><time>2026-03-28T12:22:19.999Z</time></trkpt><trkpt lat="44.760930039344956" lon="10.254517085854335"><ele>99.0</ele><time>2026-03-28T12:22:20.999Z</time></trkpt><trkpt lat="44.76081067398787" lon="10.254467283745115"><ele>99.0</ele><time>2026-03-28T12:22:22.999Z</time></trkpt><trkpt lat="44.76073129741735" lon="10.254421231628422"><ele>99.0</ele><time>2026-03-28T12:22:24.999Z</time></trkpt><trkpt lat="44.760719294932954" lon="10.254299195886706"><ele>99.0</ele><time>2026-03-28T12:22:26.999Z</time></trkpt><trkpt lat="44.760745357663055" lon="10.254148460386835"><ele>99.0</ele><time>2026-03-28T12:22:28.999Z</time></trkpt><trkpt lat="44.76076064800741" lon="10.25405834909723"><ele>99.0</ele><time>2026-03-28T12:22:29.999Z</time></trkpt><trkpt lat="44.76078136770706" lon="10.25396176716063"><ele>99.0</ele><time>2026-03-28T12:22:30.999Z</time></trkpt><trkpt lat="44.76080081980576" lon="10.253862944927073"><ele>99.0</ele><time>2026-03-28T12:22:31.999Z</time></trkpt><trkpt lat="44.76081770652604" lon="10.253752437281973"><ele>99.0</ele><time>2026-03-28T12:22:32.999Z</time></trkpt><trkpt lat="44.760840687592804" lon="10.253640507664713"><ele>99.0</ele><time>2026-03-28T12:22:33.999Z</time></trkpt><trkpt lat="44.76085433390033" lon="10.253547237488407"><ele>99.0</ele><time>2026-03-28T12:22:34.999Z</time></trkpt><trkpt lat="44.760851896212785" lon="10.253420472836323"><ele>99.0</ele><time>2026-03-28T12:22:36.999Z</time></trkpt><trkpt lat="44.76081425948211" lon="10.253287302991948"><ele>99.0</ele><time>2026-03-28T12:22:38.999Z</time></trkpt><trkpt lat="44.76069916904072" lon="10.253259438476318"><ele>99.0</ele><time>2026-03-28T12:22:40.999Z</time></trkpt><trkpt lat="44.76058883393616" lon="10.253227680881501"><ele>99.0</ele><time>2026-03-28T12:22:42.999Z</time></trkpt><trkpt lat="44.76052616031238" lon="10.253207954684623"><ele>99.0</ele><time>2026-03-28T12:22:43.999Z</time></trkpt><trkpt lat="44.760461097740674" lon="10.253192530520826"><ele>99.0</ele><time>2026-03-28T12:22:44.999Z</time></trkpt><trkpt lat="44.760395462384295" lon="10.253174393592218"><ele>99.0</ele><time>2026-03-28T12:22:45.999Z</time></trkpt><trkpt lat="44.76032797704999" lon="10.253156263698633"><ele>99.0</ele><time>2026-03-28T12:22:46.999Z</time></trkpt><trkpt lat="44.760261162589956" lon="10.25313712495977"><ele>99.0</ele><time>2026-03-28T12:22:47.999Z</time></trkpt><trkpt lat="44.76019374534947" lon="10.253119161192865"><ele>99.83333333333333</ele><time>2026-03-28T12:22:48.999Z</time></trkpt><trkpt lat="44.76012540043372" lon="10.253103088329503"><ele>100.66666666666666</ele><time>2026-03-28T12:22:49.999Z</time></trkpt><trkpt lat="44.76006578881863" lon="10.253065264958574"><ele>101.5</ele><time>2026-03-28T12:22:50.999Z</time></trkpt><trkpt lat="44.75996044189352" lon="10.25304446667264"><ele>102.33333333333333</ele><time>2026-03-28T12:22:52.999Z</time></trkpt><trkpt lat="44.759916043331444" lon="10.252951191762008"><ele>103.16666666666666</ele><time>2026-03-28T12:22:54.999Z</time></trkpt><trkpt lat="44.759921120380795" lon="10.252804137917526"><ele>104.0</ele><time>2026-03-28T12:22:56.999Z</time></trkpt><trkpt lat="44.75990158787384" lon="10.25265445071644"><ele>104.0</ele><time>2026-03-28T12:22:58.999Z</time></trkpt><trkpt lat="44.75990798212873" lon="10.252493169335045"><ele>104.0</ele><time>2026-03-28T12:23:00.999Z</time></trkpt><trkpt lat="44.75990867301865" lon="10.252351718644169"><ele>104.0</ele><time>2026-03-28T12:23:02.999Z</time></trkpt><trkpt lat="44.7599032185351" lon="10.252210440688046"><ele>104.0</ele><time>2026-03-28T12:23:04.999Z</time></trkpt><trkpt lat="44.75990340732417" lon="10.252116917501473"><ele>104.0</ele><time>2026-03-28T12:23:07.999Z</time></trkpt><trkpt lat="44.75985304125806" lon="10.252039161419587"><ele>103.6</ele><time>2026-03-28T12:23:10.999Z</time></trkpt><trkpt lat="44.759758056437484" lon="10.252034369936824"><ele>103.2</ele><time>2026-03-28T12:23:12.999Z</time></trkpt><trkpt lat="44.75962548103987" lon="10.251999653798235"><ele>102.8</ele><time>2026-03-28T12:23:14.998Z</time></trkpt><trkpt lat="44.75955353764859" lon="10.25197975102215"><ele>102.39999999999999</ele><time>2026-03-28T12:23:15.998Z</time></trkpt><trkpt lat="44.75948511769712" lon="10.251958536192433"><ele>102.0</ele><time>2026-03-28T12:23:16.998Z</time></trkpt><trkpt lat="44.75936722438979" lon="10.251923288757409"><ele>102.8</ele><time>2026-03-28T12:23:18.998Z</time></trkpt><trkpt lat="44.75929841423722" lon="10.25190474716125"><ele>103.6</ele><time>2026-03-28T12:23:19.998Z</time></trkpt><trkpt lat="44.75919566625627" lon="10.251875662565324"><ele>104.39999999999999</ele><time>2026-03-28T12:23:21.998Z</time></trkpt><trkpt lat="44.7590995822307" lon="10.251849971360425"><ele>105.19999999999999</ele><time>2026-03-28T12:23:23.998Z</time></trkpt><trkpt lat="44.75900494554966" lon="10.25182693669314"><ele>106.0</ele><time>2026-03-28T12:23:25.998Z</time></trkpt><trkpt lat="44.758885260567446" lon="10.251795472568793"><ele>106.0</ele><time>2026-03-28T12:23:27.998Z</time></trkpt><trkpt lat="44.75875326440972" lon="10.251759511364488"><ele>106.0</ele><time>2026-03-28T12:23:29.998Z</time></trkpt><trkpt lat="44.75866619969921" lon="10.251740298183126"><ele>106.0</ele><time>2026-03-28T12:23:30.998Z</time></trkpt><trkpt lat="44.75858719271028" lon="10.251694501835829"><ele>106.0</ele><time>2026-03-28T12:23:31.998Z</time></trkpt><trkpt lat="44.758508650000714" lon="10.251672499654148"><ele>106.0</ele><time>2026-03-28T12:23:32.998Z</time></trkpt><trkpt lat="44.75840988244608" lon="10.251668438916827"><ele>106.0</ele><time>2026-03-28T12:23:33.998Z</time></trkpt><trkpt lat="44.75829213702493" lon="10.251624397678938"><ele>106.0</ele><time>2026-03-28T12:23:34.998Z</time></trkpt><trkpt lat="44.75815841566896" lon="10.2515896048056"><ele>106.0</ele><time>2026-03-28T12:23:35.998Z</time></trkpt><trkpt lat="44.75803066079237" lon="10.251550816006976"><ele>106.0</ele><time>2026-03-28T12:23:36.998Z</time></trkpt><trkpt lat="44.75790433841964" lon="10.251519366305516"><ele>106.0</ele><time>2026-03-28T12:23:37.998Z</time></trkpt><trkpt lat="44.75777895114432" lon="10.251483336503092"><ele>106.0</ele><time>2026-03-28T12:23:38.998Z</time></trkpt><trkpt lat="44.75765572821487" lon="10.25145220247258"><ele>106.0</ele><time>2026-03-28T12:23:39.998Z</time></trkpt><trkpt lat="44.757535310230914" lon="10.251396960106284"><ele>106.0</ele><time>2026-03-28T12:23:40.998Z</time></trkpt><trkpt lat="44.75740789305095" lon="10.251382568161326"><ele>105.5</ele><time>2026-03-28T12:23:41.998Z</time></trkpt><trkpt lat="44.75728524319958" lon="10.251337622865965"><ele>105.0</ele><time>2026-03-28T12:23:42.998Z</time></trkpt><trkpt lat="44.75715891457957" lon="10.251291376308616"><ele>104.5</ele><time>2026-03-28T12:23:43.998Z</time></trkpt><trkpt lat="44.75704040189291" lon="10.251257002611931"><ele>104.0</ele><time>2026-03-28T12:23:44.998Z</time></trkpt><trkpt lat="44.75692514364345" lon="10.251243417079513"><ele>105.0</ele><time>2026-03-28T12:23:45.998Z</time></trkpt><trkpt lat="44.75680474537948" lon="10.251204160586044"><ele>106.0</ele><time>2026-03-28T12:23:46.998Z</time></trkpt><trkpt lat="44.75669145836905" lon="10.251156638877125"><ele>107.0</ele><time>2026-03-28T12:23:47.998Z</time></trkpt><trkpt lat="44.75658755080017" lon="10.25112881801264"><ele>108.0</ele><time>2026-03-28T12:23:48.998Z</time></trkpt><trkpt lat="44.756492429166144" lon="10.251123953192092"><ele>109.0</ele><time>2026-03-28T12:23:49.998Z</time></trkpt><trkpt lat="44.75642073609366" lon="10.251084153990426"><ele>109.00000000000001</ele><time>2026-03-28T12:23:50.998Z</time></trkpt><trkpt lat="44.756347004535435" lon="10.251064287343898"><ele>109.0</ele><time>2026-03-28T12:23:51.998Z</time></trkpt><trkpt lat="44.75628434911695" lon="10.251046844810823"><ele>109.0</ele><time>2026-03-28T12:23:52.998Z</time></trkpt><trkpt lat="44.75621289720857" lon="10.251034866543687"><ele>109.0</ele><time>2026-03-28T12:23:54.998Z</time></trkpt><trkpt lat="44.75625258571965" lon="10.250847672220281"><ele>109.00000000000001</ele><time>2026-03-28T12:23:58.998Z</time></trkpt><trkpt lat="44.7562590095121" lon="10.250759410546186"><ele>109.0</ele><time>2026-03-28T12:23:59.998Z</time></trkpt><trkpt lat="44.75627992522875" lon="10.250666070460392"><ele>108.83333333333334</ele><time>2026-03-28T12:24:00.998Z</time></trkpt><trkpt lat="44.75630462365951" lon="10.250569529289894"><ele>108.66666666666667</ele><time>2026-03-28T12:24:01.998Z</time></trkpt><trkpt lat="44.756331488554544" lon="10.250467382600299"><ele>108.5</ele><time>2026-03-28T12:24:02.998Z</time></trkpt><trkpt lat="44.756357371191775" lon="10.250354036280509"><ele>108.33333333333334</ele><time>2026-03-28T12:24:03.998Z</time></trkpt><trkpt lat="44.756381660771886" lon="10.250238900053937"><ele>108.16666666666667</ele><time>2026-03-28T12:24:04.998Z</time></trkpt><trkpt lat="44.75641150608288" lon="10.250127614893946"><ele>108.0</ele><time>2026-03-28T12:24:05.998Z</time></trkpt><trkpt lat="44.75644290927416" lon="10.250005700131329"><ele>108.0</ele><time>2026-03-28T12:24:06.998Z</time></trkpt><trkpt lat="44.756471007423855" lon="10.249878861482141"><ele>108.00000000000001</ele><time>2026-03-28T12:24:07.998Z</time></trkpt><trkpt lat="44.7564995550395" lon="10.249752815242962"><ele>108.00000000000001</ele><time>2026-03-28T12:24:09Z</time></trkpt><trkpt lat="44.75653024806238" lon="10.249623950886772"><ele>108.0</ele><time>2026-03-28T12:24:10Z</time></trkpt><trkpt lat="44.75656047086076" lon="10.249493584029734"><ele>108.0</ele><time>2026-03-28T12:24:11Z</time></trkpt><trkpt lat="44.75659053017006" lon="10.249363424316984"><ele>108.0</ele><time>2026-03-28T12:24:12Z</time></trkpt><trkpt lat="44.75662037262269" lon="10.249231583575112"><ele>108.00000000000001</ele><time>2026-03-28T12:24:13Z</time></trkpt><trkpt lat="44.75664797566232" lon="10.249112439926128"><ele>108.00000000000001</ele><time>2026-03-28T12:24:14Z</time></trkpt><trkpt lat="44.756676033646656" lon="10.248989049508852"><ele>108.0</ele><time>2026-03-28T12:24:15Z</time></trkpt><trkpt lat="44.756708608715904" lon="10.248866772117427"><ele>108.0</ele><time>2026-03-28T12:24:16Z</time></trkpt><trkpt lat="44.7567336526323" lon="10.248750190125602"><ele>108.0</ele><time>2026-03-28T12:24:17Z</time></trkpt><trkpt lat="44.756756316040736" lon="10.248642576567075"><ele>108.0</ele><time>2026-03-28T12:24:18Z</time></trkpt><trkpt lat="44.7567796697945" lon="10.248534791449746"><ele>108.0</ele><time>2026-03-28T12:24:19Z</time></trkpt><trkpt lat="44.75680323759017" lon="10.248423948644012"><ele>108.0</ele><time>2026-03-28T12:24:20Z</time></trkpt><trkpt lat="44.75682776207905" lon="10.2483201476994"><ele>108.0</ele><time>2026-03-28T12:24:21Z</time></trkpt><trkpt lat="44.75685194447907" lon="10.248218150147318"><ele>108.0</ele><time>2026-03-28T12:24:22Z</time></trkpt><trkpt lat="44.75689091375883" lon="10.248116793108977"><ele>107.66666666666667</ele><time>2026-03-28T12:24:23Z</time></trkpt><trkpt lat="44.756913610373324" lon="10.248006344880238"><ele>107.33333333333334</ele><time>2026-03-28T12:24:24Z</time></trkpt><trkpt lat="44.75693358405433" lon="10.247898866770143"><ele>107.0</ele><time>2026-03-28T12:24:25Z</time></trkpt><trkpt lat="44.756940733286505" lon="10.24778059596227"><ele>106.66666666666667</ele><time>2026-03-28T12:24:26Z</time></trkpt><trkpt lat="44.75696808667148" lon="10.2476652529702"><ele>106.33333333333334</ele><time>2026-03-28T12:24:27Z</time></trkpt><trkpt lat="44.75699809053448" lon="10.247543143890068"><ele>106.0</ele><time>2026-03-28T12:24:28Z</time></trkpt><trkpt lat="44.757028124640954" lon="10.247426292535623"><ele>106.0</ele><time>2026-03-28T12:24:29Z</time></trkpt><trkpt lat="44.75705773472271" lon="10.24730679197358"><ele>106.0</ele><time>2026-03-28T12:24:30Z</time></trkpt><trkpt lat="44.75708733687748" lon="10.247185756412428"><ele>106.0</ele><time>2026-03-28T12:24:31Z</time></trkpt><trkpt lat="44.75711705431866" lon="10.247063400773206"><ele>106.0</ele><time>2026-03-28T12:24:32Z</time></trkpt><trkpt lat="44.75714760084875" lon="10.246944125738294"><ele>106.0</ele><time>2026-03-28T12:24:33Z</time></trkpt><trkpt lat="44.7571788255583" lon="10.24682254240384"><ele>106.19999999999999</ele><time>2026-03-28T12:24:34Z</time></trkpt><trkpt lat="44.757209181517844" lon="10.246698392060152"><ele>106.39999999999999</ele><time>2026-03-28T12:24:35Z</time></trkpt><trkpt lat="44.75723851241467" lon="10.246571850282239"><ele>106.6</ele><time>2026-03-28T12:24:36Z</time></trkpt><trkpt lat="44.757260933844535" lon="10.246443345083236"><ele>106.8</ele><time>2026-03-28T12:24:37Z</time></trkpt><trkpt lat="44.75729043185312" lon="10.246316952208508"><ele>107.0</ele><time>2026-03-28T12:24:38Z</time></trkpt><trkpt lat="44.757331186693214" lon="10.24619582667316"><ele>107.49999999999999</ele><time>2026-03-28T12:24:39Z</time></trkpt><trkpt lat="44.75736233598" lon="10.24608096585784"><ele>108.0</ele><time>2026-03-28T12:24:40Z</time></trkpt><trkpt lat="44.757389179669914" lon="10.245964866109915"><ele>108.5</ele><time>2026-03-28T12:24:41Z</time></trkpt><trkpt lat="44.757413741790344" lon="10.245855809610063"><ele>109.0</ele><time>2026-03-28T12:24:42Z</time></trkpt><trkpt lat="44.75743788090581" lon="10.24575272348197"><ele>109.49999999999999</ele><time>2026-03-28T12:24:43Z</time></trkpt><trkpt lat="44.757466450897674" lon="10.24567103433897"><ele>110.0</ele><time>2026-03-28T12:24:44Z</time></trkpt><trkpt lat="44.75748417860543" lon="10.24554974296904"><ele>110.0</ele><time>2026-03-28T12:24:46Z</time></trkpt><trkpt lat="44.75750261762137" lon="10.245450663650992"><ele>110.0</ele><time>2026-03-28T12:24:48Z</time></trkpt><trkpt lat="44.757532092953404" lon="10.245364081525159"><ele>110.0</ele><time>2026-03-28T12:24:56.999Z</time></trkpt><trkpt lat="44.757426575416325" lon="10.24523786561067"><ele>110.0</ele><time>2026-03-28T12:24:59.999Z</time></trkpt><trkpt lat="44.75733293741339" lon="10.245224270102444"><ele>110.0</ele><time>2026-03-28T12:25:00.999Z</time></trkpt><trkpt lat="44.75724814103663" lon="10.24519449903449"><ele>110.0</ele><time>2026-03-28T12:25:01.999Z</time></trkpt><trkpt lat="44.757135751133184" lon="10.245152961980512"><ele>110.0</ele><time>2026-03-28T12:25:02.999Z</time></trkpt><trkpt lat="44.757017777149024" lon="10.24510955090186"><ele>110.0</ele><time>2026-03-28T12:25:03.999Z</time></trkpt><trkpt lat="44.756917727144135" lon="10.245067423011655"><ele>110.0</ele><time>2026-03-28T12:25:04.999Z</time></trkpt><trkpt lat="44.75680717652064" lon="10.245029005002683"><ele>111.5</ele><time>2026-03-28T12:25:05.999Z</time></trkpt><trkpt lat="44.75668849610708" lon="10.244990154589065"><ele>113.0</ele><time>2026-03-28T12:25:06.999Z</time></trkpt><trkpt lat="44.75656368256828" lon="10.24494291786228"><ele>114.5</ele><time>2026-03-28T12:25:07.999Z</time></trkpt><trkpt lat="44.75643542004012" lon="10.244895195359037"><ele>116.0</ele><time>2026-03-28T12:25:08.999Z</time></trkpt><trkpt lat="44.75629786565217" lon="10.244851375059639"><ele>116.0</ele><time>2026-03-28T12:25:09.999Z</time></trkpt><trkpt lat="44.75615199979734" lon="10.244811597141055"><ele>116.0</ele><time>2026-03-28T12:25:10.999Z</time></trkpt><trkpt lat="44.756007307131526" lon="10.244764741127515"><ele>116.0</ele><time>2026-03-28T12:25:11.999Z</time></trkpt><trkpt lat="44.755861106189265" lon="10.244718863306701"><ele>116.0</ele><time>2026-03-28T12:25:12.999Z</time></trkpt><trkpt lat="44.75571491288019" lon="10.244671060178083"><ele>115.33333333333333</ele><time>2026-03-28T12:25:13.999Z</time></trkpt><trkpt lat="44.75556590168788" lon="10.244624419232393"><ele>114.66666666666666</ele><time>2026-03-28T12:25:14.999Z</time></trkpt><trkpt lat="44.755413157938186" lon="10.244576010800374"><ele>114.0</ele><time>2026-03-28T12:25:15.999Z</time></trkpt><trkpt lat="44.755257186712115" lon="10.244525918106373"><ele>113.0</ele><time>2026-03-28T12:25:16.999Z</time></trkpt><trkpt lat="44.75510064917809" lon="10.244473547457254"><ele>112.0</ele><time>2026-03-28T12:25:17.999Z</time></trkpt><trkpt lat="44.75494999011915" lon="10.244418019172533"><ele>111.0</ele><time>2026-03-28T12:25:18.999Z</time></trkpt><trkpt lat="44.754793963036974" lon="10.244359644888917"><ele>111.0</ele><time>2026-03-28T12:25:19.999Z</time></trkpt><trkpt lat="44.75463934676356" lon="10.244306008726534"><ele>111.0</ele><time>2026-03-28T12:25:20.999Z</time></trkpt><trkpt lat="44.75447794985039" lon="10.244252944594832"><ele>111.0</ele><time>2026-03-28T12:25:21.999Z</time></trkpt><trkpt lat="44.75431961454003" lon="10.244198454075468"><ele>113.33333333333334</ele><time>2026-03-28T12:25:22.999Z</time></trkpt><trkpt lat="44.75416176065288" lon="10.244146393199921"><ele>115.66666666666667</ele><time>2026-03-28T12:25:23.999Z</time></trkpt><trkpt lat="44.754006931259546" lon="10.244085760936818"><ele>118.0</ele><time>2026-03-28T12:25:24.999Z</time></trkpt><trkpt lat="44.75385123149957" lon="10.244026397613128"><ele>115.33333333333334</ele><time>2026-03-28T12:25:25.999Z</time></trkpt><trkpt lat="44.75369693713995" lon="10.243957736689378"><ele>112.66666666666666</ele><time>2026-03-28T12:25:26.999Z</time></trkpt><trkpt lat="44.753551176070836" lon="10.243868763282133"><ele>110.0</ele><time>2026-03-28T12:25:27.999Z</time></trkpt><trkpt lat="44.75341286362866" lon="10.243758908062324"><ele>110.0</ele><time>2026-03-28T12:25:28.999Z</time></trkpt><trkpt lat="44.753281064321676" lon="10.243623148983025"><ele>110.0</ele><time>2026-03-28T12:25:29.999Z</time></trkpt><trkpt lat="44.753148194904675" lon="10.24347691216537"><ele>110.0</ele><time>2026-03-28T12:25:30.999Z</time></trkpt><trkpt lat="44.7530086090662" lon="10.243336567828093"><ele>110.0</ele><time>2026-03-28T12:25:31.999Z</time></trkpt><trkpt lat="44.75286629634992" lon="10.243196620106007"><ele>110.0</ele><time>2026-03-28T12:25:32.999Z</time></trkpt><trkpt lat="44.75271848730191" lon="10.243057273396806"><ele>110.0</ele><time>2026-03-28T12:25:33.999Z</time></trkpt><trkpt lat="44.7525653775763" lon="10.2429314699677"><ele>111.33333333333333</ele><time>2026-03-28T12:25:34.999Z</time></trkpt><trkpt lat="44.752402879593625" lon="10.242826692624362"><ele>112.66666666666666</ele><time>2026-03-28T12:25:35.999Z</time></trkpt><trkpt lat="44.7522225473662" lon="10.242742195842112"><ele>114.0</ele><time>2026-03-28T12:25:36.999Z</time></trkpt><trkpt lat="44.752033839154265" lon="10.24267199247056"><ele>114.0</ele><time>2026-03-28T12:25:37.999Z</time></trkpt><trkpt lat="44.75186342451595" lon="10.242609009176661"><ele>114.0</ele><time>2026-03-28T12:25:38.999Z</time></trkpt><trkpt lat="44.75170469798014" lon="10.242541271293064"><ele>114.0</ele><time>2026-03-28T12:25:39.999Z</time></trkpt><trkpt lat="44.75155511301146" lon="10.242486683396521"><ele>114.0</ele><time>2026-03-28T12:25:40.999Z</time></trkpt><trkpt lat="44.751412048973854" lon="10.24244063652151"><ele>114.0</ele><time>2026-03-28T12:25:41.999Z</time></trkpt><trkpt lat="44.75126619678253" lon="10.24239160255929"><ele>114.0</ele><time>2026-03-28T12:25:42.999Z</time></trkpt><trkpt lat="44.751115793670955" lon="10.242337126276638"><ele>114.66666666666666</ele><time>2026-03-28T12:25:43.999Z</time></trkpt><trkpt lat="44.75096140204191" lon="10.242280751681179"><ele>115.33333333333333</ele><time>2026-03-28T12:25:44.999Z</time></trkpt><trkpt lat="44.750803422721276" lon="10.242224770635875"><ele>116.0</ele><time>2026-03-28T12:25:45.998Z</time></trkpt><trkpt lat="44.75064391353159" lon="10.242169774727731"><ele>116.0</ele><time>2026-03-28T12:25:46.998Z</time></trkpt><trkpt lat="44.750482565978" lon="10.242114200051333"><ele>116.0</ele><time>2026-03-28T12:25:47.998Z</time></trkpt><trkpt lat="44.75031793084842" lon="10.242058137399505"><ele>116.0</ele><time>2026-03-28T12:25:48.998Z</time></trkpt><trkpt lat="44.75014894453861" lon="10.242001577880414"><ele>116.66666666666666</ele><time>2026-03-28T12:25:49.998Z</time></trkpt><trkpt lat="44.749974587975004" lon="10.24194499736575"><ele>117.33333333333334</ele><time>2026-03-28T12:25:50.998Z</time></trkpt><trkpt lat="44.74980017018527" lon="10.241891861494377"><ele>118.0</ele><time>2026-03-28T12:25:51.998Z</time></trkpt><trkpt lat="44.749625870472315" lon="10.241836618123795"><ele>118.0</ele><time>2026-03-28T12:25:52.998Z</time></trkpt><trkpt lat="44.74945150750289" lon="10.241777599489463"><ele>118.0</ele><time>2026-03-28T12:25:53.998Z</time></trkpt><trkpt lat="44.74928081298149" lon="10.241718951329966"><ele>118.0</ele><time>2026-03-28T12:25:54.998Z</time></trkpt><trkpt lat="44.74910641950355" lon="10.24165879720252"><ele>118.0</ele><time>2026-03-28T12:25:55.998Z</time></trkpt><trkpt lat="44.748923996377044" lon="10.241574973876189"><ele>118.0</ele><time>2026-03-28T12:25:56.998Z</time></trkpt><trkpt lat="44.748726655578494" lon="10.241506755920323"><ele>118.0</ele><time>2026-03-28T12:25:57.998Z</time></trkpt><trkpt lat="44.74851831797766" lon="10.2414347365543"><ele>118.0</ele><time>2026-03-28T12:25:58.998Z</time></trkpt><trkpt lat="44.74830808572254" lon="10.241362061661134"><ele>118.0</ele><time>2026-03-28T12:25:59.998Z</time></trkpt><trkpt lat="44.748094800794384" lon="10.241288812013357"><ele>118.0</ele><time>2026-03-28T12:26:00.998Z</time></trkpt><trkpt lat="44.74787876680077" lon="10.24123207013526"><ele>118.0</ele><time>2026-03-28T12:26:01.998Z</time></trkpt><trkpt lat="44.747670574370076" lon="10.241155964335938"><ele>118.0</ele><time>2026-03-28T12:26:02.998Z</time></trkpt><trkpt lat="44.74747048660358" lon="10.241087738276667"><ele>118.0</ele><time>2026-03-28T12:26:03.998Z</time></trkpt><trkpt lat="44.747285688976625" lon="10.24102608813724"><ele>118.0</ele><time>2026-03-28T12:26:04.998Z</time></trkpt><trkpt lat="44.747109434428815" lon="10.240965848626521"><ele>118.0</ele><time>2026-03-28T12:26:05.998Z</time></trkpt><trkpt lat="44.746942514609536" lon="10.240909371562818"><ele>118.0</ele><time>2026-03-28T12:26:06.998Z</time></trkpt><trkpt lat="44.746773269396506" lon="10.24085392120375"><ele>118.66666666666667</ele><time>2026-03-28T12:26:07.998Z</time></trkpt><trkpt lat="44.74660469995328" lon="10.240798509802088"><ele>119.33333333333334</ele><time>2026-03-28T12:26:08.998Z</time></trkpt><trkpt lat="44.74643565078502" lon="10.240745222177528"><ele>120.0</ele><time>2026-03-28T12:26:09.998Z</time></trkpt><trkpt lat="44.74626466855444" lon="10.240693045240313"><ele>120.0</ele><time>2026-03-28T12:26:10.998Z</time></trkpt><trkpt lat="44.7460932275542" lon="10.240638444947075"><ele>120.0</ele><time>2026-03-28T12:26:11.998Z</time></trkpt><trkpt lat="44.74591958049182" lon="10.240580569528138"><ele>120.0</ele><time>2026-03-28T12:26:12.998Z</time></trkpt><trkpt lat="44.74574349850827" lon="10.240525015124636"><ele>120.33333333333334</ele><time>2026-03-28T12:26:14Z</time></trkpt><trkpt lat="44.74556566405963" lon="10.240477937898495"><ele>120.66666666666667</ele><time>2026-03-28T12:26:15Z</time></trkpt><trkpt lat="44.74538492592612" lon="10.240442431594905"><ele>121.0</ele><time>2026-03-28T12:26:16Z</time></trkpt><trkpt lat="44.745200850976374" lon="10.24040892284861"><ele>121.0</ele><time>2026-03-28T12:26:17Z</time></trkpt><trkpt lat="44.74501631864773" lon="10.240385467962932"><ele>121.0</ele><time>2026-03-28T12:26:18Z</time></trkpt><trkpt lat="44.7448290824634" lon="10.240361590049055"><ele>121.0</ele><time>2026-03-28T12:26:19Z</time></trkpt><trkpt lat="44.74464037747786" lon="10.240336223918263"><ele>121.0</ele><time>2026-03-28T12:26:20Z</time></trkpt><trkpt lat="44.74445029323709" lon="10.240314720225516"><ele>121.0</ele><time>2026-03-28T12:26:21Z</time></trkpt><trkpt lat="44.74425834943038" lon="10.240291245163139"><ele>121.0</ele><time>2026-03-28T12:26:22Z</time></trkpt><trkpt lat="44.74406412985166" lon="10.240269239033625"><ele>121.0</ele><time>2026-03-28T12:26:23Z</time></trkpt><trkpt lat="44.7438726350044" lon="10.24024609234155"><ele>121.0</ele><time>2026-03-28T12:26:24Z</time></trkpt><trkpt lat="44.74368717522979" lon="10.240209346989678"><ele>121.0</ele><time>2026-03-28T12:26:25Z</time></trkpt><trkpt lat="44.74350546217985" lon="10.24016107168024"><ele>121.0</ele><time>2026-03-28T12:26:26Z</time></trkpt><trkpt lat="44.743327303171" lon="10.240109783523083"><ele>121.0</ele><time>2026-03-28T12:26:27Z</time></trkpt><trkpt lat="44.74315438596511" lon="10.240058600757033"><ele>121.0</ele><time>2026-03-28T12:26:28Z</time></trkpt><trkpt lat="44.742983559280695" lon="10.240006977392673"><ele>121.0</ele><time>2026-03-28T12:26:29Z</time></trkpt><trkpt lat="44.74282451399452" lon="10.239958137935849"><ele>121.0</ele><time>2026-03-28T12:26:30Z</time></trkpt><trkpt lat="44.74267645969726" lon="10.239915782387445"><ele>121.0</ele><time>2026-03-28T12:26:31Z</time></trkpt><trkpt lat="44.74254858209627" lon="10.239880414563181"><ele>121.0</ele><time>2026-03-28T12:26:32Z</time></trkpt><trkpt lat="44.742441490394334" lon="10.239848297786036"><ele>120.83333333333334</ele><time>2026-03-28T12:26:33Z</time></trkpt><trkpt lat="44.74235164558862" lon="10.239815609793675"><ele>120.66666666666667</ele><time>2026-03-28T12:26:34Z</time></trkpt><trkpt lat="44.7422783224776" lon="10.239777571543454"><ele>120.5</ele><time>2026-03-28T12:26:35Z</time></trkpt><trkpt lat="44.74221526126026" lon="10.239727735733494"><ele>120.33333333333334</ele><time>2026-03-28T12:26:36Z</time></trkpt><trkpt lat="44.74214876228154" lon="10.239660849095706"><ele>120.16666666666667</ele><time>2026-03-28T12:26:37Z</time></trkpt><trkpt lat="44.74206840205844" lon="10.239613124341687"><ele>120.0</ele><time>2026-03-28T12:26:38Z</time></trkpt><trkpt lat="44.741989670861464" lon="10.239549817967317"><ele>121.5</ele><time>2026-03-28T12:26:39Z</time></trkpt><trkpt lat="44.74188042466105" lon="10.239611328048484"><ele>123.0</ele><time>2026-03-28T12:26:40Z</time></trkpt><trkpt lat="44.74177320438032" lon="10.239626319180992"><ele>124.5</ele><time>2026-03-28T12:26:41Z</time></trkpt><trkpt lat="44.74165592592309" lon="10.239607478489473"><ele>126.0</ele><time>2026-03-28T12:26:42Z</time></trkpt><trkpt lat="44.74153351239257" lon="10.23957637390016"><ele>126.0</ele><time>2026-03-28T12:26:43Z</time></trkpt><trkpt lat="44.74140018836062" lon="10.239535843673114"><ele>126.0</ele><time>2026-03-28T12:26:44Z</time></trkpt><trkpt lat="44.741261841618595" lon="10.239492903713872"><ele>126.0</ele><time>2026-03-28T12:26:45Z</time></trkpt><trkpt lat="44.74111859938836" lon="10.239450858809157"><ele>126.0</ele><time>2026-03-28T12:26:46Z</time></trkpt><trkpt lat="44.74097161030783" lon="10.239408232679065"><ele>126.0</ele><time>2026-03-28T12:26:47Z</time></trkpt><trkpt lat="44.74082747551045" lon="10.239363757086384"><ele>126.0</ele><time>2026-03-28T12:26:48Z</time></trkpt><trkpt lat="44.74067904145839" lon="10.239316821035775"><ele>126.0</ele><time>2026-03-28T12:26:49Z</time></trkpt><trkpt lat="44.740528549061466" lon="10.239269584146015"><ele>126.0</ele><time>2026-03-28T12:26:50Z</time></trkpt><trkpt lat="44.74037510339086" lon="10.239221952985499"><ele>126.0</ele><time>2026-03-28T12:26:51Z</time></trkpt><trkpt lat="44.740217087014884" lon="10.239173824306835"><ele>126.0</ele><time>2026-03-28T12:26:52Z</time></trkpt><trkpt lat="44.74005663822491" lon="10.2391235842257"><ele>126.0</ele><time>2026-03-28T12:26:53Z</time></trkpt><trkpt lat="44.73989462040118" lon="10.239072243761878"><ele>126.0</ele><time>2026-03-28T12:26:54Z</time></trkpt><trkpt lat="44.73973089446267" lon="10.239021514368915"><ele>126.0</ele><time>2026-03-28T12:26:55Z</time></trkpt><trkpt lat="44.73956426335768" lon="10.238969181634042"><ele>127.0</ele><time>2026-03-28T12:26:56Z</time></trkpt><trkpt lat="44.73939718962094" lon="10.238916713586644"><ele>128.0</ele><time>2026-03-28T12:26:57Z</time></trkpt><trkpt lat="44.739230628401074" lon="10.238867270914573"><ele>129.0</ele><time>2026-03-28T12:26:58Z</time></trkpt><trkpt lat="44.739062993942355" lon="10.23881837782114"><ele>129.0</ele><time>2026-03-28T12:26:59Z</time></trkpt><trkpt lat="44.738894774107244" lon="10.238766182066168"><ele>129.0</ele><time>2026-03-28T12:27:00Z</time></trkpt><trkpt lat="44.73872561419488" lon="10.23871561452829"><ele>129.0</ele><time>2026-03-28T12:27:01Z</time></trkpt><trkpt lat="44.73855814643071" lon="10.238668014623393"><ele>128.0</ele><time>2026-03-28T12:27:02Z</time></trkpt><trkpt lat="44.738391405524034" lon="10.238618310835022"><ele>127.0</ele><time>2026-03-28T12:27:02.999Z</time></trkpt><trkpt lat="44.73822568951227" lon="10.238568827018577"><ele>126.0</ele><time>2026-03-28T12:27:03.999Z</time></trkpt><trkpt lat="44.73806158618826" lon="10.238520776141394"><ele>126.0</ele><time>2026-03-28T12:27:04.999Z</time></trkpt><trkpt lat="44.73789610417935" lon="10.238472622209224"><ele>126.0</ele><time>2026-03-28T12:27:05.999Z</time></trkpt><trkpt lat="44.73773013476097" lon="10.238423596359672"><ele>126.0</ele><time>2026-03-28T12:27:06.999Z</time></trkpt><trkpt lat="44.737563550000075" lon="10.238375536522422"><ele>128.0</ele><time>2026-03-28T12:27:07.999Z</time></trkpt><trkpt lat="44.737392382279076" lon="10.238322197293332"><ele>130.0</ele><time>2026-03-28T12:27:08.999Z</time></trkpt><trkpt lat="44.737219070568955" lon="10.23826466245715"><ele>132.0</ele><time>2026-03-28T12:27:09.999Z</time></trkpt><trkpt lat="44.73704385640133" lon="10.2382108714467"><ele>132.0</ele><time>2026-03-28T12:27:10.999Z</time></trkpt><trkpt lat="44.73686838343152" lon="10.23815769167689"><ele>132.0</ele><time>2026-03-28T12:27:11.999Z</time></trkpt><trkpt lat="44.736694796713245" lon="10.238104333231584"><ele>132.0</ele><time>2026-03-28T12:27:12.999Z</time></trkpt><trkpt lat="44.736519535362284" lon="10.238052824576428"><ele>132.0</ele><time>2026-03-28T12:27:13.999Z</time></trkpt><trkpt lat="44.73634403067297" lon="10.23800070856256"><ele>132.0</ele><time>2026-03-28T12:27:14.999Z</time></trkpt><trkpt lat="44.736169652224156" lon="10.237948089812484"><ele>132.0</ele><time>2026-03-28T12:27:15.999Z</time></trkpt><trkpt lat="44.736000057641476" lon="10.237894661041445"><ele>133.0</ele><time>2026-03-28T12:27:16.999Z</time></trkpt><trkpt lat="44.73583913460854" lon="10.237842565706655"><ele>134.0</ele><time>2026-03-28T12:27:17.999Z</time></trkpt><trkpt lat="44.735676139756876" lon="10.237795346918421"><ele>135.0</ele><time>2026-03-28T12:27:18.999Z</time></trkpt><trkpt lat="44.735509309585765" lon="10.237747795943163"><ele>135.0</ele><time>2026-03-28T12:27:19.999Z</time></trkpt><trkpt lat="44.73533940577321" lon="10.237695188674877"><ele>135.0</ele><time>2026-03-28T12:27:20.999Z</time></trkpt><trkpt lat="44.73516750401163" lon="10.23764143516575"><ele>135.0</ele><time>2026-03-28T12:27:21.999Z</time></trkpt><trkpt lat="44.734995216738916" lon="10.237589954865868"><ele>135.33333333333334</ele><time>2026-03-28T12:27:22.999Z</time></trkpt><trkpt lat="44.73482116844838" lon="10.237537778188694"><ele>135.66666666666669</ele><time>2026-03-28T12:27:23.999Z</time></trkpt><trkpt lat="44.73464580462177" lon="10.237484688516387"><ele>136.0</ele><time>2026-03-28T12:27:24.999Z</time></trkpt><trkpt lat="44.73447238083625" lon="10.237431464473207"><ele>135.66666666666669</ele><time>2026-03-28T12:27:25.999Z</time></trkpt><trkpt lat="44.73430159139473" lon="10.237378535613974"><ele>135.33333333333334</ele><time>2026-03-28T12:27:26.999Z</time></trkpt><trkpt lat="44.73413321660354" lon="10.237327649799806"><ele>135.0</ele><time>2026-03-28T12:27:27.999Z</time></trkpt><trkpt lat="44.73396496694129" lon="10.237275975027947"><ele>134.66666666666666</ele><time>2026-03-28T12:27:28.999Z</time></trkpt><trkpt lat="44.73379750941132" lon="10.237225348225325"><ele>134.33333333333331</ele><time>2026-03-28T12:27:29.999Z</time></trkpt><trkpt lat="44.733627321729664" lon="10.237174849090326"><ele>134.0</ele><time>2026-03-28T12:27:30.999Z</time></trkpt><trkpt lat="44.733456242902676" lon="10.237124186485147"><ele>133.66666666666666</ele><time>2026-03-28T12:27:31.999Z</time></trkpt><trkpt lat="44.73328788611162" lon="10.23707429514582"><ele>133.33333333333334</ele><time>2026-03-28T12:27:32.999Z</time></trkpt><trkpt lat="44.73312187556739" lon="10.237024242616029"><ele>133.0</ele><time>2026-03-28T12:27:33.999Z</time></trkpt><trkpt lat="44.73295877118353" lon="10.236976672221047"><ele>133.0</ele><time>2026-03-28T12:27:34.999Z</time></trkpt><trkpt lat="44.732800412867846" lon="10.236931311162659"><ele>133.0</ele><time>2026-03-28T12:27:35.999Z</time></trkpt><trkpt lat="44.73265338442404" lon="10.236886705137284"><ele>133.0</ele><time>2026-03-28T12:27:36.999Z</time></trkpt><trkpt lat="44.73251599178764" lon="10.236843724644398"><ele>134.66666666666669</ele><time>2026-03-28T12:27:37.999Z</time></trkpt><trkpt lat="44.73237292602083" lon="10.236799929523642"><ele>136.33333333333334</ele><time>2026-03-28T12:27:38.999Z</time></trkpt><trkpt lat="44.73222515523282" lon="10.236755733211904"><ele>138.0</ele><time>2026-03-28T12:27:39.999Z</time></trkpt><trkpt lat="44.73207349958699" lon="10.236705643810602"><ele>138.0</ele><time>2026-03-28T12:27:40.999Z</time></trkpt><trkpt lat="44.73191853599154" lon="10.236653076780948"><ele>138.0</ele><time>2026-03-28T12:27:41.999Z</time></trkpt><trkpt lat="44.7317572137089" lon="10.236602065614296"><ele>138.0</ele><time>2026-03-28T12:27:42.999Z</time></trkpt><trkpt lat="44.731590654281085" lon="10.236550195274015"><ele>138.33333333333334</ele><time>2026-03-28T12:27:43.999Z</time></trkpt><trkpt lat="44.73142064128073" lon="10.236494400753935"><ele>138.66666666666669</ele><time>2026-03-28T12:27:44.999Z</time></trkpt><trkpt lat="44.73124849651357" lon="10.236440949046063"><ele>139.0</ele><time>2026-03-28T12:27:45.999Z</time></trkpt><trkpt lat="44.73107401202831" lon="10.236387004309185"><ele>139.33333333333334</ele><time>2026-03-28T12:27:46.999Z</time></trkpt><trkpt lat="44.730898291827764" lon="10.236334219453964"><ele>139.66666666666666</ele><time>2026-03-28T12:27:47.999Z</time></trkpt><trkpt lat="44.73072214133924" lon="10.236282884902698"><ele>140.0</ele><time>2026-03-28T12:27:48.999Z</time></trkpt><trkpt lat="44.73054580424891" lon="10.236230826129828"><ele>140.0</ele><time>2026-03-28T12:27:49.999Z</time></trkpt><trkpt lat="44.730368254443434" lon="10.236179170480808"><ele>140.0</ele><time>2026-03-28T12:27:50.999Z</time></trkpt><trkpt lat="44.73018970284355" lon="10.236124692966724"><ele>140.0</ele><time>2026-03-28T12:27:51.999Z</time></trkpt><trkpt lat="44.73001179560874" lon="10.236068283182577"><ele>140.33333333333331</ele><time>2026-03-28T12:27:52.999Z</time></trkpt><trkpt lat="44.72983424617808" lon="10.236012511003583"><ele>140.66666666666666</ele><time>2026-03-28T12:27:53.999Z</time></trkpt><trkpt lat="44.72965845602537" lon="10.235958624546578"><ele>141.0</ele><time>2026-03-28T12:27:54.999Z</time></trkpt><trkpt lat="44.72948088559562" lon="10.235904333810101"><ele>141.66666666666666</ele><time>2026-03-28T12:27:55.999Z</time></trkpt><trkpt lat="44.72930440941153" lon="10.235848065043776"><ele>142.33333333333331</ele><time>2026-03-28T12:27:56.999Z</time></trkpt><trkpt lat="44.72912688127442" lon="10.235792114181306"><ele>143.0</ele><time>2026-03-28T12:27:57.999Z</time></trkpt><trkpt lat="44.7289513256455" lon="10.235738245010648"><ele>143.0</ele><time>2026-03-28T12:27:58.999Z</time></trkpt><trkpt lat="44.72877701027719" lon="10.235683212557062"><ele>143.0</ele><time>2026-03-28T12:27:59.998Z</time></trkpt><trkpt lat="44.72860247918758" lon="10.235629412041842"><ele>143.0</ele><time>2026-03-28T12:28:00.998Z</time></trkpt><trkpt lat="44.72842472752066" lon="10.235576011025499"><ele>143.66666666666666</ele><time>2026-03-28T12:28:01.998Z</time></trkpt><trkpt lat="44.72824923309152" lon="10.235521073882323"><ele>144.33333333333334</ele><time>2026-03-28T12:28:02.998Z</time></trkpt><trkpt lat="44.728075209913975" lon="10.23546706317113"><ele>145.0</ele><time>2026-03-28T12:28:03.998Z</time></trkpt><trkpt lat="44.7279018283964" lon="10.23541470571706"><ele>145.0</ele><time>2026-03-28T12:28:04.998Z</time></trkpt><trkpt lat="44.727735010940414" lon="10.235365922766192"><ele>145.0</ele><time>2026-03-28T12:28:05.998Z</time></trkpt><trkpt lat="44.727573131365475" lon="10.235319586762444"><ele>145.0</ele><time>2026-03-28T12:28:06.998Z</time></trkpt><trkpt lat="44.7274167704104" lon="10.235268839087942"><ele>145.33333333333334</ele><time>2026-03-28T12:28:07.998Z</time></trkpt><trkpt lat="44.7272628748883" lon="10.235210962503096"><ele>145.66666666666666</ele><time>2026-03-28T12:28:08.998Z</time></trkpt><trkpt lat="44.72710931534489" lon="10.235153177072085"><ele>146.0</ele><time>2026-03-28T12:28:09.998Z</time></trkpt><trkpt lat="44.72695327804122" lon="10.235101104128647"><ele>146.66666666666666</ele><time>2026-03-28T12:28:10.998Z</time></trkpt><trkpt lat="44.72679565852475" lon="10.23505140949288"><ele>147.33333333333334</ele><time>2026-03-28T12:28:11.998Z</time></trkpt><trkpt lat="44.72663348705665" lon="10.235006869427957"><ele>148.0</ele><time>2026-03-28T12:28:12.998Z</time></trkpt><trkpt lat="44.726470007371255" lon="10.23495968480342"><ele>148.0</ele><time>2026-03-28T12:28:13.998Z</time></trkpt><trkpt lat="44.72630576050608" lon="10.234909876586883"><ele>148.0</ele><time>2026-03-28T12:28:14.998Z</time></trkpt><trkpt lat="44.72614784985772" lon="10.2348584953531"><ele>148.0</ele><time>2026-03-28T12:28:15.998Z</time></trkpt><trkpt lat="44.725998260200974" lon="10.234822860764893"><ele>148.0</ele><time>2026-03-28T12:28:16.998Z</time></trkpt><trkpt lat="44.725850588338226" lon="10.23477997175915"><ele>148.0</ele><time>2026-03-28T12:28:17.998Z</time></trkpt><trkpt lat="44.725701049234075" lon="10.234732288361746"><ele>148.0</ele><time>2026-03-28T12:28:18.998Z</time></trkpt><trkpt lat="44.72554905808019" lon="10.23468855589255"><ele>148.0</ele><time>2026-03-28T12:28:20Z</time></trkpt><trkpt lat="44.72539388217028" lon="10.234652709112776"><ele>148.0</ele><time>2026-03-28T12:28:21Z</time></trkpt><trkpt lat="44.725235880347704" lon="10.234607274963262"><ele>148.0</ele><time>2026-03-28T12:28:22Z</time></trkpt><trkpt lat="44.72506456803582" lon="10.234552758766899"><ele>148.0</ele><time>2026-03-28T12:28:23Z</time></trkpt><trkpt lat="44.72489344305043" lon="10.234506841917847"><ele>148.0</ele><time>2026-03-28T12:28:24Z</time></trkpt><trkpt lat="44.7247367197193" lon="10.234464370796305"><ele>148.0</ele><time>2026-03-28T12:28:25Z</time></trkpt><trkpt lat="44.7245878061844" lon="10.234424859514192"><ele>148.0</ele><time>2026-03-28T12:28:26Z</time></trkpt><trkpt lat="44.724431874498734" lon="10.23437071281868"><ele>148.0</ele><time>2026-03-28T12:28:27Z</time></trkpt><trkpt lat="44.72427105401089" lon="10.234321818007"><ele>148.0</ele><time>2026-03-28T12:28:28Z</time></trkpt><trkpt lat="44.724107553491" lon="10.234271671886574"><ele>148.33333333333334</ele><time>2026-03-28T12:28:29Z</time></trkpt><trkpt lat="44.72394310859592" lon="10.23422523007595"><ele>148.66666666666666</ele><time>2026-03-28T12:28:30Z</time></trkpt><trkpt lat="44.72377866972326" lon="10.234175452371773"><ele>149.0</ele><time>2026-03-28T12:28:31Z</time></trkpt><trkpt lat="44.723613272753965" lon="10.234122890135374"><ele>150.0</ele><time>2026-03-28T12:28:32Z</time></trkpt><trkpt lat="44.7234502834709" lon="10.234073539455682"><ele>151.0</ele><time>2026-03-28T12:28:33Z</time></trkpt><trkpt lat="44.7232936085734" lon="10.23402101169356"><ele>152.0</ele><time>2026-03-28T12:28:34Z</time></trkpt><trkpt lat="44.72313582178134" lon="10.233972353983717"><ele>152.0</ele><time>2026-03-28T12:28:35Z</time></trkpt><trkpt lat="44.722987897372384" lon="10.233927894201873"><ele>152.0</ele><time>2026-03-28T12:28:36Z</time></trkpt><trkpt lat="44.72284981330779" lon="10.233885816511934"><ele>152.0</ele><time>2026-03-28T12:28:37Z</time></trkpt><trkpt lat="44.72272344700913" lon="10.233848935452286"><ele>152.0</ele><time>2026-03-28T12:28:38Z</time></trkpt><trkpt lat="44.72260566677231" lon="10.233814612312274"><ele>152.2</ele><time>2026-03-28T12:28:39Z</time></trkpt><trkpt lat="44.722489900575454" lon="10.233783850366942"><ele>152.39999999999998</ele><time>2026-03-28T12:28:40Z</time></trkpt><trkpt lat="44.72237207780344" lon="10.233750039338418"><ele>152.60000000000002</ele><time>2026-03-28T12:28:41Z</time></trkpt><trkpt lat="44.722266934383995" lon="10.233712595464636"><ele>152.8</ele><time>2026-03-28T12:28:42Z</time></trkpt><trkpt lat="44.722171415552815" lon="10.233666050206974"><ele>153.0</ele><time>2026-03-28T12:28:43Z</time></trkpt><trkpt lat="44.722094431342086" lon="10.233608999295015"><ele>153.0</ele><time>2026-03-28T12:28:44Z</time></trkpt><trkpt lat="44.722025761127156" lon="10.233534039058542"><ele>153.0</ele><time>2026-03-28T12:28:45Z</time></trkpt><trkpt lat="44.72197068119264" lon="10.2334336423732"><ele>153.0</ele><time>2026-03-28T12:28:46Z</time></trkpt><trkpt lat="44.7219143363369" lon="10.233357419060674"><ele>153.0</ele><time>2026-03-28T12:28:47Z</time></trkpt><trkpt lat="44.72184727390907" lon="10.233323797816201"><ele>153.0</ele><time>2026-03-28T12:28:48Z</time></trkpt><trkpt lat="44.72177147778827" lon="10.233319130919055"><ele>153.0</ele><time>2026-03-28T12:28:49Z</time></trkpt><trkpt lat="44.72169688737183" lon="10.233358743976284"><ele>153.0</ele><time>2026-03-28T12:28:50Z</time></trkpt><trkpt lat="44.72162202540953" lon="10.233415874393186"><ele>153.0</ele><time>2026-03-28T12:28:51Z</time></trkpt><trkpt lat="44.721524207971456" lon="10.233441879348659"><ele>153.0</ele><time>2026-03-28T12:28:52Z</time></trkpt><trkpt lat="44.72143863732625" lon="10.233504840124597"><ele>153.0</ele><time>2026-03-28T12:28:53Z</time></trkpt><trkpt lat="44.72130223078577" lon="10.233412575972496"><ele>153.0</ele><time>2026-03-28T12:28:54Z</time></trkpt><trkpt lat="44.72118776801423" lon="10.233379918510476"><ele>153.0</ele><time>2026-03-28T12:28:55Z</time></trkpt><trkpt lat="44.721066166347484" lon="10.233341870542027"><ele>153.0</ele><time>2026-03-28T12:28:56Z</time></trkpt><trkpt lat="44.72093835537823" lon="10.23329848633928"><ele>153.0</ele><time>2026-03-28T12:28:57Z</time></trkpt><trkpt lat="44.72080523821312" lon="10.233255766660113"><ele>153.0</ele><time>2026-03-28T12:28:58Z</time></trkpt><trkpt lat="44.72066687722491" lon="10.23321600732174"><ele>153.75</ele><time>2026-03-28T12:28:59Z</time></trkpt><trkpt lat="44.72052840868769" lon="10.233175034402583"><ele>154.5</ele><time>2026-03-28T12:29:00Z</time></trkpt><trkpt lat="44.720399169119894" lon="10.233133788655946"><ele>155.25</ele><time>2026-03-28T12:29:01Z</time></trkpt><trkpt lat="44.720270330970926" lon="10.233092108357633"><ele>156.0</ele><time>2026-03-28T12:29:02Z</time></trkpt><trkpt lat="44.720143166729336" lon="10.233049577262413"><ele>156.25</ele><time>2026-03-28T12:29:03Z</time></trkpt><trkpt lat="44.72001701604637" lon="10.233010635475999"><ele>156.5</ele><time>2026-03-28T12:29:04Z</time></trkpt><trkpt lat="44.71988740789639" lon="10.23297167749888"><ele>156.75</ele><time>2026-03-28T12:29:05Z</time></trkpt><trkpt lat="44.71975666461993" lon="10.232935757453605"><ele>157.0</ele><time>2026-03-28T12:29:06Z</time></trkpt><trkpt lat="44.719624087793" lon="10.232898610776132"><ele>157.0</ele><time>2026-03-28T12:29:07Z</time></trkpt><trkpt lat="44.719491027454055" lon="10.232862524296264"><ele>157.0</ele><time>2026-03-28T12:29:08Z</time></trkpt><trkpt lat="44.719369160525865" lon="10.232831620334796"><ele>157.0</ele><time>2026-03-28T12:29:09Z</time></trkpt><trkpt lat="44.71926148441448" lon="10.232796406073405"><ele>157.0</ele><time>2026-03-28T12:29:10Z</time></trkpt><trkpt lat="44.71916055215378" lon="10.2327656361766"><ele>157.0</ele><time>2026-03-28T12:29:11Z</time></trkpt><trkpt lat="44.71905706460037" lon="10.23273154736208"><ele>157.0</ele><time>2026-03-28T12:29:12Z</time></trkpt><trkpt lat="44.71894850569453" lon="10.232695913329106"><ele>157.0</ele><time>2026-03-28T12:29:13Z</time></trkpt><trkpt lat="44.71883586667797" lon="10.23265985814333"><ele>157.0</ele><time>2026-03-28T12:29:14Z</time></trkpt><trkpt lat="44.71872042006905" lon="10.232622445544544"><ele>157.0</ele><time>2026-03-28T12:29:15Z</time></trkpt><trkpt lat="44.71860649917057" lon="10.232590037752882"><ele>157.0</ele><time>2026-03-28T12:29:16Z</time></trkpt><trkpt lat="44.71849718937922" lon="10.232559010987432"><ele>157.0</ele><time>2026-03-28T12:29:16.999Z</time></trkpt><trkpt lat="44.718399451826876" lon="10.232530583302214"><ele>157.0</ele><time>2026-03-28T12:29:17.999Z</time></trkpt><trkpt lat="44.718309994704875" lon="10.232500880557703"><ele>157.0</ele><time>2026-03-28T12:29:18.999Z</time></trkpt><trkpt lat="44.71823061297678" lon="10.232476381828405"><ele>157.16666666666669</ele><time>2026-03-28T12:29:19.999Z</time></trkpt><trkpt lat="44.7181571936603" lon="10.2324579018697"><ele>157.33333333333334</ele><time>2026-03-28T12:29:20.999Z</time></trkpt><trkpt lat="44.718085515948125" lon="10.2324397545815"><ele>157.5</ele><time>2026-03-28T12:29:21.999Z</time></trkpt><trkpt lat="44.71800928954237" lon="10.232413847155803"><ele>157.66666666666666</ele><time>2026-03-28T12:29:22.999Z</time></trkpt><trkpt lat="44.717929864697325" lon="10.232393420217115"><ele>157.83333333333331</ele><time>2026-03-28T12:29:23.999Z</time></trkpt><trkpt lat="44.71784604470724" lon="10.232371127783052"><ele>158.0</ele><time>2026-03-28T12:29:24.999Z</time></trkpt><trkpt lat="44.71775771597838" lon="10.232342785589344"><ele>158.25</ele><time>2026-03-28T12:29:25.999Z</time></trkpt><trkpt lat="44.7176598383692" lon="10.232304300815537"><ele>158.5</ele><time>2026-03-28T12:29:26.999Z</time></trkpt><trkpt lat="44.71755479215571" lon="10.23226852877915"><ele>158.75</ele><time>2026-03-28T12:29:27.999Z</time></trkpt><trkpt lat="44.71743971578297" lon="10.232231596867111"><ele>159.0</ele><time>2026-03-28T12:29:28.999Z</time></trkpt><trkpt lat="44.71732108379072" lon="10.23219124523486"><ele>159.0</ele><time>2026-03-28T12:29:29.999Z</time></trkpt><trkpt lat="44.717194987180065" lon="10.23215202407449"><ele>159.0</ele><time>2026-03-28T12:29:30.999Z</time></trkpt><trkpt lat="44.717064632144236" lon="10.23211288585813"><ele>159.0</ele><time>2026-03-28T12:29:31.999Z</time></trkpt><trkpt lat="44.71693141285115" lon="10.232071304796607"><ele>159.0</ele><time>2026-03-28T12:29:32.999Z</time></trkpt><trkpt lat="44.71679822625861" lon="10.232026809872629"><ele>159.75</ele><time>2026-03-28T12:29:33.999Z</time></trkpt><trkpt lat="44.71666455244221" lon="10.231981611314115"><ele>160.5</ele><time>2026-03-28T12:29:34.999Z</time></trkpt><trkpt lat="44.71652653063105" lon="10.231937735530483"><ele>161.25</ele><time>2026-03-28T12:29:35.999Z</time></trkpt><trkpt lat="44.716388286185385" lon="10.231897614926446"><ele>162.0</ele><time>2026-03-28T12:29:36.999Z</time></trkpt><trkpt lat="44.716251230842694" lon="10.23186079555241"><ele>162.0</ele><time>2026-03-28T12:29:37.999Z</time></trkpt><trkpt lat="44.71611315460803" lon="10.231819431724388"><ele>162.0</ele><time>2026-03-28T12:29:38.999Z</time></trkpt><trkpt lat="44.71597533943478" lon="10.231778398071556"><ele>162.0</ele><time>2026-03-28T12:29:39.999Z</time></trkpt><trkpt lat="44.71585454344563" lon="10.231738847005944"><ele>162.0</ele><time>2026-03-28T12:29:40.999Z</time></trkpt><trkpt lat="44.71574712036418" lon="10.23170394906123"><ele>162.2</ele><time>2026-03-28T12:29:41.999Z</time></trkpt><trkpt lat="44.715644446215656" lon="10.231670927252761"><ele>162.39999999999998</ele><time>2026-03-28T12:29:42.999Z</time></trkpt><trkpt lat="44.71553264104606" lon="10.231639107891883"><ele>162.60000000000002</ele><time>2026-03-28T12:29:43.999Z</time></trkpt><trkpt lat="44.715421592750765" lon="10.231602179086016"><ele>162.8</ele><time>2026-03-28T12:29:44.999Z</time></trkpt><trkpt lat="44.715324185224084" lon="10.231568058541631"><ele>163.0</ele><time>2026-03-28T12:29:45.999Z</time></trkpt><trkpt lat="44.715226384437166" lon="10.231533628368021"><ele>163.0</ele><time>2026-03-28T12:29:46.999Z</time></trkpt><trkpt lat="44.71513106973464" lon="10.23150284770416"><ele>163.0</ele><time>2026-03-28T12:29:47.999Z</time></trkpt><trkpt lat="44.715038374336146" lon="10.2314759492234"><ele>163.0</ele><time>2026-03-28T12:29:48.999Z</time></trkpt><trkpt lat="44.71493854885166" lon="10.231441873465158"><ele>163.0</ele><time>2026-03-28T12:29:49.999Z</time></trkpt><trkpt lat="44.71483466823267" lon="10.231408029961312"><ele>163.0</ele><time>2026-03-28T12:29:50.999Z</time></trkpt><trkpt lat="44.714726865916816" lon="10.231371620312432"><ele>163.0</ele><time>2026-03-28T12:29:51.999Z</time></trkpt><trkpt lat="44.71461935871436" lon="10.231333906744558"><ele>163.0</ele><time>2026-03-28T12:29:52.999Z</time></trkpt><trkpt lat="44.71452071495076" lon="10.23130294025975"><ele>163.0</ele><time>2026-03-28T12:29:53.999Z</time></trkpt><trkpt lat="44.714416844058384" lon="10.231280543694291"><ele>163.0</ele><time>2026-03-28T12:29:54.999Z</time></trkpt><trkpt lat="44.71431276973893" lon="10.231252094257131"><ele>163.0</ele><time>2026-03-28T12:29:55.999Z</time></trkpt><trkpt lat="44.714206204726075" lon="10.231223078074724"><ele>163.60000000000002</ele><time>2026-03-28T12:29:56.999Z</time></trkpt><trkpt lat="44.71409642160369" lon="10.231200877166645"><ele>164.20000000000002</ele><time>2026-03-28T12:29:57.999Z</time></trkpt><trkpt lat="44.71398676576123" lon="10.231196788025187"><ele>164.8</ele><time>2026-03-28T12:29:58.999Z</time></trkpt><trkpt lat="44.71387523647463" lon="10.231214455861677"><ele>165.4</ele><time>2026-03-28T12:29:59.999Z</time></trkpt><trkpt lat="44.713762008037996" lon="10.231245057398057"><ele>166.0</ele><time>2026-03-28T12:30:00.999Z</time></trkpt><trkpt lat="44.71364906134754" lon="10.231287779073634"><ele>166.4</ele><time>2026-03-28T12:30:01.999Z</time></trkpt><trkpt lat="44.71353228951279" lon="10.231332568166854"><ele>166.8</ele><time>2026-03-28T12:30:02.999Z</time></trkpt><trkpt lat="44.71342244254352" lon="10.23137104228637"><ele>167.20000000000002</ele><time>2026-03-28T12:30:03.999Z</time></trkpt><trkpt lat="44.713326593139406" lon="10.231402591914"><ele>167.60000000000002</ele><time>2026-03-28T12:30:04.999Z</time></trkpt><trkpt lat="44.713231450729644" lon="10.231442439207061"><ele>168.0</ele><time>2026-03-28T12:30:05.999Z</time></trkpt><trkpt lat="44.713130672825145" lon="10.231484009376322"><ele>168.0</ele><time>2026-03-28T12:30:06.999Z</time></trkpt><trkpt lat="44.713025747385814" lon="10.231528619157677"><ele>168.0</ele><time>2026-03-28T12:30:07.999Z</time></trkpt><trkpt lat="44.712921548303754" lon="10.231571769791"><ele>168.0</ele><time>2026-03-28T12:30:08.999Z</time></trkpt><trkpt lat="44.71281812416074" lon="10.231607872741243"><ele>168.0</ele><time>2026-03-28T12:30:09.999Z</time></trkpt><trkpt lat="44.71271680666014" lon="10.231651031817421"><ele>168.0</ele><time>2026-03-28T12:30:10.999Z</time></trkpt><trkpt lat="44.712618416234996" lon="10.231696927493523"><ele>167.60000000000002</ele><time>2026-03-28T12:30:11.999Z</time></trkpt><trkpt lat="44.71252273760597" lon="10.231757761683285"><ele>167.20000000000002</ele><time>2026-03-28T12:30:12.999Z</time></trkpt><trkpt lat="44.71243251398308" lon="10.231841549227944"><ele>166.8</ele><time>2026-03-28T12:30:13.999Z</time></trkpt><trkpt lat="44.71235061020134" lon="10.231950695263212"><ele>166.4</ele><time>2026-03-28T12:30:14.998Z</time></trkpt><trkpt lat="44.712282563562" lon="10.232073207366303"><ele>166.0</ele><time>2026-03-28T12:30:15.998Z</time></trkpt><trkpt lat="44.712230176969925" lon="10.232192489592544"><ele>166.0</ele><time>2026-03-28T12:30:16.998Z</time></trkpt><trkpt lat="44.712181925393566" lon="10.232302688704289"><ele>166.0</ele><time>2026-03-28T12:30:17.998Z</time></trkpt><trkpt lat="44.7121252895076" lon="10.232431073925424"><ele>166.0</ele><time>2026-03-28T12:30:18.998Z</time></trkpt><trkpt lat="44.712071722315514" lon="10.232546398530726"><ele>166.0</ele><time>2026-03-28T12:30:19.998Z</time></trkpt><trkpt lat="44.7120223887857" lon="10.232656020233721"><ele>166.0</ele><time>2026-03-28T12:30:20.998Z</time></trkpt><trkpt lat="44.71196857368131" lon="10.232774511287118"><ele>166.20000000000002</ele><time>2026-03-28T12:30:21.998Z</time></trkpt><trkpt lat="44.71191332446155" lon="10.232897261679485"><ele>166.4</ele><time>2026-03-28T12:30:22.998Z</time></trkpt><trkpt lat="44.71185650653315" lon="10.23302703244159"><ele>166.6</ele><time>2026-03-28T12:30:23.998Z</time></trkpt><trkpt lat="44.71179803533987" lon="10.233161506545454"><ele>166.8</ele><time>2026-03-28T12:30:25.001Z</time></trkpt><trkpt lat="44.7117363849895" lon="10.233298533045"><ele>167.0</ele><time>2026-03-28T12:30:26.001Z</time></trkpt><trkpt lat="44.71167889979969" lon="10.233428784242317"><ele>167.0</ele><time>2026-03-28T12:30:27.001Z</time></trkpt><trkpt lat="44.711623563119936" lon="10.233553985660173"><ele>167.0</ele><time>2026-03-28T12:30:28.001Z</time></trkpt><trkpt lat="44.71156574486357" lon="10.23368210866374"><ele>167.0</ele><time>2026-03-28T12:30:29.001Z</time></trkpt><trkpt lat="44.71150969486709" lon="10.233814653295841"><ele>167.0</ele><time>2026-03-28T12:30:30.001Z</time></trkpt><trkpt lat="44.71145411965485" lon="10.233949842871112"><ele>167.0</ele><time>2026-03-28T12:30:31.001Z</time></trkpt><trkpt lat="44.71139761373954" lon="10.234086235262213"><ele>166.25</ele><time>2026-03-28T12:30:32.001Z</time></trkpt><trkpt lat="44.71133974584097" lon="10.23422310811928"><ele>165.5</ele><time>2026-03-28T12:30:33.001Z</time></trkpt><trkpt lat="44.711279617389295" lon="10.234359972748328"><ele>164.75</ele><time>2026-03-28T12:30:34.001Z</time></trkpt><trkpt lat="44.711220827248475" lon="10.234498209966425"><ele>164.0</ele><time>2026-03-28T12:30:35.001Z</time></trkpt><trkpt lat="44.71116505678612" lon="10.23463641814417"><ele>164.0</ele><time>2026-03-28T12:30:36.001Z</time></trkpt><trkpt lat="44.71111052060061" lon="10.234766609276594"><ele>164.0</ele><time>2026-03-28T12:30:37.001Z</time></trkpt><trkpt lat="44.71105329516473" lon="10.234893598443605"><ele>164.0</ele><time>2026-03-28T12:30:38.001Z</time></trkpt><trkpt lat="44.710993743282046" lon="10.235022573326976"><ele>164.0</ele><time>2026-03-28T12:30:39.001Z</time></trkpt><trkpt lat="44.710934981048446" lon="10.235151047041638"><ele>164.0</ele><time>2026-03-28T12:30:40.001Z</time></trkpt><trkpt lat="44.710878569409154" lon="10.235280465582234"><ele>164.0</ele><time>2026-03-28T12:30:41.001Z</time></trkpt><trkpt lat="44.71082135005786" lon="10.235411720503949"><ele>164.0</ele><time>2026-03-28T12:30:42.001Z</time></trkpt><trkpt lat="44.71076598944522" lon="10.235540719609677"><ele>164.0</ele><time>2026-03-28T12:30:43.001Z</time></trkpt><trkpt lat="44.71071173113498" lon="10.235667814078433"><ele>164.0</ele><time>2026-03-28T12:30:44.001Z</time></trkpt><trkpt lat="44.71066055990865" lon="10.23579133486784"><ele>164.0</ele><time>2026-03-28T12:30:45.001Z</time></trkpt><trkpt lat="44.710611483708" lon="10.235909113460675"><ele>163.79999999999998</ele><time>2026-03-28T12:30:46Z</time></trkpt><trkpt lat="44.710561431087505" lon="10.236021559767877"><ele>163.6</ele><time>2026-03-28T12:30:47Z</time></trkpt><trkpt lat="44.71050867328987" lon="10.236135016859603"><ele>163.4</ele><time>2026-03-28T12:30:48Z</time></trkpt><trkpt lat="44.71045870055073" lon="10.23625077061923"><ele>163.2</ele><time>2026-03-28T12:30:49Z</time></trkpt><trkpt lat="44.71040967363776" lon="10.23637041938271"><ele>163.0</ele><time>2026-03-28T12:30:50Z</time></trkpt><trkpt lat="44.710358682066115" lon="10.236492912887345"><ele>163.0</ele><time>2026-03-28T12:30:51Z</time></trkpt><trkpt lat="44.710303930722574" lon="10.236619781731523"><ele>163.0</ele><time>2026-03-28T12:30:52Z</time></trkpt><trkpt lat="44.71024245188978" lon="10.236757661821736"><ele>163.0</ele><time>2026-03-28T12:30:53Z</time></trkpt><trkpt lat="44.710180201419305" lon="10.236898667970676"><ele>163.0</ele><time>2026-03-28T12:30:54Z</time></trkpt><trkpt lat="44.710116813497685" lon="10.23704328128683"><ele>163.0</ele><time>2026-03-28T12:30:55Z</time></trkpt><trkpt lat="44.7100563391544" lon="10.237187873786898"><ele>163.0</ele><time>2026-03-28T12:30:56Z</time></trkpt><trkpt lat="44.709993766543136" lon="10.237337845394503"><ele>163.0</ele><time>2026-03-28T12:30:57Z</time></trkpt><trkpt lat="44.70993069696209" lon="10.237491053597877"><ele>163.0</ele><time>2026-03-28T12:30:58Z</time></trkpt><trkpt lat="44.70987156207637" lon="10.237638116948105"><ele>163.75</ele><time>2026-03-28T12:30:59Z</time></trkpt><trkpt lat="44.70981023423656" lon="10.23778248745004"><ele>164.5</ele><time>2026-03-28T12:31:00Z</time></trkpt><trkpt lat="44.709748563431674" lon="10.237927097035374"><ele>165.25</ele><time>2026-03-28T12:31:01Z</time></trkpt><trkpt lat="44.70968820314524" lon="10.238070789253129"><ele>166.0</ele><time>2026-03-28T12:31:02Z</time></trkpt><trkpt lat="44.709626338458925" lon="10.23820975106204"><ele>166.25</ele><time>2026-03-28T12:31:03Z</time></trkpt><trkpt lat="44.70956355163406" lon="10.238350349047337"><ele>166.5</ele><time>2026-03-28T12:31:04Z</time></trkpt><trkpt lat="44.709498286627664" lon="10.238500066294687"><ele>166.75</ele><time>2026-03-28T12:31:05Z</time></trkpt><trkpt lat="44.70942976483581" lon="10.238652711812692"><ele>167.0</ele><time>2026-03-28T12:31:06Z</time></trkpt><trkpt lat="44.70935753316636" lon="10.2388131924904"><ele>168.0</ele><time>2026-03-28T12:31:07Z</time></trkpt><trkpt lat="44.70928556766614" lon="10.238971077372023"><ele>169.0</ele><time>2026-03-28T12:31:08Z</time></trkpt><trkpt lat="44.70921712552751" lon="10.239115069549056"><ele>170.0</ele><time>2026-03-28T12:31:09Z</time></trkpt><trkpt lat="44.70914642961138" lon="10.239254682601185"><ele>171.0</ele><time>2026-03-28T12:31:10Z</time></trkpt><trkpt lat="44.709081713972395" lon="10.23938418676584"><ele>171.0</ele><time>2026-03-28T12:31:11Z</time></trkpt><trkpt lat="44.70902170338309" lon="10.239495080088263"><ele>171.0</ele><time>2026-03-28T12:31:12Z</time></trkpt><trkpt lat="44.70896952884075" lon="10.239584513189431"><ele>171.0</ele><time>2026-03-28T12:31:13Z</time></trkpt><trkpt lat="44.70891119776814" lon="10.239655969384476"><ele>171.0</ele><time>2026-03-28T12:31:14Z</time></trkpt><trkpt lat="44.70883488921159" lon="10.239714910365526"><ele>171.0</ele><time>2026-03-28T12:31:15Z</time></trkpt><trkpt lat="44.708748091270365" lon="10.23975517988344"><ele>171.0</ele><time>2026-03-28T12:31:16Z</time></trkpt><trkpt lat="44.70865455981254" lon="10.239794339983511"><ele>171.0</ele><time>2026-03-28T12:31:17Z</time></trkpt><trkpt lat="44.70855830165727" lon="10.239846662764087"><ele>171.0</ele><time>2026-03-28T12:31:18Z</time></trkpt><trkpt lat="44.70845245081803" lon="10.239878839795416"><ele>171.0</ele><time>2026-03-28T12:31:19Z</time></trkpt><trkpt lat="44.70833761715206" lon="10.23988222746059"><ele>171.0</ele><time>2026-03-28T12:31:20Z</time></trkpt><trkpt lat="44.70822000291399" lon="10.239863026797487"><ele>171.0</ele><time>2026-03-28T12:31:21Z</time></trkpt><trkpt lat="44.70810157421668" lon="10.239834111186843"><ele>171.0</ele><time>2026-03-28T12:31:22Z</time></trkpt><trkpt lat="44.70798333961456" lon="10.239799562732015"><ele>171.0</ele><time>2026-03-28T12:31:23Z</time></trkpt><trkpt lat="44.70786409383153" lon="10.239758696726321"><ele>171.0</ele><time>2026-03-28T12:31:24Z</time></trkpt><trkpt lat="44.707740270898185" lon="10.239711590396272"><ele>171.0</ele><time>2026-03-28T12:31:25Z</time></trkpt><trkpt lat="44.70761635010876" lon="10.239654175395485"><ele>171.0</ele><time>2026-03-28T12:31:26Z</time></trkpt><trkpt lat="44.70737599802465" lon="10.23950519228752"><ele>171.0</ele><time>2026-03-28T12:31:28Z</time></trkpt><trkpt lat="44.707264826178246" lon="10.239430271221433"><ele>171.0</ele><time>2026-03-28T12:31:29Z</time></trkpt><trkpt lat="44.70715565053675" lon="10.239356801398653"><ele>171.0</ele><time>2026-03-28T12:31:30Z</time></trkpt><trkpt lat="44.70704580848252" lon="10.239282850772026"><ele>171.0</ele><time>2026-03-28T12:31:31Z</time></trkpt><trkpt lat="44.70693283613248" lon="10.239208893862743"><ele>171.0</ele><time>2026-03-28T12:31:32Z</time></trkpt><trkpt lat="44.70681651219836" lon="10.239137920532173"><ele>171.0</ele><time>2026-03-28T12:31:33Z</time></trkpt><trkpt lat="44.70669945596574" lon="10.239062319024848"><ele>171.0</ele><time>2026-03-28T12:31:34Z</time></trkpt><trkpt lat="44.70658243592261" lon="10.238984456485882"><ele>171.0</ele><time>2026-03-28T12:31:35Z</time></trkpt><trkpt lat="44.7064655540179" lon="10.238911429384473"><ele>171.0</ele><time>2026-03-28T12:31:36Z</time></trkpt><trkpt lat="44.70635073254942" lon="10.238841339742944"><ele>171.0</ele><time>2026-03-28T12:31:37Z</time></trkpt><trkpt lat="44.706238210305244" lon="10.238772429894155"><ele>171.0</ele><time>2026-03-28T12:31:38Z</time></trkpt><trkpt lat="44.70612855713598" lon="10.238715361378125"><ele>171.0</ele><time>2026-03-28T12:31:38.999Z</time></trkpt><trkpt lat="44.70603087198741" lon="10.238676436230342"><ele>171.0</ele><time>2026-03-28T12:31:39.999Z</time></trkpt><trkpt lat="44.705941692657056" lon="10.238653563538284"><ele>171.0</ele><time>2026-03-28T12:31:40.999Z</time></trkpt><trkpt lat="44.7058594541263" lon="10.238641736120798"><ele>171.0</ele><time>2026-03-28T12:31:41.999Z</time></trkpt><trkpt lat="44.70578295295711" lon="10.238628825752548"><ele>170.83333333333334</ele><time>2026-03-28T12:31:42.999Z</time></trkpt><trkpt lat="44.705712152505754" lon="10.23861494358434"><ele>170.66666666666666</ele><time>2026-03-28T12:31:43.999Z</time></trkpt><trkpt lat="44.70563153470266" lon="10.238593583322162"><ele>170.5</ele><time>2026-03-28T12:31:44.999Z</time></trkpt><trkpt lat="44.70556023618075" lon="10.23855817935012"><ele>170.33333333333331</ele><time>2026-03-28T12:31:45.999Z</time></trkpt><trkpt lat="44.70549472989045" lon="10.238502059826208"><ele>170.16666666666666</ele><time>2026-03-28T12:31:46.999Z</time></trkpt><trkpt lat="44.70542891585157" lon="10.238444587647203"><ele>170.0</ele><time>2026-03-28T12:31:47.999Z</time></trkpt><trkpt lat="44.705359940371906" lon="10.238389744798278"><ele>170.0</ele><time>2026-03-28T12:31:48.999Z</time></trkpt><trkpt lat="44.70529107651578" lon="10.238335681872059"><ele>170.0</ele><time>2026-03-28T12:31:49.999Z</time></trkpt><trkpt lat="44.705217161735995" lon="10.23827907181073"><ele>170.0</ele><time>2026-03-28T12:31:50.999Z</time></trkpt><trkpt lat="44.70514509988473" lon="10.238208768764347"><ele>170.0</ele><time>2026-03-28T12:31:51.999Z</time></trkpt><trkpt lat="44.70507247221264" lon="10.23812703725679"><ele>170.0</ele><time>2026-03-28T12:31:52.999Z</time></trkpt><trkpt lat="44.704999865721526" lon="10.23804008807384"><ele>170.0</ele><time>2026-03-28T12:31:53.999Z</time></trkpt><trkpt lat="44.70492536068812" lon="10.237946130242086"><ele>170.8</ele><time>2026-03-28T12:31:54.999Z</time></trkpt><trkpt lat="44.704845643278354" lon="10.237855212154612"><ele>171.6</ele><time>2026-03-28T12:31:55.999Z</time></trkpt><trkpt lat="44.704765707242586" lon="10.237774108892074"><ele>172.39999999999998</ele><time>2026-03-28T12:31:56.999Z</time></trkpt><trkpt lat="44.70468615578324" lon="10.237701332261228"><ele>173.2</ele><time>2026-03-28T12:31:57.999Z</time></trkpt><trkpt lat="44.70460377864257" lon="10.237630287597328"><ele>174.0</ele><time>2026-03-28T12:31:58.999Z</time></trkpt><trkpt lat="44.70451399676632" lon="10.237555705501078"><ele>174.0</ele><time>2026-03-28T12:31:59.999Z</time></trkpt><trkpt lat="44.704416939464046" lon="10.237478656836858"><ele>174.0</ele><time>2026-03-28T12:32:00.999Z</time></trkpt><trkpt lat="44.70431129526546" lon="10.237400707919708"><ele>174.0</ele><time>2026-03-28T12:32:01.999Z</time></trkpt><trkpt lat="44.7042105134459" lon="10.237327226164503"><ele>174.0</ele><time>2026-03-28T12:32:02.999Z</time></trkpt><trkpt lat="44.70410990455218" lon="10.237250291711083"><ele>174.25</ele><time>2026-03-28T12:32:03.999Z</time></trkpt><trkpt lat="44.70401293580574" lon="10.23717472182338"><ele>174.5</ele><time>2026-03-28T12:32:04.999Z</time></trkpt><trkpt lat="44.70391349556113" lon="10.237092507628743"><ele>174.75</ele><time>2026-03-28T12:32:05.999Z</time></trkpt><trkpt lat="44.70381027318674" lon="10.237009010898685"><ele>175.0</ele><time>2026-03-28T12:32:06.999Z</time></trkpt><trkpt lat="44.703707276924625" lon="10.236929178603145"><ele>175.0</ele><time>2026-03-28T12:32:07.999Z</time></trkpt><trkpt lat="44.70360424414601" lon="10.236850254655021"><ele>175.0</ele><time>2026-03-28T12:32:08.999Z</time></trkpt><trkpt lat="44.70350460496849" lon="10.236772724370926"><ele>175.0</ele><time>2026-03-28T12:32:09.999Z</time></trkpt><trkpt lat="44.70340356437085" lon="10.236696825245565"><ele>175.0</ele><time>2026-03-28T12:32:10.999Z</time></trkpt><trkpt lat="44.70330250041732" lon="10.23661727671538"><ele>174.8</ele><time>2026-03-28T12:32:11.999Z</time></trkpt><trkpt lat="44.70319805719365" lon="10.236540287264003"><ele>174.6</ele><time>2026-03-28T12:32:12.999Z</time></trkpt><trkpt lat="44.70310030029212" lon="10.23647234080239"><ele>174.39999999999998</ele><time>2026-03-28T12:32:13.999Z</time></trkpt><trkpt lat="44.703010642829476" lon="10.23641151140686"><ele>174.2</ele><time>2026-03-28T12:32:14.999Z</time></trkpt><trkpt lat="44.70292575059652" lon="10.236358203272163"><ele>174.0</ele><time>2026-03-28T12:32:15.999Z</time></trkpt><trkpt lat="44.70284882249" lon="10.236310498328043"><ele>174.0</ele><time>2026-03-28T12:32:16.999Z</time></trkpt><trkpt lat="44.702779127765375" lon="10.236270401843031"><ele>174.0</ele><time>2026-03-28T12:32:17.999Z</time></trkpt><trkpt lat="44.702705099810125" lon="10.236237069935845"><ele>174.0</ele><time>2026-03-28T12:32:18.999Z</time></trkpt><trkpt lat="44.70263658343974" lon="10.236210701633134"><ele>174.0</ele><time>2026-03-28T12:32:19.999Z</time></trkpt><trkpt lat="44.70256871633352" lon="10.236187227828676"><ele>174.0</ele><time>2026-03-28T12:32:20.999Z</time></trkpt><trkpt lat="44.70249618905396" lon="10.236169676529475"><ele>174.0</ele><time>2026-03-28T12:32:21.999Z</time></trkpt><trkpt lat="44.70242871733093" lon="10.23614408477635"><ele>174.0</ele><time>2026-03-28T12:32:22.999Z</time></trkpt><trkpt lat="44.70232226146614" lon="10.236044656811965"><ele>174.33333333333334</ele><time>2026-03-28T12:32:24.998Z</time></trkpt><trkpt lat="44.70227818978917" lon="10.235961989809924"><ele>174.66666666666666</ele><time>2026-03-28T12:32:25.998Z</time></trkpt><trkpt lat="44.70223291158981" lon="10.23586578664069"><ele>175.0</ele><time>2026-03-28T12:32:26.998Z</time></trkpt><trkpt lat="44.70216830755545" lon="10.235784264065892"><ele>175.33333333333331</ele><time>2026-03-28T12:32:27.998Z</time></trkpt><trkpt lat="44.702088411552964" lon="10.2357046783722"><ele>175.66666666666666</ele><time>2026-03-28T12:32:28.998Z</time></trkpt><trkpt lat="44.70201520057291" lon="10.235601045331421"><ele>176.0</ele><time>2026-03-28T12:32:29.998Z</time></trkpt><trkpt lat="44.701951806402256" lon="10.235473846195113"><ele>176.5</ele><time>2026-03-28T12:32:31Z</time></trkpt><trkpt lat="44.70188385734637" lon="10.235341849511705"><ele>177.0</ele><time>2026-03-28T12:32:32Z</time></trkpt><trkpt lat="44.70179745439257" lon="10.235221133255905"><ele>177.5</ele><time>2026-03-28T12:32:33Z</time></trkpt><trkpt lat="44.70170859242507" lon="10.23511025225648"><ele>178.0</ele><time>2026-03-28T12:32:34Z</time></trkpt><trkpt lat="44.70160571685828" lon="10.234984199007735"><ele>178.0</ele><time>2026-03-28T12:32:35Z</time></trkpt><trkpt lat="44.7014948274761" lon="10.234856980390225"><ele>178.0</ele><time>2026-03-28T12:32:36Z</time></trkpt><trkpt lat="44.70138423495172" lon="10.234723316420164"><ele>178.0</ele><time>2026-03-28T12:32:37Z</time></trkpt><trkpt lat="44.70127178589283" lon="10.23458580915629"><ele>178.0</ele><time>2026-03-28T12:32:38Z</time></trkpt><trkpt lat="44.701156843668606" lon="10.234448197581646"><ele>178.33333333333334</ele><time>2026-03-28T12:32:39Z</time></trkpt><trkpt lat="44.7010373721576" lon="10.234309441371334"><ele>178.66666666666666</ele><time>2026-03-28T12:32:40Z</time></trkpt><trkpt lat="44.70091778592395" lon="10.234167947641371"><ele>179.0</ele><time>2026-03-28T12:32:41Z</time></trkpt><trkpt lat="44.70079868655082" lon="10.234025850286399"><ele>179.0</ele><time>2026-03-28T12:32:42Z</time></trkpt><trkpt lat="44.70068056672669" lon="10.233885240476175"><ele>179.0</ele><time>2026-03-28T12:32:43Z</time></trkpt><trkpt lat="44.700562460514234" lon="10.233748434744161"><ele>179.0</ele><time>2026-03-28T12:32:44Z</time></trkpt><trkpt lat="44.700440862657345" lon="10.233619974122782"><ele>179.0</ele><time>2026-03-28T12:32:45Z</time></trkpt><trkpt lat="44.7003138170087" lon="10.233502122289808"><ele>179.0</ele><time>2026-03-28T12:32:46Z</time></trkpt><trkpt lat="44.700179324833755" lon="10.233395377861331"><ele>179.0</ele><time>2026-03-28T12:32:47Z</time></trkpt><trkpt lat="44.70003661578307" lon="10.233303575409304"><ele>179.66666666666666</ele><time>2026-03-28T12:32:48Z</time></trkpt><trkpt lat="44.69989045823356" lon="10.233222021116532"><ele>180.33333333333334</ele><time>2026-03-28T12:32:49Z</time></trkpt><trkpt lat="44.69973924074498" lon="10.233149328219973"><ele>181.0</ele><time>2026-03-28T12:32:50Z</time></trkpt><trkpt lat="44.69959280209757" lon="10.233083708660375"><ele>181.33333333333334</ele><time>2026-03-28T12:32:51Z</time></trkpt><trkpt lat="44.699439397508044" lon="10.233012246495727"><ele>181.66666666666666</ele><time>2026-03-28T12:32:52Z</time></trkpt><trkpt lat="44.69928640534707" lon="10.232937500536563"><ele>182.0</ele><time>2026-03-28T12:32:53Z</time></trkpt><trkpt lat="44.699127942017306" lon="10.232866230782301"><ele>182.33333333333331</ele><time>2026-03-28T12:32:54Z</time></trkpt><trkpt lat="44.698967501399785" lon="10.232787747952283"><ele>182.66666666666666</ele><time>2026-03-28T12:32:55Z</time></trkpt><trkpt lat="44.69880944697137" lon="10.232713658035955"><ele>183.0</ele><time>2026-03-28T12:32:56Z</time></trkpt><trkpt lat="44.69866435770765" lon="10.232645127978875"><ele>183.25</ele><time>2026-03-28T12:32:57Z</time></trkpt><trkpt lat="44.69852823775017" lon="10.232573798133664"><ele>183.5</ele><time>2026-03-28T12:32:58Z</time></trkpt><trkpt lat="44.69840236752205" lon="10.232507602012097"><ele>183.75</ele><time>2026-03-28T12:32:59Z</time></trkpt><trkpt lat="44.69828782817807" lon="10.232449584557914"><ele>184.0</ele><time>2026-03-28T12:33:00Z</time></trkpt><trkpt lat="44.698189362088776" lon="10.232401918140058"><ele>184.0</ele><time>2026-03-28T12:33:01Z</time></trkpt><trkpt lat="44.698099666925984" lon="10.232367290561921"><ele>184.0</ele><time>2026-03-28T12:33:02Z</time></trkpt><trkpt lat="44.69802203089414" lon="10.232323852681281"><ele>184.0</ele><time>2026-03-28T12:33:03Z</time></trkpt><trkpt lat="44.6979490795382" lon="10.23227166493671"><ele>184.0</ele><time>2026-03-28T12:33:04Z</time></trkpt><trkpt lat="44.697867204205934" lon="10.232183522941042"><ele>184.0</ele><time>2026-03-28T12:33:06Z</time></trkpt><trkpt lat="44.69779668237138" lon="10.232139037889501"><ele>184.0</ele><time>2026-03-28T12:33:07.999Z</time></trkpt><trkpt lat="44.697779342988675" lon="10.231880005521552"><ele>184.5</ele><time>2026-03-28T12:33:09.999Z</time></trkpt><trkpt lat="44.697801123140756" lon="10.231767673531449"><ele>185.0</ele><time>2026-03-28T12:33:11.999Z</time></trkpt><trkpt lat="44.69789561529454" lon="10.231785746144595"><ele>185.5</ele><time>2026-03-28T12:33:13.999Z</time></trkpt><trkpt lat="44.69794638350096" lon="10.231855528188502"><ele>186.0</ele><time>2026-03-28T12:33:14.999Z</time></trkpt><trkpt lat="44.69802397008379" lon="10.23188004946246"><ele>186.5</ele><time>2026-03-28T12:33:15.999Z</time></trkpt><trkpt lat="44.698082670009086" lon="10.231916294627073"><ele>187.0</ele><time>2026-03-28T12:33:16.999Z</time></trkpt><trkpt lat="44.69817420019059" lon="10.231967244996854"><ele>187.0</ele><time>2026-03-28T12:33:18.999Z</time></trkpt><trkpt lat="44.69817222702442" lon="10.232083344939031"><ele>187.0</ele><time>2026-03-28T12:33:21.999Z</time></trkpt><trkpt lat="44.69815277558247" lon="10.232192268798014"><ele>187.0</ele><time>2026-03-28T12:33:25.999Z</time></trkpt><trkpt lat="44.69780832869444" lon="10.231770540927593"><ele>186.8</ele><time>2026-03-28T12:37:56.999Z</time></trkpt><trkpt lat="44.69774509274333" lon="10.23179706977003"><ele>186.6</ele><time>2026-03-28T12:37:59.999Z</time></trkpt><trkpt lat="44.697728146367396" lon="10.23191139410344"><ele>186.4</ele><time>2026-03-28T12:38:01.999Z</time></trkpt><trkpt lat="44.697706985718995" lon="10.232011762870425"><ele>186.20000000000002</ele><time>2026-03-28T12:38:02.999Z</time></trkpt><trkpt lat="44.69758905180837" lon="10.232080573201847"><ele>186.0</ele><time>2026-03-28T12:38:04.999Z</time></trkpt><trkpt lat="44.69748485269812" lon="10.232080145441623"><ele>186.0</ele><time>2026-03-28T12:38:05.999Z</time></trkpt><trkpt lat="44.69738933346755" lon="10.232044629246664"><ele>186.0</ele><time>2026-03-28T12:38:06.999Z</time></trkpt><trkpt lat="44.69732187263491" lon="10.23197970508482"><ele>186.0</ele><time>2026-03-28T12:38:07.999Z</time></trkpt><trkpt lat="44.697246056264014" lon="10.231935768735328"><ele>186.0</ele><time>2026-03-28T12:38:08.999Z</time></trkpt><trkpt lat="44.69717162989501" lon="10.231908382089017"><ele>186.0</ele><time>2026-03-28T12:38:09.999Z</time></trkpt><trkpt lat="44.69711244353373" lon="10.23186380627294"><ele>186.0</ele><time>2026-03-28T12:38:10.999Z</time></trkpt><trkpt lat="44.69701428610085" lon="10.231801618285663"><ele>186.0</ele><time>2026-03-28T12:38:12.999Z</time></trkpt><trkpt lat="44.69692466593968" lon="10.23174420786339"><ele>186.0</ele><time>2026-03-28T12:38:14.999Z</time></trkpt><trkpt lat="44.69686241616991" lon="10.2317020672637"><ele>186.0</ele><time>2026-03-28T12:38:15.999Z</time></trkpt><trkpt lat="44.69675486954654" lon="10.231625065040728"><ele>186.0</ele><time>2026-03-28T12:38:17.999Z</time></trkpt><trkpt lat="44.69666570825256" lon="10.231564443061398"><ele>186.0</ele><time>2026-03-28T12:38:19.999Z</time></trkpt><trkpt lat="44.6966059893707" lon="10.231524451629912"><ele>185.4</ele><time>2026-03-28T12:38:20.999Z</time></trkpt><trkpt lat="44.69653061067672" lon="10.231472660145956"><ele>184.8</ele><time>2026-03-28T12:38:21.999Z</time></trkpt><trkpt lat="44.69640768420426" lon="10.231393313347178"><ele>184.20000000000002</ele><time>2026-03-28T12:38:23.999Z</time></trkpt><trkpt lat="44.69634355798451" lon="10.231351388491934"><ele>183.60000000000002</ele><time>2026-03-28T12:38:24.999Z</time></trkpt><trkpt lat="44.696254622366624" lon="10.231289955631897"><ele>183.0</ele><time>2026-03-28T12:38:25.998Z</time></trkpt><trkpt lat="44.696188220861245" lon="10.23124244669396"><ele>183.0</ele><time>2026-03-28T12:38:26.998Z</time></trkpt><trkpt lat="44.69612458033555" lon="10.231198402971152"><ele>183.0</ele><time>2026-03-28T12:38:27.998Z</time></trkpt><trkpt lat="44.696066175282894" lon="10.231145619917605"><ele>183.0</ele><time>2026-03-28T12:38:28.998Z</time></trkpt><trkpt lat="44.696016461091006" lon="10.23106456091223"><ele>183.0</ele><time>2026-03-28T12:38:29.998Z</time></trkpt><trkpt lat="44.6959992164233" lon="10.230956722177035"><ele>183.0</ele><time>2026-03-28T12:38:30.998Z</time></trkpt><trkpt lat="44.69597600819842" lon="10.23086411769062"><ele>183.0</ele><time>2026-03-28T12:38:31.998Z</time></trkpt><trkpt lat="44.695926639890246" lon="10.230798048579034"><ele>183.0</ele><time>2026-03-28T12:38:32.998Z</time></trkpt><trkpt lat="44.69585477902015" lon="10.230768354616421"><ele>183.5</ele><time>2026-03-28T12:38:33.998Z</time></trkpt><trkpt lat="44.69577830749314" lon="10.230769605362928"><ele>184.0</ele><time>2026-03-28T12:38:34.998Z</time></trkpt><trkpt lat="44.69570347245593" lon="10.230806789444442"><ele>184.5</ele><time>2026-03-28T12:38:35.998Z</time></trkpt><trkpt lat="44.69562923945635" lon="10.230837110119555"><ele>185.0</ele><time>2026-03-28T12:38:36.998Z</time></trkpt><trkpt lat="44.695555095379625" lon="10.230824301653561"><ele>185.5</ele><time>2026-03-28T12:38:37.998Z</time></trkpt><trkpt lat="44.69548292036804" lon="10.23078773290022"><ele>186.0</ele><time>2026-03-28T12:38:38.998Z</time></trkpt><trkpt lat="44.6954212719311" lon="10.230756755676484"><ele>186.0</ele><time>2026-03-28T12:38:39.998Z</time></trkpt><trkpt lat="44.69532252775566" lon="10.23071494448459"><ele>186.0</ele><time>2026-03-28T12:38:41.998Z</time></trkpt><trkpt lat="44.69525035805277" lon="10.23068523334006"><ele>186.0</ele><time>2026-03-28T12:38:42.998Z</time></trkpt><trkpt lat="44.69517308423772" lon="10.23064961310028"><ele>186.0</ele><time>2026-03-28T12:38:43.998Z</time></trkpt><trkpt lat="44.695064512187756" lon="10.23060746164908"><ele>186.0</ele><time>2026-03-28T12:38:44.998Z</time></trkpt><trkpt lat="44.694961048413205" lon="10.230557090555351"><ele>186.25</ele><time>2026-03-28T12:38:45.998Z</time></trkpt><trkpt lat="44.694860319598995" lon="10.230510316159053"><ele>186.5</ele><time>2026-03-28T12:38:46.998Z</time></trkpt><trkpt lat="44.69475603864314" lon="10.230457951514147"><ele>186.75</ele><time>2026-03-28T12:38:47.998Z</time></trkpt><trkpt lat="44.694638124316754" lon="10.230396750031336"><ele>187.0</ele><time>2026-03-28T12:38:48.998Z</time></trkpt><trkpt lat="44.694513606722275" lon="10.230335104861409"><ele>187.5</ele><time>2026-03-28T12:38:49.998Z</time></trkpt><trkpt lat="44.69437587790261" lon="10.230270799653969"><ele>188.0</ele><time>2026-03-28T12:38:50.998Z</time></trkpt><trkpt lat="44.69423476035634" lon="10.230201089549396"><ele>188.5</ele><time>2026-03-28T12:38:51.998Z</time></trkpt><trkpt lat="44.69409411354276" lon="10.230130896395693"><ele>189.0</ele><time>2026-03-28T12:38:52.998Z</time></trkpt><trkpt lat="44.69395111723492" lon="10.230059267549565"><ele>189.0</ele><time>2026-03-28T12:38:53.998Z</time></trkpt><trkpt lat="44.69380404946222" lon="10.229985604457664"><ele>189.0</ele><time>2026-03-28T12:38:54.998Z</time></trkpt><trkpt lat="44.693656543492516" lon="10.229907255441661"><ele>189.0</ele><time>2026-03-28T12:38:55.998Z</time></trkpt><trkpt lat="44.693504198366384" lon="10.22983507082733"><ele>190.0</ele><time>2026-03-28T12:38:57Z</time></trkpt><trkpt lat="44.69335380002698" lon="10.229760904782962"><ele>191.0</ele><time>2026-03-28T12:38:58Z</time></trkpt><trkpt lat="44.693203430716736" lon="10.229688977957087"><ele>192.0</ele><time>2026-03-28T12:38:59Z</time></trkpt><trkpt lat="44.6930618297826" lon="10.229616103621009"><ele>192.0</ele><time>2026-03-28T12:39:00Z</time></trkpt><trkpt lat="44.69292043448881" lon="10.229546742331417"><ele>192.0</ele><time>2026-03-28T12:39:01Z</time></trkpt><trkpt lat="44.69277705012722" lon="10.229471683280908"><ele>192.0</ele><time>2026-03-28T12:39:02Z</time></trkpt><trkpt lat="44.69263717239345" lon="10.229391914642223"><ele>192.33333333333331</ele><time>2026-03-28T12:39:03Z</time></trkpt><trkpt lat="44.69250031518598" lon="10.229302490505223"><ele>192.66666666666666</ele><time>2026-03-28T12:39:04Z</time></trkpt><trkpt lat="44.692363926719366" lon="10.229208836874832"><ele>193.0</ele><time>2026-03-28T12:39:05Z</time></trkpt><trkpt lat="44.69221573165608" lon="10.22911252483121"><ele>193.0</ele><time>2026-03-28T12:39:06Z</time></trkpt><trkpt lat="44.69205493151124" lon="10.229010330363685"><ele>193.0</ele><time>2026-03-28T12:39:07Z</time></trkpt><trkpt lat="44.691885074275596" lon="10.228898147315535"><ele>193.0</ele><time>2026-03-28T12:39:08Z</time></trkpt><trkpt lat="44.69171455747685" lon="10.228790476640704"><ele>193.66666666666666</ele><time>2026-03-28T12:39:09Z</time></trkpt><trkpt lat="44.69154741290691" lon="10.22868234583367"><ele>194.33333333333331</ele><time>2026-03-28T12:39:10Z</time></trkpt><trkpt lat="44.69138384506886" lon="10.228580220127032"><ele>195.0</ele><time>2026-03-28T12:39:11Z</time></trkpt><trkpt lat="44.691222389393516" lon="10.228481357040954"><ele>195.33333333333331</ele><time>2026-03-28T12:39:12Z</time></trkpt><trkpt lat="44.6910677584919" lon="10.228376643394247"><ele>195.66666666666666</ele><time>2026-03-28T12:39:13Z</time></trkpt><trkpt lat="44.69091337876809" lon="10.228265230574456"><ele>196.0</ele><time>2026-03-28T12:39:14Z</time></trkpt><trkpt lat="44.69075886728327" lon="10.22815746576257"><ele>195.66666666666666</ele><time>2026-03-28T12:39:15Z</time></trkpt><trkpt lat="44.69060268743591" lon="10.228037786186599"><ele>195.33333333333331</ele><time>2026-03-28T12:39:16Z</time></trkpt><trkpt lat="44.6904503242497" lon="10.227903790744667"><ele>195.0</ele><time>2026-03-28T12:39:17Z</time></trkpt><trkpt lat="44.69029867428157" lon="10.227756182109221"><ele>195.0</ele><time>2026-03-28T12:39:18Z</time></trkpt><trkpt lat="44.6901498112549" lon="10.227599095393272"><ele>195.0</ele><time>2026-03-28T12:39:19Z</time></trkpt><trkpt lat="44.690001505650464" lon="10.227434302455704"><ele>195.0</ele><time>2026-03-28T12:39:20Z</time></trkpt><trkpt lat="44.68984879950814" lon="10.227270318805536"><ele>195.0</ele><time>2026-03-28T12:39:21Z</time></trkpt><trkpt lat="44.68969723092258" lon="10.227110024818655"><ele>195.0</ele><time>2026-03-28T12:39:22Z</time></trkpt><trkpt lat="44.68954900575828" lon="10.226952112568418"><ele>195.0</ele><time>2026-03-28T12:39:23Z</time></trkpt><trkpt lat="44.689403043952254" lon="10.226802090189125"><ele>196.0</ele><time>2026-03-28T12:39:24Z</time></trkpt><trkpt lat="44.68926232346777" lon="10.226652855496827"><ele>197.0</ele><time>2026-03-28T12:39:25Z</time></trkpt><trkpt lat="44.68912495809562" lon="10.226502890564106"><ele>198.0</ele><time>2026-03-28T12:39:26Z</time></trkpt><trkpt lat="44.68898975325245" lon="10.226356682373064"><ele>198.33333333333331</ele><time>2026-03-28T12:39:27Z</time></trkpt><trkpt lat="44.68885513374589" lon="10.22621383411666"><ele>198.66666666666666</ele><time>2026-03-28T12:39:28Z</time></trkpt><trkpt lat="44.68872359861082" lon="10.226072580691712"><ele>199.0</ele><time>2026-03-28T12:39:29Z</time></trkpt><trkpt lat="44.68859235613141" lon="10.225931068650642"><ele>199.33333333333331</ele><time>2026-03-28T12:39:30Z</time></trkpt><trkpt lat="44.6884687153381" lon="10.225797894626668"><ele>199.66666666666669</ele><time>2026-03-28T12:39:31Z</time></trkpt><trkpt lat="44.688349940992154" lon="10.22567457720536"><ele>200.0</ele><time>2026-03-28T12:39:32Z</time></trkpt><trkpt lat="44.688229729947494" lon="10.22554485805357"><ele>199.33333333333334</ele><time>2026-03-28T12:39:33Z</time></trkpt><trkpt lat="44.68811180126022" lon="10.225405402058517"><ele>198.66666666666669</ele><time>2026-03-28T12:39:34Z</time></trkpt><trkpt lat="44.68799779960403" lon="10.225263784158821"><ele>198.0</ele><time>2026-03-28T12:39:34.999Z</time></trkpt><trkpt lat="44.68788539713254" lon="10.2251212353722"><ele>198.0</ele><time>2026-03-28T12:39:35.999Z</time></trkpt><trkpt lat="44.68777297704511" lon="10.22498192549918"><ele>198.0</ele><time>2026-03-28T12:39:36.999Z</time></trkpt><trkpt lat="44.6876675972856" lon="10.224844504420812"><ele>198.0</ele><time>2026-03-28T12:39:37.999Z</time></trkpt><trkpt lat="44.68756282100025" lon="10.224693456528046"><ele>198.0</ele><time>2026-03-28T12:39:38.999Z</time></trkpt><trkpt lat="44.687455758672286" lon="10.224546918817792"><ele>198.25</ele><time>2026-03-28T12:39:39.999Z</time></trkpt><trkpt lat="44.68734925706413" lon="10.224399542349706"><ele>198.5</ele><time>2026-03-28T12:39:40.999Z</time></trkpt><trkpt lat="44.687245639558355" lon="10.224261218134162"><ele>198.75</ele><time>2026-03-28T12:39:41.999Z</time></trkpt><trkpt lat="44.68715159841632" lon="10.224133370203976"><ele>199.0</ele><time>2026-03-28T12:39:42.999Z</time></trkpt><trkpt lat="44.687060525977415" lon="10.224013042106304"><ele>199.25</ele><time>2026-03-28T12:39:43.999Z</time></trkpt><trkpt lat="44.68697136991943" lon="10.223890195970307"><ele>199.5</ele><time>2026-03-28T12:39:44.999Z</time></trkpt><trkpt lat="44.686877030656795" lon="10.223762061303137"><ele>199.75</ele><time>2026-03-28T12:39:45.999Z</time></trkpt><trkpt lat="44.686778673137695" lon="10.223630815459996"><ele>200.0</ele><time>2026-03-28T12:39:46.999Z</time></trkpt><trkpt lat="44.68667951806939" lon="10.223496784270774"><ele>200.75</ele><time>2026-03-28T12:39:47.999Z</time></trkpt><trkpt lat="44.68657625870879" lon="10.223358069454774"><ele>201.5</ele><time>2026-03-28T12:39:48.999Z</time></trkpt><trkpt lat="44.686474344986166" lon="10.223217018236111"><ele>202.25</ele><time>2026-03-28T12:39:49.999Z</time></trkpt><trkpt lat="44.686370946699256" lon="10.223073532039939"><ele>203.0</ele><time>2026-03-28T12:39:50.999Z</time></trkpt><trkpt lat="44.68626252988722" lon="10.222927810327716"><ele>203.33333333333334</ele><time>2026-03-28T12:39:51.999Z</time></trkpt><trkpt lat="44.686153802083496" lon="10.222778510952308"><ele>203.66666666666669</ele><time>2026-03-28T12:39:52.999Z</time></trkpt><trkpt lat="44.68604529358028" lon="10.222629502237927"><ele>204.0</ele><time>2026-03-28T12:39:53.999Z</time></trkpt><trkpt lat="44.68593857624441" lon="10.222480532637867"><ele>203.75</ele><time>2026-03-28T12:39:54.999Z</time></trkpt><trkpt lat="44.68582895677405" lon="10.222336863804193"><ele>203.5</ele><time>2026-03-28T12:39:55.999Z</time></trkpt><trkpt lat="44.685725958083324" lon="10.22219586324699"><ele>203.25</ele><time>2026-03-28T12:39:56.999Z</time></trkpt><trkpt lat="44.68562088145545" lon="10.222055124780285"><ele>203.0</ele><time>2026-03-28T12:39:57.999Z</time></trkpt><trkpt lat="44.68551624740523" lon="10.221920100594632"><ele>203.0</ele><time>2026-03-28T12:39:58.999Z</time></trkpt><trkpt lat="44.68540901464721" lon="10.221777540532434"><ele>203.0</ele><time>2026-03-28T12:39:59.999Z</time></trkpt><trkpt lat="44.685298220333976" lon="10.221630773801921"><ele>203.0</ele><time>2026-03-28T12:40:00.999Z</time></trkpt><trkpt lat="44.68519220977172" lon="10.221491598080302"><ele>203.0</ele><time>2026-03-28T12:40:01.999Z</time></trkpt><trkpt lat="44.68508608253586" lon="10.221344239196762"><ele>204.0</ele><time>2026-03-28T12:40:02.999Z</time></trkpt><trkpt lat="44.68497134812039" lon="10.221212971274355"><ele>205.0</ele><time>2026-03-28T12:40:03.999Z</time></trkpt><trkpt lat="44.68485539899577" lon="10.221077869879334"><ele>206.0</ele><time>2026-03-28T12:40:04.999Z</time></trkpt><trkpt lat="44.68473830574194" lon="10.220942657718767"><ele>206.0</ele><time>2026-03-28T12:40:05.999Z</time></trkpt><trkpt lat="44.68461936022816" lon="10.220810685672195"><ele>206.0</ele><time>2026-03-28T12:40:06.999Z</time></trkpt><trkpt lat="44.68449877484112" lon="10.220681240308053"><ele>206.0</ele><time>2026-03-28T12:40:07.999Z</time></trkpt><trkpt lat="44.68438044949314" lon="10.220552127465277"><ele>206.33333333333334</ele><time>2026-03-28T12:40:08.999Z</time></trkpt><trkpt lat="44.68426192048531" lon="10.220418508900442"><ele>206.66666666666669</ele><time>2026-03-28T12:40:09.999Z</time></trkpt><trkpt lat="44.68414260421519" lon="10.220280450789476"><ele>207.0</ele><time>2026-03-28T12:40:10.999Z</time></trkpt><trkpt lat="44.68402689373501" lon="10.220143386313133"><ele>207.0</ele><time>2026-03-28T12:40:11.999Z</time></trkpt><trkpt lat="44.68390943102352" lon="10.2200079085781"><ele>207.0</ele><time>2026-03-28T12:40:12.999Z</time></trkpt><trkpt lat="44.683787152619054" lon="10.219872921684992"><ele>207.0</ele><time>2026-03-28T12:40:13.999Z</time></trkpt><trkpt lat="44.68365998542923" lon="10.219739976244176"><ele>207.33333333333331</ele><time>2026-03-28T12:40:14.999Z</time></trkpt><trkpt lat="44.68353234108493" lon="10.219602895061563"><ele>207.66666666666666</ele><time>2026-03-28T12:40:15.999Z</time></trkpt><trkpt lat="44.68340526995125" lon="10.21945540461151"><ele>208.0</ele><time>2026-03-28T12:40:16.999Z</time></trkpt><trkpt lat="44.68327780149035" lon="10.21930445144558"><ele>208.0</ele><time>2026-03-28T12:40:17.998Z</time></trkpt><trkpt lat="44.68314920271423" lon="10.219156156786847"><ele>208.0</ele><time>2026-03-28T12:40:18.998Z</time></trkpt><trkpt lat="44.683030038475714" lon="10.219023536667063"><ele>208.0</ele><time>2026-03-28T12:40:19.998Z</time></trkpt><trkpt lat="44.682922154330235" lon="10.218903819093287"><ele>208.0</ele><time>2026-03-28T12:40:20.998Z</time></trkpt><trkpt lat="44.68282708723122" lon="10.21880251077342"><ele>208.0</ele><time>2026-03-28T12:40:21.998Z</time></trkpt><trkpt lat="44.68273475295032" lon="10.21869786229864"><ele>208.0</ele><time>2026-03-28T12:40:22.998Z</time></trkpt><trkpt lat="44.682641136176656" lon="10.218592080951176"><ele>208.0</ele><time>2026-03-28T12:40:23.998Z</time></trkpt><trkpt lat="44.68255531509262" lon="10.218499094078545"><ele>208.0</ele><time>2026-03-28T12:40:24.998Z</time></trkpt><trkpt lat="44.68247502401492" lon="10.218405322362411"><ele>208.0</ele><time>2026-03-28T12:40:25.998Z</time></trkpt><trkpt lat="44.682392858671996" lon="10.218305640587538"><ele>208.0</ele><time>2026-03-28T12:40:26.998Z</time></trkpt><trkpt lat="44.682304024787406" lon="10.21820445377482"><ele>208.0</ele><time>2026-03-28T12:40:27.998Z</time></trkpt><trkpt lat="44.68220271704055" lon="10.21809821546005"><ele>208.5</ele><time>2026-03-28T12:40:28.998Z</time></trkpt><trkpt lat="44.68211016937188" lon="10.217978360173843"><ele>209.0</ele><time>2026-03-28T12:40:29.998Z</time></trkpt><trkpt lat="44.682015840448905" lon="10.217863402093348"><ele>209.5</ele><time>2026-03-28T12:40:30.998Z</time></trkpt><trkpt lat="44.68192195569033" lon="10.217752846622233"><ele>210.0</ele><time>2026-03-28T12:40:31.998Z</time></trkpt><trkpt lat="44.68182574342609" lon="10.217638640191044"><ele>210.0</ele><time>2026-03-28T12:40:32.998Z</time></trkpt><trkpt lat="44.68173137903485" lon="10.217518246258718"><ele>210.0</ele><time>2026-03-28T12:40:33.998Z</time></trkpt><trkpt lat="44.681634977234694" lon="10.217395592243692"><ele>210.0</ele><time>2026-03-28T12:40:34.998Z</time></trkpt><trkpt lat="44.68153503611663" lon="10.217269031399784"><ele>210.0</ele><time>2026-03-28T12:40:35.998Z</time></trkpt><trkpt lat="44.68143268227042" lon="10.217142190650247"><ele>210.0</ele><time>2026-03-28T12:40:36.998Z</time></trkpt><trkpt lat="44.68132598897546" lon="10.217011967808238"><ele>210.0</ele><time>2026-03-28T12:40:37.998Z</time></trkpt><trkpt lat="44.68121619688755" lon="10.216880563681709"><ele>210.0</ele><time>2026-03-28T12:40:38.998Z</time></trkpt><trkpt lat="44.68110271264769" lon="10.216744767700135"><ele>210.0</ele><time>2026-03-28T12:40:39.998Z</time></trkpt><trkpt lat="44.68099463683314" lon="10.216607561515021"><ele>210.25</ele><time>2026-03-28T12:40:40.998Z</time></trkpt><trkpt lat="44.68088480823094" lon="10.216469924846699"><ele>210.5</ele><time>2026-03-28T12:40:41.998Z</time></trkpt><trkpt lat="44.68077056268905" lon="10.216332831696377"><ele>210.75</ele><time>2026-03-28T12:40:42.998Z</time></trkpt><trkpt lat="44.68065891467136" lon="10.216197704805916"><ele>211.0</ele><time>2026-03-28T12:40:43.998Z</time></trkpt><trkpt lat="44.68054594298138" lon="10.216059317250162"><ele>211.0</ele><time>2026-03-28T12:40:44.998Z</time></trkpt><trkpt lat="44.68043545233129" lon="10.215921597910208"><ele>211.0</ele><time>2026-03-28T12:40:45.998Z</time></trkpt><trkpt lat="44.680325147597124" lon="10.215783343631049"><ele>211.0</ele><time>2026-03-28T12:40:46.998Z</time></trkpt><trkpt lat="44.680212659061056" lon="10.215644914550099"><ele>211.0</ele><time>2026-03-28T12:40:47.998Z</time></trkpt><trkpt lat="44.6800971358555" lon="10.215514807443734"><ele>211.5</ele><time>2026-03-28T12:40:48.998Z</time></trkpt><trkpt lat="44.6799761568355" lon="10.215396390607328"><ele>212.0</ele><time>2026-03-28T12:40:49.998Z</time></trkpt><trkpt lat="44.679849413547956" lon="10.215292593217294"><ele>212.5</ele><time>2026-03-28T12:40:50.998Z</time></trkpt><trkpt lat="44.679712675778354" lon="10.215196122059552"><ele>213.0</ele><time>2026-03-28T12:40:51.998Z</time></trkpt><trkpt lat="44.67957800436888" lon="10.21508552760872"><ele>213.33333333333331</ele><time>2026-03-28T12:40:52.998Z</time></trkpt><trkpt lat="44.67942374301078" lon="10.215012832846227"><ele>213.66666666666666</ele><time>2026-03-28T12:40:53.998Z</time></trkpt><trkpt lat="44.67927179991496" lon="10.214926278295597"><ele>214.0</ele><time>2026-03-28T12:40:54.998Z</time></trkpt><trkpt lat="44.6791180273513" lon="10.214846831900676"><ele>214.33333333333331</ele><time>2026-03-28T12:40:55.998Z</time></trkpt><trkpt lat="44.67895881805296" lon="10.214780659348108"><ele>214.66666666666669</ele><time>2026-03-28T12:40:56.998Z</time></trkpt><trkpt lat="44.678795139230566" lon="10.214723038471922"><ele>215.0</ele><time>2026-03-28T12:40:57.998Z</time></trkpt><trkpt lat="44.67863144286506" lon="10.214662466389866"><ele>214.66666666666669</ele><time>2026-03-28T12:40:58.998Z</time></trkpt><trkpt lat="44.67846911729433" lon="10.214605323169105"><ele>214.33333333333331</ele><time>2026-03-28T12:40:59.998Z</time></trkpt><trkpt lat="44.67831292384508" lon="10.21451544538661"><ele>214.0</ele><time>2026-03-28T12:41:00.998Z</time></trkpt><trkpt lat="44.678155376598596" lon="10.214440208202172"><ele>214.0</ele><time>2026-03-28T12:41:02Z</time></trkpt><trkpt lat="44.67799429728021" lon="10.214377198858744"><ele>214.0</ele><time>2026-03-28T12:41:03Z</time></trkpt><trkpt lat="44.67783900419122" lon="10.214286248560295"><ele>214.0</ele><time>2026-03-28T12:41:04Z</time></trkpt><trkpt lat="44.67768441680424" lon="10.214191810918546"><ele>215.0</ele><time>2026-03-28T12:41:05Z</time></trkpt><trkpt lat="44.67753277366304" lon="10.2140890229887"><ele>216.0</ele><time>2026-03-28T12:41:06Z</time></trkpt><trkpt lat="44.67738601731727" lon="10.213972309369863"><ele>217.0</ele><time>2026-03-28T12:41:07Z</time></trkpt><trkpt lat="44.677243624337706" lon="10.213843594114648"><ele>217.0</ele><time>2026-03-28T12:41:08Z</time></trkpt><trkpt lat="44.67710617155405" lon="10.213709336514697"><ele>217.0</ele><time>2026-03-28T12:41:09Z</time></trkpt><trkpt lat="44.67697641071069" lon="10.213567166972297"><ele>217.0</ele><time>2026-03-28T12:41:10Z</time></trkpt><trkpt lat="44.676849476730695" lon="10.213414881039087"><ele>218.33333333333331</ele><time>2026-03-28T12:41:11Z</time></trkpt><trkpt lat="44.676726300735055" lon="10.213257731147186"><ele>219.66666666666669</ele><time>2026-03-28T12:41:12Z</time></trkpt><trkpt lat="44.67660239396788" lon="10.21310152393045"><ele>221.0</ele><time>2026-03-28T12:41:13Z</time></trkpt><trkpt lat="44.676477348972654" lon="10.212951572414092"><ele>221.33333333333334</ele><time>2026-03-28T12:41:14Z</time></trkpt><trkpt lat="44.67635163466502" lon="10.212803008676069"><ele>221.66666666666669</ele><time>2026-03-28T12:41:15Z</time></trkpt><trkpt lat="44.67622736114516" lon="10.212651343410872"><ele>222.0</ele><time>2026-03-28T12:41:16Z</time></trkpt><trkpt lat="44.67610045885299" lon="10.212501449095637"><ele>222.33333333333331</ele><time>2026-03-28T12:41:17Z</time></trkpt><trkpt lat="44.67597521040092" lon="10.212359164937668"><ele>222.66666666666666</ele><time>2026-03-28T12:41:18Z</time></trkpt><trkpt lat="44.67585075349481" lon="10.212219712011999"><ele>223.0</ele><time>2026-03-28T12:41:19Z</time></trkpt><trkpt lat="44.67572426700319" lon="10.212087654359204"><ele>223.0</ele><time>2026-03-28T12:41:20Z</time></trkpt><trkpt lat="44.675595558806506" lon="10.211967979358924"><ele>223.0</ele><time>2026-03-28T12:41:21Z</time></trkpt><trkpt lat="44.67545946570986" lon="10.21186336483782"><ele>223.0</ele><time>2026-03-28T12:41:22Z</time></trkpt><trkpt lat="44.67532576310258" lon="10.211758722130947"><ele>223.75</ele><time>2026-03-28T12:41:23Z</time></trkpt><trkpt lat="44.67519575671462" lon="10.21164729495158"><ele>224.5</ele><time>2026-03-28T12:41:24Z</time></trkpt><trkpt lat="44.67507048541358" lon="10.211541502467323"><ele>225.25</ele><time>2026-03-28T12:41:25Z</time></trkpt><trkpt lat="44.674955787431095" lon="10.211441217557068"><ele>226.0</ele><time>2026-03-28T12:41:26Z</time></trkpt><trkpt lat="44.67485255532503" lon="10.211337383909843"><ele>226.0</ele><time>2026-03-28T12:41:27Z</time></trkpt><trkpt lat="44.67474826042611" lon="10.21122206658851"><ele>226.0</ele><time>2026-03-28T12:41:28Z</time></trkpt><trkpt lat="44.674645031253306" lon="10.211104243268423"><ele>226.0</ele><time>2026-03-28T12:41:29Z</time></trkpt><trkpt lat="44.67454197684797" lon="10.210984773575936"><ele>226.0</ele><time>2026-03-28T12:41:30Z</time></trkpt><trkpt lat="44.67444966536748" lon="10.210868868298476"><ele>226.60000000000002</ele><time>2026-03-28T12:41:31Z</time></trkpt><trkpt lat="44.674366892426185" lon="10.210755852161824"><ele>227.20000000000002</ele><time>2026-03-28T12:41:32Z</time></trkpt><trkpt lat="44.674287447438395" lon="10.210647151682013"><ele>227.79999999999998</ele><time>2026-03-28T12:41:33Z</time></trkpt><trkpt lat="44.67420577582963" lon="10.21054267111231"><ele>228.39999999999998</ele><time>2026-03-28T12:41:34Z</time></trkpt><trkpt lat="44.6741222851128" lon="10.210442615936207"><ele>229.0</ele><time>2026-03-28T12:41:35Z</time></trkpt><trkpt lat="44.674035531774635" lon="10.210343648171992"><ele>229.0</ele><time>2026-03-28T12:41:36Z</time></trkpt><trkpt lat="44.67394844916564" lon="10.210240228833117"><ele>229.0</ele><time>2026-03-28T12:41:37Z</time></trkpt><trkpt lat="44.673859086891405" lon="10.21013705150944"><ele>229.0</ele><time>2026-03-28T12:41:38Z</time></trkpt><trkpt lat="44.673769125742886" lon="10.210034917878202"><ele>229.0</ele><time>2026-03-28T12:41:38.999Z</time></trkpt><trkpt lat="44.67368195032014" lon="10.20992985084857"><ele>229.39999999999998</ele><time>2026-03-28T12:41:39.999Z</time></trkpt><trkpt lat="44.67360037095127" lon="10.209828981111446"><ele>229.79999999999998</ele><time>2026-03-28T12:41:40.999Z</time></trkpt><trkpt lat="44.67352285474006" lon="10.209733215113502"><ele>230.20000000000002</ele><time>2026-03-28T12:41:41.999Z</time></trkpt><trkpt lat="44.67344838403868" lon="10.209643711298494"><ele>230.60000000000002</ele><time>2026-03-28T12:41:42.999Z</time></trkpt><trkpt lat="44.673380021694975" lon="10.209562779122084"><ele>231.0</ele><time>2026-03-28T12:41:43.999Z</time></trkpt><trkpt lat="44.67331475138986" lon="10.209486857020584"><ele>231.0</ele><time>2026-03-28T12:41:44.999Z</time></trkpt><trkpt lat="44.673258143607825" lon="10.209421884350926"><ele>231.0</ele><time>2026-03-28T12:41:45.999Z</time></trkpt><trkpt lat="44.673206715499006" lon="10.209357582387423"><ele>231.0</ele><time>2026-03-28T12:41:46.999Z</time></trkpt><trkpt lat="44.67315704591402" lon="10.209302980566532"><ele>231.0</ele><time>2026-03-28T12:41:47.999Z</time></trkpt><trkpt lat="44.67308428768461" lon="10.209225031308678"><ele>231.0</ele><time>2026-03-28T12:41:49.999Z</time></trkpt><trkpt lat="44.67306147748779" lon="10.209136882778173"><ele>231.0</ele><time>2026-03-28T12:41:55.999Z</time></trkpt><trkpt lat="44.67316645754038" lon="10.2089491509277"><ele>230.33333333333334</ele><time>2026-03-28T12:42:01.999Z</time></trkpt><trkpt lat="44.67322276857826" lon="10.208844908823195"><ele>229.66666666666669</ele><time>2026-03-28T12:42:04.999Z</time></trkpt><trkpt lat="44.673273143651556" lon="10.208769451691532"><ele>229.0</ele><time>2026-03-28T12:42:06.999Z</time></trkpt><trkpt lat="44.67332306073937" lon="10.208680783012198"><ele>228.33333333333334</ele><time>2026-03-28T12:42:08.999Z</time></trkpt><trkpt lat="44.67337062408062" lon="10.208597214374997"><ele>227.66666666666669</ele><time>2026-03-28T12:42:10.999Z</time></trkpt><trkpt lat="44.673411784757306" lon="10.208524907516821"><ele>227.0</ele><time>2026-03-28T12:42:12.999Z</time></trkpt><trkpt lat="44.67345010344641" lon="10.208450780289393"><ele>227.00000000000003</ele><time>2026-03-28T12:42:14.999Z</time></trkpt><trkpt lat="44.67350182440533" lon="10.208356442866476"><ele>227.0</ele><time>2026-03-28T12:42:17.999Z</time></trkpt><trkpt lat="44.67354071406043" lon="10.208277684967143"><ele>227.0</ele><time>2026-03-28T12:42:21.999Z</time></trkpt><trkpt lat="44.67358334442369" lon="10.208196131144222"><ele>227.0</ele><time>2026-03-28T12:42:25.998Z</time></trkpt><trkpt lat="44.67363229048659" lon="10.208113547112813"><ele>227.00000000000003</ele><time>2026-03-28T12:42:29.998Z</time></trkpt><trkpt lat="44.67367459136778" lon="10.20802266844896"><ele>227.0</ele><time>2026-03-28T12:42:34.998Z</time></trkpt><trkpt lat="44.67371379746101" lon="10.207935526474209"><ele>227.33333333333334</ele><time>2026-03-28T12:42:44.998Z</time></trkpt><trkpt lat="44.673737209049165" lon="10.207849581628954"><ele>227.66666666666669</ele><time>2026-03-28T12:42:47.998Z</time></trkpt><trkpt lat="44.673793709830235" lon="10.207743615212905"><ele>228.0</ele><time>2026-03-28T12:42:50.998Z</time></trkpt><trkpt lat="44.673847854417346" lon="10.207649195536243"><ele>228.33333333333331</ele><time>2026-03-28T12:42:52.998Z</time></trkpt><trkpt lat="44.67389398892182" lon="10.207560105246042"><ele>228.66666666666666</ele><time>2026-03-28T12:42:54.998Z</time></trkpt><trkpt lat="44.673939509284764" lon="10.207493017783019"><ele>229.0</ele><time>2026-03-28T12:42:56.998Z</time></trkpt><trkpt lat="44.67399366789964" lon="10.207440784181657"><ele>228.99999999999997</ele><time>2026-03-28T12:42:59.998Z</time></trkpt><trkpt lat="44.67397838923825" lon="10.207334728748974"><ele>229.0</ele><time>2026-03-28T12:43:05.998Z</time></trkpt><trkpt lat="44.6739028414471" lon="10.207268911260078"><ele>229.0</ele><time>2026-03-28T12:43:08Z</time></trkpt><trkpt lat="44.67383014421404" lon="10.207201992711362"><ele>229.0</ele><time>2026-03-28T12:43:10Z</time></trkpt><trkpt lat="44.67377840617124" lon="10.20714225579375"><ele>228.99999999999997</ele><time>2026-03-28T12:43:12Z</time></trkpt><trkpt lat="44.67371782529588" lon="10.207076979278467"><ele>229.0</ele><time>2026-03-28T12:43:14Z</time></trkpt><trkpt lat="44.67365706618332" lon="10.207001475003626"><ele>228.85714285714283</ele><time>2026-03-28T12:43:16Z</time></trkpt><trkpt lat="44.67361550491931" lon="10.206934681227276"><ele>228.71428571428572</ele><time>2026-03-28T12:43:18Z</time></trkpt><trkpt lat="44.67356169294753" lon="10.206875232588553"><ele>228.57142857142856</ele><time>2026-03-28T12:43:20Z</time></trkpt><trkpt lat="44.67350202431373" lon="10.206831628387214"><ele>228.42857142857142</ele><time>2026-03-28T12:43:22Z</time></trkpt><trkpt lat="44.67343721142381" lon="10.206826016929325"><ele>228.28571428571428</ele><time>2026-03-28T12:43:24Z</time></trkpt><trkpt lat="44.67335945130141" lon="10.206844031538475"><ele>228.14285714285714</ele><time>2026-03-28T12:43:26Z</time></trkpt><trkpt lat="44.67327803995104" lon="10.206832401120757"><ele>228.0</ele><time>2026-03-28T12:43:28Z</time></trkpt><trkpt lat="44.67321768780079" lon="10.206783177580412"><ele>228.0</ele><time>2026-03-28T12:43:30Z</time></trkpt><trkpt lat="44.673198331933484" lon="10.206698568659935"><ele>228.0</ele><time>2026-03-28T12:43:32Z</time></trkpt><trkpt lat="44.673173019072856" lon="10.206589261737667"><ele>228.0</ele><time>2026-03-28T12:43:34Z</time></trkpt><trkpt lat="44.67310309154629" lon="10.20648923842063"><ele>228.0</ele><time>2026-03-28T12:43:37Z</time></trkpt><trkpt lat="44.67305112118116" lon="10.206406173568348"><ele>228.0</ele><time>2026-03-28T12:43:39Z</time></trkpt><trkpt lat="44.67298347239229" lon="10.206318302321673"><ele>228.0</ele><time>2026-03-28T12:43:41Z</time></trkpt><trkpt lat="44.67291259097875" lon="10.2062536000405"><ele>228.0</ele><time>2026-03-28T12:43:43Z</time></trkpt><trkpt lat="44.67284395779296" lon="10.206199943387345"><ele>228.0</ele><time>2026-03-28T12:43:45Z</time></trkpt><trkpt lat="44.672773077098036" lon="10.2061426393304"><ele>228.0</ele><time>2026-03-28T12:43:47.999Z</time></trkpt><trkpt lat="44.67264748131838" lon="10.206054788345442"><ele>228.0</ele><time>2026-03-28T12:46:25.999Z</time></trkpt><trkpt lat="44.67258176348083" lon="10.206058483755534"><ele>228.0</ele><time>2026-03-28T12:46:27.999Z</time></trkpt><trkpt lat="44.67251530438362" lon="10.206126403666964"><ele>228.0</ele><time>2026-03-28T12:46:38.999Z</time></trkpt><trkpt lat="44.67244256516855" lon="10.206150511548458"><ele>228.0</ele><time>2026-03-28T12:46:41.999Z</time></trkpt><trkpt lat="44.672383929465695" lon="10.206093414980167"><ele>228.0</ele><time>2026-03-28T12:46:57.999Z</time></trkpt><trkpt lat="44.672332308328855" lon="10.206034327572437"><ele>228.0</ele><time>2026-03-28T12:47:00.999Z</time></trkpt><trkpt lat="44.672241136829314" lon="10.205984959675652"><ele>228.0</ele><time>2026-03-28T12:47:06.998Z</time></trkpt><trkpt lat="44.67218475585826" lon="10.20594544135768"><ele>228.0</ele><time>2026-03-28T12:47:08.998Z</time></trkpt><trkpt lat="44.67212345126386" lon="10.205911598634131"><ele>228.0</ele><time>2026-03-28T12:47:10.998Z</time></trkpt><trkpt lat="44.67204775856161" lon="10.205851948415066"><ele>228.0</ele><time>2026-03-28T12:47:13.998Z</time></trkpt><trkpt lat="44.67198665142301" lon="10.205806566831706"><ele>227.99999999999997</ele><time>2026-03-28T12:47:16.998Z</time></trkpt><trkpt lat="44.67191346420367" lon="10.205779722217931"><ele>228.0</ele><time>2026-03-28T12:47:18.998Z</time></trkpt><trkpt lat="44.67183746479519" lon="10.20574015292738"><ele>228.0</ele><time>2026-03-28T12:47:21.998Z</time></trkpt><trkpt lat="44.671763326135924" lon="10.205681477370637"><ele>227.99999999999997</ele><time>2026-03-28T12:47:24.998Z</time></trkpt><trkpt lat="44.67169719829839" lon="10.205659032051344"><ele>228.0</ele><time>2026-03-28T12:47:41.998Z</time></trkpt><trkpt lat="44.67163048377874" lon="10.205637862044616"><ele>228.0</ele><time>2026-03-28T12:47:46.998Z</time></trkpt><trkpt lat="44.671585716892864" lon="10.205568445564653"><ele>228.42857142857142</ele><time>2026-03-28T12:48:30.999Z</time></trkpt><trkpt lat="44.67154208094842" lon="10.2054979715168"><ele>228.85714285714283</ele><time>2026-03-28T12:48:32.999Z</time></trkpt><trkpt lat="44.671492453178885" lon="10.205440566589516"><ele>229.28571428571428</ele><time>2026-03-28T12:48:34.999Z</time></trkpt><trkpt lat="44.671440298723795" lon="10.20538076757692"><ele>229.71428571428572</ele><time>2026-03-28T12:48:36.999Z</time></trkpt><trkpt lat="44.67137311516452" lon="10.2053000749923"><ele>230.14285714285714</ele><time>2026-03-28T12:48:39.999Z</time></trkpt><trkpt lat="44.67137802996493" lon="10.20533026481175"><ele>230.57142857142856</ele><time>2026-03-28T12:54:22.999Z</time></trkpt><trkpt lat="44.67145360852103" lon="10.205389326536654"><ele>231.0</ele><time>2026-03-28T12:54:25.999Z</time></trkpt><trkpt lat="44.67150787934701" lon="10.205464306501062"><ele>231.0</ele><time>2026-03-28T12:54:28.999Z</time></trkpt><trkpt lat="44.67157680750518" lon="10.205553376173377"><ele>231.0</ele><time>2026-03-28T12:54:31.998Z</time></trkpt><trkpt lat="44.67163860682577" lon="10.205647001174698"><ele>231.0</ele><time>2026-03-28T12:54:34.998Z</time></trkpt><trkpt lat="44.671714480077654" lon="10.2056604856927"><ele>231.0</ele><time>2026-03-28T12:54:37.998Z</time></trkpt><trkpt lat="44.671783423637194" lon="10.205699435262417"><ele>231.0</ele><time>2026-03-28T12:54:40.998Z</time></trkpt><trkpt lat="44.67184191523598" lon="10.205739155080543"><ele>231.0</ele><time>2026-03-28T12:54:42.998Z</time></trkpt><trkpt lat="44.671907175702785" lon="10.20577393105742"><ele>230.5</ele><time>2026-03-28T12:54:44.998Z</time></trkpt><trkpt lat="44.671972600454346" lon="10.205801365201896"><ele>230.0</ele><time>2026-03-28T12:54:46.998Z</time></trkpt><trkpt lat="44.672041860514646" lon="10.205845448893182"><ele>229.5</ele><time>2026-03-28T12:54:48.998Z</time></trkpt><trkpt lat="44.672109642201235" lon="10.205905622169281"><ele>229.0</ele><time>2026-03-28T12:54:50.998Z</time></trkpt><trkpt lat="44.67219253648426" lon="10.20595346402579"><ele>228.5</ele><time>2026-03-28T12:54:52.998Z</time></trkpt><trkpt lat="44.67225438354504" lon="10.205988233895129"><ele>228.0</ele><time>2026-03-28T12:54:54.998Z</time></trkpt><trkpt lat="44.67233517250029" lon="10.206041284584854"><ele>228.0</ele><time>2026-03-28T12:54:56.998Z</time></trkpt><trkpt lat="44.67238282655377" lon="10.20611029275587"><ele>228.0</ele><time>2026-03-28T12:54:59.998Z</time></trkpt><trkpt lat="44.67245024169506" lon="10.20615169041349"><ele>228.0</ele><time>2026-03-28T12:55:02.998Z</time></trkpt><trkpt lat="44.67253380075212" lon="10.206096425750502"><ele>228.0</ele><time>2026-03-28T12:55:05.998Z</time></trkpt><trkpt lat="44.67259556732497" lon="10.206065902296226"><ele>228.0</ele><time>2026-03-28T12:55:07.998Z</time></trkpt><trkpt lat="44.67267885191055" lon="10.206054410106532"><ele>228.0</ele><time>2026-03-28T12:55:10.998Z</time></trkpt><trkpt lat="44.67276000674203" lon="10.206114006814344"><ele>228.0</ele><time>2026-03-28T12:55:13.998Z</time></trkpt><trkpt lat="44.67283950622419" lon="10.206194545692874"><ele>228.0</ele><time>2026-03-28T12:55:16.998Z</time></trkpt><trkpt lat="44.672915046275726" lon="10.206243395391352"><ele>228.0</ele><time>2026-03-28T12:55:18.998Z</time></trkpt><trkpt lat="44.67297299823724" lon="10.206292748923904"><ele>228.0</ele><time>2026-03-28T12:55:20.997Z</time></trkpt><trkpt lat="44.673046799920066" lon="10.206383793178183"><ele>228.0</ele><time>2026-03-28T12:55:23Z</time></trkpt><trkpt lat="44.67310036263703" lon="10.20647261186681"><ele>228.0</ele><time>2026-03-28T12:55:25Z</time></trkpt><trkpt lat="44.67314217812278" lon="10.20656273816557"><ele>228.0</ele><time>2026-03-28T12:55:28Z</time></trkpt><trkpt lat="44.673198177520476" lon="10.20668312097562"><ele>228.0</ele><time>2026-03-28T12:55:31Z</time></trkpt><trkpt lat="44.673223964570425" lon="10.206781655480416"><ele>228.0</ele><time>2026-03-28T12:55:33Z</time></trkpt><trkpt lat="44.67331209673656" lon="10.206836484275803"><ele>228.0</ele><time>2026-03-28T12:55:36Z</time></trkpt><trkpt lat="44.6734003504689" lon="10.206831255878212"><ele>228.0</ele><time>2026-03-28T12:55:39Z</time></trkpt><trkpt lat="44.673474946536" lon="10.206823986103998"><ele>228.0</ele><time>2026-03-28T12:55:41Z</time></trkpt><trkpt lat="44.673556840483954" lon="10.206869022920332"><ele>228.0</ele><time>2026-03-28T12:55:44Z</time></trkpt><trkpt lat="44.673602930862245" lon="10.206933364206296"><ele>228.0</ele><time>2026-03-28T12:55:46Z</time></trkpt><trkpt lat="44.673649867169644" lon="10.207010474283095"><ele>228.0</ele><time>2026-03-28T12:55:48Z</time></trkpt><trkpt lat="44.67368988074155" lon="10.207080356078677"><ele>228.0</ele><time>2026-03-28T12:55:50Z</time></trkpt><trkpt lat="44.673715957805136" lon="10.207190828325169"><ele>228.0</ele><time>2026-03-28T12:55:53Z</time></trkpt><trkpt lat="44.673743822907326" lon="10.207300801205028"><ele>228.0</ele><time>2026-03-28T12:55:55.999Z</time></trkpt><trkpt lat="44.67381342313295" lon="10.207384830898109"><ele>228.14285714285714</ele><time>2026-03-28T12:55:58.999Z</time></trkpt><trkpt lat="44.673862226144664" lon="10.207457202245886"><ele>228.28571428571428</ele><time>2026-03-28T12:56:00.999Z</time></trkpt><trkpt lat="44.67389162827664" lon="10.207537393674073"><ele>228.42857142857142</ele><time>2026-03-28T12:56:04.999Z</time></trkpt><trkpt lat="44.673858027346846" lon="10.207637169385698"><ele>228.57142857142856</ele><time>2026-03-28T12:56:16.999Z</time></trkpt><trkpt lat="44.67380099050012" lon="10.207729200820882"><ele>228.71428571428572</ele><time>2026-03-28T12:56:18.999Z</time></trkpt><trkpt lat="44.67375782745885" lon="10.20781660360262"><ele>228.85714285714283</ele><time>2026-03-28T12:56:20.999Z</time></trkpt><trkpt lat="44.67372148889579" lon="10.207903194189306"><ele>229.0</ele><time>2026-03-28T12:56:22.999Z</time></trkpt><trkpt lat="44.673673481631695" lon="10.207981494817162"><ele>229.0</ele><time>2026-03-28T12:56:25.999Z</time></trkpt><trkpt lat="44.67364122860752" lon="10.20806387678982"><ele>228.99999999999997</ele><time>2026-03-28T12:56:27.999Z</time></trkpt><trkpt lat="44.67359385302668" lon="10.208156955690322"><ele>228.99999999999997</ele><time>2026-03-28T12:56:29.999Z</time></trkpt><trkpt lat="44.673530397080604" lon="10.208276784815443"><ele>229.0</ele><time>2026-03-28T12:56:31.999Z</time></trkpt><trkpt lat="44.67345895040955" lon="10.20841448783639"><ele>229.0</ele><time>2026-03-28T12:56:33.999Z</time></trkpt><trkpt lat="44.67339376776713" lon="10.208533707654736"><ele>228.6</ele><time>2026-03-28T12:56:35.999Z</time></trkpt><trkpt lat="44.67331969911059" lon="10.20866215799573"><ele>228.2</ele><time>2026-03-28T12:56:37.999Z</time></trkpt><trkpt lat="44.67325158260887" lon="10.208782506068042"><ele>227.79999999999998</ele><time>2026-03-28T12:56:39.999Z</time></trkpt><trkpt lat="44.673199796563914" lon="10.208874809283007"><ele>227.39999999999998</ele><time>2026-03-28T12:56:41.999Z</time></trkpt><trkpt lat="44.673143197101545" lon="10.20898619653128"><ele>227.0</ele><time>2026-03-28T12:56:44.999Z</time></trkpt><trkpt lat="44.67313778537564" lon="10.20912562192778"><ele>227.0</ele><time>2026-03-28T12:56:46.998Z</time></trkpt><trkpt lat="44.67309299775645" lon="10.20920714459501"><ele>227.0</ele><time>2026-03-28T12:56:52.998Z</time></trkpt><trkpt lat="44.67284379994396" lon="10.208942588456416"><ele>227.0</ele><time>2026-03-28T12:56:58.998Z</time></trkpt><trkpt lat="44.67278721166781" lon="10.208878816966594"><ele>228.2</ele><time>2026-03-28T12:56:59.998Z</time></trkpt><trkpt lat="44.672725316951116" lon="10.208807730325026"><ele>229.39999999999998</ele><time>2026-03-28T12:57:00.998Z</time></trkpt><trkpt lat="44.67265193920335" lon="10.208717382931352"><ele>230.60000000000002</ele><time>2026-03-28T12:57:01.998Z</time></trkpt><trkpt lat="44.672569086738335" lon="10.208616745501617"><ele>231.8</ele><time>2026-03-28T12:57:02.998Z</time></trkpt><trkpt lat="44.67248426821649" lon="10.208516514676974"><ele>233.0</ele><time>2026-03-28T12:57:03.998Z</time></trkpt><trkpt lat="44.672389046333535" lon="10.208406128137938"><ele>233.0</ele><time>2026-03-28T12:57:04.998Z</time></trkpt><trkpt lat="44.67228883741041" lon="10.208291313484953"><ele>233.0</ele><time>2026-03-28T12:57:05.998Z</time></trkpt><trkpt lat="44.67218213319513" lon="10.20817321739191"><ele>233.0</ele><time>2026-03-28T12:57:06.998Z</time></trkpt><trkpt lat="44.67207528612499" lon="10.208053858792098"><ele>233.0</ele><time>2026-03-28T12:57:07.998Z</time></trkpt><trkpt lat="44.6719725100356" lon="10.207927055021635"><ele>233.0</ele><time>2026-03-28T12:57:08.998Z</time></trkpt><trkpt lat="44.67186786229476" lon="10.207805385455273"><ele>233.0</ele><time>2026-03-28T12:57:09.998Z</time></trkpt><trkpt lat="44.6717695073121" lon="10.20769245645884"><ele>233.0</ele><time>2026-03-28T12:57:10.998Z</time></trkpt><trkpt lat="44.671677309571585" lon="10.207583591429067"><ele>233.0</ele><time>2026-03-28T12:57:11.998Z</time></trkpt><trkpt lat="44.67159116611223" lon="10.207478380903915"><ele>233.0</ele><time>2026-03-28T12:57:12.998Z</time></trkpt><trkpt lat="44.67149825896798" lon="10.2073782619611"><ele>233.0</ele><time>2026-03-28T12:57:13.998Z</time></trkpt><trkpt lat="44.67140433349924" lon="10.207281494636982"><ele>233.0</ele><time>2026-03-28T12:57:14.998Z</time></trkpt><trkpt lat="44.67130220481266" lon="10.20719604194443"><ele>233.0</ele><time>2026-03-28T12:57:15.998Z</time></trkpt><trkpt lat="44.67118790364626" lon="10.207131441160398"><ele>232.75</ele><time>2026-03-28T12:57:16.998Z</time></trkpt><trkpt lat="44.671065836807166" lon="10.207090336458982"><ele>232.5</ele><time>2026-03-28T12:57:17.998Z</time></trkpt><trkpt lat="44.670934791631005" lon="10.20706419243886"><ele>232.25</ele><time>2026-03-28T12:57:18.998Z</time></trkpt><trkpt lat="44.67079810166049" lon="10.207045263030489"><ele>232.0</ele><time>2026-03-28T12:57:19.998Z</time></trkpt><trkpt lat="44.67065630470291" lon="10.207023732211837"><ele>232.0</ele><time>2026-03-28T12:57:20.998Z</time></trkpt><trkpt lat="44.670513304299334" lon="10.206999305702764"><ele>232.0</ele><time>2026-03-28T12:57:21.998Z</time></trkpt><trkpt lat="44.67038713129921" lon="10.206970955323976"><ele>232.0</ele><time>2026-03-28T12:57:22.998Z</time></trkpt><trkpt lat="44.67024520986477" lon="10.206946290475829"><ele>232.0</ele><time>2026-03-28T12:57:23.998Z</time></trkpt><trkpt lat="44.67010696783829" lon="10.20691923493966"><ele>232.75</ele><time>2026-03-28T12:57:24.998Z</time></trkpt><trkpt lat="44.66997727199507" lon="10.206897441888955"><ele>233.5</ele><time>2026-03-28T12:57:25.998Z</time></trkpt><trkpt lat="44.669847202593424" lon="10.206877905012556"><ele>234.25</ele><time>2026-03-28T12:57:27Z</time></trkpt><trkpt lat="44.66972054212702" lon="10.206831975264539"><ele>235.0</ele><time>2026-03-28T12:57:28Z</time></trkpt><trkpt lat="44.66960224722273" lon="10.206782829431734"><ele>235.0</ele><time>2026-03-28T12:57:29Z</time></trkpt><trkpt lat="44.66948660265929" lon="10.206715539270034"><ele>235.0</ele><time>2026-03-28T12:57:30Z</time></trkpt><trkpt lat="44.669383341674475" lon="10.20663285536864"><ele>235.0</ele><time>2026-03-28T12:57:31Z</time></trkpt><trkpt lat="44.66929110041943" lon="10.2065286361658"><ele>235.0</ele><time>2026-03-28T12:57:32Z</time></trkpt><trkpt lat="44.66920243858574" lon="10.206406826059855"><ele>235.25</ele><time>2026-03-28T12:57:33Z</time></trkpt><trkpt lat="44.66911451806566" lon="10.206270695322555"><ele>235.5</ele><time>2026-03-28T12:57:34Z</time></trkpt><trkpt lat="44.66902555889304" lon="10.206125583692968"><ele>235.75</ele><time>2026-03-28T12:57:35Z</time></trkpt><trkpt lat="44.66893231298325" lon="10.205973189777794"><ele>236.0</ele><time>2026-03-28T12:57:36Z</time></trkpt><trkpt lat="44.66883055556131" lon="10.205831864893412"><ele>236.0</ele><time>2026-03-28T12:57:37Z</time></trkpt><trkpt lat="44.66873755842158" lon="10.205679231865872"><ele>236.0</ele><time>2026-03-28T12:57:38Z</time></trkpt><trkpt lat="44.66864854591582" lon="10.205530201226551"><ele>236.0</ele><time>2026-03-28T12:57:39Z</time></trkpt><trkpt lat="44.66855891027366" lon="10.20538331605503"><ele>236.0</ele><time>2026-03-28T12:57:40Z</time></trkpt><trkpt lat="44.66847008276968" lon="10.205242448203812"><ele>237.25</ele><time>2026-03-28T12:57:41Z</time></trkpt><trkpt lat="44.66839242499014" lon="10.205084829819947"><ele>238.5</ele><time>2026-03-28T12:57:42Z</time></trkpt><trkpt lat="44.66830628864224" lon="10.204943193845647"><ele>239.75</ele><time>2026-03-28T12:57:43Z</time></trkpt><trkpt lat="44.668226690422046" lon="10.204812308885174"><ele>241.0</ele><time>2026-03-28T12:57:44Z</time></trkpt><trkpt lat="44.66815344819976" lon="10.20471535659989"><ele>241.33333333333331</ele><time>2026-03-28T12:57:45Z</time></trkpt><trkpt lat="44.66808723826587" lon="10.20460991713755"><ele>241.66666666666666</ele><time>2026-03-28T12:57:46Z</time></trkpt><trkpt lat="44.66802662589396" lon="10.204514237470228"><ele>242.0</ele><time>2026-03-28T12:57:47Z</time></trkpt><trkpt lat="44.66796934126813" lon="10.2044205208227"><ele>242.33333333333331</ele><time>2026-03-28T12:57:48Z</time></trkpt><trkpt lat="44.66791684732833" lon="10.20433228105739"><ele>242.66666666666666</ele><time>2026-03-28T12:57:49Z</time></trkpt><trkpt lat="44.6678682877435" lon="10.204248444218695"><ele>243.0</ele><time>2026-03-28T12:57:50Z</time></trkpt><trkpt lat="44.66782232726972" lon="10.204170710837033"><ele>243.0</ele><time>2026-03-28T12:57:51Z</time></trkpt><trkpt lat="44.667778601457734" lon="10.204098637465906"><ele>243.0</ele><time>2026-03-28T12:57:52Z</time></trkpt><trkpt lat="44.66771018406576" lon="10.203989879025771"><ele>243.0</ele><time>2026-03-28T12:57:54Z</time></trkpt><trkpt lat="44.66766576649171" lon="10.203921028773664"><ele>243.0</ele><time>2026-03-28T12:58:27.999Z</time></trkpt><trkpt lat="44.66762611720437" lon="10.20384292830979"><ele>243.0</ele><time>2026-03-28T12:59:21.998Z</time></trkpt><trkpt lat="44.66757193334937" lon="10.203761268184287"><ele>243.0</ele><time>2026-03-28T12:59:38Z</time></trkpt><trkpt lat="44.667523850685235" lon="10.203686501782304"><ele>243.4</ele><time>2026-03-28T12:59:39Z</time></trkpt><trkpt lat="44.667470587996554" lon="10.20360023880382"><ele>243.8</ele><time>2026-03-28T12:59:40Z</time></trkpt><trkpt lat="44.6674145316804" lon="10.203506560431958"><ele>244.2</ele><time>2026-03-28T12:59:41Z</time></trkpt><trkpt lat="44.667346414629456" lon="10.203391544135336"><ele>244.6</ele><time>2026-03-28T12:59:42Z</time></trkpt><trkpt lat="44.667278673615975" lon="10.20328166340846"><ele>245.0</ele><time>2026-03-28T12:59:43Z</time></trkpt><trkpt lat="44.66721587110649" lon="10.203177255505745"><ele>245.0</ele><time>2026-03-28T12:59:44Z</time></trkpt><trkpt lat="44.66714246058737" lon="10.20306779592588"><ele>245.0</ele><time>2026-03-28T12:59:45Z</time></trkpt><trkpt lat="44.66706638295596" lon="10.202960773870362"><ele>245.0</ele><time>2026-03-28T12:59:46Z</time></trkpt><trkpt lat="44.66698100565639" lon="10.20286141645051"><ele>245.0</ele><time>2026-03-28T12:59:47Z</time></trkpt><trkpt lat="44.666885661681825" lon="10.202770317703054"><ele>245.0</ele><time>2026-03-28T12:59:48Z</time></trkpt><trkpt lat="44.66678585673078" lon="10.202684013412652"><ele>245.5</ele><time>2026-03-28T12:59:49Z</time></trkpt><trkpt lat="44.66668177527183" lon="10.20260146038842"><ele>246.0</ele><time>2026-03-28T12:59:50Z</time></trkpt><trkpt lat="44.66657272258394" lon="10.202519952724108"><ele>246.5</ele><time>2026-03-28T12:59:51Z</time></trkpt><trkpt lat="44.66646840466383" lon="10.202444543721306"><ele>247.0</ele><time>2026-03-28T12:59:52Z</time></trkpt><trkpt lat="44.66636551969489" lon="10.202373159845244"><ele>246.8</ele><time>2026-03-28T12:59:53Z</time></trkpt><trkpt lat="44.6662669010888" lon="10.202297665634328"><ele>246.6</ele><time>2026-03-28T12:59:54Z</time></trkpt><trkpt lat="44.66617024475916" lon="10.202227095208455"><ele>246.40000000000003</ele><time>2026-03-28T12:59:55Z</time></trkpt><trkpt lat="44.66608738199854" lon="10.20216379667976"><ele>246.20000000000002</ele><time>2026-03-28T12:59:56Z</time></trkpt><trkpt lat="44.66600982455771" lon="10.202109705042304"><ele>246.0</ele><time>2026-03-28T12:59:57Z</time></trkpt><trkpt lat="44.665940642896764" lon="10.202063098313257"><ele>246.5714285714286</ele><time>2026-03-28T12:59:58Z</time></trkpt><trkpt lat="44.66588485177542" lon="10.202020861803774"><ele>247.14285714285717</ele><time>2026-03-28T12:59:59Z</time></trkpt><trkpt lat="44.66581932582403" lon="10.201962486214422"><ele>247.71428571428572</ele><time>2026-03-28T13:00:01Z</time></trkpt><trkpt lat="44.66581363519007" lon="10.20187080556619"><ele>248.2857142857143</ele><time>2026-03-28T13:00:04Z</time></trkpt><trkpt lat="44.66571375312886" lon="10.201883170827246"><ele>248.8571428571429</ele><time>2026-03-28T13:00:28.999Z</time></trkpt><trkpt lat="44.66564956750232" lon="10.201839352099618"><ele>249.42857142857142</ele><time>2026-03-28T13:00:29.999Z</time></trkpt><trkpt lat="44.66559245000164" lon="10.201789214181918"><ele>250.0</ele><time>2026-03-28T13:00:30.999Z</time></trkpt><trkpt lat="44.66552093308208" lon="10.201740604506805"><ele>250.0</ele><time>2026-03-28T13:00:31.999Z</time></trkpt><trkpt lat="44.6654459064638" lon="10.201689904506825"><ele>250.0</ele><time>2026-03-28T13:00:32.999Z</time></trkpt><trkpt lat="44.665373935432505" lon="10.201636595933113"><ele>250.0</ele><time>2026-03-28T13:00:33.999Z</time></trkpt><trkpt lat="44.665292512890204" lon="10.201575079810631"><ele>250.0</ele><time>2026-03-28T13:00:34.999Z</time></trkpt><trkpt lat="44.66520743741613" lon="10.201510011879394"><ele>250.0</ele><time>2026-03-28T13:00:35.999Z</time></trkpt><trkpt lat="44.66511949321164" lon="10.201450834060415"><ele>249.99999999999997</ele><time>2026-03-28T13:00:36.999Z</time></trkpt><trkpt lat="44.66503524323082" lon="10.201393479439238"><ele>250.0</ele><time>2026-03-28T13:00:37.999Z</time></trkpt><trkpt lat="44.66495448989804" lon="10.20133242358114"><ele>250.0</ele><time>2026-03-28T13:00:38.999Z</time></trkpt><trkpt lat="44.6648843884006" lon="10.201282615442123"><ele>250.0</ele><time>2026-03-28T13:00:39.999Z</time></trkpt><trkpt lat="44.6648260048388" lon="10.201240113058418"><ele>249.99999999999997</ele><time>2026-03-28T13:00:40.999Z</time></trkpt><trkpt lat="44.66475631875021" lon="10.201188105717552"><ele>250.0</ele><time>2026-03-28T13:00:42.999Z</time></trkpt><trkpt lat="44.66475925368505" lon="10.201071332147187"><ele>250.0</ele><time>2026-03-28T13:00:45.999Z</time></trkpt><trkpt lat="44.664818043705814" lon="10.201110193684718"><ele>250.0</ele><time>2026-03-28T13:00:48.999Z</time></trkpt><trkpt lat="44.66495752801142" lon="10.200862435869118"><ele>250.0</ele><time>2026-03-28T13:00:50.999Z</time></trkpt><trkpt lat="44.665046845054256" lon="10.200763434374494"><ele>250.0</ele><time>2026-03-28T13:00:52.999Z</time></trkpt><trkpt lat="44.66510418574476" lon="10.200678122067922"><ele>249.49999999999997</ele><time>2026-03-28T13:00:54.999Z</time></trkpt><trkpt lat="44.665129712015805" lon="10.200576090821512"><ele>249.0</ele><time>2026-03-28T13:00:56.999Z</time></trkpt><trkpt lat="44.665111580190036" lon="10.200490941571404"><ele>248.5</ele><time>2026-03-28T13:00:58.999Z</time></trkpt><trkpt lat="44.665061177008795" lon="10.200417466001388"><ele>248.0</ele><time>2026-03-28T13:01:00.999Z</time></trkpt><trkpt lat="44.66498832425534" lon="10.200375238964012"><ele>247.49999999999997</ele><time>2026-03-28T13:01:02.999Z</time></trkpt><trkpt lat="44.66491500868019" lon="10.200323779438481"><ele>247.0</ele><time>2026-03-28T13:01:04.999Z</time></trkpt><trkpt lat="44.664848024468334" lon="10.200264845318214"><ele>246.99999999999997</ele><time>2026-03-28T13:01:06.999Z</time></trkpt><trkpt lat="44.66477248174857" lon="10.20020172661861"><ele>247.0</ele><time>2026-03-28T13:01:08.999Z</time></trkpt><trkpt lat="44.66470315039157" lon="10.200143699421787"><ele>247.0</ele><time>2026-03-28T13:01:10.999Z</time></trkpt><trkpt lat="44.664622648421336" lon="10.200082609919756"><ele>247.0</ele><time>2026-03-28T13:01:12.998Z</time></trkpt><trkpt lat="44.66454684159077" lon="10.200021890440558"><ele>246.99999999999997</ele><time>2026-03-28T13:01:14.998Z</time></trkpt><trkpt lat="44.66447269398391" lon="10.199958121145738"><ele>247.0</ele><time>2026-03-28T13:01:16.998Z</time></trkpt><trkpt lat="44.664381265740566" lon="10.199888264444812"><ele>246.39999999999998</ele><time>2026-03-28T13:01:18.998Z</time></trkpt><trkpt lat="44.66430026075547" lon="10.199818821021445"><ele>245.79999999999998</ele><time>2026-03-28T13:01:20.998Z</time></trkpt><trkpt lat="44.66421855880751" lon="10.199752766975887"><ele>245.2</ele><time>2026-03-28T13:01:22.998Z</time></trkpt><trkpt lat="44.6641431426375" lon="10.199690196668325"><ele>244.6</ele><time>2026-03-28T13:01:24.998Z</time></trkpt><trkpt lat="44.66406025911961" lon="10.199627675369324"><ele>244.0</ele><time>2026-03-28T13:01:26.998Z</time></trkpt><trkpt lat="44.663979663256676" lon="10.199561708031696"><ele>244.0</ele><time>2026-03-28T13:01:28.998Z</time></trkpt><trkpt lat="44.66390137346158" lon="10.199494628506518"><ele>243.99999999999997</ele><time>2026-03-28T13:01:30.998Z</time></trkpt><trkpt lat="44.66382274803146" lon="10.199435362078393"><ele>243.99999999999997</ele><time>2026-03-28T13:01:32.998Z</time></trkpt><trkpt lat="44.66375313394318" lon="10.199394039702561"><ele>244.0</ele><time>2026-03-28T13:01:34.998Z</time></trkpt><trkpt lat="44.66366891203287" lon="10.199336609646242"><ele>244.0</ele><time>2026-03-28T13:01:36.998Z</time></trkpt><trkpt lat="44.66357432611275" lon="10.199260201300437"><ele>244.0</ele><time>2026-03-28T13:01:39Z</time></trkpt><trkpt lat="44.663498900880995" lon="10.199182394599045"><ele>243.99999999999997</ele><time>2026-03-28T13:01:41Z</time></trkpt><trkpt lat="44.66341882162707" lon="10.199114035017944"><ele>243.99999999999997</ele><time>2026-03-28T13:01:43Z</time></trkpt><trkpt lat="44.66333426828123" lon="10.199074181074007"><ele>244.0</ele><time>2026-03-28T13:01:45Z</time></trkpt><trkpt lat="44.66328315262105" lon="10.198981179708113"><ele>244.0</ele><time>2026-03-28T13:01:48Z</time></trkpt><trkpt lat="44.66331805551635" lon="10.198864412240876"><ele>243.99999999999997</ele><time>2026-03-28T13:01:51Z</time></trkpt><trkpt lat="44.66334924812976" lon="10.198764454625437"><ele>244.0</ele><time>2026-03-28T13:01:53Z</time></trkpt><trkpt lat="44.66337382248571" lon="10.198677463168544"><ele>244.0</ele><time>2026-03-28T13:01:55Z</time></trkpt><trkpt lat="44.66339992349126" lon="10.19856361020357"><ele>244.0</ele><time>2026-03-28T13:01:57Z</time></trkpt><trkpt lat="44.66342571635304" lon="10.198477595929681"><ele>243.99999999999997</ele><time>2026-03-28T13:01:59Z</time></trkpt><trkpt lat="44.663463644253284" lon="10.198367169840587"><ele>244.0</ele><time>2026-03-28T13:02:01Z</time></trkpt><trkpt lat="44.66350412072047" lon="10.198230435029298"><ele>244.0</ele><time>2026-03-28T13:02:03Z</time></trkpt><trkpt lat="44.66354101864175" lon="10.198104764636106"><ele>243.99999999999997</ele><time>2026-03-28T13:02:05Z</time></trkpt><trkpt lat="44.663581404460125" lon="10.197969029317473"><ele>243.99999999999997</ele><time>2026-03-28T13:02:07Z</time></trkpt><trkpt lat="44.66361680815696" lon="10.19784389587917"><ele>244.0</ele><time>2026-03-28T13:02:09Z</time></trkpt><trkpt lat="44.66365312412071" lon="10.19771584467178"><ele>244.0</ele><time>2026-03-28T13:02:11Z</time></trkpt><trkpt lat="44.663691097524975" lon="10.19758110597636"><ele>244.0</ele><time>2026-03-28T13:02:13Z</time></trkpt><trkpt lat="44.663723240367204" lon="10.19746773335982"><ele>243.99999999999997</ele><time>2026-03-28T13:02:15Z</time></trkpt><trkpt lat="44.663762346658814" lon="10.19735745920375"><ele>243.99999999999997</ele><time>2026-03-28T13:02:17Z</time></trkpt><trkpt lat="44.66380446676433" lon="10.197232261626308"><ele>244.0</ele><time>2026-03-28T13:02:19Z</time></trkpt><trkpt lat="44.663865066285986" lon="10.197148681800108"><ele>244.0</ele><time>2026-03-28T13:02:21Z</time></trkpt><trkpt lat="44.663923260772506" lon="10.197042250505294"><ele>243.99999999999997</ele><time>2026-03-28T13:02:23Z</time></trkpt><trkpt lat="44.66397730528188" lon="10.196974435879095"><ele>244.0</ele><time>2026-03-28T13:02:25Z</time></trkpt><trkpt lat="44.66401215865213" lon="10.196899124670413"><ele>244.0</ele><time>2026-03-28T13:02:27Z</time></trkpt><trkpt lat="44.664036667948366" lon="10.196796829317261"><ele>244.0</ele><time>2026-03-28T13:02:29Z</time></trkpt><trkpt lat="44.66409545658166" lon="10.196674790826103"><ele>243.99999999999997</ele><time>2026-03-28T13:02:31Z</time></trkpt><trkpt lat="44.66415602312075" lon="10.196570544560432"><ele>244.0</ele><time>2026-03-28T13:02:32.999Z</time></trkpt><trkpt lat="44.66419644100191" lon="10.19649847859288"><ele>243.99999999999997</ele><time>2026-03-28T13:02:34.999Z</time></trkpt><trkpt lat="44.66425556939392" lon="10.196409763368878"><ele>244.0</ele><time>2026-03-28T13:02:36.999Z</time></trkpt><trkpt lat="44.664308383717845" lon="10.19631967791028"><ele>244.0</ele><time>2026-03-28T13:02:38.999Z</time></trkpt><trkpt lat="44.66435677929233" lon="10.196242167876258"><ele>244.0</ele><time>2026-03-28T13:02:41.999Z</time></trkpt><trkpt lat="44.664402781547494" lon="10.196165211206951"><ele>243.99999999999997</ele><time>2026-03-28T13:03:10.999Z</time></trkpt><trkpt lat="44.66442402827947" lon="10.196063304961738"><ele>244.0</ele><time>2026-03-28T13:03:12.999Z</time></trkpt><trkpt lat="44.66445378581062" lon="10.195966885225882"><ele>243.99999999999997</ele><time>2026-03-28T13:03:14.999Z</time></trkpt><trkpt lat="44.664470087399216" lon="10.195878478049883"><ele>244.0</ele><time>2026-03-28T13:03:16.999Z</time></trkpt><trkpt lat="44.66442598676806" lon="10.195767935473397"><ele>243.99999999999997</ele><time>2026-03-28T13:03:18.999Z</time></trkpt><trkpt lat="44.66439486418025" lon="10.195668639251663"><ele>243.99999999999997</ele><time>2026-03-28T13:03:21.998Z</time></trkpt><trkpt lat="44.66435328056061" lon="10.19558960180217"><ele>244.0</ele><time>2026-03-28T13:03:27.998Z</time></trkpt><trkpt lat="44.66433157876619" lon="10.195506511274816"><ele>243.99999999999997</ele><time>2026-03-28T13:03:36.998Z</time></trkpt><trkpt lat="44.664289724906084" lon="10.195409655613796"><ele>243.99999999999997</ele><time>2026-03-28T13:03:38.998Z</time></trkpt><trkpt lat="44.66423119540332" lon="10.19528425572355"><ele>244.1428571428571</ele><time>2026-03-28T13:03:40.998Z</time></trkpt><trkpt lat="44.66419050628206" lon="10.195200745022476"><ele>244.28571428571428</ele><time>2026-03-28T13:03:42.998Z</time></trkpt><trkpt lat="44.66415349425346" lon="10.195128002122472"><ele>244.42857142857142</ele><time>2026-03-28T13:03:46Z</time></trkpt><trkpt lat="44.66410401040076" lon="10.19507043182385"><ele>244.57142857142856</ele><time>2026-03-28T13:07:31.998Z</time></trkpt><trkpt lat="44.66405757316751" lon="10.19500160652581"><ele>244.71428571428572</ele><time>2026-03-28T13:07:38.997Z</time></trkpt><trkpt lat="44.664020094009835" lon="10.194928719642382"><ele>244.85714285714286</ele><time>2026-03-28T13:07:48.997Z</time></trkpt><trkpt lat="44.66399788841949" lon="10.194827734469436"><ele>245.0</ele><time>2026-03-28T13:11:01.998Z</time></trkpt><trkpt lat="44.66392589967605" lon="10.194764800844695"><ele>245.00000000000003</ele><time>2026-03-28T13:11:04.998Z</time></trkpt><trkpt lat="44.663871375905245" lon="10.194696599066727"><ele>245.0</ele><time>2026-03-28T13:11:07.998Z</time></trkpt><trkpt lat="44.663817410313705" lon="10.194623960233326"><ele>245.0</ele><time>2026-03-28T13:11:10.998Z</time></trkpt><trkpt lat="44.66377263830183" lon="10.194560573376537"><ele>245.0</ele><time>2026-03-28T13:11:12.998Z</time></trkpt><trkpt lat="44.66370362532378" lon="10.194433320729656"><ele>245.00000000000003</ele><time>2026-03-28T13:11:14.998Z</time></trkpt><trkpt lat="44.66364296001225" lon="10.194286519260979"><ele>245.0</ele><time>2026-03-28T13:11:16.998Z</time></trkpt><trkpt lat="44.66365111409075" lon="10.19419711484509"><ele>245.33333333333334</ele><time>2026-03-28T13:11:17.998Z</time></trkpt><trkpt lat="44.663606971666226" lon="10.194067109185925"><ele>245.66666666666669</ele><time>2026-03-28T13:11:19.998Z</time></trkpt><trkpt lat="44.663561842257025" lon="10.19395205875353"><ele>246.0</ele><time>2026-03-28T13:11:21.998Z</time></trkpt><trkpt lat="44.66353691267194" lon="10.193830359547087"><ele>246.33333333333331</ele><time>2026-03-28T13:11:23.998Z</time></trkpt><trkpt lat="44.66351558299129" lon="10.193738719485278"><ele>246.66666666666666</ele><time>2026-03-28T13:11:25.998Z</time></trkpt><trkpt lat="44.663447898641195" lon="10.193698251599887"><ele>247.0</ele><time>2026-03-28T13:11:27.998Z</time></trkpt><trkpt lat="44.663493722227265" lon="10.193606881702285"><ele>247.25</ele><time>2026-03-28T13:11:42.998Z</time></trkpt><trkpt lat="44.663685266349646" lon="10.193457320409108"><ele>247.5</ele><time>2026-03-28T13:11:46.998Z</time></trkpt><trkpt lat="44.66358018998708" lon="10.19354752810268"><ele>247.75</ele><time>2026-03-28T13:12:12.998Z</time></trkpt><trkpt lat="44.66352671585736" lon="10.193605818731749"><ele>248.0</ele><time>2026-03-28T13:12:13.998Z</time></trkpt><trkpt lat="44.663481432812816" lon="10.193687209391616"><ele>248.00000000000003</ele><time>2026-03-28T13:12:14.998Z</time></trkpt><trkpt lat="44.66336666982648" lon="10.193743766756167"><ele>248.0</ele><time>2026-03-28T13:12:16.998Z</time></trkpt><trkpt lat="44.66330797522531" lon="10.193793248639462"><ele>248.0</ele><time>2026-03-28T13:12:17.998Z</time></trkpt><trkpt lat="44.663244528387" lon="10.193837679670194"><ele>248.0</ele><time>2026-03-28T13:12:18.998Z</time></trkpt><trkpt lat="44.66316232611183" lon="10.19385402352831"><ele>248.00000000000003</ele><time>2026-03-28T13:12:19.998Z</time></trkpt><trkpt lat="44.66309708606463" lon="10.193913508492887"><ele>248.0</ele><time>2026-03-28T13:12:20.998Z</time></trkpt><trkpt lat="44.66302482417042" lon="10.193976370465476"><ele>247.83333333333334</ele><time>2026-03-28T13:12:21.998Z</time></trkpt><trkpt lat="44.662959672245464" lon="10.194029040739956"><ele>247.66666666666669</ele><time>2026-03-28T13:12:22.998Z</time></trkpt><trkpt lat="44.66289434103096" lon="10.194084381153054"><ele>247.5</ele><time>2026-03-28T13:12:23.998Z</time></trkpt><trkpt lat="44.66283758079775" lon="10.1941579863676"><ele>247.33333333333331</ele><time>2026-03-28T13:12:24.998Z</time></trkpt><trkpt lat="44.66277804580242" lon="10.194221992259074"><ele>247.16666666666666</ele><time>2026-03-28T13:12:25.998Z</time></trkpt><trkpt lat="44.662724410060676" lon="10.194305686028635"><ele>247.0</ele><time>2026-03-28T13:12:26.998Z</time></trkpt><trkpt lat="44.66267568963602" lon="10.194407038537728"><ele>246.99999999999997</ele><time>2026-03-28T13:12:27.998Z</time></trkpt><trkpt lat="44.662627634880046" lon="10.194510112716946"><ele>247.0</ele><time>2026-03-28T13:12:28.998Z</time></trkpt><trkpt lat="44.66257681833222" lon="10.19461799901847"><ele>247.0</ele><time>2026-03-28T13:12:29.998Z</time></trkpt><trkpt lat="44.66253355674947" lon="10.194716567499347"><ele>247.0</ele><time>2026-03-28T13:12:30.998Z</time></trkpt><trkpt lat="44.66249044910122" lon="10.194822920382357"><ele>246.99999999999997</ele><time>2026-03-28T13:12:31.998Z</time></trkpt><trkpt lat="44.66244227970524" lon="10.194927974584587"><ele>247.0</ele><time>2026-03-28T13:12:32.998Z</time></trkpt><trkpt lat="44.662392927619976" lon="10.195042136435521"><ele>247.0</ele><time>2026-03-28T13:12:33.998Z</time></trkpt><trkpt lat="44.66234765975472" lon="10.195148708436706"><ele>247.0</ele><time>2026-03-28T13:12:34.998Z</time></trkpt><trkpt lat="44.66230352946984" lon="10.195257670596977"><ele>247.0</ele><time>2026-03-28T13:12:35.998Z</time></trkpt><trkpt lat="44.66225549011935" lon="10.195366390387434"><ele>247.0</ele><time>2026-03-28T13:12:36.998Z</time></trkpt><trkpt lat="44.6622069799152" lon="10.195487555354173"><ele>247.0</ele><time>2026-03-28T13:12:37.998Z</time></trkpt><trkpt lat="44.662156868313275" lon="10.195615177956105"><ele>247.2</ele><time>2026-03-28T13:12:38.998Z</time></trkpt><trkpt lat="44.66210593013231" lon="10.195742604154201"><ele>247.39999999999998</ele><time>2026-03-28T13:12:39.998Z</time></trkpt><trkpt lat="44.662056340291386" lon="10.195869375880761"><ele>247.60000000000002</ele><time>2026-03-28T13:12:40.998Z</time></trkpt><trkpt lat="44.66200419461146" lon="10.195994106556263"><ele>247.8</ele><time>2026-03-28T13:12:41.998Z</time></trkpt><trkpt lat="44.661961242048484" lon="10.19610766907561"><ele>248.0</ele><time>2026-03-28T13:12:42.998Z</time></trkpt><trkpt lat="44.661920088415485" lon="10.19620561107299"><ele>248.66666666666669</ele><time>2026-03-28T13:12:43.998Z</time></trkpt><trkpt lat="44.66188324469909" lon="10.196292057311572"><ele>249.33333333333334</ele><time>2026-03-28T13:12:44.998Z</time></trkpt><trkpt lat="44.66184278515927" lon="10.196383592946757"><ele>250.0</ele><time>2026-03-28T13:12:45.998Z</time></trkpt><trkpt lat="44.66179879891325" lon="10.196478230589625"><ele>250.66666666666669</ele><time>2026-03-28T13:12:46.998Z</time></trkpt><trkpt lat="44.66173553158474" lon="10.196558266394408"><ele>251.33333333333334</ele><time>2026-03-28T13:12:47.998Z</time></trkpt><trkpt lat="44.66168250116058" lon="10.19664261272582"><ele>252.0</ele><time>2026-03-28T13:12:48.998Z</time></trkpt><trkpt lat="44.661617965568375" lon="10.196709838325688"><ele>252.33333333333334</ele><time>2026-03-28T13:12:49.998Z</time></trkpt><trkpt lat="44.66154057685653" lon="10.196757555572932"><ele>252.66666666666669</ele><time>2026-03-28T13:12:50.998Z</time></trkpt><trkpt lat="44.66146107924902" lon="10.196810104266119"><ele>253.0</ele><time>2026-03-28T13:12:51.998Z</time></trkpt><trkpt lat="44.66137384328231" lon="10.196821777559842"><ele>253.33333333333334</ele><time>2026-03-28T13:12:52.998Z</time></trkpt><trkpt lat="44.66128209637979" lon="10.196844149026317"><ele>253.66666666666669</ele><time>2026-03-28T13:12:53.998Z</time></trkpt><trkpt lat="44.66119645868884" lon="10.196879424997672"><ele>254.0</ele><time>2026-03-28T13:12:54.998Z</time></trkpt><trkpt lat="44.66112893517846" lon="10.196935704633354"><ele>255.66666666666669</ele><time>2026-03-28T13:12:55.998Z</time></trkpt><trkpt lat="44.66107424688718" lon="10.196999910065122"><ele>257.33333333333337</ele><time>2026-03-28T13:12:56.998Z</time></trkpt><trkpt lat="44.661023573500145" lon="10.197076740355568"><ele>259.0</ele><time>2026-03-28T13:12:57.998Z</time></trkpt><trkpt lat="44.66099156528497" lon="10.197164835101296"><ele>260.6666666666667</ele><time>2026-03-28T13:12:58.998Z</time></trkpt><trkpt lat="44.660970502740305" lon="10.197251016023735"><ele>262.3333333333333</ele><time>2026-03-28T13:12:59.998Z</time></trkpt><trkpt lat="44.66091954058774" lon="10.197431538152344"><ele>264.0</ele><time>2026-03-28T13:13:02.998Z</time></trkpt><trkpt lat="44.66087876986226" lon="10.197518686775162"><ele>264.0</ele><time>2026-03-28T13:13:25.998Z</time></trkpt><trkpt lat="44.6608391780275" lon="10.197680404843538"><ele>264.0</ele><time>2026-03-28T13:13:27.998Z</time></trkpt><trkpt lat="44.660802737875194" lon="10.197776555534485"><ele>264.0</ele><time>2026-03-28T13:13:28.998Z</time></trkpt><trkpt lat="44.66076303590084" lon="10.197879709939206"><ele>264.0</ele><time>2026-03-28T13:13:29.998Z</time></trkpt><trkpt lat="44.660719311263556" lon="10.197992213302097"><ele>264.0</ele><time>2026-03-28T13:13:30.998Z</time></trkpt><trkpt lat="44.66065928761276" lon="10.198106860191572"><ele>264.0</ele><time>2026-03-28T13:13:31.998Z</time></trkpt><trkpt lat="44.66061774453524" lon="10.198219613600711"><ele>264.0</ele><time>2026-03-28T13:13:32.998Z</time></trkpt><trkpt lat="44.66059349803216" lon="10.198332113707224"><ele>264.0</ele><time>2026-03-28T13:13:33.998Z</time></trkpt><trkpt lat="44.66055455108528" lon="10.198431995029477"><ele>264.0</ele><time>2026-03-28T13:13:34.998Z</time></trkpt><trkpt lat="44.66051225562947" lon="10.198539204792135"><ele>264.0</ele><time>2026-03-28T13:13:35.998Z</time></trkpt><trkpt lat="44.6604551225877" lon="10.19865284470092"><ele>264.0</ele><time>2026-03-28T13:13:36.998Z</time></trkpt><trkpt lat="44.66040660477809" lon="10.1987815511218"><ele>264.0</ele><time>2026-03-28T13:13:37.998Z</time></trkpt><trkpt lat="44.660355641518784" lon="10.198916744789232"><ele>264.0</ele><time>2026-03-28T13:13:38.998Z</time></trkpt><trkpt lat="44.660301049341314" lon="10.199061564948174"><ele>264.0</ele><time>2026-03-28T13:13:39.998Z</time></trkpt><trkpt lat="44.66025860822309" lon="10.199221689605215"><ele>264.0</ele><time>2026-03-28T13:13:40.998Z</time></trkpt><trkpt lat="44.66019972346276" lon="10.199366182795966"><ele>264.0</ele><time>2026-03-28T13:13:41.998Z</time></trkpt><trkpt lat="44.660143306992985" lon="10.199519906633805"><ele>264.0</ele><time>2026-03-28T13:13:42.998Z</time></trkpt><trkpt lat="44.66008271157648" lon="10.199677775373338"><ele>264.0</ele><time>2026-03-28T13:13:43.998Z</time></trkpt><trkpt lat="44.660018765453124" lon="10.199844061600556"><ele>264.0</ele><time>2026-03-28T13:13:44.998Z</time></trkpt><trkpt lat="44.65995386799411" lon="10.200013902062432"><ele>263.25</ele><time>2026-03-28T13:13:45.998Z</time></trkpt><trkpt lat="44.65988987583297" lon="10.200181930744478"><ele>262.5</ele><time>2026-03-28T13:13:46.998Z</time></trkpt><trkpt lat="44.659826915983174" lon="10.200353222537522"><ele>261.75</ele><time>2026-03-28T13:13:47.998Z</time></trkpt><trkpt lat="44.65976245338191" lon="10.200523078729727"><ele>261.0</ele><time>2026-03-28T13:13:48.998Z</time></trkpt><trkpt lat="44.659698857427756" lon="10.200690081714438"><ele>260.75</ele><time>2026-03-28T13:13:49.998Z</time></trkpt><trkpt lat="44.65963414491849" lon="10.200858107091793"><ele>260.5</ele><time>2026-03-28T13:13:50.998Z</time></trkpt><trkpt lat="44.65957058831969" lon="10.201027637507664"><ele>260.25</ele><time>2026-03-28T13:13:51.998Z</time></trkpt><trkpt lat="44.65951021448838" lon="10.201186072388865"><ele>260.0</ele><time>2026-03-28T13:13:52.998Z</time></trkpt><trkpt lat="44.65945718751394" lon="10.201330370345543"><ele>260.4</ele><time>2026-03-28T13:13:53.998Z</time></trkpt><trkpt lat="44.65940747967671" lon="10.201468878713573"><ele>260.8</ele><time>2026-03-28T13:13:54.998Z</time></trkpt><trkpt lat="44.659360208457066" lon="10.201604870966749"><ele>261.2</ele><time>2026-03-28T13:13:55.998Z</time></trkpt><trkpt lat="44.65931332365208" lon="10.201734184206778"><ele>261.6</ele><time>2026-03-28T13:13:56.998Z</time></trkpt><trkpt lat="44.659270646021135" lon="10.201850873326965"><ele>262.0</ele><time>2026-03-28T13:13:57.998Z</time></trkpt><trkpt lat="44.65923620515446" lon="10.201947087042837"><ele>262.0</ele><time>2026-03-28T13:13:58.998Z</time></trkpt><trkpt lat="44.65919041229816" lon="10.202058997400089"><ele>262.0</ele><time>2026-03-28T13:14:00.998Z</time></trkpt><trkpt lat="44.65907929303265" lon="10.201995010907957"><ele>262.0</ele><time>2026-03-28T13:14:05.998Z</time></trkpt><trkpt lat="44.65829900702309" lon="10.203845444251645"><ele>262.0</ele><time>2026-03-28T13:19:23.963Z</time></trkpt><trkpt lat="44.65822919231138" lon="10.203966983445266"><ele>262.0</ele><time>2026-03-28T13:19:24.963Z</time></trkpt><trkpt lat="44.65816730188344" lon="10.204100970950066"><ele>262.0</ele><time>2026-03-28T13:19:26Z</time></trkpt><trkpt lat="44.65810158892133" lon="10.2042096735314"><ele>262.0</ele><time>2026-03-28T13:19:27Z</time></trkpt><trkpt lat="44.65803091530537" lon="10.204327352688827"><ele>262.0</ele><time>2026-03-28T13:19:28Z</time></trkpt><trkpt lat="44.657956082657876" lon="10.204451293916632"><ele>262.0</ele><time>2026-03-28T13:19:29.002Z</time></trkpt><trkpt lat="44.65787947238563" lon="10.204584766467958"><ele>262.0</ele><time>2026-03-28T13:19:30.002Z</time></trkpt><trkpt lat="44.65780182121562" lon="10.204714996548804"><ele>262.0</ele><time>2026-03-28T13:19:31.002Z</time></trkpt><trkpt lat="44.65773454477057" lon="10.204830216128473"><ele>262.0</ele><time>2026-03-28T13:19:32.002Z</time></trkpt><trkpt lat="44.65767281091204" lon="10.204928994097804"><ele>262.0</ele><time>2026-03-28T13:19:33.002Z</time></trkpt><trkpt lat="44.65758660204649" lon="10.205000476566202"><ele>263.25</ele><time>2026-03-28T13:19:34.002Z</time></trkpt><trkpt lat="44.65750667698949" lon="10.205070763825143"><ele>264.5</ele><time>2026-03-28T13:19:35.002Z</time></trkpt><trkpt lat="44.65741901031922" lon="10.205140189907596"><ele>265.75</ele><time>2026-03-28T13:19:36.002Z</time></trkpt><trkpt lat="44.657301382860076" lon="10.205221467444707"><ele>267.0</ele><time>2026-03-28T13:19:37.002Z</time></trkpt><trkpt lat="44.657189163912214" lon="10.205302758189182"><ele>267.0</ele><time>2026-03-28T13:19:38.002Z</time></trkpt><trkpt lat="44.65707483953209" lon="10.205385574222795"><ele>267.0</ele><time>2026-03-28T13:19:39.002Z</time></trkpt><trkpt lat="44.65696086621271" lon="10.205491498364037"><ele>267.0</ele><time>2026-03-28T13:19:40.002Z</time></trkpt><trkpt lat="44.65683440206849" lon="10.205580944667298"><ele>267.0</ele><time>2026-03-28T13:19:41.002Z</time></trkpt><trkpt lat="44.65671074442013" lon="10.20566682111673"><ele>267.75</ele><time>2026-03-28T13:19:42.002Z</time></trkpt><trkpt lat="44.6565918360404" lon="10.205750972573163"><ele>268.5</ele><time>2026-03-28T13:19:43.002Z</time></trkpt><trkpt lat="44.65647611357199" lon="10.205833129024457"><ele>269.25</ele><time>2026-03-28T13:19:44.002Z</time></trkpt><trkpt lat="44.656373989118215" lon="10.205907070075556"><ele>270.0</ele><time>2026-03-28T13:19:45.002Z</time></trkpt><trkpt lat="44.656286883890715" lon="10.205980327033815"><ele>270.0</ele><time>2026-03-28T13:19:46.002Z</time></trkpt><trkpt lat="44.656200796973785" lon="10.20608813017329"><ele>270.0</ele><time>2026-03-28T13:19:47.001Z</time></trkpt><trkpt lat="44.65612137402332" lon="10.20622536786069"><ele>270.0</ele><time>2026-03-28T13:19:48.001Z</time></trkpt><trkpt lat="44.65605572373574" lon="10.206365060255017"><ele>270.0</ele><time>2026-03-28T13:19:49.001Z</time></trkpt><trkpt lat="44.65599818906876" lon="10.206507090992147"><ele>269.75</ele><time>2026-03-28T13:19:50.001Z</time></trkpt><trkpt lat="44.655930788427135" lon="10.206636269877437"><ele>269.5</ele><time>2026-03-28T13:19:51.001Z</time></trkpt><trkpt lat="44.65587346581391" lon="10.20677928777767"><ele>269.25</ele><time>2026-03-28T13:19:52.001Z</time></trkpt><trkpt lat="44.65581516766479" lon="10.206926701879613"><ele>269.0</ele><time>2026-03-28T13:19:53.001Z</time></trkpt><trkpt lat="44.65575653652889" lon="10.207073608088074"><ele>269.0</ele><time>2026-03-28T13:19:54.001Z</time></trkpt><trkpt lat="44.655697600565226" lon="10.207248450604505"><ele>269.0</ele><time>2026-03-28T13:19:55.001Z</time></trkpt><trkpt lat="44.65563595489624" lon="10.207402770312015"><ele>269.0</ele><time>2026-03-28T13:19:56.001Z</time></trkpt><trkpt lat="44.65557005150059" lon="10.207557166370933"><ele>269.0</ele><time>2026-03-28T13:19:57.001Z</time></trkpt><trkpt lat="44.65550903976256" lon="10.207714563650635"><ele>269.5</ele><time>2026-03-28T13:19:58.001Z</time></trkpt><trkpt lat="44.65544573639505" lon="10.20787566773533"><ele>270.0</ele><time>2026-03-28T13:19:59.001Z</time></trkpt><trkpt lat="44.655385108932606" lon="10.208037396776133"><ele>270.5</ele><time>2026-03-28T13:20:00.001Z</time></trkpt><trkpt lat="44.65532063950468" lon="10.208191271042555"><ele>271.0</ele><time>2026-03-28T13:20:01.001Z</time></trkpt><trkpt lat="44.655261853399224" lon="10.208335944129168"><ele>271.40000000000003</ele><time>2026-03-28T13:20:02.001Z</time></trkpt><trkpt lat="44.65521305158849" lon="10.208458822495837"><ele>271.8</ele><time>2026-03-28T13:20:03.001Z</time></trkpt><trkpt lat="44.655146478922546" lon="10.208557240107403"><ele>272.20000000000005</ele><time>2026-03-28T13:20:04.001Z</time></trkpt><trkpt lat="44.65507905795661" lon="10.208656876334546"><ele>272.6</ele><time>2026-03-28T13:20:05.001Z</time></trkpt><trkpt lat="44.654995292559974" lon="10.208746309982752"><ele>273.0</ele><time>2026-03-28T13:20:06.001Z</time></trkpt><trkpt lat="44.65489244112541" lon="10.208843775126644"><ele>273.0</ele><time>2026-03-28T13:20:07.001Z</time></trkpt><trkpt lat="44.65478246823586" lon="10.208940486044375"><ele>273.0</ele><time>2026-03-28T13:20:08.001Z</time></trkpt><trkpt lat="44.65467799195462" lon="10.209037833108049"><ele>273.0</ele><time>2026-03-28T13:20:09.001Z</time></trkpt><trkpt lat="44.65456812270006" lon="10.20914020492258"><ele>273.0</ele><time>2026-03-28T13:20:10.001Z</time></trkpt><trkpt lat="44.65446824700279" lon="10.209257718245055"><ele>273.75</ele><time>2026-03-28T13:20:11.001Z</time></trkpt><trkpt lat="44.654363789261666" lon="10.209346659007048"><ele>274.5</ele><time>2026-03-28T13:20:12.001Z</time></trkpt><trkpt lat="44.65426096800519" lon="10.209444551112163"><ele>275.25</ele><time>2026-03-28T13:20:13.001Z</time></trkpt><trkpt lat="44.65416611389638" lon="10.20953692855157"><ele>276.0</ele><time>2026-03-28T13:20:14.001Z</time></trkpt><trkpt lat="44.65407783629865" lon="10.209611733625097"><ele>276.0</ele><time>2026-03-28T13:20:15.001Z</time></trkpt><trkpt lat="44.65400296065011" lon="10.209676553784178"><ele>276.0</ele><time>2026-03-28T13:20:16.001Z</time></trkpt><trkpt lat="44.653941505746886" lon="10.209739018759524"><ele>276.0</ele><time>2026-03-28T13:20:17.001Z</time></trkpt><trkpt lat="44.65384399587399" lon="10.209815101380402"><ele>276.0</ele><time>2026-03-28T13:20:19.001Z</time></trkpt><trkpt lat="44.65376303294725" lon="10.209677775767313"><ele>276.0</ele><time>2026-03-28T13:20:22.001Z</time></trkpt><trkpt lat="44.653746947806766" lon="10.209589783277558"><ele>276.0</ele><time>2026-03-28T13:20:23.001Z</time></trkpt><trkpt lat="44.65372563742439" lon="10.209505854880572"><ele>276.0</ele><time>2026-03-28T13:20:24.001Z</time></trkpt><trkpt lat="44.65369037608543" lon="10.20941798856314"><ele>276.0</ele><time>2026-03-28T13:20:25.001Z</time></trkpt><trkpt lat="44.653659900820315" lon="10.209327306029554"><ele>276.0</ele><time>2026-03-28T13:20:26.001Z</time></trkpt><trkpt lat="44.65360266027202" lon="10.209211809671336"><ele>276.0</ele><time>2026-03-28T13:20:28.001Z</time></trkpt><trkpt lat="44.65346750300538" lon="10.209181998105342"><ele>276.0</ele><time>2026-03-28T13:20:30.001Z</time></trkpt><trkpt lat="44.65337294544068" lon="10.20917205567668"><ele>276.75</ele><time>2026-03-28T13:20:31.001Z</time></trkpt><trkpt lat="44.65326704924649" lon="10.209149020596097"><ele>277.5</ele><time>2026-03-28T13:20:31.999Z</time></trkpt><trkpt lat="44.65314989979117" lon="10.209123043814001"><ele>278.25</ele><time>2026-03-28T13:20:32.999Z</time></trkpt><trkpt lat="44.653037820188544" lon="10.209090672928474"><ele>279.0</ele><time>2026-03-28T13:20:33.999Z</time></trkpt><trkpt lat="44.6529186699224" lon="10.20905915481936"><ele>279.0</ele><time>2026-03-28T13:20:34.999Z</time></trkpt><trkpt lat="44.65280338129679" lon="10.209028403986954"><ele>279.0</ele><time>2026-03-28T13:20:35.999Z</time></trkpt><trkpt lat="44.65270963469958" lon="10.209004634252725"><ele>279.0</ele><time>2026-03-28T13:20:36.999Z</time></trkpt><trkpt lat="44.65263484874003" lon="10.208990788644334"><ele>279.0</ele><time>2026-03-28T13:20:37.999Z</time></trkpt><trkpt lat="44.65257166116367" lon="10.208978124139753"><ele>279.0</ele><time>2026-03-28T13:20:38.999Z</time></trkpt><trkpt lat="44.652489526068806" lon="10.208950717303283"><ele>279.0</ele><time>2026-03-28T13:20:40.999Z</time></trkpt><trkpt lat="44.652421676332686" lon="10.208849145334426"><ele>280.1666666666667</ele><time>2026-03-28T13:20:42.999Z</time></trkpt><trkpt lat="44.65239087696166" lon="10.2087657125958"><ele>281.3333333333333</ele><time>2026-03-28T13:20:43.999Z</time></trkpt><trkpt lat="44.65236432474933" lon="10.208657781307519"><ele>282.5</ele><time>2026-03-28T13:20:44.999Z</time></trkpt><trkpt lat="44.65232887106946" lon="10.208540669406212"><ele>283.66666666666663</ele><time>2026-03-28T13:20:45.999Z</time></trkpt><trkpt lat="44.65228973590057" lon="10.208432020710724"><ele>284.8333333333333</ele><time>2026-03-28T13:20:46.999Z</time></trkpt><trkpt lat="44.65225595524086" lon="10.2083208789073"><ele>286.0</ele><time>2026-03-28T13:20:47.999Z</time></trkpt><trkpt lat="44.6522236966712" lon="10.20822295050711"><ele>287.2</ele><time>2026-03-28T13:20:48.999Z</time></trkpt><trkpt lat="44.652165397899395" lon="10.208100144285225"><ele>288.40000000000003</ele><time>2026-03-28T13:20:50.999Z</time></trkpt><trkpt lat="44.6520650229088" lon="10.208021815517869"><ele>289.6</ele><time>2026-03-28T13:20:52.999Z</time></trkpt><trkpt lat="44.651996711915054" lon="10.207970672151419"><ele>290.8</ele><time>2026-03-28T13:20:53.999Z</time></trkpt><trkpt lat="44.65192283368402" lon="10.207915575532517"><ele>292.0</ele><time>2026-03-28T13:20:54.999Z</time></trkpt><trkpt lat="44.65184111380936" lon="10.207855560289865"><ele>293.3333333333333</ele><time>2026-03-28T13:20:55.999Z</time></trkpt><trkpt lat="44.6517620633267" lon="10.207795412853931"><ele>294.66666666666663</ele><time>2026-03-28T13:20:56.999Z</time></trkpt><trkpt lat="44.65169180048815" lon="10.207738466220082"><ele>296.0</ele><time>2026-03-28T13:20:57.999Z</time></trkpt><trkpt lat="44.65161582785012" lon="10.20768650439568"><ele>297.3333333333333</ele><time>2026-03-28T13:20:58.999Z</time></trkpt><trkpt lat="44.65153989852817" lon="10.207637658302078"><ele>298.6666666666667</ele><time>2026-03-28T13:20:59.999Z</time></trkpt><trkpt lat="44.6514550877905" lon="10.207586974476493"><ele>300.0</ele><time>2026-03-28T13:21:00.999Z</time></trkpt><trkpt lat="44.65138500978411" lon="10.207533194323592"><ele>300.0</ele><time>2026-03-28T13:21:01.999Z</time></trkpt><trkpt lat="44.65132116027837" lon="10.207469976688133"><ele>300.0</ele><time>2026-03-28T13:21:02.999Z</time></trkpt><trkpt lat="44.6512598983192" lon="10.207397412701251"><ele>300.0</ele><time>2026-03-28T13:21:03.999Z</time></trkpt><trkpt lat="44.65120795510919" lon="10.207319731835018"><ele>300.0</ele><time>2026-03-28T13:21:04.999Z</time></trkpt><trkpt lat="44.65117037936176" lon="10.20723926110466"><ele>300.0</ele><time>2026-03-28T13:21:05.999Z</time></trkpt><trkpt lat="44.651133414125034" lon="10.207145072847714"><ele>300.0</ele><time>2026-03-28T13:21:06.999Z</time></trkpt><trkpt lat="44.65108992656975" lon="10.207051687515198"><ele>301.8333333333333</ele><time>2026-03-28T13:21:07.999Z</time></trkpt><trkpt lat="44.65103962854668" lon="10.206981788086964"><ele>303.6666666666667</ele><time>2026-03-28T13:21:08.999Z</time></trkpt><trkpt lat="44.65098261706323" lon="10.206919339746705"><ele>305.5</ele><time>2026-03-28T13:21:09.999Z</time></trkpt><trkpt lat="44.6508670232085" lon="10.20688017842636"><ele>307.33333333333337</ele><time>2026-03-28T13:21:11.999Z</time></trkpt><trkpt lat="44.650799186748195" lon="10.206843158738527"><ele>309.1666666666667</ele><time>2026-03-28T13:21:12.999Z</time></trkpt><trkpt lat="44.65072723183705" lon="10.206805461867894"><ele>311.0</ele><time>2026-03-28T13:21:13.999Z</time></trkpt><trkpt lat="44.65065632689103" lon="10.206767460149038"><ele>311.0</ele><time>2026-03-28T13:21:14.999Z</time></trkpt><trkpt lat="44.650594094061894" lon="10.20673457278211"><ele>311.0</ele><time>2026-03-28T13:21:15.999Z</time></trkpt><trkpt lat="44.65052443339652" lon="10.206694405377629"><ele>311.0</ele><time>2026-03-28T13:21:16.999Z</time></trkpt><trkpt lat="44.65045264904828" lon="10.20665649234641"><ele>311.0</ele><time>2026-03-28T13:21:17.999Z</time></trkpt><trkpt lat="44.65037547162344" lon="10.206630444937089"><ele>311.0</ele><time>2026-03-28T13:21:18.999Z</time></trkpt><trkpt lat="44.65029448359664" lon="10.206592100329797"><ele>311.0</ele><time>2026-03-28T13:21:19.999Z</time></trkpt><trkpt lat="44.650211090561854" lon="10.206538617522643"><ele>313.1666666666667</ele><time>2026-03-28T13:21:20.999Z</time></trkpt><trkpt lat="44.65012924534046" lon="10.206489081255077"><ele>315.33333333333337</ele><time>2026-03-28T13:21:21.999Z</time></trkpt><trkpt lat="44.65005096931376" lon="10.206436102652791"><ele>317.5</ele><time>2026-03-28T13:21:22.999Z</time></trkpt><trkpt lat="44.64997922090056" lon="10.206388106550937"><ele>319.6666666666667</ele><time>2026-03-28T13:21:23.999Z</time></trkpt><trkpt lat="44.649905435549215" lon="10.206370390173689"><ele>321.8333333333333</ele><time>2026-03-28T13:21:24.999Z</time></trkpt><trkpt lat="44.649825455088376" lon="10.206380782967537"><ele>324.0</ele><time>2026-03-28T13:21:25.999Z</time></trkpt><trkpt lat="44.64974330960492" lon="10.20639558213294"><ele>324.0</ele><time>2026-03-28T13:21:26.999Z</time></trkpt><trkpt lat="44.649661526056704" lon="10.20640671597106"><ele>324.0</ele><time>2026-03-28T13:21:27.999Z</time></trkpt><trkpt lat="44.64958345931818" lon="10.206409103513057"><ele>324.0</ele><time>2026-03-28T13:21:28.999Z</time></trkpt><trkpt lat="44.64951610626723" lon="10.206402618188315"><ele>324.0</ele><time>2026-03-28T13:21:29.999Z</time></trkpt><trkpt lat="44.64944253327557" lon="10.20638658536699"><ele>324.0</ele><time>2026-03-28T13:21:30.999Z</time></trkpt><trkpt lat="44.64935261849259" lon="10.20630741165014"><ele>324.0</ele><time>2026-03-28T13:21:32.999Z</time></trkpt><trkpt lat="44.64930085493008" lon="10.206156413586754"><ele>324.8571428571429</ele><time>2026-03-28T13:21:35.001Z</time></trkpt><trkpt lat="44.649284635085735" lon="10.206063491740554"><ele>325.7142857142857</ele><time>2026-03-28T13:21:36.001Z</time></trkpt><trkpt lat="44.6492681085358" lon="10.205964545592082"><ele>326.57142857142856</ele><time>2026-03-28T13:21:37.001Z</time></trkpt><trkpt lat="44.64924907571402" lon="10.205867836237374"><ele>327.42857142857144</ele><time>2026-03-28T13:21:38.001Z</time></trkpt><trkpt lat="44.64922862806918" lon="10.205773796818345"><ele>328.2857142857143</ele><time>2026-03-28T13:21:39.001Z</time></trkpt><trkpt lat="44.64919800325518" lon="10.205680623997345"><ele>329.14285714285717</ele><time>2026-03-28T13:21:40.001Z</time></trkpt><trkpt lat="44.64916803251646" lon="10.205581951256264"><ele>330.0</ele><time>2026-03-28T13:21:41.001Z</time></trkpt><trkpt lat="44.64913970239229" lon="10.205483278122463"><ele>331.6666666666667</ele><time>2026-03-28T13:21:42.001Z</time></trkpt><trkpt lat="44.64910877684879" lon="10.205379794823779"><ele>333.3333333333333</ele><time>2026-03-28T13:21:43.001Z</time></trkpt><trkpt lat="44.649070161888424" lon="10.205288229628792"><ele>335.0</ele><time>2026-03-28T13:21:44.001Z</time></trkpt><trkpt lat="44.649029318487045" lon="10.20518947174092"><ele>336.66666666666663</ele><time>2026-03-28T13:21:45.001Z</time></trkpt><trkpt lat="44.649007371900495" lon="10.205098929320712"><ele>338.3333333333333</ele><time>2026-03-28T13:21:46.001Z</time></trkpt><trkpt lat="44.64898781141171" lon="10.204994447930995"><ele>340.0</ele><time>2026-03-28T13:21:47.001Z</time></trkpt><trkpt lat="44.648971344333106" lon="10.204894327718709"><ele>341.0</ele><time>2026-03-28T13:21:48.001Z</time></trkpt><trkpt lat="44.648956960767656" lon="10.204783609779023"><ele>342.0</ele><time>2026-03-28T13:21:49Z</time></trkpt><trkpt lat="44.64894201606029" lon="10.2046758729443"><ele>343.0</ele><time>2026-03-28T13:21:50Z</time></trkpt><trkpt lat="44.648921143290515" lon="10.204574342524658"><ele>344.0</ele><time>2026-03-28T13:21:51Z</time></trkpt><trkpt lat="44.64889933290938" lon="10.20447936184875"><ele>345.0</ele><time>2026-03-28T13:21:52Z</time></trkpt><trkpt lat="44.64886858430486" lon="10.204379434355841"><ele>346.0</ele><time>2026-03-28T13:21:53Z</time></trkpt><trkpt lat="44.64883050114326" lon="10.204281525909435"><ele>346.0</ele><time>2026-03-28T13:21:54Z</time></trkpt><trkpt lat="44.64879350328065" lon="10.204177426049036"><ele>346.0</ele><time>2026-03-28T13:21:55Z</time></trkpt><trkpt lat="44.648753565998895" lon="10.204079516640611"><ele>346.0</ele><time>2026-03-28T13:21:56Z</time></trkpt><trkpt lat="44.64871768725045" lon="10.203974826413951"><ele>346.0</ele><time>2026-03-28T13:21:57Z</time></trkpt><trkpt lat="44.648693395235625" lon="10.203874284111173"><ele>346.0</ele><time>2026-03-28T13:21:58Z</time></trkpt><trkpt lat="44.64867288122792" lon="10.203784560303324"><ele>346.0</ele><time>2026-03-28T13:21:59Z</time></trkpt><trkpt lat="44.64865460172818" lon="10.20369542089911"><ele>349.0</ele><time>2026-03-28T13:22:00Z</time></trkpt><trkpt lat="44.64863444304427" lon="10.203595782676642"><ele>349.0</ele><time>2026-03-28T13:22:01Z</time></trkpt><trkpt lat="44.64861780875366" lon="10.203502964994149"><ele>355.0</ele><time>2026-03-28T13:22:02Z</time></trkpt><trkpt lat="44.64859718319865" lon="10.203414871939623"><ele>355.0</ele><time>2026-03-28T13:22:03Z</time></trkpt><trkpt lat="44.648553938399786" lon="10.20331245693092"><ele>355.0</ele><time>2026-03-28T13:22:05Z</time></trkpt><trkpt lat="44.64850882815785" lon="10.203247281470265"><ele>355.0</ele><time>2026-03-28T13:22:29.999Z</time></trkpt></trkseg><trkseg><trkpt lat="44.64376047268426" lon="10.196633040350907"><ele>415.99999999999994</ele><time>2026-03-28T13:52:57.002Z</time></trkpt><trkpt lat="44.64367338666734" lon="10.196682078388669"><ele>416.0</ele><time>2026-03-28T13:52:59.002Z</time></trkpt><trkpt lat="44.643608573610976" lon="10.196726139396993"><ele>416.0</ele><time>2026-03-28T13:53:00.002Z</time></trkpt><trkpt lat="44.64354271529725" lon="10.196770089181648"><ele>416.0</ele><time>2026-03-28T13:53:01.002Z</time></trkpt><trkpt lat="44.64346655396413" lon="10.19677695017542"><ele>415.99999999999994</ele><time>2026-03-28T13:53:02.002Z</time></trkpt><trkpt lat="44.643395438452195" lon="10.196807943871574"><ele>416.0</ele><time>2026-03-28T13:53:03.002Z</time></trkpt><trkpt lat="44.64331879765576" lon="10.196834790102749"><ele>416.0</ele><time>2026-03-28T13:53:04.001Z</time></trkpt><trkpt lat="44.64324079182203" lon="10.196854135670423"><ele>416.0</ele><time>2026-03-28T13:53:05.001Z</time></trkpt><trkpt lat="44.643081235557695" lon="10.196874378597801"><ele>416.0</ele><time>2026-03-28T13:53:06.001Z</time></trkpt><trkpt lat="44.643003269458475" lon="10.196875882443877"><ele>416.0</ele><time>2026-03-28T13:53:07.001Z</time></trkpt><trkpt lat="44.64292347577531" lon="10.19687413311115"><ele>416.0</ele><time>2026-03-28T13:53:08.001Z</time></trkpt><trkpt lat="44.642837397253935" lon="10.19686451579252"><ele>416.20000000000005</ele><time>2026-03-28T13:53:09.001Z</time></trkpt><trkpt lat="44.6427596225029" lon="10.19684659641197"><ele>416.40000000000003</ele><time>2026-03-28T13:53:10.001Z</time></trkpt><trkpt lat="44.642684288895694" lon="10.196816000332502"><ele>416.6</ele><time>2026-03-28T13:53:11.001Z</time></trkpt><trkpt lat="44.6426206979881" lon="10.196776416256998"><ele>416.8</ele><time>2026-03-28T13:53:12.001Z</time></trkpt><trkpt lat="44.64251352290648" lon="10.19670857770045"><ele>417.0</ele><time>2026-03-28T13:53:14.001Z</time></trkpt><trkpt lat="44.6424134976503" lon="10.196637844957003"><ele>417.0</ele><time>2026-03-28T13:53:16.001Z</time></trkpt><trkpt lat="44.642338545012876" lon="10.196585574682247"><ele>417.0</ele><time>2026-03-28T13:53:17.001Z</time></trkpt><trkpt lat="44.64222063617562" lon="10.196509315906145"><ele>417.0</ele><time>2026-03-28T13:53:19.001Z</time></trkpt><trkpt lat="44.642099548152956" lon="10.196446258136694"><ele>417.0</ele><time>2026-03-28T13:53:21.001Z</time></trkpt><trkpt lat="44.64203465730208" lon="10.196422669981157"><ele>417.0</ele><time>2026-03-28T13:53:22.001Z</time></trkpt><trkpt lat="44.6419640102819" lon="10.196413131200362"><ele>417.20000000000005</ele><time>2026-03-28T13:53:23Z</time></trkpt><trkpt lat="44.64189735959902" lon="10.196423743788634"><ele>417.4</ele><time>2026-03-28T13:53:24Z</time></trkpt><trkpt lat="44.641783226679316" lon="10.196426764765354"><ele>417.6</ele><time>2026-03-28T13:53:26Z</time></trkpt><trkpt lat="44.64166280555556" lon="10.196444442960304"><ele>417.79999999999995</ele><time>2026-03-28T13:53:28Z</time></trkpt><trkpt lat="44.64159702748864" lon="10.196486759566113"><ele>418.0</ele><time>2026-03-28T13:53:29Z</time></trkpt><trkpt lat="44.641535373754536" lon="10.196558323631573"><ele>418.00000000000006</ele><time>2026-03-28T13:53:30Z</time></trkpt><trkpt lat="44.641470202262134" lon="10.196615176500677"><ele>418.0</ele><time>2026-03-28T13:53:31Z</time></trkpt><trkpt lat="44.641410992170684" lon="10.196683115731291"><ele>418.0</ele><time>2026-03-28T13:53:32Z</time></trkpt><trkpt lat="44.64135896582306" lon="10.196741230742713"><ele>418.0</ele><time>2026-03-28T13:53:33Z</time></trkpt><trkpt lat="44.64130179638488" lon="10.196798755467043"><ele>418.00000000000006</ele><time>2026-03-28T13:53:34Z</time></trkpt><trkpt lat="44.64123597369194" lon="10.19683992063485"><ele>418.0</ele><time>2026-03-28T13:53:35Z</time></trkpt><trkpt lat="44.64112934622209" lon="10.196920196767534"><ele>418.59999999999997</ele><time>2026-03-28T13:53:37Z</time></trkpt><trkpt lat="44.641068670535205" lon="10.196958887979868"><ele>419.2</ele><time>2026-03-28T13:53:38Z</time></trkpt><trkpt lat="44.64099940235729" lon="10.196981282757667"><ele>419.8</ele><time>2026-03-28T13:53:39Z</time></trkpt><trkpt lat="44.640887075736636" lon="10.196938314449126"><ele>420.4</ele><time>2026-03-28T13:53:41Z</time></trkpt><trkpt lat="44.64076153785927" lon="10.196878443250228"><ele>421.0</ele><time>2026-03-28T13:53:43Z</time></trkpt><trkpt lat="44.64068574915123" lon="10.196871319005961"><ele>421.00000000000006</ele><time>2026-03-28T13:53:44Z</time></trkpt><trkpt lat="44.640612808514625" lon="10.196844724373841"><ele>421.0</ele><time>2026-03-28T13:53:45Z</time></trkpt><trkpt lat="44.64053720527939" lon="10.196843312047607"><ele>421.0</ele><time>2026-03-28T13:53:46Z</time></trkpt><trkpt lat="44.640458808923256" lon="10.196833129462448"><ele>421.0</ele><time>2026-03-28T13:53:47Z</time></trkpt><trkpt lat="44.640374809723504" lon="10.196814845784607"><ele>421.00000000000006</ele><time>2026-03-28T13:53:48Z</time></trkpt><trkpt lat="44.64029664983456" lon="10.196791953531388"><ele>421.0</ele><time>2026-03-28T13:53:49Z</time></trkpt><trkpt lat="44.640216906467124" lon="10.196764955251576"><ele>421.83333333333337</ele><time>2026-03-28T13:53:50Z</time></trkpt><trkpt lat="44.64013309218021" lon="10.196738886080906"><ele>422.6666666666667</ele><time>2026-03-28T13:53:51Z</time></trkpt><trkpt lat="44.640047942750904" lon="10.196717427214237"><ele>423.5</ele><time>2026-03-28T13:53:52Z</time></trkpt><trkpt lat="44.63997053636569" lon="10.196704272898176"><ele>424.33333333333337</ele><time>2026-03-28T13:53:53Z</time></trkpt><trkpt lat="44.63990066022512" lon="10.196679783911442"><ele>425.1666666666667</ele><time>2026-03-28T13:53:54Z</time></trkpt><trkpt lat="44.63982226407858" lon="10.196679681794018"><ele>426.0</ele><time>2026-03-28T13:53:55Z</time></trkpt><trkpt lat="44.63974754476072" lon="10.196683927475057"><ele>426.0</ele><time>2026-03-28T13:53:56Z</time></trkpt><trkpt lat="44.63968234896875" lon="10.196690159284143"><ele>426.0</ele><time>2026-03-28T13:53:57Z</time></trkpt><trkpt lat="44.63956780197751" lon="10.196722953564437"><ele>426.0</ele><time>2026-03-28T13:53:59Z</time></trkpt><trkpt lat="44.6394596223578" lon="10.196720027202552"><ele>426.0</ele><time>2026-03-28T13:54:01Z</time></trkpt><trkpt lat="44.6393417263875" lon="10.196756808938279"><ele>426.0</ele><time>2026-03-28T13:54:02.999Z</time></trkpt><trkpt lat="44.63927709931066" lon="10.196779294077693"><ele>427.4285714285714</ele><time>2026-03-28T13:54:03.999Z</time></trkpt><trkpt lat="44.63921364921234" lon="10.196808353858646"><ele>428.85714285714283</ele><time>2026-03-28T13:54:04.999Z</time></trkpt><trkpt lat="44.63915487572551" lon="10.196840275522655"><ele>430.2857142857143</ele><time>2026-03-28T13:54:05.999Z</time></trkpt><trkpt lat="44.63908934048896" lon="10.196842890426813"><ele>431.71428571428567</ele><time>2026-03-28T13:54:06.999Z</time></trkpt><trkpt lat="44.639027158103374" lon="10.196867655736424"><ele>433.14285714285717</ele><time>2026-03-28T13:54:07.999Z</time></trkpt><trkpt lat="44.638962032040716" lon="10.196893591399466"><ele>434.57142857142856</ele><time>2026-03-28T13:54:08.999Z</time></trkpt><trkpt lat="44.638898830719526" lon="10.196918649881342"><ele>436.0</ele><time>2026-03-28T13:54:09.999Z</time></trkpt><trkpt lat="44.63883429813312" lon="10.196943704451062"><ele>436.00000000000006</ele><time>2026-03-28T13:54:10.999Z</time></trkpt><trkpt lat="44.63876800769765" lon="10.196969441397219"><ele>436.0</ele><time>2026-03-28T13:54:11.999Z</time></trkpt><trkpt lat="44.638704135837315" lon="10.196994239377245"><ele>436.0</ele><time>2026-03-28T13:54:12.999Z</time></trkpt><trkpt lat="44.63863582073242" lon="10.197020762413427"><ele>436.0</ele><time>2026-03-28T13:54:13.999Z</time></trkpt><trkpt lat="44.63852258414255" lon="10.197063258308926"><ele>436.00000000000006</ele><time>2026-03-28T13:54:15.999Z</time></trkpt><trkpt lat="44.63846128515431" lon="10.197107218961152"><ele>436.0</ele><time>2026-03-28T13:54:16.999Z</time></trkpt><trkpt lat="44.638396623464494" lon="10.197124409451986"><ele>438.4</ele><time>2026-03-28T13:54:17.999Z</time></trkpt><trkpt lat="44.63828915796152" lon="10.197205983209237"><ele>440.8</ele><time>2026-03-28T13:54:19.999Z</time></trkpt><trkpt lat="44.63822884395681" lon="10.197238430645706"><ele>443.19999999999993</ele><time>2026-03-28T13:54:20.999Z</time></trkpt><trkpt lat="44.63812950897553" lon="10.197338325957485"><ele>445.59999999999997</ele><time>2026-03-28T13:54:22.999Z</time></trkpt><trkpt lat="44.63803795316596" lon="10.197419594368288"><ele>448.0</ele><time>2026-03-28T13:54:24.999Z</time></trkpt><trkpt lat="44.637952917912415" lon="10.197487816551691"><ele>448.0</ele><time>2026-03-28T13:54:26.999Z</time></trkpt><trkpt lat="44.637878511771994" lon="10.197542794665086"><ele>447.99999999999994</ele><time>2026-03-28T13:54:28.999Z</time></trkpt><trkpt lat="44.63779587419254" lon="10.19760123880898"><ele>447.99999999999994</ele><time>2026-03-28T13:54:30.999Z</time></trkpt><trkpt lat="44.637724823214725" lon="10.197664887122745"><ele>448.0</ele><time>2026-03-28T13:54:32.999Z</time></trkpt><trkpt lat="44.6376314457635" lon="10.197710787044803"><ele>448.0</ele><time>2026-03-28T13:54:34.999Z</time></trkpt><trkpt lat="44.637538100087774" lon="10.197764717892126"><ele>452.4</ele><time>2026-03-28T13:54:36.999Z</time></trkpt><trkpt lat="44.63744366064839" lon="10.197809233608757"><ele>456.79999999999995</ele><time>2026-03-28T13:54:38.999Z</time></trkpt><trkpt lat="44.63731009713027" lon="10.19784328206167"><ele>461.2</ele><time>2026-03-28T13:54:40.999Z</time></trkpt><trkpt lat="44.63723897259543" lon="10.197859996816247"><ele>465.6</ele><time>2026-03-28T13:54:41.999Z</time></trkpt><trkpt lat="44.63711787016587" lon="10.197885101272707"><ele>470.0</ele><time>2026-03-28T13:54:43.999Z</time></trkpt><trkpt lat="44.63703814764256" lon="10.197900632757444"><ele>469.99999999999994</ele><time>2026-03-28T13:54:45.999Z</time></trkpt><trkpt lat="44.636976914219716" lon="10.197921339774338"><ele>470.0</ele><time>2026-03-28T13:54:47.999Z</time></trkpt><trkpt lat="44.636894181426214" lon="10.197930470154928"><ele>470.0</ele><time>2026-03-28T13:54:50.999Z</time></trkpt><trkpt lat="44.63678879872197" lon="10.197942616535757"><ele>470.0</ele><time>2026-03-28T13:54:52.999Z</time></trkpt><trkpt lat="44.63669239029859" lon="10.197934184591375"><ele>469.99999999999994</ele><time>2026-03-28T13:54:54.999Z</time></trkpt><trkpt lat="44.63661447121972" lon="10.197934184594288"><ele>470.0</ele><time>2026-03-28T13:55:01.001Z</time></trkpt><trkpt lat="44.63656928572566" lon="10.198029665796977"><ele>470.49999999999994</ele><time>2026-03-28T13:55:02.001Z</time></trkpt><trkpt lat="44.63650915064829" lon="10.198096232190535"><ele>471.0</ele><time>2026-03-28T13:55:04.001Z</time></trkpt><trkpt lat="44.63643334663885" lon="10.198143476656195"><ele>471.5</ele><time>2026-03-28T13:55:06.001Z</time></trkpt><trkpt lat="44.63637027190288" lon="10.198206380759782"><ele>472.0</ele><time>2026-03-28T13:55:08.001Z</time></trkpt><trkpt lat="44.636311230209735" lon="10.198262921773745"><ele>472.49999999999994</ele><time>2026-03-28T13:55:10.001Z</time></trkpt><trkpt lat="44.63629577283603" lon="10.198383114032353"><ele>473.0</ele><time>2026-03-28T13:55:11.001Z</time></trkpt><trkpt lat="44.63627928953555" lon="10.19849329591165"><ele>473.79999999999995</ele><time>2026-03-28T13:55:13.001Z</time></trkpt><trkpt lat="44.63626648009526" lon="10.198650336374863"><ele>474.59999999999997</ele><time>2026-03-28T13:55:15.001Z</time></trkpt><trkpt lat="44.63624552387835" lon="10.198756692391752"><ele>475.40000000000003</ele><time>2026-03-28T13:55:16.001Z</time></trkpt><trkpt lat="44.63621839205639" lon="10.198875311980261"><ele>476.20000000000005</ele><time>2026-03-28T13:55:17.001Z</time></trkpt><trkpt lat="44.63619238892501" lon="10.199004662759158"><ele>477.0</ele><time>2026-03-28T13:55:18.001Z</time></trkpt><trkpt lat="44.636172651044795" lon="10.199130809930855"><ele>477.0</ele><time>2026-03-28T13:55:19Z</time></trkpt><trkpt lat="44.63615356225615" lon="10.199262123613924"><ele>477.0</ele><time>2026-03-28T13:55:20Z</time></trkpt><trkpt lat="44.63613587617774" lon="10.199376703249863"><ele>477.0</ele><time>2026-03-28T13:55:21Z</time></trkpt><trkpt lat="44.63611576893736" lon="10.199498290340117"><ele>477.0</ele><time>2026-03-28T13:55:22Z</time></trkpt><trkpt lat="44.63609635456579" lon="10.199616052724263"><ele>477.0</ele><time>2026-03-28T13:55:23Z</time></trkpt><trkpt lat="44.63607711982907" lon="10.199736584340366"><ele>477.0</ele><time>2026-03-28T13:55:24Z</time></trkpt><trkpt lat="44.636061180244276" lon="10.199855022553404"><ele>478.8333333333333</ele><time>2026-03-28T13:55:25Z</time></trkpt><trkpt lat="44.636044542934265" lon="10.199978058141802"><ele>480.66666666666663</ele><time>2026-03-28T13:55:26Z</time></trkpt><trkpt lat="44.63602760883311" lon="10.200091186663242"><ele>482.5</ele><time>2026-03-28T13:55:27Z</time></trkpt><trkpt lat="44.63600606037691" lon="10.200192739834904"><ele>484.3333333333333</ele><time>2026-03-28T13:55:28Z</time></trkpt><trkpt lat="44.63598590043631" lon="10.200294972496625"><ele>486.16666666666663</ele><time>2026-03-28T13:55:29Z</time></trkpt><trkpt lat="44.63596525972008" lon="10.200395943320004"><ele>488.0</ele><time>2026-03-28T13:55:30Z</time></trkpt><trkpt lat="44.635939583760425" lon="10.2004936518128"><ele>488.0</ele><time>2026-03-28T13:55:31Z</time></trkpt><trkpt lat="44.635877002492165" lon="10.200631447715816"><ele>487.99999999999994</ele><time>2026-03-28T13:55:33Z</time></trkpt><trkpt lat="44.63581833351634" lon="10.200722973831018"><ele>487.99999999999994</ele><time>2026-03-28T13:55:35Z</time></trkpt><trkpt lat="44.63575130190587" lon="10.200786148427515"><ele>488.0</ele><time>2026-03-28T13:55:37Z</time></trkpt><trkpt lat="44.635646465710806" lon="10.200877813979789"><ele>488.0</ele><time>2026-03-28T13:55:39Z</time></trkpt><trkpt lat="44.63552986322556" lon="10.200965450222332"><ele>487.66666666666663</ele><time>2026-03-28T13:55:41Z</time></trkpt><trkpt lat="44.63546477862249" lon="10.201010969509744"><ele>487.3333333333333</ele><time>2026-03-28T13:55:42Z</time></trkpt><trkpt lat="44.635401948825" lon="10.20105491162151"><ele>487.0</ele><time>2026-03-28T13:55:43Z</time></trkpt><trkpt lat="44.635342768396356" lon="10.201096301772209"><ele>486.66666666666663</ele><time>2026-03-28T13:55:44Z</time></trkpt><trkpt lat="44.635248151189884" lon="10.20117072187189"><ele>486.3333333333333</ele><time>2026-03-28T13:55:46Z</time></trkpt><trkpt lat="44.63518085815689" lon="10.201230811610001"><ele>486.0</ele><time>2026-03-28T13:55:49Z</time></trkpt><trkpt lat="44.63508758729867" lon="10.201329819630804"><ele>486.0</ele><time>2026-03-28T13:55:51Z</time></trkpt><trkpt lat="44.634982568112996" lon="10.20144736102409"><ele>486.0</ele><time>2026-03-28T13:55:53Z</time></trkpt><trkpt lat="44.6349239930336" lon="10.20151234275927"><ele>486.0</ele><time>2026-03-28T13:55:54Z</time></trkpt><trkpt lat="44.63487106445205" lon="10.201568378320786"><ele>486.0</ele><time>2026-03-28T13:55:55Z</time></trkpt><trkpt lat="44.63477391070897" lon="10.201666905351875"><ele>486.0</ele><time>2026-03-28T13:55:57Z</time></trkpt><trkpt lat="44.63472052674177" lon="10.20171961640809"><ele>486.0</ele><time>2026-03-28T13:55:58Z</time></trkpt><trkpt lat="44.63462690770622" lon="10.201809254646696"><ele>486.0</ele><time>2026-03-28T13:56:00Z</time></trkpt><trkpt lat="44.634572497896016" lon="10.201860325638137"><ele>486.0</ele><time>2026-03-28T13:56:01Z</time></trkpt><trkpt lat="44.63451448021483" lon="10.20191235914729"><ele>486.0</ele><time>2026-03-28T13:56:02Z</time></trkpt><trkpt lat="44.63444058577953" lon="10.202000183272753"><ele>486.0</ele><time>2026-03-28T13:56:04Z</time></trkpt><trkpt lat="44.6343673599223" lon="10.202066298574962"><ele>486.0</ele><time>2026-03-28T13:56:05.999Z</time></trkpt><trkpt lat="44.63428377565536" lon="10.202157254457305"><ele>487.4</ele><time>2026-03-28T13:56:07.999Z</time></trkpt><trkpt lat="44.63422616266448" lon="10.202282919171681"><ele>488.8</ele><time>2026-03-28T13:56:09.999Z</time></trkpt><trkpt lat="44.634220287660504" lon="10.202410595802114"><ele>490.19999999999993</ele><time>2026-03-28T13:56:11.999Z</time></trkpt><trkpt lat="44.63425836467055" lon="10.20253602811031"><ele>491.59999999999997</ele><time>2026-03-28T13:56:13.999Z</time></trkpt><trkpt lat="44.63432485747326" lon="10.202697267579504"><ele>493.0</ele><time>2026-03-28T13:56:15.999Z</time></trkpt><trkpt lat="44.63436351061113" lon="10.202772428438172"><ele>493.2857142857143</ele><time>2026-03-28T13:56:16.999Z</time></trkpt><trkpt lat="44.63441896079407" lon="10.202857782325024"><ele>493.57142857142856</ele><time>2026-03-28T13:56:17.999Z</time></trkpt><trkpt lat="44.634461553331995" lon="10.202934113144286"><ele>493.85714285714283</ele><time>2026-03-28T13:56:18.999Z</time></trkpt><trkpt lat="44.63451372998191" lon="10.20301259526131"><ele>494.1428571428571</ele><time>2026-03-28T13:56:19.999Z</time></trkpt><trkpt lat="44.63455759158564" lon="10.203083698736785"><ele>494.42857142857144</ele><time>2026-03-28T13:56:20.999Z</time></trkpt><trkpt lat="44.63460202748586" lon="10.203167240851482"><ele>494.71428571428567</ele><time>2026-03-28T13:56:21.999Z</time></trkpt><trkpt lat="44.63464562642144" lon="10.203246934508702"><ele>494.99999999999994</ele><time>2026-03-28T13:56:22.999Z</time></trkpt><trkpt lat="44.6346906691224" lon="10.20331551199239"><ele>491.4</ele><time>2026-03-28T13:56:23.999Z</time></trkpt><trkpt lat="44.63477512117329" lon="10.203427223158833"><ele>487.8</ele><time>2026-03-28T13:56:25.999Z</time></trkpt><trkpt lat="44.63484644098282" lon="10.203505692845527"><ele>484.20000000000005</ele><time>2026-03-28T13:56:27.999Z</time></trkpt><trkpt lat="44.63491982450101" lon="10.203584849181777"><ele>480.6</ele><time>2026-03-28T13:56:29.999Z</time></trkpt><trkpt lat="44.63498639546325" lon="10.203673843580509"><ele>477.0</ele><time>2026-03-28T13:56:31.999Z</time></trkpt><trkpt lat="44.635040645413504" lon="10.203766528125124"><ele>477.0</ele><time>2026-03-28T13:56:33.999Z</time></trkpt><trkpt lat="44.63508590347325" lon="10.203865052249183"><ele>477.00000000000006</ele><time>2026-03-28T13:56:35.999Z</time></trkpt><trkpt lat="44.635118666106884" lon="10.203965713537299"><ele>477.00000000000006</ele><time>2026-03-28T13:56:37.999Z</time></trkpt><trkpt lat="44.6351675546682" lon="10.204089504022487"><ele>477.0</ele><time>2026-03-28T13:56:39.999Z</time></trkpt><trkpt lat="44.635211060632294" lon="10.204236376905488"><ele>477.0</ele><time>2026-03-28T13:56:41.999Z</time></trkpt><trkpt lat="44.635239503274974" lon="10.204357288289977"><ele>478.0</ele><time>2026-03-28T13:56:43.999Z</time></trkpt><trkpt lat="44.635268999744845" lon="10.204506839859976"><ele>479.00000000000006</ele><time>2026-03-28T13:56:45.999Z</time></trkpt><trkpt lat="44.6352785910722" lon="10.204646096528496"><ele>480.00000000000006</ele><time>2026-03-28T13:56:47.999Z</time></trkpt><trkpt lat="44.63529691481061" lon="10.20476392729218"><ele>481.0</ele><time>2026-03-28T13:56:49.999Z</time></trkpt><trkpt lat="44.635310925020505" lon="10.204892468233135"><ele>482.0</ele><time>2026-03-28T13:56:51.999Z</time></trkpt><trkpt lat="44.63530764587404" lon="10.205050468948956"><ele>481.42857142857144</ele><time>2026-03-28T13:56:53.999Z</time></trkpt><trkpt lat="44.63529028463948" lon="10.205137595218497"><ele>480.8571428571429</ele><time>2026-03-28T13:56:54.998Z</time></trkpt><trkpt lat="44.63527302842492" lon="10.205225864211396"><ele>480.28571428571433</ele><time>2026-03-28T13:56:55.998Z</time></trkpt><trkpt lat="44.63524951331922" lon="10.205312886232608"><ele>479.7142857142858</ele><time>2026-03-28T13:56:56.998Z</time></trkpt><trkpt lat="44.63523710261098" lon="10.205400648415146"><ele>479.14285714285717</ele><time>2026-03-28T13:56:57.998Z</time></trkpt><trkpt lat="44.635217031587636" lon="10.205488694209265"><ele>478.57142857142867</ele><time>2026-03-28T13:56:58.998Z</time></trkpt><trkpt lat="44.63519717416792" lon="10.20557743003788"><ele>478.00000000000006</ele><time>2026-03-28T13:56:59.998Z</time></trkpt><trkpt lat="44.63516184688425" lon="10.205732856597418"><ele>476.50000000000006</ele><time>2026-03-28T13:57:02.001Z</time></trkpt><trkpt lat="44.635131627910575" lon="10.205878075746723"><ele>475.0</ele><time>2026-03-28T13:57:04.001Z</time></trkpt><trkpt lat="44.63511186118619" lon="10.205968082517279"><ele>473.5</ele><time>2026-03-28T13:57:05.001Z</time></trkpt><trkpt lat="44.63508966141961" lon="10.206055692427192"><ele>472.0</ele><time>2026-03-28T13:57:06.001Z</time></trkpt><trkpt lat="44.635089854737394" lon="10.206239560237673"><ele>470.50000000000006</ele><time>2026-03-28T13:57:08.001Z</time></trkpt><trkpt lat="44.63510473778998" lon="10.206336932504405"><ele>469.0</ele><time>2026-03-28T13:57:09.001Z</time></trkpt><trkpt lat="44.6351266536969" lon="10.20642438656852"><ele>468.2</ele><time>2026-03-28T13:57:10.001Z</time></trkpt><trkpt lat="44.63513807865784" lon="10.206574356509593"><ele>467.4</ele><time>2026-03-28T13:57:12.001Z</time></trkpt><trkpt lat="44.63507588737559" lon="10.206711513703166"><ele>466.6</ele><time>2026-03-28T13:57:14.001Z</time></trkpt><trkpt lat="44.634969700762106" lon="10.2068045997968"><ele>465.8</ele><time>2026-03-28T13:57:16.001Z</time></trkpt><trkpt lat="44.634926331717374" lon="10.206884273026686"><ele>465.0</ele><time>2026-03-28T13:57:17.001Z</time></trkpt><trkpt lat="44.63488001055874" lon="10.206956351005303"><ele>465.0</ele><time>2026-03-28T13:57:18.001Z</time></trkpt><trkpt lat="44.63484331570659" lon="10.207033394415662"><ele>465.0</ele><time>2026-03-28T13:57:19.001Z</time></trkpt><trkpt lat="44.63482396936514" lon="10.207119534128113"><ele>465.0</ele><time>2026-03-28T13:57:20.001Z</time></trkpt><trkpt lat="44.6348033275831" lon="10.20721051405678"><ele>465.0</ele><time>2026-03-28T13:57:21.001Z</time></trkpt><trkpt lat="44.6347907606498" lon="10.207304765207974"><ele>465.0</ele><time>2026-03-28T13:57:22.001Z</time></trkpt><trkpt lat="44.63478939631111" lon="10.207407350026978"><ele>465.0</ele><time>2026-03-28T13:57:23.001Z</time></trkpt><trkpt lat="44.63478170153184" lon="10.207515653056525"><ele>465.0</ele><time>2026-03-28T13:57:24.001Z</time></trkpt><trkpt lat="44.634771473410794" lon="10.207622578963276"><ele>463.0</ele><time>2026-03-28T13:57:25.001Z</time></trkpt><trkpt lat="44.63476352389535" lon="10.207732107136424"><ele>461.0</ele><time>2026-03-28T13:57:26.001Z</time></trkpt><trkpt lat="44.634743072070954" lon="10.207828043897075"><ele>459.0</ele><time>2026-03-28T13:57:27.001Z</time></trkpt><trkpt lat="44.634726776051195" lon="10.207913674644706"><ele>457.0</ele><time>2026-03-28T13:57:28.001Z</time></trkpt><trkpt lat="44.63470549440585" lon="10.207997123653556"><ele>455.0</ele><time>2026-03-28T13:57:29.001Z</time></trkpt><trkpt lat="44.63465418758313" lon="10.208149662018739"><ele>453.0</ele><time>2026-03-28T13:57:31.001Z</time></trkpt><trkpt lat="44.63459388002379" lon="10.208267476491615"><ele>454.4</ele><time>2026-03-28T13:57:33.001Z</time></trkpt><trkpt lat="44.63450119963435" lon="10.208330632884158"><ele>455.79999999999995</ele><time>2026-03-28T13:57:35Z</time></trkpt><trkpt lat="44.63443114705226" lon="10.208413316581746"><ele>457.2</ele><time>2026-03-28T13:57:36.999Z</time></trkpt><trkpt lat="44.63434921046522" lon="10.208456577932617"><ele>458.6</ele><time>2026-03-28T13:57:38.999Z</time></trkpt><trkpt lat="44.63427882777147" lon="10.208559577495524"><ele>460.0</ele><time>2026-03-28T13:57:40.999Z</time></trkpt><trkpt lat="44.634206990187714" lon="10.208670985205751"><ele>460.0</ele><time>2026-03-28T13:57:42.999Z</time></trkpt><trkpt lat="44.634154353371635" lon="10.208800544563124"><ele>460.0</ele><time>2026-03-28T13:57:44.999Z</time></trkpt><trkpt lat="44.63410394199168" lon="10.208938857447379"><ele>460.0</ele><time>2026-03-28T13:57:46.999Z</time></trkpt><trkpt lat="44.63405651036129" lon="10.209087010613882"><ele>460.0</ele><time>2026-03-28T13:57:48.999Z</time></trkpt><trkpt lat="44.634015228361115" lon="10.209163206297886"><ele>460.0</ele><time>2026-03-28T13:57:49.999Z</time></trkpt><trkpt lat="44.633968823402945" lon="10.209282216687141"><ele>458.6666666666667</ele><time>2026-03-28T13:57:51.999Z</time></trkpt><trkpt lat="44.63391116758223" lon="10.209433062027973"><ele>457.33333333333337</ele><time>2026-03-28T13:57:53.999Z</time></trkpt><trkpt lat="44.63388891857706" lon="10.209543761341616"><ele>456.0</ele><time>2026-03-28T13:57:54.999Z</time></trkpt><trkpt lat="44.633851919113035" lon="10.209644003747638"><ele>454.66666666666663</ele><time>2026-03-28T13:57:55.999Z</time></trkpt><trkpt lat="44.63382302354949" lon="10.20973717919284"><ele>453.3333333333333</ele><time>2026-03-28T13:57:56.999Z</time></trkpt><trkpt lat="44.63379869488684" lon="10.209827454368641"><ele>452.0</ele><time>2026-03-28T13:57:57.999Z</time></trkpt><trkpt lat="44.633762802351114" lon="10.209999755707853"><ele>451.99999999999994</ele><time>2026-03-28T13:57:59.999Z</time></trkpt><trkpt lat="44.63375012716403" lon="10.210097111434546"><ele>452.0</ele><time>2026-03-28T13:58:00.999Z</time></trkpt><trkpt lat="44.63374104182149" lon="10.210206092568232"><ele>452.0</ele><time>2026-03-28T13:58:01.999Z</time></trkpt><trkpt lat="44.63373553705954" lon="10.210318550514733"><ele>452.0</ele><time>2026-03-28T13:58:02.999Z</time></trkpt><trkpt lat="44.63372824866963" lon="10.210428972297699"><ele>451.99999999999994</ele><time>2026-03-28T13:58:03.999Z</time></trkpt><trkpt lat="44.63372206503901" lon="10.210537268691763"><ele>452.0</ele><time>2026-03-28T13:58:04.999Z</time></trkpt><trkpt lat="44.63371870044557" lon="10.210636008835102"><ele>451.99999999999994</ele><time>2026-03-28T13:58:05.999Z</time></trkpt><trkpt lat="44.63372454466047" lon="10.210743518421674"><ele>452.0</ele><time>2026-03-28T13:58:06.999Z</time></trkpt><trkpt lat="44.63374358127679" lon="10.210854151209904"><ele>452.0</ele><time>2026-03-28T13:58:07.999Z</time></trkpt><trkpt lat="44.63378045006615" lon="10.210959859027039"><ele>452.0</ele><time>2026-03-28T13:58:08.999Z</time></trkpt><trkpt lat="44.63383102044587" lon="10.211068937200617"><ele>451.99999999999994</ele><time>2026-03-28T13:58:09.999Z</time></trkpt><trkpt lat="44.63387123459531" lon="10.211164655577168"><ele>452.0</ele><time>2026-03-28T13:58:10.999Z</time></trkpt><trkpt lat="44.63391331466959" lon="10.211251337319858"><ele>452.0</ele><time>2026-03-28T13:58:11.999Z</time></trkpt><trkpt lat="44.633958591869096" lon="10.211318302021326"><ele>452.00000000000006</ele><time>2026-03-28T13:58:12.999Z</time></trkpt><trkpt lat="44.6340271906862" lon="10.211440226274714"><ele>452.00000000000006</ele><time>2026-03-28T13:58:14.999Z</time></trkpt><trkpt lat="44.634079886593305" lon="10.211553522077361"><ele>452.0</ele><time>2026-03-28T13:58:16.999Z</time></trkpt><trkpt lat="44.63396568029802" lon="10.21156300142517"><ele>452.0</ele><time>2026-03-28T13:58:19.999Z</time></trkpt><trkpt lat="44.63385711363053" lon="10.211620550312222"><ele>451.66666666666663</ele><time>2026-03-28T13:58:21.999Z</time></trkpt><trkpt lat="44.633795182757865" lon="10.211682701425232"><ele>451.3333333333333</ele><time>2026-03-28T13:58:22.999Z</time></trkpt><trkpt lat="44.63374328948622" lon="10.21176008173029"><ele>451.0</ele><time>2026-03-28T13:58:23.998Z</time></trkpt><trkpt lat="44.633696594111704" lon="10.21187507921015"><ele>450.66666666666663</ele><time>2026-03-28T13:58:24.998Z</time></trkpt><trkpt lat="44.63364869031936" lon="10.211974586900405"><ele>450.3333333333333</ele><time>2026-03-28T13:58:25.998Z</time></trkpt><trkpt lat="44.63360523772758" lon="10.212063053915994"><ele>450.0</ele><time>2026-03-28T13:58:26.998Z</time></trkpt><trkpt lat="44.63355578493949" lon="10.21214932311782"><ele>451.57142857142867</ele><time>2026-03-28T13:58:27.998Z</time></trkpt><trkpt lat="44.63350406378116" lon="10.21222231165826"><ele>453.14285714285717</ele><time>2026-03-28T13:58:28.998Z</time></trkpt><trkpt lat="44.63344540312285" lon="10.212273160572858"><ele>454.7142857142858</ele><time>2026-03-28T13:58:29.998Z</time></trkpt><trkpt lat="44.6333826242235" lon="10.212321064845538"><ele>456.28571428571433</ele><time>2026-03-28T13:58:30.998Z</time></trkpt><trkpt lat="44.63331937773835" lon="10.212341022206843"><ele>457.8571428571429</ele><time>2026-03-28T13:58:31.998Z</time></trkpt><trkpt lat="44.63325489405844" lon="10.212349352148673"><ele>459.42857142857144</ele><time>2026-03-28T13:58:32.998Z</time></trkpt><trkpt lat="44.63318711660747" lon="10.21235285036571"><ele>461.0</ele><time>2026-03-28T13:58:33.998Z</time></trkpt><trkpt lat="44.633114212192005" lon="10.212360659450894"><ele>461.0</ele><time>2026-03-28T13:58:34.998Z</time></trkpt><trkpt lat="44.633043008379474" lon="10.21236455584687"><ele>461.00000000000006</ele><time>2026-03-28T13:58:35.998Z</time></trkpt><trkpt lat="44.63296737473032" lon="10.212369207577702"><ele>461.0</ele><time>2026-03-28T13:58:36.998Z</time></trkpt><trkpt lat="44.63289699375851" lon="10.212373536184154"><ele>461.0</ele><time>2026-03-28T13:58:37.998Z</time></trkpt><trkpt lat="44.63282087611368" lon="10.212379361424885"><ele>461.00000000000006</ele><time>2026-03-28T13:58:38.998Z</time></trkpt><trkpt lat="44.63274953739864" lon="10.212405335798879"><ele>461.0</ele><time>2026-03-28T13:58:39.998Z</time></trkpt><trkpt lat="44.63267758505512" lon="10.212427895514791"><ele>461.0</ele><time>2026-03-28T13:58:40.998Z</time></trkpt><trkpt lat="44.63260840427845" lon="10.2124855211051"><ele>463.16666666666663</ele><time>2026-03-28T13:58:41.998Z</time></trkpt><trkpt lat="44.632543223485015" lon="10.212573053260408"><ele>465.3333333333333</ele><time>2026-03-28T13:58:42.998Z</time></trkpt><trkpt lat="44.63248419158687" lon="10.212654458169565"><ele>467.5</ele><time>2026-03-28T13:58:43.998Z</time></trkpt><trkpt lat="44.63242507016174" lon="10.212731331792131"><ele>469.66666666666663</ele><time>2026-03-28T13:58:44.998Z</time></trkpt><trkpt lat="44.632372723133905" lon="10.212809124443242"><ele>471.8333333333333</ele><time>2026-03-28T13:58:45.998Z</time></trkpt><trkpt lat="44.632307091163604" lon="10.212861631159718"><ele>474.0</ele><time>2026-03-28T13:58:46.998Z</time></trkpt><trkpt lat="44.63222927708381" lon="10.212911175199029"><ele>474.0</ele><time>2026-03-28T13:59:23Z</time></trkpt><trkpt lat="44.6321291135165" lon="10.212863790742743"><ele>474.0</ele><time>2026-03-28T13:59:25Z</time></trkpt><trkpt lat="44.63201514427427" lon="10.212845957177615"><ele>474.0</ele><time>2026-03-28T13:59:27Z</time></trkpt><trkpt lat="44.63191630216538" lon="10.212779625809556"><ele>474.0</ele><time>2026-03-28T13:59:29Z</time></trkpt><trkpt lat="44.63182276578097" lon="10.212669905740562"><ele>475.1666666666667</ele><time>2026-03-28T13:59:31Z</time></trkpt><trkpt lat="44.63172802059498" lon="10.212556883680667"><ele>476.33333333333337</ele><time>2026-03-28T13:59:33Z</time></trkpt><trkpt lat="44.63167930079515" lon="10.212497873185013"><ele>477.5</ele><time>2026-03-28T13:59:34Z</time></trkpt><trkpt lat="44.63161956158111" lon="10.21246271562349"><ele>478.6666666666667</ele><time>2026-03-28T13:59:35Z</time></trkpt><trkpt lat="44.63151636680027" lon="10.212364142424843"><ele>479.83333333333337</ele><time>2026-03-28T13:59:37Z</time></trkpt><trkpt lat="44.6314732143912" lon="10.212294491479932"><ele>481.0</ele><time>2026-03-28T13:59:38Z</time></trkpt><trkpt lat="44.631378710634564" lon="10.212198877364683"><ele>482.0</ele><time>2026-03-28T13:59:40Z</time></trkpt><trkpt lat="44.63129480422137" lon="10.212094740102629"><ele>483.0</ele><time>2026-03-28T13:59:42Z</time></trkpt><trkpt lat="44.63121292856803" lon="10.211982020427277"><ele>484.0</ele><time>2026-03-28T13:59:43.999Z</time></trkpt><trkpt lat="44.6311368629308" lon="10.211884128929348"><ele>485.0</ele><time>2026-03-28T13:59:45.999Z</time></trkpt><trkpt lat="44.63106152622902" lon="10.21182713886237"><ele>486.0</ele><time>2026-03-28T13:59:47.999Z</time></trkpt><trkpt lat="44.630975204675856" lon="10.211751684874795"><ele>487.4</ele><time>2026-03-28T13:59:49.999Z</time></trkpt><trkpt lat="44.63085889051011" lon="10.211724126649196"><ele>488.8</ele><time>2026-03-28T13:59:51.999Z</time></trkpt><trkpt lat="44.63074777770728" lon="10.2117150789257"><ele>490.19999999999993</ele><time>2026-03-28T13:59:53.999Z</time></trkpt><trkpt lat="44.630653641497" lon="10.211697948762922"><ele>491.59999999999997</ele><time>2026-03-28T13:59:55.999Z</time></trkpt><trkpt lat="44.630570009760255" lon="10.211645381224946"><ele>493.0</ele><time>2026-03-28T13:59:57.999Z</time></trkpt><trkpt lat="44.63049646907672" lon="10.211556799406265"><ele>493.85714285714283</ele><time>2026-03-28T13:59:59.999Z</time></trkpt><trkpt lat="44.630441515721365" lon="10.211425083047065"><ele>494.7142857142858</ele><time>2026-03-28T14:00:01.999Z</time></trkpt><trkpt lat="44.63040547446788" lon="10.211342052948567"><ele>495.5714285714286</ele><time>2026-03-28T14:00:02.999Z</time></trkpt><trkpt lat="44.63037102314005" lon="10.211264589391183"><ele>496.42857142857144</ele><time>2026-03-28T14:00:03.999Z</time></trkpt><trkpt lat="44.63033743090025" lon="10.211189489184127"><ele>497.28571428571433</ele><time>2026-03-28T14:00:04.999Z</time></trkpt><trkpt lat="44.63029895614032" lon="10.211117007552826"><ele>498.1428571428572</ele><time>2026-03-28T14:00:05.999Z</time></trkpt><trkpt lat="44.630255011197676" lon="10.211046521245622"><ele>499.00000000000006</ele><time>2026-03-28T14:00:06.999Z</time></trkpt><trkpt lat="44.6301921609413" lon="10.211017587414878"><ele>500.6</ele><time>2026-03-28T14:00:07.999Z</time></trkpt><trkpt lat="44.630079163319486" lon="10.21098085669934"><ele>502.2</ele><time>2026-03-28T14:00:09.999Z</time></trkpt><trkpt lat="44.62996182183209" lon="10.211028510008072"><ele>503.80000000000007</ele><time>2026-03-28T14:00:11.999Z</time></trkpt><trkpt lat="44.62985278248235" lon="10.211083418171173"><ele>505.40000000000003</ele><time>2026-03-28T14:00:13.999Z</time></trkpt><trkpt lat="44.62978388108913" lon="10.21109807284636"><ele>507.0</ele><time>2026-03-28T14:00:15.999Z</time></trkpt><trkpt lat="44.629709036809686" lon="10.211091757883011"><ele>507.0</ele><time>2026-03-28T14:00:18.999Z</time></trkpt><trkpt lat="44.62968975736797" lon="10.21096707940044"><ele>507.0</ele><time>2026-03-28T14:00:21.999Z</time></trkpt><trkpt lat="44.62974076711945" lon="10.210874838153272"><ele>507.0</ele><time>2026-03-28T14:00:23.999Z</time></trkpt><trkpt lat="44.62979704535002" lon="10.21073352613417"><ele>507.0</ele><time>2026-03-28T14:00:25.999Z</time></trkpt><trkpt lat="44.629803896129424" lon="10.210639606949332"><ele>507.0</ele><time>2026-03-28T14:00:26.999Z</time></trkpt><trkpt lat="44.629789866580396" lon="10.210546297687085"><ele>507.0</ele><time>2026-03-28T14:00:27.998Z</time></trkpt><trkpt lat="44.62975904477108" lon="10.210464835708548"><ele>509.25</ele><time>2026-03-28T14:00:28.998Z</time></trkpt><trkpt lat="44.62977069928205" lon="10.21029939858911"><ele>511.5</ele><time>2026-03-28T14:00:30.998Z</time></trkpt><trkpt lat="44.6297835603384" lon="10.210140742236222"><ele>513.75</ele><time>2026-03-28T14:00:32.998Z</time></trkpt><trkpt lat="44.62987166173067" lon="10.210022862068456"><ele>516.0</ele><time>2026-03-28T14:00:34.998Z</time></trkpt><trkpt lat="44.62997487178101" lon="10.20993283762753"><ele>516.0</ele><time>2026-03-28T14:00:36.998Z</time></trkpt><trkpt lat="44.63006602545111" lon="10.209843362086401"><ele>516.0</ele><time>2026-03-28T14:00:38.998Z</time></trkpt><trkpt lat="44.63018167885728" lon="10.2097932218385"><ele>516.0</ele><time>2026-03-28T14:00:40.998Z</time></trkpt><trkpt lat="44.630300644649544" lon="10.2097316671862"><ele>516.0</ele><time>2026-03-28T14:00:42.998Z</time></trkpt><trkpt lat="44.630402107871845" lon="10.209682691599793"><ele>517.2</ele><time>2026-03-28T14:00:44.998Z</time></trkpt><trkpt lat="44.63043275246654" lon="10.209577479780318"><ele>518.4000000000001</ele><time>2026-03-28T14:00:46.998Z</time></trkpt><trkpt lat="44.63043487611114" lon="10.209453547308186"><ele>519.6</ele><time>2026-03-28T14:00:48.998Z</time></trkpt><trkpt lat="44.63033953512931" lon="10.209386235403379"><ele>520.8000000000001</ele><time>2026-03-28T14:00:50.998Z</time></trkpt><trkpt lat="44.63023741526728" lon="10.209367755853169"><ele>522.0</ele><time>2026-03-28T14:00:52.998Z</time></trkpt><trkpt lat="44.63013884578587" lon="10.209328380559327"><ele>522.0</ele><time>2026-03-28T14:00:54.998Z</time></trkpt><trkpt lat="44.630028840745204" lon="10.209305334717719"><ele>522.0</ele><time>2026-03-28T14:00:56.998Z</time></trkpt><trkpt lat="44.629918485091004" lon="10.209271774214976"><ele>522.0</ele><time>2026-03-28T14:00:58.998Z</time></trkpt><trkpt lat="44.62981312594972" lon="10.209220690066601"><ele>522.0</ele><time>2026-03-28T14:01:00.998Z</time></trkpt><trkpt lat="44.629717090467366" lon="10.209131479763165"><ele>522.0</ele><time>2026-03-28T14:01:02.998Z</time></trkpt><trkpt lat="44.629635030138516" lon="10.209031055728174"><ele>522.0</ele><time>2026-03-28T14:01:04.998Z</time></trkpt><trkpt lat="44.62955557367736" lon="10.20890475705995"><ele>522.0</ele><time>2026-03-28T14:01:06.998Z</time></trkpt><trkpt lat="44.629481545116384" lon="10.208777311590138"><ele>522.0</ele><time>2026-03-28T14:01:08.998Z</time></trkpt><trkpt lat="44.629470642306266" lon="10.208684796070978"><ele>522.0</ele><time>2026-03-28T14:01:09.998Z</time></trkpt><trkpt lat="44.62948068966764" lon="10.208590538952594"><ele>522.0</ele><time>2026-03-28T14:01:10.998Z</time></trkpt><trkpt lat="44.62951637235248" lon="10.208512757583035"><ele>522.0</ele><time>2026-03-28T14:01:12Z</time></trkpt><trkpt lat="44.629561206032626" lon="10.208371468204371"><ele>522.0</ele><time>2026-03-28T14:01:14Z</time></trkpt><trkpt lat="44.629603082787824" lon="10.208236688046814"><ele>522.0</ele><time>2026-03-28T14:01:16Z</time></trkpt><trkpt lat="44.62957755774843" lon="10.208080961243574"><ele>522.0</ele><time>2026-03-28T14:01:18Z</time></trkpt><trkpt lat="44.62947249343454" lon="10.207988194231017"><ele>528.75</ele><time>2026-03-28T14:01:20Z</time></trkpt><trkpt lat="44.629373112563485" lon="10.207909559311693"><ele>535.5</ele><time>2026-03-28T14:01:22Z</time></trkpt><trkpt lat="44.629276269179535" lon="10.2078423996863"><ele>542.25</ele><time>2026-03-28T14:01:24Z</time></trkpt><trkpt lat="44.62924017632023" lon="10.207677968999727"><ele>549.0</ele><time>2026-03-28T14:01:26Z</time></trkpt><trkpt lat="44.629218349066576" lon="10.207512270135897"><ele>549.0</ele><time>2026-03-28T14:01:28Z</time></trkpt><trkpt lat="44.62920773080279" lon="10.207422963805305"><ele>549.0</ele><time>2026-03-28T14:01:29Z</time></trkpt><trkpt lat="44.629182057494845" lon="10.207248498813952"><ele>549.0</ele><time>2026-03-28T14:01:31Z</time></trkpt><trkpt lat="44.62913828953471" lon="10.207094220100712"><ele>549.0</ele><time>2026-03-28T14:01:33Z</time></trkpt><trkpt lat="44.62907282470765" lon="10.20694084314801"><ele>549.0</ele><time>2026-03-28T14:01:35Z</time></trkpt><trkpt lat="44.62903605796184" lon="10.206864492320072"><ele>549.0</ele><time>2026-03-28T14:01:36Z</time></trkpt><trkpt lat="44.6289660321206" lon="10.206720954651379"><ele>549.0</ele><time>2026-03-28T14:01:38Z</time></trkpt><trkpt lat="44.62893091015811" lon="10.206644512554583"><ele>549.0</ele><time>2026-03-28T14:01:39Z</time></trkpt><trkpt lat="44.62886620161341" lon="10.206494975070388"><ele>549.0</ele><time>2026-03-28T14:01:41Z</time></trkpt><trkpt lat="44.62880333437168" lon="10.206350851258959"><ele>549.0</ele><time>2026-03-28T14:01:43Z</time></trkpt><trkpt lat="44.62878548554257" lon="10.206192713022377"><ele>549.0</ele><time>2026-03-28T14:01:45Z</time></trkpt><trkpt lat="44.628812238447644" lon="10.20602406136573"><ele>549.0</ele><time>2026-03-28T14:01:46.999Z</time></trkpt><trkpt lat="44.62883167492419" lon="10.205855606825603"><ele>549.0</ele><time>2026-03-28T14:01:48.999Z</time></trkpt><trkpt lat="44.62885405426496" lon="10.205695867113912"><ele>549.0</ele><time>2026-03-28T14:01:50.999Z</time></trkpt><trkpt lat="44.628876092127975" lon="10.205538679945795"><ele>549.25</ele><time>2026-03-28T14:01:52.999Z</time></trkpt><trkpt lat="44.62886176632534" lon="10.205391295682666"><ele>549.5</ele><time>2026-03-28T14:01:54.999Z</time></trkpt><trkpt lat="44.62876695269135" lon="10.205283435653548"><ele>549.75</ele><time>2026-03-28T14:01:56.999Z</time></trkpt><trkpt lat="44.6286666834737" lon="10.205185047903118"><ele>550.0</ele><time>2026-03-28T14:01:58.999Z</time></trkpt><trkpt lat="44.62863903503588" lon="10.205031796661453"><ele>553.1666666666667</ele><time>2026-03-28T14:02:00.999Z</time></trkpt><trkpt lat="44.62863501453655" lon="10.204848038110558"><ele>556.3333333333334</ele><time>2026-03-28T14:02:02.999Z</time></trkpt><trkpt lat="44.628637240667146" lon="10.204729671382696"><ele>559.5</ele><time>2026-03-28T14:02:03.999Z</time></trkpt><trkpt lat="44.62863522529256" lon="10.2046150316711"><ele>562.6666666666666</ele><time>2026-03-28T14:02:04.999Z</time></trkpt><trkpt lat="44.628632823266805" lon="10.204506118514258"><ele>565.8333333333333</ele><time>2026-03-28T14:02:05.999Z</time></trkpt><trkpt lat="44.62863163441612" lon="10.204409150111696"><ele>569.0</ele><time>2026-03-28T14:02:06.999Z</time></trkpt><trkpt lat="44.62863112375693" lon="10.204319096949986"><ele>569.0</ele><time>2026-03-28T14:02:07.999Z</time></trkpt><trkpt lat="44.62863243268298" lon="10.204191204198885"><ele>569.0</ele><time>2026-03-28T14:02:09.999Z</time></trkpt><trkpt lat="44.628653587334874" lon="10.204036726228026"><ele>569.0</ele><time>2026-03-28T14:02:11.999Z</time></trkpt><trkpt lat="44.628675339117216" lon="10.203888464823626"><ele>569.0</ele><time>2026-03-28T14:02:13.999Z</time></trkpt><trkpt lat="44.62868835723509" lon="10.203781754067522"><ele>569.0</ele><time>2026-03-28T14:02:15.999Z</time></trkpt><trkpt lat="44.628720314730984" lon="10.203677721375115"><ele>568.6666666666666</ele><time>2026-03-28T14:02:17.999Z</time></trkpt><trkpt lat="44.628742447877336" lon="10.20359050352783"><ele>568.3333333333333</ele><time>2026-03-28T14:02:19.999Z</time></trkpt><trkpt lat="44.62875888064988" lon="10.203499554120471"><ele>568.0</ele><time>2026-03-28T14:02:41.998Z</time></trkpt><trkpt lat="44.62869873127874" lon="10.203403631550714"><ele>567.6666666666666</ele><time>2026-03-28T14:02:43.998Z</time></trkpt><trkpt lat="44.62859119022518" lon="10.203357385680079"><ele>567.3333333333334</ele><time>2026-03-28T14:02:45.998Z</time></trkpt><trkpt lat="44.628502425749694" lon="10.203318799536133"><ele>567.0</ele><time>2026-03-28T14:02:47.998Z</time></trkpt><trkpt lat="44.62844929713166" lon="10.203237009559263"><ele>567.0</ele><time>2026-03-28T14:02:49.998Z</time></trkpt><trkpt lat="44.62840301470393" lon="10.203174415531464"><ele>567.0</ele><time>2026-03-28T14:02:51.998Z</time></trkpt><trkpt lat="44.62837015624309" lon="10.203077255673605"><ele>567.0</ele><time>2026-03-28T14:02:53.998Z</time></trkpt><trkpt lat="44.62830409835286" lon="10.20295662146981"><ele>567.0</ele><time>2026-03-28T14:02:55.998Z</time></trkpt><trkpt lat="44.628262488780805" lon="10.202881475722961"><ele>567.0</ele><time>2026-03-28T14:02:56.998Z</time></trkpt><trkpt lat="44.62821908305573" lon="10.202809554241242"><ele>567.0</ele><time>2026-03-28T14:02:57.998Z</time></trkpt><trkpt lat="44.628147708767415" lon="10.202687477472873"><ele>565.3333333333334</ele><time>2026-03-28T14:02:59.998Z</time></trkpt><trkpt lat="44.628118644236494" lon="10.202608863862672"><ele>563.6666666666666</ele><time>2026-03-28T14:03:00.998Z</time></trkpt><trkpt lat="44.62807052508844" lon="10.202550200845739"><ele>562.0</ele><time>2026-03-28T14:03:01.998Z</time></trkpt><trkpt lat="44.62801558806561" lon="10.202431110083296"><ele>560.3333333333333</ele><time>2026-03-28T14:03:03.998Z</time></trkpt><trkpt lat="44.62793332370094" lon="10.20233726407754"><ele>558.6666666666666</ele><time>2026-03-28T14:03:05.998Z</time></trkpt><trkpt lat="44.62785365968653" lon="10.202256696855583"><ele>557.0</ele><time>2026-03-28T14:03:07.998Z</time></trkpt><trkpt lat="44.62774078583255" lon="10.202168418188027"><ele>557.0</ele><time>2026-03-28T14:03:09.998Z</time></trkpt><trkpt lat="44.62767935590956" lon="10.20212289731368"><ele>557.0</ele><time>2026-03-28T14:03:10.998Z</time></trkpt><trkpt lat="44.627578473992116" lon="10.202061658147572"><ele>557.0</ele><time>2026-03-28T14:03:12.998Z</time></trkpt><trkpt lat="44.62748816556799" lon="10.201985876223127"><ele>557.0</ele><time>2026-03-28T14:03:14.998Z</time></trkpt><trkpt lat="44.62741000307473" lon="10.201861360951343"><ele>557.0</ele><time>2026-03-28T14:03:16.997Z</time></trkpt><trkpt lat="44.62737033753198" lon="10.201711647031644"><ele>557.0</ele><time>2026-03-28T14:03:19Z</time></trkpt><trkpt lat="44.62733659793343" lon="10.201549875589906"><ele>557.0</ele><time>2026-03-28T14:03:21Z</time></trkpt><trkpt lat="44.62731453057114" lon="10.201455985016679"><ele>557.0</ele><time>2026-03-28T14:03:22Z</time></trkpt><trkpt lat="44.627266186275264" lon="10.201307089625029"><ele>557.0</ele><time>2026-03-28T14:03:24Z</time></trkpt><trkpt lat="44.62723521528167" lon="10.201190911667474"><ele>557.0</ele><time>2026-03-28T14:03:26Z</time></trkpt><trkpt lat="44.62722355541965" lon="10.2010700149893"><ele>556.3333333333333</ele><time>2026-03-28T14:03:28Z</time></trkpt><trkpt lat="44.62722353462547" lon="10.200959032583711"><ele>555.6666666666666</ele><time>2026-03-28T14:03:30Z</time></trkpt><trkpt lat="44.62726214667325" lon="10.20084814044404"><ele>555.0</ele><time>2026-03-28T14:03:32Z</time></trkpt><trkpt lat="44.62730351651085" lon="10.200759682291986"><ele>554.3333333333334</ele><time>2026-03-28T14:03:34Z</time></trkpt><trkpt lat="44.627344135007554" lon="10.200628456113012"><ele>553.6666666666667</ele><time>2026-03-28T14:03:36Z</time></trkpt><trkpt lat="44.62740407289456" lon="10.20050903649562"><ele>553.0</ele><time>2026-03-28T14:03:38Z</time></trkpt><trkpt lat="44.62745495281971" lon="10.200370326795854"><ele>553.0</ele><time>2026-03-28T14:03:40Z</time></trkpt><trkpt lat="44.62749552120912" lon="10.200262797264006"><ele>553.0</ele><time>2026-03-28T14:03:42Z</time></trkpt><trkpt lat="44.62751827984851" lon="10.200146094777239"><ele>553.0</ele><time>2026-03-28T14:03:44Z</time></trkpt><trkpt lat="44.627530969368394" lon="10.199999974736166"><ele>553.0</ele><time>2026-03-28T14:03:46Z</time></trkpt><trkpt lat="44.62755747411451" lon="10.199869431085666"><ele>553.0</ele><time>2026-03-28T14:03:48Z</time></trkpt><trkpt lat="44.627567241906256" lon="10.199736472548976"><ele>553.5</ele><time>2026-03-28T14:03:50Z</time></trkpt><trkpt lat="44.62758449247315" lon="10.19957571633177"><ele>554.0</ele><time>2026-03-28T14:03:52Z</time></trkpt><trkpt lat="44.627611940923224" lon="10.199431356017701"><ele>554.5</ele><time>2026-03-28T14:03:54Z</time></trkpt><trkpt lat="44.62764788052096" lon="10.199319402684962"><ele>555.0</ele><time>2026-03-28T14:03:56Z</time></trkpt><trkpt lat="44.627679435511034" lon="10.199231521806817"><ele>555.5</ele><time>2026-03-28T14:03:57.999Z</time></trkpt><trkpt lat="44.627713938721726" lon="10.199151220324769"><ele>556.0</ele><time>2026-03-28T14:03:59.999Z</time></trkpt><trkpt lat="44.6277461157084" lon="10.199066163964323"><ele>556.5</ele><time>2026-03-28T14:04:01.999Z</time></trkpt><trkpt lat="44.627773076521414" lon="10.198980989666937"><ele>557.0</ele><time>2026-03-28T14:04:04.999Z</time></trkpt><trkpt lat="44.627786071637146" lon="10.198881073054586"><ele>557.5</ele><time>2026-03-28T14:04:44.998Z</time></trkpt><trkpt lat="44.6277615245912" lon="10.198749972950225"><ele>558.0</ele><time>2026-03-28T14:04:46.998Z</time></trkpt><trkpt lat="44.627731166856414" lon="10.198632431656407"><ele>558.5</ele><time>2026-03-28T14:04:48.998Z</time></trkpt><trkpt lat="44.627693436819364" lon="10.198489943591287"><ele>559.0</ele><time>2026-03-28T14:04:50.998Z</time></trkpt><trkpt lat="44.627661348758586" lon="10.198360806413207"><ele>559.0</ele><time>2026-03-28T14:04:52.998Z</time></trkpt><trkpt lat="44.62763879744854" lon="10.198240626529412"><ele>559.0</ele><time>2026-03-28T14:04:54.998Z</time></trkpt><trkpt lat="44.627655390330546" lon="10.198120126230927"><ele>559.0</ele><time>2026-03-28T14:04:56.998Z</time></trkpt><trkpt lat="44.62768857786776" lon="10.1979604185479"><ele>559.0</ele><time>2026-03-28T14:04:58.998Z</time></trkpt><trkpt lat="44.627722709823345" lon="10.197872726145897"><ele>559.0</ele><time>2026-03-28T14:04:59.998Z</time></trkpt><trkpt lat="44.6277667127617" lon="10.197734001828643"><ele>552.8</ele><time>2026-03-28T14:05:01.998Z</time></trkpt><trkpt lat="44.62784128375561" lon="10.197598001919953"><ele>546.5999999999999</ele><time>2026-03-28T14:05:03.998Z</time></trkpt><trkpt lat="44.62791774183106" lon="10.1974702769456"><ele>540.4</ele><time>2026-03-28T14:05:05.998Z</time></trkpt><trkpt lat="44.62796620565812" lon="10.197343097160989"><ele>534.1999999999999</ele><time>2026-03-28T14:05:07.998Z</time></trkpt><trkpt lat="44.62800588377442" lon="10.197256489532743"><ele>528.0</ele><time>2026-03-28T14:05:08.998Z</time></trkpt><trkpt lat="44.628022342513766" lon="10.197165375958438"><ele>527.6666666666666</ele><time>2026-03-28T14:05:09.998Z</time></trkpt><trkpt lat="44.62803259124748" lon="10.197071657302184"><ele>527.3333333333334</ele><time>2026-03-28T14:05:10.998Z</time></trkpt><trkpt lat="44.62804001899212" lon="10.19698228409366"><ele>527.0</ele><time>2026-03-28T14:05:11.998Z</time></trkpt><trkpt lat="44.62804749750052" lon="10.196885076072752"><ele>526.6666666666667</ele><time>2026-03-28T14:05:12.998Z</time></trkpt><trkpt lat="44.62804937702111" lon="10.19678650367438"><ele>526.3333333333334</ele><time>2026-03-28T14:05:13.998Z</time></trkpt><trkpt lat="44.628042125974446" lon="10.196695588718146"><ele>526.0</ele><time>2026-03-28T14:05:14.998Z</time></trkpt><trkpt lat="44.62799281451567" lon="10.196517081081039"><ele>524.8333333333334</ele><time>2026-03-28T14:05:16.998Z</time></trkpt><trkpt lat="44.62794831491794" lon="10.19641324446419"><ele>523.6666666666667</ele><time>2026-03-28T14:05:17.998Z</time></trkpt><trkpt lat="44.62790464594066" lon="10.196336727988808"><ele>522.5</ele><time>2026-03-28T14:05:18.998Z</time></trkpt><trkpt lat="44.6278563963942" lon="10.196257830097823"><ele>521.3333333333334</ele><time>2026-03-28T14:05:19.998Z</time></trkpt><trkpt lat="44.627816491217736" lon="10.196175222916922"><ele>520.1666666666666</ele><time>2026-03-28T14:05:20.998Z</time></trkpt><trkpt lat="44.62779313885114" lon="10.19609196281916"><ele>519.0</ele><time>2026-03-28T14:05:21.998Z</time></trkpt><trkpt lat="44.62776543836042" lon="10.195922334284244"><ele>525.5</ele><time>2026-03-28T14:05:24Z</time></trkpt><trkpt lat="44.6277395807284" lon="10.195780656125462"><ele>532.0</ele><time>2026-03-28T14:05:26Z</time></trkpt><trkpt lat="44.62774016021898" lon="10.195625205514812"><ele>538.5</ele><time>2026-03-28T14:05:28Z</time></trkpt><trkpt lat="44.627765565126616" lon="10.195456662372907"><ele>545.0</ele><time>2026-03-28T14:05:30Z</time></trkpt><trkpt lat="44.62780834427891" lon="10.195295620141271"><ele>541.8</ele><time>2026-03-28T14:05:32Z</time></trkpt><trkpt lat="44.62783691444905" lon="10.195212165392354"><ele>538.6</ele><time>2026-03-28T14:05:33Z</time></trkpt><trkpt lat="44.627891968541846" lon="10.195059310438868"><ele>535.4</ele><time>2026-03-28T14:05:35Z</time></trkpt><trkpt lat="44.627929374464955" lon="10.194932890172629"><ele>532.2</ele><time>2026-03-28T14:05:37Z</time></trkpt><trkpt lat="44.62795949103522" lon="10.194801890251018"><ele>529.0</ele><time>2026-03-28T14:05:39Z</time></trkpt><trkpt lat="44.62795140638286" lon="10.19464949487317"><ele>529.0</ele><time>2026-03-28T14:05:41Z</time></trkpt><trkpt lat="44.62794404981804" lon="10.194511357790175"><ele>529.0</ele><time>2026-03-28T14:05:43Z</time></trkpt><trkpt lat="44.62791895949456" lon="10.194393668904194"><ele>529.0</ele><time>2026-03-28T14:05:45Z</time></trkpt><trkpt lat="44.627936976026916" lon="10.194306758399003"><ele>529.0</ele><time>2026-03-28T14:05:47Z</time></trkpt><trkpt lat="44.62796565700775" lon="10.194219906709682"><ele>529.0</ele><time>2026-03-28T14:05:49Z</time></trkpt><trkpt lat="44.62798475518522" lon="10.194126752738123"><ele>529.0</ele><time>2026-03-28T14:05:51Z</time></trkpt><trkpt lat="44.627975216884266" lon="10.194038491268614"><ele>527.8</ele><time>2026-03-28T14:05:53Z</time></trkpt><trkpt lat="44.627985617803205" lon="10.193933057705527"><ele>526.5999999999999</ele><time>2026-03-28T14:05:55Z</time></trkpt><trkpt lat="44.628033209290614" lon="10.19377759864269"><ele>525.4</ele><time>2026-03-28T14:05:57Z</time></trkpt><trkpt lat="44.628066776002186" lon="10.193689256543445"><ele>524.1999999999999</ele><time>2026-03-28T14:05:58Z</time></trkpt><trkpt lat="44.628091481371264" lon="10.193604481099944"><ele>523.0</ele><time>2026-03-28T14:05:59Z</time></trkpt><trkpt lat="44.628136046925086" lon="10.19344315825366"><ele>523.0</ele><time>2026-03-28T14:06:01Z</time></trkpt><trkpt lat="44.628177407858004" lon="10.193290585094092"><ele>523.0</ele><time>2026-03-28T14:06:02.999Z</time></trkpt><trkpt lat="44.62821960529656" lon="10.193149332640052"><ele>523.0</ele><time>2026-03-28T14:06:04.999Z</time></trkpt><trkpt lat="44.628259699370574" lon="10.19302186206706"><ele>523.0</ele><time>2026-03-28T14:06:06.999Z</time></trkpt><trkpt lat="44.62830594265903" lon="10.192915484736995"><ele>523.0</ele><time>2026-03-28T14:06:08.999Z</time></trkpt><trkpt lat="44.628341684870364" lon="10.19282722351998"><ele>520.8333333333334</ele><time>2026-03-28T14:06:10.999Z</time></trkpt><trkpt lat="44.62845171389213" lon="10.192884536981643"><ele>518.6666666666667</ele><time>2026-03-28T14:06:13.999Z</time></trkpt><trkpt lat="44.62853620226438" lon="10.192928102432846"><ele>516.5</ele><time>2026-03-28T14:06:15.999Z</time></trkpt><trkpt lat="44.628636682619145" lon="10.192970193214054"><ele>514.3333333333334</ele><time>2026-03-28T14:06:17.999Z</time></trkpt><trkpt lat="44.62869849391874" lon="10.193003168108332"><ele>512.1666666666666</ele><time>2026-03-28T14:06:18.999Z</time></trkpt><trkpt lat="44.6287604177911" lon="10.19304071845397"><ele>510.0</ele><time>2026-03-28T14:06:19.999Z</time></trkpt><trkpt lat="44.628868318946864" lon="10.193127800804643"><ele>509.3333333333333</ele><time>2026-03-28T14:06:21.999Z</time></trkpt><trkpt lat="44.62891779284351" lon="10.193186422685054"><ele>508.66666666666663</ele><time>2026-03-28T14:06:22.999Z</time></trkpt><trkpt lat="44.628963774037935" lon="10.193253261500562"><ele>508.0</ele><time>2026-03-28T14:06:23.999Z</time></trkpt><trkpt lat="44.62900191624334" lon="10.19333732037911"><ele>507.3333333333333</ele><time>2026-03-28T14:06:24.999Z</time></trkpt><trkpt lat="44.62903452521234" lon="10.193430288485763"><ele>506.66666666666663</ele><time>2026-03-28T14:06:25.999Z</time></trkpt><trkpt lat="44.62905835674014" lon="10.19352084811456"><ele>506.0</ele><time>2026-03-28T14:06:26.999Z</time></trkpt><trkpt lat="44.62906381393609" lon="10.193692837293"><ele>506.00000000000006</ele><time>2026-03-28T14:06:28.999Z</time></trkpt><trkpt lat="44.629035822110765" lon="10.193777431092556"><ele>506.0</ele><time>2026-03-28T14:06:29.999Z</time></trkpt><trkpt lat="44.62902301083979" lon="10.193869811863008"><ele>506.00000000000006</ele><time>2026-03-28T14:06:30.999Z</time></trkpt><trkpt lat="44.6290248987527" lon="10.193962478389194"><ele>506.00000000000006</ele><time>2026-03-28T14:06:31.999Z</time></trkpt><trkpt lat="44.62901377688751" lon="10.194056110469374"><ele>506.0</ele><time>2026-03-28T14:06:32.999Z</time></trkpt><trkpt lat="44.628992912221946" lon="10.19415023405969"><ele>506.00000000000006</ele><time>2026-03-28T14:06:33.999Z</time></trkpt><trkpt lat="44.62899387251322" lon="10.19425192087775"><ele>506.00000000000006</ele><time>2026-03-28T14:06:34.999Z</time></trkpt><trkpt lat="44.62900060987778" lon="10.194352888962609"><ele>505.3333333333333</ele><time>2026-03-28T14:06:35.999Z</time></trkpt><trkpt lat="44.629011212591045" lon="10.194449887618052"><ele>504.66666666666663</ele><time>2026-03-28T14:06:36.999Z</time></trkpt><trkpt lat="44.62903988919202" lon="10.194539137096315"><ele>504.0</ele><time>2026-03-28T14:06:37.999Z</time></trkpt><trkpt lat="44.62905565802709" lon="10.194626694805029"><ele>503.33333333333337</ele><time>2026-03-28T14:06:38.999Z</time></trkpt><trkpt lat="44.62907982877358" lon="10.194708814100998"><ele>502.6666666666667</ele><time>2026-03-28T14:06:39.999Z</time></trkpt><trkpt lat="44.62914342079583" lon="10.194848710767818"><ele>502.0</ele><time>2026-03-28T14:06:41.999Z</time></trkpt><trkpt lat="44.629223659274864" lon="10.194970098826305"><ele>501.0</ele><time>2026-03-28T14:06:43.999Z</time></trkpt><trkpt lat="44.629291272623746" lon="10.195088199746785"><ele>500.00000000000006</ele><time>2026-03-28T14:06:45.998Z</time></trkpt><trkpt lat="44.6293519154464" lon="10.195189538292938"><ele>499.00000000000006</ele><time>2026-03-28T14:06:47.998Z</time></trkpt><trkpt lat="44.629407491560556" lon="10.195284721198803"><ele>498.0</ele><time>2026-03-28T14:06:49.998Z</time></trkpt><trkpt lat="44.62946564568119" lon="10.195377878438613"><ele>497.0</ele><time>2026-03-28T14:06:51.998Z</time></trkpt><trkpt lat="44.62953269467686" lon="10.195463097823525"><ele>494.0</ele><time>2026-03-28T14:06:53.998Z</time></trkpt><trkpt lat="44.62960271482398" lon="10.195527973527449"><ele>491.00000000000006</ele><time>2026-03-28T14:06:55.998Z</time></trkpt><trkpt lat="44.62968831473676" lon="10.195576333743265"><ele>488.00000000000006</ele><time>2026-03-28T14:06:58.998Z</time></trkpt><trkpt lat="44.62975771100061" lon="10.19555013717232"><ele>485.0</ele><time>2026-03-28T14:07:00.998Z</time></trkpt><trkpt lat="44.62978413707956" lon="10.195356899611614"><ele>482.0</ele><time>2026-03-28T14:07:03.998Z</time></trkpt><trkpt lat="44.629786708617736" lon="10.19522707121235"><ele>482.0</ele><time>2026-03-28T14:07:05.998Z</time></trkpt><trkpt lat="44.629830060308535" lon="10.1950947173677"><ele>482.00000000000006</ele><time>2026-03-28T14:07:07.998Z</time></trkpt><trkpt lat="44.629914033864985" lon="10.194945836626383"><ele>482.00000000000006</ele><time>2026-03-28T14:07:09.998Z</time></trkpt><trkpt lat="44.62996769946921" lon="10.194871500107073"><ele>482.0</ele><time>2026-03-28T14:07:10.998Z</time></trkpt><trkpt lat="44.63002647638547" lon="10.194799145291064"><ele>482.0</ele><time>2026-03-28T14:07:11.998Z</time></trkpt><trkpt lat="44.63008155449928" lon="10.194728683013789"><ele>481.49999999999994</ele><time>2026-03-28T14:07:12.998Z</time></trkpt><trkpt lat="44.63013516362385" lon="10.19465983929894"><ele>481.0</ele><time>2026-03-28T14:07:13.998Z</time></trkpt><trkpt lat="44.63018988586756" lon="10.194593234340969"><ele>480.5</ele><time>2026-03-28T14:07:14.998Z</time></trkpt><trkpt lat="44.63023044674719" lon="10.194510980039784"><ele>480.0</ele><time>2026-03-28T14:07:15.998Z</time></trkpt><trkpt lat="44.63028891743166" lon="10.194437081983402"><ele>479.49999999999994</ele><time>2026-03-28T14:07:16.998Z</time></trkpt><trkpt lat="44.630329299990095" lon="10.194334383200063"><ele>479.0</ele><time>2026-03-28T14:07:17.998Z</time></trkpt><trkpt lat="44.6303562494806" lon="10.194234875885703"><ele>477.3333333333333</ele><time>2026-03-28T14:07:18.998Z</time></trkpt><trkpt lat="44.6303577851945" lon="10.194117866256407"><ele>475.66666666666663</ele><time>2026-03-28T14:07:19.998Z</time></trkpt><trkpt lat="44.630382573381624" lon="10.194009656531"><ele>474.0</ele><time>2026-03-28T14:07:20.998Z</time></trkpt><trkpt lat="44.63036672704973" lon="10.193890159565177"><ele>472.33333333333337</ele><time>2026-03-28T14:07:21.998Z</time></trkpt><trkpt lat="44.630364390688754" lon="10.193773110122791"><ele>470.6666666666667</ele><time>2026-03-28T14:07:22.998Z</time></trkpt><trkpt lat="44.6303672278658" lon="10.19365066452046"><ele>469.0</ele><time>2026-03-28T14:07:23.998Z</time></trkpt><trkpt lat="44.63036312917075" lon="10.193542494131046"><ele>468.83333333333337</ele><time>2026-03-28T14:07:24.998Z</time></trkpt><trkpt lat="44.63035980432879" lon="10.193450927254162"><ele>468.6666666666667</ele><time>2026-03-28T14:07:25.998Z</time></trkpt><trkpt lat="44.63035975586295" lon="10.193355192163006"><ele>468.5</ele><time>2026-03-28T14:07:26.998Z</time></trkpt><trkpt lat="44.6303623007749" lon="10.193252029492745"><ele>468.33333333333337</ele><time>2026-03-28T14:07:27.998Z</time></trkpt><trkpt lat="44.63036370257207" lon="10.193143523791557"><ele>468.1666666666667</ele><time>2026-03-28T14:07:28.997Z</time></trkpt><trkpt lat="44.630368559138795" lon="10.19305200375611"><ele>468.0</ele><time>2026-03-28T14:07:30Z</time></trkpt><trkpt lat="44.63037549253711" lon="10.192875031895833"><ele>467.59999999999997</ele><time>2026-03-28T14:07:32Z</time></trkpt><trkpt lat="44.630379786288366" lon="10.192779535652862"><ele>467.19999999999993</ele><time>2026-03-28T14:07:33Z</time></trkpt><trkpt lat="44.63040329943083" lon="10.192625989172177"><ele>466.8</ele><time>2026-03-28T14:07:35Z</time></trkpt><trkpt lat="44.630461192598965" lon="10.192514370348535"><ele>466.4</ele><time>2026-03-28T14:07:37Z</time></trkpt><trkpt lat="44.630509148858735" lon="10.192407389880845"><ele>466.0</ele><time>2026-03-28T14:07:39Z</time></trkpt><trkpt lat="44.63055849482052" lon="10.192313084954424"><ele>466.0</ele><time>2026-03-28T14:07:41Z</time></trkpt><trkpt lat="44.63062940001408" lon="10.192227958441192"><ele>466.0</ele><time>2026-03-28T14:07:43Z</time></trkpt><trkpt lat="44.63070747621748" lon="10.19210206000765"><ele>466.0</ele><time>2026-03-28T14:07:45Z</time></trkpt><trkpt lat="44.63075070444386" lon="10.192036521671602"><ele>466.0</ele><time>2026-03-28T14:07:46Z</time></trkpt><trkpt lat="44.6308279871171" lon="10.191916046516738"><ele>466.0</ele><time>2026-03-28T14:07:48Z</time></trkpt><trkpt lat="44.63089939427742" lon="10.191825722291576"><ele>466.0</ele><time>2026-03-28T14:07:50Z</time></trkpt><trkpt lat="44.63095572648984" lon="10.191716943407826"><ele>466.0</ele><time>2026-03-28T14:07:52Z</time></trkpt><trkpt lat="44.63102481083381" lon="10.191558443745585"><ele>466.0</ele><time>2026-03-28T14:07:54Z</time></trkpt><trkpt lat="44.63105376748118" lon="10.191479768622411"><ele>466.0</ele><time>2026-03-28T14:07:55Z</time></trkpt><trkpt lat="44.63110716363461" lon="10.191329784165195"><ele>466.0</ele><time>2026-03-28T14:07:57Z</time></trkpt><trkpt lat="44.631157984693154" lon="10.19121131722306"><ele>464.33333333333337</ele><time>2026-03-28T14:07:59Z</time></trkpt><trkpt lat="44.631193828383054" lon="10.191112120967015"><ele>462.6666666666667</ele><time>2026-03-28T14:08:01Z</time></trkpt><trkpt lat="44.63122839678731" lon="10.191010940078753"><ele>461.0</ele><time>2026-03-28T14:08:03Z</time></trkpt><trkpt lat="44.631276419712485" lon="10.190884938886708"><ele>459.33333333333337</ele><time>2026-03-28T14:08:05Z</time></trkpt><trkpt lat="44.6313412686662" lon="10.190737547107979"><ele>457.6666666666667</ele><time>2026-03-28T14:08:07Z</time></trkpt><trkpt lat="44.63138070174874" lon="10.190665305281414"><ele>456.0</ele><time>2026-03-28T14:08:08Z</time></trkpt><trkpt lat="44.63145701706233" lon="10.190526701279675"><ele>456.0</ele><time>2026-03-28T14:08:10Z</time></trkpt><trkpt lat="44.63152864410512" lon="10.1904121688903"><ele>456.0</ele><time>2026-03-28T14:08:11.999Z</time></trkpt><trkpt lat="44.63161518323774" lon="10.190318860755847"><ele>456.0</ele><time>2026-03-28T14:08:13.999Z</time></trkpt><trkpt lat="44.631724225611336" lon="10.19021227078522"><ele>456.0</ele><time>2026-03-28T14:08:15.999Z</time></trkpt><trkpt lat="44.63177743051276" lon="10.190147972187651"><ele>456.0</ele><time>2026-03-28T14:08:16.999Z</time></trkpt><trkpt lat="44.63182625508846" lon="10.190087634073091"><ele>456.0</ele><time>2026-03-28T14:08:17.999Z</time></trkpt><trkpt lat="44.63187357321108" lon="10.190025195660189"><ele>456.0</ele><time>2026-03-28T14:08:18.999Z</time></trkpt><trkpt lat="44.63194284042408" lon="10.189901018311724"><ele>456.0</ele><time>2026-03-28T14:08:20.999Z</time></trkpt><trkpt lat="44.63202012765481" lon="10.189798242104752"><ele>456.0</ele><time>2026-03-28T14:08:22.999Z</time></trkpt><trkpt lat="44.63207254707855" lon="10.189716397483773"><ele>456.0</ele><time>2026-03-28T14:08:24.999Z</time></trkpt><trkpt lat="44.63211078656784" lon="10.189611716849175"><ele>456.0</ele><time>2026-03-28T14:08:26.999Z</time></trkpt><trkpt lat="44.63213749144829" lon="10.1894821453114"><ele>454.4</ele><time>2026-03-28T14:08:28.999Z</time></trkpt><trkpt lat="44.632161569896034" lon="10.189309505300608"><ele>452.8</ele><time>2026-03-28T14:08:30.999Z</time></trkpt><trkpt lat="44.632157686113324" lon="10.189220117679692"><ele>451.19999999999993</ele><time>2026-03-28T14:08:31.999Z</time></trkpt><trkpt lat="44.632141667204735" lon="10.189044833352446"><ele>449.59999999999997</ele><time>2026-03-28T14:08:33.999Z</time></trkpt><trkpt lat="44.63212886653656" lon="10.188945721345695"><ele>448.0</ele><time>2026-03-28T14:08:34.999Z</time></trkpt><trkpt lat="44.6321115497856" lon="10.188848679111288"><ele>448.0</ele><time>2026-03-28T14:08:35.999Z</time></trkpt><trkpt lat="44.632087789397936" lon="10.188749054611165"><ele>448.0</ele><time>2026-03-28T14:08:36.999Z</time></trkpt><trkpt lat="44.6320494209399" lon="10.188600858806847"><ele>448.0</ele><time>2026-03-28T14:08:38.999Z</time></trkpt><trkpt lat="44.632026276144416" lon="10.18851721880814"><ele>448.0</ele><time>2026-03-28T14:08:39.999Z</time></trkpt><trkpt lat="44.63200462895001" lon="10.188432490365713"><ele>448.0</ele><time>2026-03-28T14:08:40.999Z</time></trkpt><trkpt lat="44.63198556739328" lon="10.188347211434865"><ele>448.0</ele><time>2026-03-28T14:08:41.999Z</time></trkpt><trkpt lat="44.631968850560575" lon="10.18825485069609"><ele>448.0</ele><time>2026-03-28T14:08:42.999Z</time></trkpt><trkpt lat="44.63195475425328" lon="10.188162251063172"><ele>449.1428571428571</ele><time>2026-03-28T14:08:43.999Z</time></trkpt><trkpt lat="44.63194704993919" lon="10.188071970991286"><ele>450.2857142857143</ele><time>2026-03-28T14:08:44.999Z</time></trkpt><trkpt lat="44.631946634077366" lon="10.187981996078248"><ele>451.42857142857144</ele><time>2026-03-28T14:08:45.999Z</time></trkpt><trkpt lat="44.63193786315983" lon="10.187889329323106"><ele>452.57142857142856</ele><time>2026-03-28T14:08:46.999Z</time></trkpt><trkpt lat="44.63196426436935" lon="10.18780278600111"><ele>453.71428571428567</ele><time>2026-03-28T14:08:47.999Z</time></trkpt><trkpt lat="44.631983399572704" lon="10.187707777550765"><ele>454.85714285714283</ele><time>2026-03-28T14:08:48.999Z</time></trkpt><trkpt lat="44.6320044069515" lon="10.187614671040382"><ele>456.0</ele><time>2026-03-28T14:08:49.999Z</time></trkpt><trkpt lat="44.632017913516734" lon="10.18752464496229"><ele>456.0</ele><time>2026-03-28T14:08:50.999Z</time></trkpt><trkpt lat="44.63211599739653" lon="10.1874147465533"><ele>456.0</ele><time>2026-03-28T14:08:52.999Z</time></trkpt><trkpt lat="44.63215371706706" lon="10.187335774804843"><ele>456.0</ele><time>2026-03-28T14:08:53.998Z</time></trkpt><trkpt lat="44.632245329694456" lon="10.187215423927723"><ele>456.0</ele><time>2026-03-28T14:08:55.998Z</time></trkpt><trkpt lat="44.63234543053389" lon="10.187127103579344"><ele>456.0</ele><time>2026-03-28T14:08:57.998Z</time></trkpt><trkpt lat="44.63244505474811" lon="10.187043436103531"><ele>455.6</ele><time>2026-03-28T14:08:59.998Z</time></trkpt><trkpt lat="44.63249638234327" lon="10.186988075057643"><ele>455.20000000000005</ele><time>2026-03-28T14:09:00.998Z</time></trkpt><trkpt lat="44.63256372586734" lon="10.186983970304967"><ele>454.79999999999995</ele><time>2026-03-28T14:09:01.998Z</time></trkpt><trkpt lat="44.63268287920841" lon="10.18695799114349"><ele>454.4</ele><time>2026-03-28T14:09:03.998Z</time></trkpt><trkpt lat="44.6327934180061" lon="10.186986790064186"><ele>454.0</ele><time>2026-03-28T14:09:05.998Z</time></trkpt><trkpt lat="44.63288274986284" lon="10.186979558904648"><ele>454.0</ele><time>2026-03-28T14:09:07.998Z</time></trkpt><trkpt lat="44.63294636794876" lon="10.186875244187805"><ele>454.0</ele><time>2026-03-28T14:09:09.998Z</time></trkpt><trkpt lat="44.63296728739475" lon="10.186739434422295"><ele>454.0</ele><time>2026-03-28T14:09:11.998Z</time></trkpt><trkpt lat="44.632931021697324" lon="10.186600520780061"><ele>454.0</ele><time>2026-03-28T14:09:13.998Z</time></trkpt><trkpt lat="44.63290682437739" lon="10.186491388178124"><ele>454.0</ele><time>2026-03-28T14:09:15.998Z</time></trkpt><trkpt lat="44.63290098246796" lon="10.18639018018721"><ele>453.6</ele><time>2026-03-28T14:09:17.998Z</time></trkpt><trkpt lat="44.632877721657614" lon="10.186266437610799"><ele>453.2</ele><time>2026-03-28T14:09:19.998Z</time></trkpt><trkpt lat="44.63286091708686" lon="10.186110974558646"><ele>452.80000000000007</ele><time>2026-03-28T14:09:21.998Z</time></trkpt><trkpt lat="44.63285119745745" lon="10.185971147369338"><ele>452.40000000000003</ele><time>2026-03-28T14:09:23.998Z</time></trkpt><trkpt lat="44.63284193478111" lon="10.185816712982417"><ele>452.0</ele><time>2026-03-28T14:09:25.998Z</time></trkpt><trkpt lat="44.632834655988965" lon="10.185719917831817"><ele>451.20000000000005</ele><time>2026-03-28T14:09:26.998Z</time></trkpt><trkpt lat="44.63283435292284" lon="10.185556284687797"><ele>450.40000000000003</ele><time>2026-03-28T14:09:28.998Z</time></trkpt><trkpt lat="44.63282300059285" lon="10.185379680748602"><ele>449.59999999999997</ele><time>2026-03-28T14:09:30.998Z</time></trkpt><trkpt lat="44.63282990707217" lon="10.185278489864496"><ele>448.79999999999995</ele><time>2026-03-28T14:09:31.998Z</time></trkpt><trkpt lat="44.63283307829807" lon="10.185172228809817"><ele>448.0</ele><time>2026-03-28T14:09:32.998Z</time></trkpt><trkpt lat="44.63283688859356" lon="10.185078147132987"><ele>448.0</ele><time>2026-03-28T14:09:33.998Z</time></trkpt><trkpt lat="44.632841160156936" lon="10.18498411875496"><ele>448.0</ele><time>2026-03-28T14:09:35Z</time></trkpt><trkpt lat="44.63284412628367" lon="10.184892918509595"><ele>448.0</ele><time>2026-03-28T14:09:36Z</time></trkpt><trkpt lat="44.63284756123584" lon="10.18480073419326"><ele>448.0</ele><time>2026-03-28T14:09:37Z</time></trkpt><trkpt lat="44.632842526430686" lon="10.184709528563468"><ele>448.0</ele><time>2026-03-28T14:09:38Z</time></trkpt><trkpt lat="44.632854670801" lon="10.184610772291169"><ele>448.0</ele><time>2026-03-28T14:09:39Z</time></trkpt><trkpt lat="44.63285507415458" lon="10.18451013557753"><ele>448.0</ele><time>2026-03-28T14:09:40Z</time></trkpt><trkpt lat="44.63285412691576" lon="10.184421519934276"><ele>447.2</ele><time>2026-03-28T14:09:41Z</time></trkpt><trkpt lat="44.63284594536668" lon="10.18426123327902"><ele>446.4</ele><time>2026-03-28T14:09:43Z</time></trkpt><trkpt lat="44.63283618648275" lon="10.18412800356494"><ele>445.59999999999997</ele><time>2026-03-28T14:09:45Z</time></trkpt><trkpt lat="44.632828803828026" lon="10.183989107557185"><ele>444.79999999999995</ele><time>2026-03-28T14:09:47Z</time></trkpt><trkpt lat="44.632827546786515" lon="10.183900126432917"><ele>444.0</ele><time>2026-03-28T14:09:48Z</time></trkpt><trkpt lat="44.63285638192474" lon="10.183749107967005"><ele>444.0</ele><time>2026-03-28T14:09:50Z</time></trkpt><trkpt lat="44.632890009860574" lon="10.183614568704298"><ele>444.0</ele><time>2026-03-28T14:09:52Z</time></trkpt><trkpt lat="44.63295346478502" lon="10.183513398512186"><ele>444.0</ele><time>2026-03-28T14:09:54Z</time></trkpt><trkpt lat="44.63299100951744" lon="10.18338973328418"><ele>444.0</ele><time>2026-03-28T14:09:56Z</time></trkpt><trkpt lat="44.63300918983591" lon="10.183267565558532"><ele>444.0</ele><time>2026-03-28T14:09:58Z</time></trkpt><trkpt lat="44.63302608491592" lon="10.183131962243344"><ele>444.6</ele><time>2026-03-28T14:10:00Z</time></trkpt><trkpt lat="44.63303951433503" lon="10.18304499296736"><ele>445.2</ele><time>2026-03-28T14:10:01Z</time></trkpt><trkpt lat="44.63308217020795" lon="10.182882322877173"><ele>445.80000000000007</ele><time>2026-03-28T14:10:03Z</time></trkpt><trkpt lat="44.633127516201256" lon="10.182737907732026"><ele>446.40000000000003</ele><time>2026-03-28T14:10:05Z</time></trkpt><trkpt lat="44.63319402022877" lon="10.182627753378869"><ele>447.0</ele><time>2026-03-28T14:10:07Z</time></trkpt><trkpt lat="44.63324597904141" lon="10.182530857696062"><ele>447.0</ele><time>2026-03-28T14:10:09Z</time></trkpt><trkpt lat="44.633302918393134" lon="10.182418016917662"><ele>447.0</ele><time>2026-03-28T14:10:11Z</time></trkpt><trkpt lat="44.63333641499726" lon="10.18229864208469"><ele>447.0</ele><time>2026-03-28T14:10:13Z</time></trkpt><trkpt lat="44.633360369609356" lon="10.182188805152286"><ele>447.0</ele><time>2026-03-28T14:10:15Z</time></trkpt><trkpt lat="44.6333797836672" lon="10.182093332589032"><ele>447.0</ele><time>2026-03-28T14:10:17Z</time></trkpt><trkpt lat="44.63339045749546" lon="10.181978947210583"><ele>447.0</ele><time>2026-03-28T14:10:20Z</time></trkpt><trkpt lat="44.633430960768905" lon="10.18188853643182"><ele>446.0</ele><time>2026-03-28T14:10:34.999Z</time></trkpt><trkpt lat="44.63342457466356" lon="10.181761649750774"><ele>445.00000000000006</ele><time>2026-03-28T14:10:38.999Z</time></trkpt><trkpt lat="44.63340842483602" lon="10.181668353894674"><ele>444.00000000000006</ele><time>2026-03-28T14:10:40.999Z</time></trkpt><trkpt lat="44.63338180354157" lon="10.1815718472915"><ele>443.0</ele><time>2026-03-28T14:10:42.999Z</time></trkpt><trkpt lat="44.63332897949059" lon="10.181426755340242"><ele>442.0</ele><time>2026-03-28T14:10:44.999Z</time></trkpt><trkpt lat="44.633280341017205" lon="10.181298553714448"><ele>439.83333333333337</ele><time>2026-03-28T14:10:46.999Z</time></trkpt><trkpt lat="44.63323472763835" lon="10.181165475266122"><ele>437.6666666666667</ele><time>2026-03-28T14:10:48.999Z</time></trkpt><trkpt lat="44.63318703902375" lon="10.181008931196587"><ele>435.5</ele><time>2026-03-28T14:10:50.999Z</time></trkpt><trkpt lat="44.63317505551997" lon="10.180913093374837"><ele>433.33333333333337</ele><time>2026-03-28T14:10:51.999Z</time></trkpt><trkpt lat="44.633164900720026" lon="10.180811978866364"><ele>431.1666666666667</ele><time>2026-03-28T14:10:52.999Z</time></trkpt><trkpt lat="44.63315571052447" lon="10.180713414630764"><ele>429.0</ele><time>2026-03-28T14:10:53.999Z</time></trkpt><trkpt lat="44.63314779847544" lon="10.180620779398522"><ele>428.14285714285717</ele><time>2026-03-28T14:10:54.999Z</time></trkpt><trkpt lat="44.63313477611073" lon="10.180532914141839"><ele>427.28571428571433</ele><time>2026-03-28T14:10:55.999Z</time></trkpt><trkpt lat="44.63312310023691" lon="10.180437985561156"><ele>426.42857142857144</ele><time>2026-03-28T14:10:56.999Z</time></trkpt><trkpt lat="44.63311649359592" lon="10.180338219136077"><ele>425.57142857142856</ele><time>2026-03-28T14:10:57.999Z</time></trkpt><trkpt lat="44.63311126892424" lon="10.180238470677601"><ele>424.7142857142857</ele><time>2026-03-28T14:10:58.999Z</time></trkpt><trkpt lat="44.633106919034624" lon="10.180135657892041"><ele>423.85714285714283</ele><time>2026-03-28T14:10:59.999Z</time></trkpt><trkpt lat="44.63310835947298" lon="10.180029571511245"><ele>423.0</ele><time>2026-03-28T14:11:00.999Z</time></trkpt><trkpt lat="44.63311615108452" lon="10.17991344748703"><ele>421.8333333333333</ele><time>2026-03-28T14:11:01.999Z</time></trkpt><trkpt lat="44.63312524483009" lon="10.179793976425538"><ele>420.66666666666663</ele><time>2026-03-28T14:11:02.999Z</time></trkpt><trkpt lat="44.6331381376494" lon="10.17967032702479"><ele>419.5</ele><time>2026-03-28T14:11:03.998Z</time></trkpt><trkpt lat="44.633126886011596" lon="10.179541557154645"><ele>418.3333333333333</ele><time>2026-03-28T14:11:04.998Z</time></trkpt><trkpt lat="44.63311803354892" lon="10.179419417825617"><ele>417.16666666666663</ele><time>2026-03-28T14:11:05.998Z</time></trkpt><trkpt lat="44.63311697289574" lon="10.179293333730225"><ele>416.0</ele><time>2026-03-28T14:11:06.998Z</time></trkpt><trkpt lat="44.633090305461714" lon="10.179167726313857"><ele>415.99999999999994</ele><time>2026-03-28T14:11:07.998Z</time></trkpt><trkpt lat="44.633043171625616" lon="10.179049114385734"><ele>416.0</ele><time>2026-03-28T14:11:08.998Z</time></trkpt><trkpt lat="44.63302275257085" lon="10.178913969597748"><ele>416.0</ele><time>2026-03-28T14:11:09.998Z</time></trkpt><trkpt lat="44.63299134303028" lon="10.178803127968433"><ele>416.0</ele><time>2026-03-28T14:11:10.998Z</time></trkpt><trkpt lat="44.63295622594057" lon="10.178706268395846"><ele>415.99999999999994</ele><time>2026-03-28T14:11:11.998Z</time></trkpt><trkpt lat="44.63291078593373" lon="10.178635253110768"><ele>416.0</ele><time>2026-03-28T14:11:12.998Z</time></trkpt><trkpt lat="44.63284363498876" lon="10.178488253308622"><ele>415.7142857142857</ele><time>2026-03-28T14:11:14.998Z</time></trkpt><trkpt lat="44.63281187985069" lon="10.178393600566658"><ele>415.42857142857144</ele><time>2026-03-28T14:11:15.998Z</time></trkpt><trkpt lat="44.63276314648447" lon="10.178308720876982"><ele>415.14285714285717</ele><time>2026-03-28T14:11:16.998Z</time></trkpt><trkpt lat="44.63271946323243" lon="10.178236191644823"><ele>414.8571428571429</ele><time>2026-03-28T14:11:17.998Z</time></trkpt><trkpt lat="44.63267735197847" lon="10.178168717138513"><ele>414.57142857142856</ele><time>2026-03-28T14:11:18.998Z</time></trkpt><trkpt lat="44.632634650705974" lon="10.178102707245902"><ele>414.28571428571433</ele><time>2026-03-28T14:11:19.998Z</time></trkpt><trkpt lat="44.632570205742965" lon="10.17801509812015"><ele>414.0</ele><time>2026-03-28T14:11:21.998Z</time></trkpt><trkpt lat="44.6325058968707" lon="10.177934086624601"><ele>414.0</ele><time>2026-03-28T14:11:23.998Z</time></trkpt><trkpt lat="44.632399703587986" lon="10.17785730167373"><ele>414.0</ele><time>2026-03-28T14:11:25.998Z</time></trkpt><trkpt lat="44.632328287073" lon="10.177833528681278"><ele>414.0</ele><time>2026-03-28T14:11:26.998Z</time></trkpt><trkpt lat="44.632257474588826" lon="10.17782786373041"><ele>414.0</ele><time>2026-03-28T14:11:27.998Z</time></trkpt><trkpt lat="44.63217880996701" lon="10.177831668948992"><ele>414.0</ele><time>2026-03-28T14:11:28.998Z</time></trkpt><trkpt lat="44.63209692505742" lon="10.177862586335403"><ele>414.0</ele><time>2026-03-28T14:11:29.998Z</time></trkpt><trkpt lat="44.63202587841656" lon="10.177921233230776"><ele>413.8333333333333</ele><time>2026-03-28T14:11:30.998Z</time></trkpt><trkpt lat="44.63194993512511" lon="10.177932811663888"><ele>413.66666666666663</ele><time>2026-03-28T14:11:31.998Z</time></trkpt><trkpt lat="44.63188329187773" lon="10.177958520410442"><ele>413.5</ele><time>2026-03-28T14:11:32.998Z</time></trkpt><trkpt lat="44.63181888710284" lon="10.177978079672277"><ele>413.3333333333333</ele><time>2026-03-28T14:11:33.998Z</time></trkpt><trkpt lat="44.6317091921112" lon="10.177980486709147"><ele>413.16666666666663</ele><time>2026-03-28T14:11:35.998Z</time></trkpt><trkpt lat="44.63162537305829" lon="10.177978773707506"><ele>413.0</ele><time>2026-03-28T14:11:37.998Z</time></trkpt><trkpt lat="44.63155625660652" lon="10.177913650144337"><ele>412.99999999999994</ele><time>2026-03-28T14:12:08Z</time></trkpt><trkpt lat="44.63146309814437" lon="10.177798598572991"><ele>413.0</ele><time>2026-03-28T14:12:10Z</time></trkpt><trkpt lat="44.63141228215473" lon="10.17772453687573"><ele>413.0</ele><time>2026-03-28T14:12:11Z</time></trkpt><trkpt lat="44.631355232854" lon="10.17765717956413"><ele>413.0</ele><time>2026-03-28T14:12:12Z</time></trkpt><trkpt lat="44.63129819657502" lon="10.177605482602045"><ele>412.99999999999994</ele><time>2026-03-28T14:12:13Z</time></trkpt><trkpt lat="44.631218241973215" lon="10.177568903137214"><ele>413.0</ele><time>2026-03-28T14:12:14Z</time></trkpt><trkpt lat="44.63112870647655" lon="10.177552830951091"><ele>412.3333333333333</ele><time>2026-03-28T14:12:15Z</time></trkpt><trkpt lat="44.63104100137258" lon="10.177556303040319"><ele>411.66666666666663</ele><time>2026-03-28T14:12:16Z</time></trkpt><trkpt lat="44.63096023403306" lon="10.177522312072433"><ele>411.0</ele><time>2026-03-28T14:12:17Z</time></trkpt><trkpt lat="44.63088919949953" lon="10.177468882935726"><ele>410.33333333333337</ele><time>2026-03-28T14:12:18Z</time></trkpt><trkpt lat="44.63083678574553" lon="10.177389906031753"><ele>409.6666666666667</ele><time>2026-03-28T14:12:19Z</time></trkpt><trkpt lat="44.630818288397265" lon="10.177277123841328"><ele>409.0</ele><time>2026-03-28T14:12:20Z</time></trkpt><trkpt lat="44.63078299287294" lon="10.177163351691627"><ele>409.0</ele><time>2026-03-28T14:12:21Z</time></trkpt><trkpt lat="44.63074789331803" lon="10.177040504501669"><ele>409.0</ele><time>2026-03-28T14:12:22Z</time></trkpt><trkpt lat="44.63071297139324" lon="10.176916632339088"><ele>409.0</ele><time>2026-03-28T14:12:23Z</time></trkpt><trkpt lat="44.63067680205064" lon="10.176795135906842"><ele>409.0</ele><time>2026-03-28T14:12:24Z</time></trkpt><trkpt lat="44.630637174606605" lon="10.176676740922145"><ele>409.0</ele><time>2026-03-28T14:12:25Z</time></trkpt><trkpt lat="44.63058202314326" lon="10.176574191082093"><ele>408.50000000000006</ele><time>2026-03-28T14:12:26Z</time></trkpt><trkpt lat="44.63053919535758" lon="10.17647702803177"><ele>408.0</ele><time>2026-03-28T14:12:27Z</time></trkpt><trkpt lat="44.63050901778144" lon="10.176377498516823"><ele>407.5</ele><time>2026-03-28T14:12:28Z</time></trkpt><trkpt lat="44.63045976540974" lon="10.176294510109829"><ele>407.0</ele><time>2026-03-28T14:12:29Z</time></trkpt><trkpt lat="44.63039610653772" lon="10.176215655967097"><ele>406.50000000000006</ele><time>2026-03-28T14:12:30Z</time></trkpt><trkpt lat="44.63034183912035" lon="10.176153891955007"><ele>406.0</ele><time>2026-03-28T14:12:31Z</time></trkpt><trkpt lat="44.63029163551905" lon="10.176096751822266"><ele>406.00000000000006</ele><time>2026-03-28T14:12:31.999Z</time></trkpt><trkpt lat="44.6302285832966" lon="10.176044266170624"><ele>406.0</ele><time>2026-03-28T14:12:32.999Z</time></trkpt><trkpt lat="44.630138553746946" lon="10.176038086095899"><ele>406.0</ele><time>2026-03-28T14:12:33.999Z</time></trkpt><trkpt lat="44.63006207328926" lon="10.175994589504663"><ele>406.0</ele><time>2026-03-28T14:12:34.999Z</time></trkpt><trkpt lat="44.629990205324866" lon="10.175955176986681"><ele>406.00000000000006</ele><time>2026-03-28T14:12:35.999Z</time></trkpt><trkpt lat="44.62992454635277" lon="10.175927712652175"><ele>406.0</ele><time>2026-03-28T14:12:36.999Z</time></trkpt><trkpt lat="44.629867455681925" lon="10.175860027353552"><ele>406.00000000000006</ele><time>2026-03-28T14:12:37.999Z</time></trkpt><trkpt lat="44.6297996589457" lon="10.175857904617644"><ele>406.0</ele><time>2026-03-28T14:12:38.999Z</time></trkpt><trkpt lat="44.62971644444283" lon="10.175875018113366"><ele>406.0</ele><time>2026-03-28T14:12:39.999Z</time></trkpt><trkpt lat="44.62962796738146" lon="10.175939486324841"><ele>406.0</ele><time>2026-03-28T14:12:40.999Z</time></trkpt><trkpt lat="44.62954488698939" lon="10.176010123778273"><ele>406.00000000000006</ele><time>2026-03-28T14:12:41.999Z</time></trkpt><trkpt lat="44.62947536925092" lon="10.17609272307591"><ele>406.0</ele><time>2026-03-28T14:12:42.999Z</time></trkpt><trkpt lat="44.62939857398671" lon="10.17614248435426"><ele>403.83333333333337</ele><time>2026-03-28T14:12:43.999Z</time></trkpt><trkpt lat="44.629325049348736" lon="10.176185928813332"><ele>401.6666666666667</ele><time>2026-03-28T14:12:44.999Z</time></trkpt><trkpt lat="44.6292521734728" lon="10.17621776239384"><ele>399.5</ele><time>2026-03-28T14:12:45.999Z</time></trkpt><trkpt lat="44.62917989251183" lon="10.176230811408503"><ele>397.33333333333337</ele><time>2026-03-28T14:12:46.999Z</time></trkpt><trkpt lat="44.6291132468008" lon="10.176201042611813"><ele>395.1666666666667</ele><time>2026-03-28T14:12:47.999Z</time></trkpt><trkpt lat="44.628992160367964" lon="10.176191556222133"><ele>393.0</ele><time>2026-03-28T14:12:49.999Z</time></trkpt><trkpt lat="44.628885550375216" lon="10.17615641580145"><ele>393.0</ele><time>2026-03-28T14:12:51.999Z</time></trkpt><trkpt lat="44.628777502639586" lon="10.176164062597623"><ele>393.0</ele><time>2026-03-28T14:12:53.999Z</time></trkpt><trkpt lat="44.62866664765158" lon="10.176216261007001"><ele>393.0</ele><time>2026-03-28T14:12:55.999Z</time></trkpt><trkpt lat="44.62861184905766" lon="10.176272543392967"><ele>393.0</ele><time>2026-03-28T14:12:56.999Z</time></trkpt><trkpt lat="44.62856273620204" lon="10.176344458135715"><ele>393.0</ele><time>2026-03-28T14:12:57.999Z</time></trkpt><trkpt lat="44.628514562919506" lon="10.176414158018956"><ele>393.0</ele><time>2026-03-28T14:12:58.999Z</time></trkpt><trkpt lat="44.62847506941147" lon="10.176495703947532"><ele>393.1666666666667</ele><time>2026-03-28T14:12:59.999Z</time></trkpt><trkpt lat="44.62842577317494" lon="10.176561598648217"><ele>393.33333333333337</ele><time>2026-03-28T14:13:00.999Z</time></trkpt><trkpt lat="44.6283801589547" lon="10.176627140265404"><ele>393.5</ele><time>2026-03-28T14:13:01.999Z</time></trkpt><trkpt lat="44.6283350916147" lon="10.176695088542719"><ele>393.6666666666667</ele><time>2026-03-28T14:13:02.999Z</time></trkpt><trkpt lat="44.6282782086907" lon="10.176735866079014"><ele>393.83333333333337</ele><time>2026-03-28T14:13:03.999Z</time></trkpt><trkpt lat="44.62823272740976" lon="10.176797413282639"><ele>394.0</ele><time>2026-03-28T14:13:04.999Z</time></trkpt><trkpt lat="44.62810684577588" lon="10.176814590519871"><ele>394.00000000000006</ele><time>2026-03-28T14:13:06.999Z</time></trkpt><trkpt lat="44.62803759007581" lon="10.17676695418705"><ele>394.0</ele><time>2026-03-28T14:13:07.999Z</time></trkpt><trkpt lat="44.62796388482871" lon="10.176722256952136"><ele>394.0</ele><time>2026-03-28T14:13:08.999Z</time></trkpt><trkpt lat="44.62790355356431" lon="10.17667392335565"><ele>394.0</ele><time>2026-03-28T14:13:09.999Z</time></trkpt><trkpt lat="44.6278268297213" lon="10.17657391275266"><ele>394.00000000000006</ele><time>2026-03-28T14:13:11.999Z</time></trkpt><trkpt lat="44.627835034977636" lon="10.176434104256181"><ele>394.0</ele><time>2026-03-28T14:13:13.998Z</time></trkpt><trkpt lat="44.62789647424527" lon="10.176297924042052"><ele>391.33333333333337</ele><time>2026-03-28T14:13:15.998Z</time></trkpt><trkpt lat="44.6279470529767" lon="10.176243569799201"><ele>388.6666666666667</ele><time>2026-03-28T14:13:16.998Z</time></trkpt><trkpt lat="44.627999423375314" lon="10.176180510602267"><ele>386.0</ele><time>2026-03-28T14:13:17.998Z</time></trkpt><trkpt lat="44.62805552402026" lon="10.17609320296648"><ele>383.33333333333337</ele><time>2026-03-28T14:13:18.998Z</time></trkpt><trkpt lat="44.62811367337755" lon="10.176014093587762"><ele>380.6666666666667</ele><time>2026-03-28T14:13:19.998Z</time></trkpt><trkpt lat="44.628171162804655" lon="10.175937732506636"><ele>378.0</ele><time>2026-03-28T14:13:20.998Z</time></trkpt><trkpt lat="44.62822432672824" lon="10.175859672592093"><ele>378.0</ele><time>2026-03-28T14:13:21.998Z</time></trkpt><trkpt lat="44.62828406163656" lon="10.175796605415712"><ele>378.0</ele><time>2026-03-28T14:13:22.998Z</time></trkpt><trkpt lat="44.62835797354774" lon="10.175745122149364"><ele>378.0</ele><time>2026-03-28T14:13:23.998Z</time></trkpt><trkpt lat="44.62843019458028" lon="10.175689630061973"><ele>378.0</ele><time>2026-03-28T14:13:24.998Z</time></trkpt><trkpt lat="44.62850016774278" lon="10.175620765354104"><ele>378.0</ele><time>2026-03-28T14:13:25.998Z</time></trkpt><trkpt lat="44.62855232339313" lon="10.17553372959811"><ele>378.0</ele><time>2026-03-28T14:13:26.998Z</time></trkpt><trkpt lat="44.62860172687056" lon="10.17545242939377"><ele>376.1666666666667</ele><time>2026-03-28T14:13:27.998Z</time></trkpt><trkpt lat="44.62865523801053" lon="10.175379294568597"><ele>374.3333333333333</ele><time>2026-03-28T14:13:28.998Z</time></trkpt><trkpt lat="44.62871975841559" lon="10.175317841322578"><ele>372.5</ele><time>2026-03-28T14:13:29.998Z</time></trkpt><trkpt lat="44.6287912218819" lon="10.175263832340713"><ele>370.66666666666663</ele><time>2026-03-28T14:13:30.998Z</time></trkpt><trkpt lat="44.62886096012781" lon="10.175200620559554"><ele>368.8333333333333</ele><time>2026-03-28T14:13:31.998Z</time></trkpt><trkpt lat="44.62892058090898" lon="10.175117749928956"><ele>367.0</ele><time>2026-03-28T14:13:32.998Z</time></trkpt><trkpt lat="44.628972102069106" lon="10.175031070678825"><ele>367.0</ele><time>2026-03-28T14:13:33.998Z</time></trkpt><trkpt lat="44.62901431838222" lon="10.17494233327877"><ele>367.0</ele><time>2026-03-28T14:13:34.998Z</time></trkpt><trkpt lat="44.629075231704576" lon="10.174879445192994"><ele>367.0</ele><time>2026-03-28T14:13:35.998Z</time></trkpt><trkpt lat="44.62912705710701" lon="10.17481063631672"><ele>367.0</ele><time>2026-03-28T14:13:36.998Z</time></trkpt><trkpt lat="44.629184448331536" lon="10.174746742612298"><ele>367.0</ele><time>2026-03-28T14:13:37.998Z</time></trkpt><trkpt lat="44.62924651394902" lon="10.17467986263108"><ele>367.0</ele><time>2026-03-28T14:13:38.998Z</time></trkpt><trkpt lat="44.62932270847079" lon="10.174634517912377"><ele>365.16666666666663</ele><time>2026-03-28T14:13:39.998Z</time></trkpt><trkpt lat="44.629398411877624" lon="10.174583826177242"><ele>363.3333333333333</ele><time>2026-03-28T14:13:40.998Z</time></trkpt><trkpt lat="44.62946848718365" lon="10.174522313368065"><ele>361.5</ele><time>2026-03-28T14:13:41.998Z</time></trkpt><trkpt lat="44.62953513484979" lon="10.174448708996547"><ele>359.6666666666667</ele><time>2026-03-28T14:13:42.998Z</time></trkpt><trkpt lat="44.62960242490037" lon="10.174369824827554"><ele>357.83333333333337</ele><time>2026-03-28T14:13:43.998Z</time></trkpt><trkpt lat="44.629666802274485" lon="10.174293020363011"><ele>356.0</ele><time>2026-03-28T14:13:44.998Z</time></trkpt><trkpt lat="44.629734783784514" lon="10.174217366690462"><ele>356.0</ele><time>2026-03-28T14:13:45.998Z</time></trkpt><trkpt lat="44.62980541985571" lon="10.174137253927416"><ele>356.0</ele><time>2026-03-28T14:13:47Z</time></trkpt><trkpt lat="44.62986918846575" lon="10.174043016891964"><ele>356.0</ele><time>2026-03-28T14:13:48Z</time></trkpt><trkpt lat="44.629924982366255" lon="10.173938605888786"><ele>356.0</ele><time>2026-03-28T14:13:49Z</time></trkpt><trkpt lat="44.629977518485134" lon="10.173831157287758"><ele>356.0</ele><time>2026-03-28T14:13:50Z</time></trkpt><trkpt lat="44.63002964809403" lon="10.1737238401009"><ele>352.83333333333337</ele><time>2026-03-28T14:13:51Z</time></trkpt><trkpt lat="44.63007874432738" lon="10.173621085652444"><ele>349.6666666666667</ele><time>2026-03-28T14:13:52Z</time></trkpt><trkpt lat="44.63011988392499" lon="10.173531727463502"><ele>346.5</ele><time>2026-03-28T14:13:53Z</time></trkpt><trkpt lat="44.630170593721665" lon="10.173454966055996"><ele>343.3333333333333</ele><time>2026-03-28T14:13:54Z</time></trkpt><trkpt lat="44.630248103521275" lon="10.173410406145585"><ele>340.16666666666663</ele><time>2026-03-28T14:13:55Z</time></trkpt><trkpt lat="44.6303612819153" lon="10.173412309967876"><ele>337.0</ele><time>2026-03-28T14:13:56Z</time></trkpt><trkpt lat="44.63034943862485" lon="10.173278054789904"><ele>337.0</ele><time>2026-03-28T14:13:57Z</time></trkpt><trkpt lat="44.63041525583194" lon="10.173238128525803"><ele>337.0</ele><time>2026-03-28T14:13:58Z</time></trkpt><trkpt lat="44.630492086042935" lon="10.173170968368876"><ele>337.0</ele><time>2026-03-28T14:13:59Z</time></trkpt><trkpt lat="44.63057393352693" lon="10.173086954371286"><ele>337.0</ele><time>2026-03-28T14:14:00Z</time></trkpt><trkpt lat="44.630643216647734" lon="10.172994749548385"><ele>337.0</ele><time>2026-03-28T14:14:01Z</time></trkpt><trkpt lat="44.63071603962047" lon="10.172917640764526"><ele>334.16666666666663</ele><time>2026-03-28T14:14:02Z</time></trkpt><trkpt lat="44.63078424419833" lon="10.172829842670977"><ele>331.3333333333333</ele><time>2026-03-28T14:14:03Z</time></trkpt><trkpt lat="44.63084541475938" lon="10.172744868996142"><ele>328.5</ele><time>2026-03-28T14:14:04Z</time></trkpt><trkpt lat="44.630902455761884" lon="10.172672302358222"><ele>325.6666666666667</ele><time>2026-03-28T14:14:05Z</time></trkpt><trkpt lat="44.63095292838735" lon="10.172604815072116"><ele>322.83333333333337</ele><time>2026-03-28T14:14:06Z</time></trkpt><trkpt lat="44.630996781657664" lon="10.172535558515928"><ele>320.0</ele><time>2026-03-28T14:14:07Z</time></trkpt><trkpt lat="44.63105735476833" lon="10.172400479183693"><ele>319.6</ele><time>2026-03-28T14:14:09Z</time></trkpt><trkpt lat="44.63109323422501" lon="10.172301554012336"><ele>319.2</ele><time>2026-03-28T14:14:11Z</time></trkpt><trkpt lat="44.63122724464011" lon="10.172250893989437"><ele>318.8</ele><time>2026-03-28T14:14:14Z</time></trkpt><trkpt lat="44.63131117664252" lon="10.17225966855273"><ele>318.4</ele><time>2026-03-28T14:14:15Z</time></trkpt><trkpt lat="44.63140632351746" lon="10.172252970769737"><ele>318.0</ele><time>2026-03-28T14:14:16Z</time></trkpt><trkpt lat="44.63149075044862" lon="10.172235976613909"><ele>316.8</ele><time>2026-03-28T14:14:17Z</time></trkpt><trkpt lat="44.63159041649678" lon="10.172232108590405"><ele>315.6</ele><time>2026-03-28T14:14:18Z</time></trkpt><trkpt lat="44.631695479477315" lon="10.172234472623893"><ele>314.4</ele><time>2026-03-28T14:14:19Z</time></trkpt><trkpt lat="44.631812143535846" lon="10.172217123943502"><ele>313.2</ele><time>2026-03-28T14:14:20Z</time></trkpt><trkpt lat="44.63191728571939" lon="10.172199854799983"><ele>312.0</ele><time>2026-03-28T14:14:21Z</time></trkpt><trkpt lat="44.63202375441347" lon="10.172185228661002"><ele>312.0</ele><time>2026-03-28T14:14:22Z</time></trkpt><trkpt lat="44.63212844496279" lon="10.172151133235442"><ele>312.0</ele><time>2026-03-28T14:14:23Z</time></trkpt><trkpt lat="44.63222357282797" lon="10.172099758554271"><ele>312.0</ele><time>2026-03-28T14:14:24Z</time></trkpt><trkpt lat="44.632310982786905" lon="10.17202005484133"><ele>312.0</ele><time>2026-03-28T14:14:25Z</time></trkpt><trkpt lat="44.63240439139659" lon="10.17193601303098"><ele>312.0</ele><time>2026-03-28T14:14:26Z</time></trkpt><trkpt lat="44.63249770536547" lon="10.171848888734106"><ele>312.0</ele><time>2026-03-28T14:14:27Z</time></trkpt><trkpt lat="44.63259247773122" lon="10.171769315889511"><ele>312.0</ele><time>2026-03-28T14:14:28Z</time></trkpt><trkpt lat="44.63268306707788" lon="10.171708033191166"><ele>312.0</ele><time>2026-03-28T14:14:29Z</time></trkpt><trkpt lat="44.632772927522744" lon="10.171663564901287"><ele>312.0</ele><time>2026-03-28T14:14:30Z</time></trkpt><trkpt lat="44.63287055875699" lon="10.171624243213534"><ele>312.0</ele><time>2026-03-28T14:14:31Z</time></trkpt><trkpt lat="44.632974454888824" lon="10.171592522630837"><ele>312.2</ele><time>2026-03-28T14:14:32Z</time></trkpt><trkpt lat="44.63307900910196" lon="10.171587219566657"><ele>312.4</ele><time>2026-03-28T14:14:33Z</time></trkpt><trkpt lat="44.63318224280983" lon="10.171605068099364"><ele>312.6</ele><time>2026-03-28T14:14:34Z</time></trkpt><trkpt lat="44.633287240655626" lon="10.171651647767735"><ele>312.8</ele><time>2026-03-28T14:14:34.999Z</time></trkpt><trkpt lat="44.63340109233005" lon="10.171709859854571"><ele>313.0</ele><time>2026-03-28T14:14:35.999Z</time></trkpt><trkpt lat="44.63351317355579" lon="10.171774494146456"><ele>313.0</ele><time>2026-03-28T14:14:36.999Z</time></trkpt><trkpt lat="44.63362105344777" lon="10.17183880132537"><ele>313.0</ele><time>2026-03-28T14:14:37.999Z</time></trkpt><trkpt lat="44.63372734297128" lon="10.171893325275056"><ele>313.0</ele><time>2026-03-28T14:14:38.999Z</time></trkpt><trkpt lat="44.63383610032947" lon="10.171938143903281"><ele>313.0</ele><time>2026-03-28T14:14:39.999Z</time></trkpt><trkpt lat="44.63394823232185" lon="10.17197525851829"><ele>311.6</ele><time>2026-03-28T14:14:40.999Z</time></trkpt><trkpt lat="44.634057594850205" lon="10.172011093802572"><ele>310.20000000000005</ele><time>2026-03-28T14:14:41.999Z</time></trkpt><trkpt lat="44.63416325186763" lon="10.172047970348517"><ele>308.8</ele><time>2026-03-28T14:14:42.999Z</time></trkpt><trkpt lat="44.63426645975089" lon="10.17208599255098"><ele>307.40000000000003</ele><time>2026-03-28T14:14:43.999Z</time></trkpt><trkpt lat="44.63436817779192" lon="10.172120291410655"><ele>306.0</ele><time>2026-03-28T14:14:44.999Z</time></trkpt><trkpt lat="44.634463645501285" lon="10.17215348795098"><ele>305.6</ele><time>2026-03-28T14:14:45.999Z</time></trkpt><trkpt lat="44.63454721746686" lon="10.172187305872974"><ele>305.20000000000005</ele><time>2026-03-28T14:14:46.999Z</time></trkpt><trkpt lat="44.634627782034684" lon="10.172223143624025"><ele>304.79999999999995</ele><time>2026-03-28T14:14:47.999Z</time></trkpt><trkpt lat="44.634709406011375" lon="10.172271625735544"><ele>304.4</ele><time>2026-03-28T14:14:48.999Z</time></trkpt><trkpt lat="44.63479628449382" lon="10.172330105080816"><ele>304.0</ele><time>2026-03-28T14:14:49.999Z</time></trkpt><trkpt lat="44.634886100942566" lon="10.172401859878951"><ele>305.0</ele><time>2026-03-28T14:14:50.999Z</time></trkpt><trkpt lat="44.634978668263045" lon="10.172486443388022"><ele>306.0</ele><time>2026-03-28T14:14:51.999Z</time></trkpt><trkpt lat="44.63507026663855" lon="10.172578914139438"><ele>307.0</ele><time>2026-03-28T14:14:52.999Z</time></trkpt><trkpt lat="44.63516136241562" lon="10.172687231049329"><ele>308.0</ele><time>2026-03-28T14:14:53.999Z</time></trkpt><trkpt lat="44.63525023205571" lon="10.172803162081093"><ele>306.75</ele><time>2026-03-28T14:14:54.999Z</time></trkpt><trkpt lat="44.63534126158461" lon="10.172918356101869"><ele>305.5</ele><time>2026-03-28T14:14:55.999Z</time></trkpt><trkpt lat="44.63543236744755" lon="10.173029984447243"><ele>304.25</ele><time>2026-03-28T14:14:56.999Z</time></trkpt><trkpt lat="44.63552681003507" lon="10.173139358340077"><ele>303.0</ele><time>2026-03-28T14:14:57.999Z</time></trkpt><trkpt lat="44.6356204612505" lon="10.173247970725582"><ele>303.0</ele><time>2026-03-28T14:14:58.999Z</time></trkpt><trkpt lat="44.63570466116433" lon="10.173349862829163"><ele>303.0</ele><time>2026-03-28T14:14:59.999Z</time></trkpt><trkpt lat="44.63577734012664" lon="10.173438661330014"><ele>303.0</ele><time>2026-03-28T14:15:00.999Z</time></trkpt><trkpt lat="44.6358555444587" lon="10.17353048220813"><ele>303.0</ele><time>2026-03-28T14:15:01.999Z</time></trkpt><trkpt lat="44.63594776706749" lon="10.173638239081871"><ele>303.0</ele><time>2026-03-28T14:15:02.999Z</time></trkpt><trkpt lat="44.63603817998766" lon="10.17374242686352"><ele>303.0</ele><time>2026-03-28T14:15:03.999Z</time></trkpt><trkpt lat="44.636126950779826" lon="10.173838450387233"><ele>303.0</ele><time>2026-03-28T14:15:04.999Z</time></trkpt><trkpt lat="44.63621846014504" lon="10.173944985113643"><ele>303.0</ele><time>2026-03-28T14:15:05.999Z</time></trkpt><trkpt lat="44.636311090143124" lon="10.174062598531112"><ele>303.0</ele><time>2026-03-28T14:15:06.999Z</time></trkpt><trkpt lat="44.63640579123447" lon="10.174183879161486"><ele>302.5</ele><time>2026-03-28T14:15:07.999Z</time></trkpt><trkpt lat="44.63650284934652" lon="10.174304393699927"><ele>302.0</ele><time>2026-03-28T14:15:08.999Z</time></trkpt><trkpt lat="44.636601889988185" lon="10.174429751507349"><ele>301.5</ele><time>2026-03-28T14:15:09.999Z</time></trkpt><trkpt lat="44.63670594093088" lon="10.174558613157139"><ele>301.0</ele><time>2026-03-28T14:15:10.999Z</time></trkpt><trkpt lat="44.63681418855732" lon="10.17468117572323"><ele>301.0</ele><time>2026-03-28T14:15:11.999Z</time></trkpt><trkpt lat="44.63691733471834" lon="10.174799335957934"><ele>301.0</ele><time>2026-03-28T14:15:12.999Z</time></trkpt><trkpt lat="44.637017571612965" lon="10.174916263073056"><ele>301.0</ele><time>2026-03-28T14:15:13.999Z</time></trkpt><trkpt lat="44.63712010308234" lon="10.175034907329547"><ele>301.0</ele><time>2026-03-28T14:15:14.999Z</time></trkpt><trkpt lat="44.63722357577825" lon="10.175152617800153"><ele>300.5</ele><time>2026-03-28T14:15:15.999Z</time></trkpt><trkpt lat="44.637329492421514" lon="10.175283414278512"><ele>300.0</ele><time>2026-03-28T14:15:16.998Z</time></trkpt><trkpt lat="44.63744582486251" lon="10.175416073560662"><ele>299.5</ele><time>2026-03-28T14:15:17.998Z</time></trkpt><trkpt lat="44.63754587910527" lon="10.175537358745068"><ele>299.0</ele><time>2026-03-28T14:15:18.998Z</time></trkpt><trkpt lat="44.63764716234214" lon="10.175659670713504"><ele>298.75</ele><time>2026-03-28T14:15:19.998Z</time></trkpt><trkpt lat="44.63774818957879" lon="10.17579435466662"><ele>298.5</ele><time>2026-03-28T14:15:20.998Z</time></trkpt><trkpt lat="44.637855357441886" lon="10.175931201353938"><ele>298.25</ele><time>2026-03-28T14:15:21.998Z</time></trkpt><trkpt lat="44.637975706868005" lon="10.176064994292563"><ele>298.0</ele><time>2026-03-28T14:15:22.998Z</time></trkpt><trkpt lat="44.638091456850105" lon="10.176200424394382"><ele>297.0</ele><time>2026-03-28T14:15:23.998Z</time></trkpt><trkpt lat="44.638209681482884" lon="10.176347055862447"><ele>296.0</ele><time>2026-03-28T14:15:24.998Z</time></trkpt><trkpt lat="44.638338220759714" lon="10.176497657764699"><ele>295.0</ele><time>2026-03-28T14:15:25.998Z</time></trkpt><trkpt lat="44.63846675271373" lon="10.176649523402874"><ele>295.0</ele><time>2026-03-28T14:15:26.998Z</time></trkpt><trkpt lat="44.63859107970816" lon="10.17679948044495"><ele>295.0</ele><time>2026-03-28T14:15:27.998Z</time></trkpt><trkpt lat="44.638708072588926" lon="10.17694176278868"><ele>295.0</ele><time>2026-03-28T14:15:28.998Z</time></trkpt><trkpt lat="44.638833805225865" lon="10.177090148771825"><ele>294.66666666666663</ele><time>2026-03-28T14:15:29.998Z</time></trkpt><trkpt lat="44.638960366068936" lon="10.177240345681394"><ele>294.3333333333333</ele><time>2026-03-28T14:15:30.998Z</time></trkpt><trkpt lat="44.63908764694172" lon="10.177399638815656"><ele>294.0</ele><time>2026-03-28T14:15:31.998Z</time></trkpt><trkpt lat="44.63921372829117" lon="10.177555638707844"><ele>294.0</ele><time>2026-03-28T14:15:32.998Z</time></trkpt><trkpt lat="44.63934203493159" lon="10.177709807210114"><ele>294.0</ele><time>2026-03-28T14:15:33.998Z</time></trkpt><trkpt lat="44.63946562797485" lon="10.177854646004818"><ele>294.0</ele><time>2026-03-28T14:15:34.998Z</time></trkpt><trkpt lat="44.63958348498172" lon="10.177994820290442"><ele>293.6666666666667</ele><time>2026-03-28T14:15:35.998Z</time></trkpt><trkpt lat="44.63970474722456" lon="10.178140347583463"><ele>293.33333333333337</ele><time>2026-03-28T14:15:36.998Z</time></trkpt><trkpt lat="44.639834199572334" lon="10.178290082117645"><ele>293.0</ele><time>2026-03-28T14:15:37.998Z</time></trkpt><trkpt lat="44.63995963697558" lon="10.178446678503077"><ele>293.0</ele><time>2026-03-28T14:15:38.998Z</time></trkpt><trkpt lat="44.640069055724524" lon="10.178606680107452"><ele>293.0</ele><time>2026-03-28T14:15:39.998Z</time></trkpt><trkpt lat="44.640181211109585" lon="10.178758372211977"><ele>293.0</ele><time>2026-03-28T14:15:40.998Z</time></trkpt><trkpt lat="44.640291294659924" lon="10.178884408946706"><ele>293.0</ele><time>2026-03-28T14:15:41.998Z</time></trkpt><trkpt lat="44.64040119089778" lon="10.178990463291296"><ele>293.0</ele><time>2026-03-28T14:15:42.998Z</time></trkpt><trkpt lat="44.64051643284822" lon="10.179097679030916"><ele>293.0</ele><time>2026-03-28T14:15:43.998Z</time></trkpt><trkpt lat="44.64063681695409" lon="10.179210023850384"><ele>293.0</ele><time>2026-03-28T14:15:44.998Z</time></trkpt><trkpt lat="44.64075650859815" lon="10.179323339531434"><ele>293.0</ele><time>2026-03-28T14:15:45.998Z</time></trkpt><trkpt lat="44.640881682050825" lon="10.179434068990732"><ele>293.0</ele><time>2026-03-28T14:15:46.998Z</time></trkpt><trkpt lat="44.641012631136164" lon="10.179538753357951"><ele>293.0</ele><time>2026-03-28T14:15:47.998Z</time></trkpt><trkpt lat="44.64114350995853" lon="10.179650321454849"><ele>293.0</ele><time>2026-03-28T14:15:48.998Z</time></trkpt><trkpt lat="44.64126747765395" lon="10.179766661473176"><ele>293.0</ele><time>2026-03-28T14:15:49.998Z</time></trkpt><trkpt lat="44.64138117307215" lon="10.179872858889357"><ele>293.0</ele><time>2026-03-28T14:15:50.998Z</time></trkpt><trkpt lat="44.64149005928364" lon="10.17997371566315"><ele>293.0</ele><time>2026-03-28T14:15:51.998Z</time></trkpt><trkpt lat="44.64159785996634" lon="10.1800756746141"><ele>293.0</ele><time>2026-03-28T14:15:53Z</time></trkpt><trkpt lat="44.64170827461399" lon="10.180188322014123"><ele>293.0</ele><time>2026-03-28T14:15:54Z</time></trkpt><trkpt lat="44.6418197468825" lon="10.180301827459648"><ele>293.0</ele><time>2026-03-28T14:15:55Z</time></trkpt><trkpt lat="44.64193227929792" lon="10.180401302957675"><ele>293.0</ele><time>2026-03-28T14:15:56Z</time></trkpt><trkpt lat="44.64203784806954" lon="10.180504305418392"><ele>293.0</ele><time>2026-03-28T14:15:57Z</time></trkpt><trkpt lat="44.642148247102156" lon="10.180607330258669"><ele>293.0</ele><time>2026-03-28T14:15:58Z</time></trkpt><trkpt lat="44.64225976537531" lon="10.180704475367605"><ele>293.0</ele><time>2026-03-28T14:15:59Z</time></trkpt><trkpt lat="44.64236587243187" lon="10.180804409996236"><ele>293.0</ele><time>2026-03-28T14:16:00Z</time></trkpt><trkpt lat="44.642477482614254" lon="10.180908807383272"><ele>293.0</ele><time>2026-03-28T14:16:01Z</time></trkpt><trkpt lat="44.64259014012643" lon="10.181020461839946"><ele>293.0</ele><time>2026-03-28T14:16:02Z</time></trkpt><trkpt lat="44.642704939152914" lon="10.181125278095099"><ele>293.0</ele><time>2026-03-28T14:16:03Z</time></trkpt><trkpt lat="44.642821614056594" lon="10.181236513398867"><ele>293.0</ele><time>2026-03-28T14:16:04Z</time></trkpt><trkpt lat="44.64293530047351" lon="10.18134649794369"><ele>293.0</ele><time>2026-03-28T14:16:05Z</time></trkpt><trkpt lat="44.643050820319004" lon="10.18145529602251"><ele>293.0</ele><time>2026-03-28T14:16:06Z</time></trkpt><trkpt lat="44.64316542082546" lon="10.181563846697337"><ele>293.0</ele><time>2026-03-28T14:16:07Z</time></trkpt><trkpt lat="44.643277709633395" lon="10.181667934188514"><ele>293.0</ele><time>2026-03-28T14:16:08Z</time></trkpt><trkpt lat="44.64339016792103" lon="10.181772716729569"><ele>293.0</ele><time>2026-03-28T14:16:09Z</time></trkpt><trkpt lat="44.643498645309016" lon="10.181884064744832"><ele>293.0</ele><time>2026-03-28T14:16:10Z</time></trkpt><trkpt lat="44.64361090659978" lon="10.181995701123672"><ele>293.0</ele><time>2026-03-28T14:16:11Z</time></trkpt><trkpt lat="44.64372451207603" lon="10.182112046058084"><ele>293.0</ele><time>2026-03-28T14:16:12Z</time></trkpt><trkpt lat="44.64382949941036" lon="10.182249458668373"><ele>293.5</ele><time>2026-03-28T14:16:13Z</time></trkpt><trkpt lat="44.64392459437559" lon="10.182399613321161"><ele>294.0</ele><time>2026-03-28T14:16:14Z</time></trkpt><trkpt lat="44.64401693287851" lon="10.18253648387206"><ele>294.5</ele><time>2026-03-28T14:16:15Z</time></trkpt><trkpt lat="44.644118167653744" lon="10.18265982912676"><ele>295.0</ele><time>2026-03-28T14:16:16Z</time></trkpt><trkpt lat="44.64423191756322" lon="10.182766169293878"><ele>295.0</ele><time>2026-03-28T14:16:16.999Z</time></trkpt><trkpt lat="44.64435807201757" lon="10.182849427752913"><ele>295.0</ele><time>2026-03-28T14:16:17.999Z</time></trkpt><trkpt lat="44.644493067285" lon="10.182896638148252"><ele>295.0</ele><time>2026-03-28T14:16:18.999Z</time></trkpt><trkpt lat="44.644639416516874" lon="10.18292670543631"><ele>295.0</ele><time>2026-03-28T14:16:19.999Z</time></trkpt><trkpt lat="44.64478768715554" lon="10.182967404173898"><ele>296.3333333333333</ele><time>2026-03-28T14:16:20.999Z</time></trkpt><trkpt lat="44.64493592821769" lon="10.183034175606434"><ele>297.6666666666667</ele><time>2026-03-28T14:16:21.999Z</time></trkpt><trkpt lat="44.645078167386934" lon="10.18311894054969"><ele>299.0</ele><time>2026-03-28T14:16:22.999Z</time></trkpt><trkpt lat="44.645220779226946" lon="10.183211256833024"><ele>296.75</ele><time>2026-03-28T14:16:23.999Z</time></trkpt><trkpt lat="44.6453527642277" lon="10.183301127345603"><ele>294.5</ele><time>2026-03-28T14:16:24.999Z</time></trkpt><trkpt lat="44.64547499314305" lon="10.183388234999674"><ele>292.25</ele><time>2026-03-28T14:16:25.999Z</time></trkpt><trkpt lat="44.64559196984547" lon="10.18346423037613"><ele>290.0</ele><time>2026-03-28T14:16:26.999Z</time></trkpt><trkpt lat="44.64570963407463" lon="10.183530231796508"><ele>290.0</ele><time>2026-03-28T14:16:27.999Z</time></trkpt><trkpt lat="44.645825740934725" lon="10.183598327774106"><ele>290.0</ele><time>2026-03-28T14:16:28.999Z</time></trkpt><trkpt lat="44.64593823877015" lon="10.183679164216828"><ele>290.0</ele><time>2026-03-28T14:16:29.999Z</time></trkpt><trkpt lat="44.646048607513706" lon="10.183776997470726"><ele>290.0</ele><time>2026-03-28T14:16:30.999Z</time></trkpt><trkpt lat="44.64614835487394" lon="10.183893476818074"><ele>289.75</ele><time>2026-03-28T14:16:31.999Z</time></trkpt><trkpt lat="44.646247737927425" lon="10.184014711858879"><ele>289.5</ele><time>2026-03-28T14:16:32.999Z</time></trkpt><trkpt lat="44.646348276724176" lon="10.184123915885152"><ele>289.25</ele><time>2026-03-28T14:16:33.999Z</time></trkpt><trkpt lat="44.64644987025017" lon="10.184210780916892"><ele>289.0</ele><time>2026-03-28T14:16:34.999Z</time></trkpt><trkpt lat="44.64655558166881" lon="10.184275775741307"><ele>289.0</ele><time>2026-03-28T14:16:35.999Z</time></trkpt><trkpt lat="44.6466732545869" lon="10.184311832047149"><ele>289.0</ele><time>2026-03-28T14:16:36.999Z</time></trkpt><trkpt lat="44.646797323426924" lon="10.184325032682368"><ele>289.0</ele><time>2026-03-28T14:16:37.999Z</time></trkpt><trkpt lat="44.64692891275122" lon="10.1843169909679"><ele>289.0</ele><time>2026-03-28T14:16:38.999Z</time></trkpt><trkpt lat="44.647064439780735" lon="10.184305206844328"><ele>288.75</ele><time>2026-03-28T14:16:39.999Z</time></trkpt><trkpt lat="44.64719490075044" lon="10.184292062438995"><ele>288.5</ele><time>2026-03-28T14:16:40.999Z</time></trkpt><trkpt lat="44.64732504646133" lon="10.184282979867561"><ele>288.25</ele><time>2026-03-28T14:16:41.999Z</time></trkpt><trkpt lat="44.64745473919711" lon="10.18428021545459"><ele>288.0</ele><time>2026-03-28T14:16:42.999Z</time></trkpt><trkpt lat="44.64758164844755" lon="10.18427392742434"><ele>288.0</ele><time>2026-03-28T14:16:43.999Z</time></trkpt><trkpt lat="44.64770602812621" lon="10.184258404054038"><ele>288.0</ele><time>2026-03-28T14:16:44.999Z</time></trkpt><trkpt lat="44.64783287159599" lon="10.184242988071713"><ele>288.0</ele><time>2026-03-28T14:16:45.999Z</time></trkpt><trkpt lat="44.64796516738801" lon="10.184230921804474"><ele>288.0</ele><time>2026-03-28T14:16:46.998Z</time></trkpt><trkpt lat="44.64809974566614" lon="10.184219100653232"><ele>287.75</ele><time>2026-03-28T14:16:47.998Z</time></trkpt><trkpt lat="44.64823492757574" lon="10.184206437594787"><ele>287.5</ele><time>2026-03-28T14:16:48.998Z</time></trkpt><trkpt lat="44.6483695838024" lon="10.184190904238237"><ele>287.25</ele><time>2026-03-28T14:16:49.998Z</time></trkpt><trkpt lat="44.64850435314609" lon="10.184177922205592"><ele>287.0</ele><time>2026-03-28T14:16:50.998Z</time></trkpt><trkpt lat="44.64863969772378" lon="10.184172871999355"><ele>286.5</ele><time>2026-03-28T14:16:51.998Z</time></trkpt><trkpt lat="44.648777227515694" lon="10.184175136140968"><ele>286.0</ele><time>2026-03-28T14:16:52.998Z</time></trkpt><trkpt lat="44.648915323040804" lon="10.184191836346939"><ele>285.5</ele><time>2026-03-28T14:16:53.998Z</time></trkpt><trkpt lat="44.6490541697132" lon="10.184230398793135"><ele>285.0</ele><time>2026-03-28T14:16:54.998Z</time></trkpt><trkpt lat="44.64919532957261" lon="10.184277371377442"><ele>285.0</ele><time>2026-03-28T14:16:55.998Z</time></trkpt><trkpt lat="44.64933809070096" lon="10.184339229842626"><ele>285.0</ele><time>2026-03-28T14:16:56.998Z</time></trkpt><trkpt lat="44.649478400676365" lon="10.184415545404931"><ele>285.0</ele><time>2026-03-28T14:16:57.998Z</time></trkpt><trkpt lat="44.64961225193859" lon="10.184495013878903"><ele>285.0</ele><time>2026-03-28T14:16:58.998Z</time></trkpt><trkpt lat="44.64974869194802" lon="10.184574609576423"><ele>283.3333333333333</ele><time>2026-03-28T14:16:59.998Z</time></trkpt><trkpt lat="44.649886390915064" lon="10.184654744232969"><ele>281.66666666666663</ele><time>2026-03-28T14:17:00.998Z</time></trkpt><trkpt lat="44.65002479784516" lon="10.18473729276962"><ele>280.0</ele><time>2026-03-28T14:17:01.998Z</time></trkpt><trkpt lat="44.65016532003855" lon="10.184817437275349"><ele>279.66666666666663</ele><time>2026-03-28T14:17:02.998Z</time></trkpt><trkpt lat="44.65030634820926" lon="10.184898069540251"><ele>279.3333333333333</ele><time>2026-03-28T14:17:03.998Z</time></trkpt><trkpt lat="44.650448307682765" lon="10.184986581422065"><ele>279.0</ele><time>2026-03-28T14:17:04.998Z</time></trkpt><trkpt lat="44.65059359798913" lon="10.185073131177475"><ele>279.0</ele><time>2026-03-28T14:17:05.998Z</time></trkpt><trkpt lat="44.650741413288394" lon="10.185159889210944"><ele>279.0</ele><time>2026-03-28T14:17:06.998Z</time></trkpt><trkpt lat="44.65089611426167" lon="10.185252439150874"><ele>279.0</ele><time>2026-03-28T14:17:07.998Z</time></trkpt><trkpt lat="44.65105551763589" lon="10.185344626588897"><ele>277.0</ele><time>2026-03-28T14:17:08.998Z</time></trkpt><trkpt lat="44.65121566140672" lon="10.18543699271427"><ele>275.0</ele><time>2026-03-28T14:17:09.998Z</time></trkpt><trkpt lat="44.65137804479598" lon="10.185533712840018"><ele>273.0</ele><time>2026-03-28T14:17:10.998Z</time></trkpt><trkpt lat="44.651540336279176" lon="10.185627487826064"><ele>273.0</ele><time>2026-03-28T14:17:11.998Z</time></trkpt><trkpt lat="44.65170208862259" lon="10.18572016771572"><ele>273.0</ele><time>2026-03-28T14:17:12.998Z</time></trkpt><trkpt lat="44.651862215918335" lon="10.185815278235351"><ele>273.0</ele><time>2026-03-28T14:17:13.998Z</time></trkpt><trkpt lat="44.65201579342374" lon="10.185912962655625"><ele>273.0</ele><time>2026-03-28T14:17:14.998Z</time></trkpt><trkpt lat="44.652159461423814" lon="10.186005661998793"><ele>273.0</ele><time>2026-03-28T14:17:15.998Z</time></trkpt><trkpt lat="44.65230278726364" lon="10.186104030622223"><ele>273.0</ele><time>2026-03-28T14:17:16.998Z</time></trkpt><trkpt lat="44.65244006824532" lon="10.186213345823605"><ele>273.0</ele><time>2026-03-28T14:17:17.998Z</time></trkpt><trkpt lat="44.65257280683756" lon="10.186351211106565"><ele>273.0</ele><time>2026-03-28T14:17:18.998Z</time></trkpt><trkpt lat="44.65270282687659" lon="10.186492494887773"><ele>273.0</ele><time>2026-03-28T14:17:19.998Z</time></trkpt><trkpt lat="44.652839827317045" lon="10.186635286441552"><ele>272.3333333333333</ele><time>2026-03-28T14:17:20.998Z</time></trkpt><trkpt lat="44.65297446831312" lon="10.186784749548094"><ele>271.66666666666663</ele><time>2026-03-28T14:17:21.998Z</time></trkpt><trkpt lat="44.65310692584718" lon="10.186926695639885"><ele>271.0</ele><time>2026-03-28T14:17:22.998Z</time></trkpt><trkpt lat="44.65323932198715" lon="10.187067472784136"><ele>271.0</ele><time>2026-03-28T14:17:23.998Z</time></trkpt><trkpt lat="44.65337234757141" lon="10.18721685644065"><ele>271.0</ele><time>2026-03-28T14:17:24.998Z</time></trkpt><trkpt lat="44.65351279389151" lon="10.187371002408117"><ele>271.0</ele><time>2026-03-28T14:17:25.998Z</time></trkpt><trkpt lat="44.65365056387306" lon="10.187521495755115"><ele>270.0</ele><time>2026-03-28T14:17:26.998Z</time></trkpt><trkpt lat="44.65379233875678" lon="10.187677240939179"><ele>269.0</ele><time>2026-03-28T14:17:27.998Z</time></trkpt><trkpt lat="44.65393925694084" lon="10.18783431316486"><ele>268.0</ele><time>2026-03-28T14:17:28.997Z</time></trkpt><trkpt lat="44.65408736471445" lon="10.18799501421689"><ele>268.0</ele><time>2026-03-28T14:17:29.997Z</time></trkpt><trkpt lat="44.654227007412864" lon="10.1881568665148"><ele>268.0</ele><time>2026-03-28T14:17:30.997Z</time></trkpt><trkpt lat="44.65437000711998" lon="10.188309853461867"><ele>268.0</ele><time>2026-03-28T14:17:31.997Z</time></trkpt><trkpt lat="44.65450951331415" lon="10.188466807976415"><ele>267.66666666666663</ele><time>2026-03-28T14:17:32.997Z</time></trkpt><trkpt lat="44.654645048941035" lon="10.188616474340703"><ele>267.3333333333333</ele><time>2026-03-28T14:17:33.997Z</time></trkpt><trkpt lat="44.654782322786666" lon="10.188766040714427"><ele>267.0</ele><time>2026-03-28T14:17:34.997Z</time></trkpt><trkpt lat="44.654925113687085" lon="10.188917470440828"><ele>267.0</ele><time>2026-03-28T14:17:35.997Z</time></trkpt><trkpt lat="44.65507082205154" lon="10.189073743973518"><ele>267.0</ele><time>2026-03-28T14:17:36.997Z</time></trkpt><trkpt lat="44.65521921423796" lon="10.189231757893225"><ele>267.0</ele><time>2026-03-28T14:17:37.997Z</time></trkpt><trkpt lat="44.65537404625604" lon="10.189381674768303"><ele>267.0</ele><time>2026-03-28T14:17:38.997Z</time></trkpt><trkpt lat="44.65553192519131" lon="10.189529981421524"><ele>267.0</ele><time>2026-03-28T14:17:39.997Z</time></trkpt><trkpt lat="44.65568293806465" lon="10.189668346653667"><ele>267.0</ele><time>2026-03-28T14:17:40.997Z</time></trkpt><trkpt lat="44.65583749524008" lon="10.189812925231568"><ele>267.6666666666667</ele><time>2026-03-28T14:17:41.997Z</time></trkpt><trkpt lat="44.655989406904595" lon="10.1899538234066"><ele>268.33333333333337</ele><time>2026-03-28T14:17:42.997Z</time></trkpt><trkpt lat="44.656145957134974" lon="10.190098470208657"><ele>269.0</ele><time>2026-03-28T14:17:43.997Z</time></trkpt><trkpt lat="44.65629699652203" lon="10.190241472912097"><ele>267.6666666666667</ele><time>2026-03-28T14:17:44.997Z</time></trkpt><trkpt lat="44.65644764266503" lon="10.190377940036601"><ele>266.3333333333333</ele><time>2026-03-28T14:17:45.997Z</time></trkpt><trkpt lat="44.65659974824497" lon="10.190510779596107"><ele>265.0</ele><time>2026-03-28T14:17:46.997Z</time></trkpt><trkpt lat="44.65674192203931" lon="10.19065137878134"><ele>265.3333333333333</ele><time>2026-03-28T14:17:47.997Z</time></trkpt><trkpt lat="44.65688286108283" lon="10.190792888613265"><ele>265.6666666666667</ele><time>2026-03-28T14:17:48.997Z</time></trkpt><trkpt lat="44.65701735660105" lon="10.19093550239233"><ele>266.0</ele><time>2026-03-28T14:17:49.997Z</time></trkpt><trkpt lat="44.657142702754435" lon="10.191085688375013"><ele>266.0</ele><time>2026-03-28T14:17:50.997Z</time></trkpt><trkpt lat="44.657253042497295" lon="10.19124337651683"><ele>266.0</ele><time>2026-03-28T14:17:51.997Z</time></trkpt><trkpt lat="44.65735377687853" lon="10.191410216487531"><ele>266.0</ele><time>2026-03-28T14:17:52.997Z</time></trkpt><trkpt lat="44.65744060454271" lon="10.191588008380261"><ele>266.75</ele><time>2026-03-28T14:17:53.997Z</time></trkpt><trkpt lat="44.657530098456405" lon="10.191769485778769"><ele>267.5</ele><time>2026-03-28T14:17:54.997Z</time></trkpt><trkpt lat="44.657604429556514" lon="10.191935684265266"><ele>268.25</ele><time>2026-03-28T14:17:55.997Z</time></trkpt><trkpt lat="44.65767693366864" lon="10.192094496742309"><ele>269.0</ele><time>2026-03-28T14:17:56.997Z</time></trkpt><trkpt lat="44.6577487749049" lon="10.192244791962285"><ele>269.25</ele><time>2026-03-28T14:17:58Z</time></trkpt><trkpt lat="44.657816810970544" lon="10.192383565913742"><ele>269.5</ele><time>2026-03-28T14:17:59Z</time></trkpt><trkpt lat="44.657883892632924" lon="10.192515792782032"><ele>269.75</ele><time>2026-03-28T14:18:00Z</time></trkpt><trkpt lat="44.65794573481833" lon="10.192652811807417"><ele>270.0</ele><time>2026-03-28T14:18:01Z</time></trkpt><trkpt lat="44.65800504235564" lon="10.192798413396023"><ele>270.0</ele><time>2026-03-28T14:18:02Z</time></trkpt><trkpt lat="44.65807248587258" lon="10.192946149585602"><ele>270.0</ele><time>2026-03-28T14:18:03Z</time></trkpt><trkpt lat="44.658127578291705" lon="10.193082621140046"><ele>270.0</ele><time>2026-03-28T14:18:04Z</time></trkpt><trkpt lat="44.658186192075696" lon="10.193208091539276"><ele>270.0</ele><time>2026-03-28T14:18:05Z</time></trkpt><trkpt lat="44.658240867748624" lon="10.193329942163555"><ele>270.0</ele><time>2026-03-28T14:18:06Z</time></trkpt><trkpt lat="44.658292615604445" lon="10.19344680838227"><ele>270.0</ele><time>2026-03-28T14:18:07Z</time></trkpt><trkpt lat="44.658344277641795" lon="10.1935602759532"><ele>270.0</ele><time>2026-03-28T14:18:08Z</time></trkpt><trkpt lat="44.65839935924865" lon="10.193682082957032"><ele>270.0</ele><time>2026-03-28T14:18:09Z</time></trkpt><trkpt lat="44.658462676829274" lon="10.193809098680545"><ele>270.0</ele><time>2026-03-28T14:18:10Z</time></trkpt><trkpt lat="44.658522997236005" lon="10.193940405425094"><ele>270.0</ele><time>2026-03-28T14:18:11Z</time></trkpt><trkpt lat="44.65858486149354" lon="10.194075123436605"><ele>269.25</ele><time>2026-03-28T14:18:12Z</time></trkpt><trkpt lat="44.658645938027306" lon="10.1942166563589"><ele>268.5</ele><time>2026-03-28T14:18:12.999Z</time></trkpt><trkpt lat="44.658708953594065" lon="10.194369453571431"><ele>267.75</ele><time>2026-03-28T14:18:13.999Z</time></trkpt><trkpt lat="44.65877728362889" lon="10.194523855596561"><ele>267.0</ele><time>2026-03-28T14:18:14.999Z</time></trkpt><trkpt lat="44.658848232438764" lon="10.194684603106401"><ele>267.0</ele><time>2026-03-28T14:18:15.999Z</time></trkpt><trkpt lat="44.65892093365849" lon="10.194847434909178"><ele>267.0</ele><time>2026-03-28T14:18:16.999Z</time></trkpt><trkpt lat="44.65899631244561" lon="10.19500859861307"><ele>267.0</ele><time>2026-03-28T14:18:17.999Z</time></trkpt><trkpt lat="44.65907127018848" lon="10.195174782420338"><ele>267.0</ele><time>2026-03-28T14:18:18.999Z</time></trkpt><trkpt lat="44.659143721235104" lon="10.19533306840874"><ele>267.0</ele><time>2026-03-28T14:18:19.999Z</time></trkpt><trkpt lat="44.65921622777207" lon="10.19548370649677"><ele>267.0</ele><time>2026-03-28T14:18:20.999Z</time></trkpt><trkpt lat="44.65928964657184" lon="10.195630355855771"><ele>267.0</ele><time>2026-03-28T14:18:21.999Z</time></trkpt><trkpt lat="44.65936925302306" lon="10.195779324865077"><ele>267.0</ele><time>2026-03-28T14:18:22.999Z</time></trkpt><trkpt lat="44.6594559638589" lon="10.195927711314255"><ele>266.5</ele><time>2026-03-28T14:18:23.999Z</time></trkpt><trkpt lat="44.6595496885129" lon="10.196069606293143"><ele>266.0</ele><time>2026-03-28T14:18:24.999Z</time></trkpt><trkpt lat="44.65965156903507" lon="10.196204773222608"><ele>265.5</ele><time>2026-03-28T14:18:25.999Z</time></trkpt><trkpt lat="44.65975511075815" lon="10.196332781283385"><ele>265.0</ele><time>2026-03-28T14:18:26.999Z</time></trkpt><trkpt lat="44.659860611929695" lon="10.196457494975952"><ele>265.25</ele><time>2026-03-28T14:18:27.999Z</time></trkpt><trkpt lat="44.65997025384455" lon="10.196577849480612"><ele>265.5</ele><time>2026-03-28T14:18:28.999Z</time></trkpt><trkpt lat="44.66008537827913" lon="10.196691997209898"><ele>265.75</ele><time>2026-03-28T14:18:29.999Z</time></trkpt><trkpt lat="44.660202909994155" lon="10.19680044149932"><ele>266.0</ele><time>2026-03-28T14:18:30.999Z</time></trkpt><trkpt lat="44.66031078512749" lon="10.196908108927369"><ele>265.6</ele><time>2026-03-28T14:18:31.999Z</time></trkpt><trkpt lat="44.66041172108523" lon="10.197016677366857"><ele>265.20000000000005</ele><time>2026-03-28T14:18:32.999Z</time></trkpt><trkpt lat="44.660506236491116" lon="10.197120036221275"><ele>264.79999999999995</ele><time>2026-03-28T14:18:33.999Z</time></trkpt><trkpt lat="44.66059333653822" lon="10.197210948434922"><ele>264.4</ele><time>2026-03-28T14:18:34.999Z</time></trkpt><trkpt lat="44.66066091898011" lon="10.197287741617478"><ele>264.0</ele><time>2026-03-28T14:18:35.999Z</time></trkpt><trkpt lat="44.6607144985164" lon="10.197338977130187"><ele>264.0</ele><time>2026-03-28T14:18:36.999Z</time></trkpt><trkpt lat="44.66074129915929" lon="10.197440160486753"><ele>264.0</ele><time>2026-03-28T14:18:39.999Z</time></trkpt></trkseg></trk></gpx>